<?xml version="1.0" encoding="UTF-8" standalone="no" ?>
<gpx xmlns="http://www.topografix.com/GPX/1/1" xmlns:xsi="http://www.w3.org/2001/XMLSchema-instance" xsi:schemaLocation="http://www.topografix.com/GPX/1/1 http://www.topografix.com/GPX/1/1/gpx.xsd" version="1.1" creator="VisuGPX - https://www.visugpx.com">
  <metadata>
    <name>Tracé actuel: 03 JUIN 2021 09:31</name>
    <desc><![CDATA[At the height of bloom for the trolles, miosotis, and others.  The narcissus were slightly over their prime.  Mme. Neige at Le Touyet was a surprise, generous hostess for us.  She provided comfortable seating for our picnic, and even a cup of coffee at the end.  Her garden was a creation to give old objects a second life.  She invites randonneurs to enjoy themselves and take a moment of rest.  She gave us a lovely gift.]]></desc>
  </metadata>
  <trk>
    <name><![CDATA[Tracé actuel: 03 JUIN 2021 09:31]]></name>
    <trkseg>
      <trkpt lat="43.87993" lon="6.69125">
        <ele>1079.22</ele>
        <time>2021-06-03T07:31:43Z</time>
      </trkpt>
      <trkpt lat="43.87993" lon="6.69124">
        <ele>1080.66</ele>
        <time>2021-06-03T07:31:46Z</time>
      </trkpt>
      <trkpt lat="43.87992" lon="6.69125">
        <ele>1080.18</ele>
        <time>2021-06-03T07:32:18Z</time>
      </trkpt>
      <trkpt lat="43.87993" lon="6.69126">
        <ele>1077.78</ele>
        <time>2021-06-03T07:32:21Z</time>
      </trkpt>
      <trkpt lat="43.87993" lon="6.69126">
        <ele>1080.66</ele>
        <time>2021-06-03T07:32:22Z</time>
      </trkpt>
      <trkpt lat="43.87993" lon="6.69126">
        <ele>1079.22</ele>
        <time>2021-06-03T07:32:23Z</time>
      </trkpt>
      <trkpt lat="43.87993" lon="6.69126">
        <ele>1082.1</ele>
        <time>2021-06-03T07:32:24Z</time>
      </trkpt>
      <trkpt lat="43.87992" lon="6.69127">
        <ele>1080.18</ele>
        <time>2021-06-03T07:32:25Z</time>
      </trkpt>
      <trkpt lat="43.87994" lon="6.69128">
        <ele>1080.66</ele>
        <time>2021-06-03T07:32:44Z</time>
      </trkpt>
      <trkpt lat="43.87996" lon="6.69122">
        <ele>1080.18</ele>
        <time>2021-06-03T07:33:04Z</time>
      </trkpt>
      <trkpt lat="43.87997" lon="6.6912">
        <ele>1083.06</ele>
        <time>2021-06-03T07:33:06Z</time>
      </trkpt>
      <trkpt lat="43.87997" lon="6.6912">
        <ele>1086.43</ele>
        <time>2021-06-03T07:33:07Z</time>
      </trkpt>
      <trkpt lat="43.87997" lon="6.69119">
        <ele>1090.75</ele>
        <time>2021-06-03T07:33:09Z</time>
      </trkpt>
      <trkpt lat="43.87996" lon="6.6912">
        <ele>1095.56</ele>
        <time>2021-06-03T07:33:11Z</time>
      </trkpt>
      <trkpt lat="43.87995" lon="6.69122">
        <ele>1100.37</ele>
        <time>2021-06-03T07:33:13Z</time>
      </trkpt>
      <trkpt lat="43.87995" lon="6.69123">
        <ele>1105.65</ele>
        <time>2021-06-03T07:33:15Z</time>
      </trkpt>
      <trkpt lat="43.87995" lon="6.69125">
        <ele>1110.46</ele>
        <time>2021-06-03T07:33:17Z</time>
      </trkpt>
      <trkpt lat="43.87994" lon="6.69125">
        <ele>1113.82</ele>
        <time>2021-06-03T07:33:19Z</time>
      </trkpt>
      <trkpt lat="43.87994" lon="6.69127">
        <ele>1118.63</ele>
        <time>2021-06-03T07:33:21Z</time>
      </trkpt>
      <trkpt lat="43.87993" lon="6.69126">
        <ele>1122.96</ele>
        <time>2021-06-03T07:33:23Z</time>
      </trkpt>
      <trkpt lat="43.87993" lon="6.69126">
        <ele>1126.8</ele>
        <time>2021-06-03T07:33:25Z</time>
      </trkpt>
      <trkpt lat="43.87993" lon="6.69127">
        <ele>1130.65</ele>
        <time>2021-06-03T07:33:27Z</time>
      </trkpt>
      <trkpt lat="43.87993" lon="6.69127">
        <ele>1134.01</ele>
        <time>2021-06-03T07:33:29Z</time>
      </trkpt>
      <trkpt lat="43.87993" lon="6.69127">
        <ele>1138.34</ele>
        <time>2021-06-03T07:33:32Z</time>
      </trkpt>
      <trkpt lat="43.87993" lon="6.69125">
        <ele>1143.14</ele>
        <time>2021-06-03T07:33:35Z</time>
      </trkpt>
      <trkpt lat="43.87993" lon="6.69125">
        <ele>1143.14</ele>
        <time>2021-06-03T07:33:36Z</time>
      </trkpt>
      <trkpt lat="43.87993" lon="6.69124">
        <ele>1145.55</ele>
        <time>2021-06-03T07:33:38Z</time>
      </trkpt>
      <trkpt lat="43.87993" lon="6.69124">
        <ele>1148.91</ele>
        <time>2021-06-03T07:33:41Z</time>
      </trkpt>
      <trkpt lat="43.87993" lon="6.69124">
        <ele>1152.28</ele>
        <time>2021-06-03T07:33:44Z</time>
      </trkpt>
      <trkpt lat="43.87993" lon="6.69125">
        <ele>1155.64</ele>
        <time>2021-06-03T07:33:48Z</time>
      </trkpt>
      <trkpt lat="43.87994" lon="6.69125">
        <ele>1157.56</ele>
        <time>2021-06-03T07:33:51Z</time>
      </trkpt>
      <trkpt lat="43.87994" lon="6.69125">
        <ele>1158.53</ele>
        <time>2021-06-03T07:33:53Z</time>
      </trkpt>
      <trkpt lat="43.87994" lon="6.69125">
        <ele>1159.49</ele>
        <time>2021-06-03T07:33:55Z</time>
      </trkpt>
      <trkpt lat="43.87994" lon="6.69123">
        <ele>1162.85</ele>
        <time>2021-06-03T07:34:00Z</time>
      </trkpt>
      <trkpt lat="43.87993" lon="6.69126">
        <ele>1166.7</ele>
        <time>2021-06-03T07:34:08Z</time>
      </trkpt>
      <trkpt lat="43.87993" lon="6.69127">
        <ele>1169.1</ele>
        <time>2021-06-03T07:34:13Z</time>
      </trkpt>
      <trkpt lat="43.87993" lon="6.69128">
        <ele>1171.98</ele>
        <time>2021-06-03T07:34:20Z</time>
      </trkpt>
      <trkpt lat="43.87993" lon="6.69128">
        <ele>1171.98</ele>
        <time>2021-06-03T07:34:21Z</time>
      </trkpt>
      <trkpt lat="43.87992" lon="6.69128">
        <ele>1175.35</ele>
        <time>2021-06-03T07:34:29Z</time>
      </trkpt>
      <trkpt lat="43.87993" lon="6.69129">
        <ele>1176.31</ele>
        <time>2021-06-03T07:34:32Z</time>
      </trkpt>
      <trkpt lat="43.87993" lon="6.69125">
        <ele>1179.67</ele>
        <time>2021-06-03T07:34:49Z</time>
      </trkpt>
      <trkpt lat="43.87992" lon="6.69125">
        <ele>1180.64</ele>
        <time>2021-06-03T07:35:13Z</time>
      </trkpt>
      <trkpt lat="43.87994" lon="6.69126">
        <ele>1180.64</ele>
        <time>2021-06-03T07:35:38Z</time>
      </trkpt>
      <trkpt lat="43.87995" lon="6.69126">
        <ele>1180.16</ele>
        <time>2021-06-03T07:35:56Z</time>
      </trkpt>
      <trkpt lat="43.87994" lon="6.69125">
        <ele>1180.16</ele>
        <time>2021-06-03T07:36:19Z</time>
      </trkpt>
      <trkpt lat="43.87997" lon="6.69124">
        <ele>1180.16</ele>
        <time>2021-06-03T07:36:32Z</time>
      </trkpt>
      <trkpt lat="43.87996" lon="6.69121">
        <ele>1180.64</ele>
        <time>2021-06-03T07:36:56Z</time>
      </trkpt>
      <trkpt lat="43.87997" lon="6.69124">
        <ele>1180.16</ele>
        <time>2021-06-03T07:37:16Z</time>
      </trkpt>
      <trkpt lat="43.87995" lon="6.69123">
        <ele>1180.16</ele>
        <time>2021-06-03T07:37:51Z</time>
      </trkpt>
      <trkpt lat="43.87998" lon="6.69123">
        <ele>1180.16</ele>
        <time>2021-06-03T07:38:10Z</time>
      </trkpt>
      <trkpt lat="43.88001" lon="6.69126">
        <ele>1180.16</ele>
        <time>2021-06-03T07:38:30Z</time>
      </trkpt>
      <trkpt lat="43.88009" lon="6.69128">
        <ele>1179.67</ele>
        <time>2021-06-03T07:38:42Z</time>
      </trkpt>
      <trkpt lat="43.8801" lon="6.69128">
        <ele>1179.67</ele>
        <time>2021-06-03T07:38:43Z</time>
      </trkpt>
      <trkpt lat="43.88017" lon="6.69119">
        <ele>1180.64</ele>
        <time>2021-06-03T07:38:57Z</time>
      </trkpt>
      <trkpt lat="43.88021" lon="6.69113">
        <ele>1179.19</ele>
        <time>2021-06-03T07:39:05Z</time>
      </trkpt>
      <trkpt lat="43.88028" lon="6.69104">
        <ele>1177.27</ele>
        <time>2021-06-03T07:39:17Z</time>
      </trkpt>
      <trkpt lat="43.88032" lon="6.691">
        <ele>1178.23</ele>
        <time>2021-06-03T07:39:23Z</time>
      </trkpt>
      <trkpt lat="43.88046" lon="6.69088">
        <ele>1177.75</ele>
        <time>2021-06-03T07:39:38Z</time>
      </trkpt>
      <trkpt lat="43.88052" lon="6.69081">
        <ele>1177.27</ele>
        <time>2021-06-03T07:39:51Z</time>
      </trkpt>
      <trkpt lat="43.88061" lon="6.69068">
        <ele>1178.23</ele>
        <time>2021-06-03T07:40:03Z</time>
      </trkpt>
      <trkpt lat="43.88062" lon="6.69067">
        <ele>1178.71</ele>
        <time>2021-06-03T07:40:04Z</time>
      </trkpt>
      <trkpt lat="43.88066" lon="6.6906">
        <ele>1178.71</ele>
        <time>2021-06-03T07:40:10Z</time>
      </trkpt>
      <trkpt lat="43.88073" lon="6.69049">
        <ele>1179.19</ele>
        <time>2021-06-03T07:40:23Z</time>
      </trkpt>
      <trkpt lat="43.88081" lon="6.69038">
        <ele>1178.23</ele>
        <time>2021-06-03T07:40:33Z</time>
      </trkpt>
      <trkpt lat="43.88086" lon="6.69033">
        <ele>1178.71</ele>
        <time>2021-06-03T07:40:40Z</time>
      </trkpt>
      <trkpt lat="43.8809" lon="6.69022">
        <ele>1179.67</ele>
        <time>2021-06-03T07:40:53Z</time>
      </trkpt>
      <trkpt lat="43.88098" lon="6.69011">
        <ele>1180.64</ele>
        <time>2021-06-03T07:41:05Z</time>
      </trkpt>
      <trkpt lat="43.88103" lon="6.69003">
        <ele>1181.6</ele>
        <time>2021-06-03T07:41:11Z</time>
      </trkpt>
      <trkpt lat="43.88104" lon="6.68999">
        <ele>1180.16</ele>
        <time>2021-06-03T07:41:14Z</time>
      </trkpt>
      <trkpt lat="43.88112" lon="6.68983">
        <ele>1180.64</ele>
        <time>2021-06-03T07:41:27Z</time>
      </trkpt>
      <trkpt lat="43.88118" lon="6.68968">
        <ele>1180.16</ele>
        <time>2021-06-03T07:41:38Z</time>
      </trkpt>
      <trkpt lat="43.88121" lon="6.68962">
        <ele>1179.19</ele>
        <time>2021-06-03T07:41:43Z</time>
      </trkpt>
      <trkpt lat="43.88121" lon="6.6895">
        <ele>1179.19</ele>
        <time>2021-06-03T07:41:53Z</time>
      </trkpt>
      <trkpt lat="43.88117" lon="6.68933">
        <ele>1178.71</ele>
        <time>2021-06-03T07:42:06Z</time>
      </trkpt>
      <trkpt lat="43.88117" lon="6.68935">
        <ele>1180.64</ele>
        <time>2021-06-03T07:42:15Z</time>
      </trkpt>
      <trkpt lat="43.88114" lon="6.68922">
        <ele>1180.16</ele>
        <time>2021-06-03T07:42:29Z</time>
      </trkpt>
      <trkpt lat="43.88112" lon="6.68917">
        <ele>1182.08</ele>
        <time>2021-06-03T07:42:33Z</time>
      </trkpt>
      <trkpt lat="43.88106" lon="6.68903">
        <ele>1179.19</ele>
        <time>2021-06-03T07:42:45Z</time>
      </trkpt>
      <trkpt lat="43.88104" lon="6.689">
        <ele>1181.6</ele>
        <time>2021-06-03T07:42:48Z</time>
      </trkpt>
      <trkpt lat="43.88103" lon="6.68899">
        <ele>1181.12</ele>
        <time>2021-06-03T07:42:49Z</time>
      </trkpt>
      <trkpt lat="43.88099" lon="6.68895">
        <ele>1182.08</ele>
        <time>2021-06-03T07:42:54Z</time>
      </trkpt>
      <trkpt lat="43.88092" lon="6.68887">
        <ele>1182.08</ele>
        <time>2021-06-03T07:43:08Z</time>
      </trkpt>
      <trkpt lat="43.8809" lon="6.68878">
        <ele>1182.08</ele>
        <time>2021-06-03T07:43:20Z</time>
      </trkpt>
      <trkpt lat="43.88092" lon="6.68876">
        <ele>1182.56</ele>
        <time>2021-06-03T07:43:39Z</time>
      </trkpt>
      <trkpt lat="43.88091" lon="6.68874">
        <ele>1184</ele>
        <time>2021-06-03T07:43:43Z</time>
      </trkpt>
      <trkpt lat="43.8809" lon="6.68867">
        <ele>1182.56</ele>
        <time>2021-06-03T07:43:57Z</time>
      </trkpt>
      <trkpt lat="43.8809" lon="6.68864">
        <ele>1183.04</ele>
        <time>2021-06-03T07:43:59Z</time>
      </trkpt>
      <trkpt lat="43.88092" lon="6.68856">
        <ele>1184.48</ele>
        <time>2021-06-03T07:44:06Z</time>
      </trkpt>
      <trkpt lat="43.88097" lon="6.68848">
        <ele>1184</ele>
        <time>2021-06-03T07:44:20Z</time>
      </trkpt>
      <trkpt lat="43.88095" lon="6.68847">
        <ele>1184</ele>
        <time>2021-06-03T07:44:56Z</time>
      </trkpt>
      <trkpt lat="43.88097" lon="6.68847">
        <ele>1184</ele>
        <time>2021-06-03T07:45:15Z</time>
      </trkpt>
      <trkpt lat="43.88106" lon="6.68843">
        <ele>1184.96</ele>
        <time>2021-06-03T07:45:29Z</time>
      </trkpt>
      <trkpt lat="43.88115" lon="6.68844">
        <ele>1186.4</ele>
        <time>2021-06-03T07:45:44Z</time>
      </trkpt>
      <trkpt lat="43.88122" lon="6.68842">
        <ele>1190.25</ele>
        <time>2021-06-03T07:45:55Z</time>
      </trkpt>
      <trkpt lat="43.88122" lon="6.68841">
        <ele>1187.37</ele>
        <time>2021-06-03T07:45:56Z</time>
      </trkpt>
      <trkpt lat="43.88124" lon="6.68841">
        <ele>1191.21</ele>
        <time>2021-06-03T07:45:59Z</time>
      </trkpt>
      <trkpt lat="43.88125" lon="6.68841">
        <ele>1186.88</ele>
        <time>2021-06-03T07:46:00Z</time>
      </trkpt>
      <trkpt lat="43.88125" lon="6.6884">
        <ele>1191.69</ele>
        <time>2021-06-03T07:46:01Z</time>
      </trkpt>
      <trkpt lat="43.88126" lon="6.68839">
        <ele>1188.33</ele>
        <time>2021-06-03T07:46:02Z</time>
      </trkpt>
      <trkpt lat="43.88128" lon="6.68838">
        <ele>1191.69</ele>
        <time>2021-06-03T07:46:05Z</time>
      </trkpt>
      <trkpt lat="43.88136" lon="6.68833">
        <ele>1190.25</ele>
        <time>2021-06-03T07:46:18Z</time>
      </trkpt>
      <trkpt lat="43.8814" lon="6.68833">
        <ele>1194.58</ele>
        <time>2021-06-03T07:46:23Z</time>
      </trkpt>
      <trkpt lat="43.8814" lon="6.68833">
        <ele>1190.25</ele>
        <time>2021-06-03T07:46:24Z</time>
      </trkpt>
      <trkpt lat="43.88141" lon="6.68833">
        <ele>1193.61</ele>
        <time>2021-06-03T07:46:25Z</time>
      </trkpt>
      <trkpt lat="43.88149" lon="6.68834">
        <ele>1191.69</ele>
        <time>2021-06-03T07:46:35Z</time>
      </trkpt>
      <trkpt lat="43.88161" lon="6.68839">
        <ele>1193.13</ele>
        <time>2021-06-03T07:46:49Z</time>
      </trkpt>
      <trkpt lat="43.88162" lon="6.68839">
        <ele>1196.98</ele>
        <time>2021-06-03T07:46:50Z</time>
      </trkpt>
      <trkpt lat="43.88164" lon="6.6884">
        <ele>1195.06</ele>
        <time>2021-06-03T07:46:52Z</time>
      </trkpt>
      <trkpt lat="43.88173" lon="6.68843">
        <ele>1196.02</ele>
        <time>2021-06-03T07:47:03Z</time>
      </trkpt>
      <trkpt lat="43.88177" lon="6.68843">
        <ele>1196.5</ele>
        <time>2021-06-03T07:47:10Z</time>
      </trkpt>
      <trkpt lat="43.8818" lon="6.68842">
        <ele>1196.5</ele>
        <time>2021-06-03T07:47:13Z</time>
      </trkpt>
      <trkpt lat="43.88181" lon="6.68841">
        <ele>1200.34</ele>
        <time>2021-06-03T07:47:14Z</time>
      </trkpt>
      <trkpt lat="43.88184" lon="6.68835">
        <ele>1196.98</ele>
        <time>2021-06-03T07:47:21Z</time>
      </trkpt>
      <trkpt lat="43.88185" lon="6.68834">
        <ele>1200.34</ele>
        <time>2021-06-03T07:47:22Z</time>
      </trkpt>
      <trkpt lat="43.88192" lon="6.68825">
        <ele>1199.86</ele>
        <time>2021-06-03T07:47:34Z</time>
      </trkpt>
      <trkpt lat="43.88195" lon="6.68809">
        <ele>1201.79</ele>
        <time>2021-06-03T07:47:46Z</time>
      </trkpt>
      <trkpt lat="43.882" lon="6.68796">
        <ele>1203.71</ele>
        <time>2021-06-03T07:47:59Z</time>
      </trkpt>
      <trkpt lat="43.88206" lon="6.68792">
        <ele>1203.71</ele>
        <time>2021-06-03T07:48:10Z</time>
      </trkpt>
      <trkpt lat="43.88211" lon="6.68788">
        <ele>1206.59</ele>
        <time>2021-06-03T07:48:19Z</time>
      </trkpt>
      <trkpt lat="43.88219" lon="6.68784">
        <ele>1204.19</ele>
        <time>2021-06-03T07:48:30Z</time>
      </trkpt>
      <trkpt lat="43.88219" lon="6.68783">
        <ele>1208.03</ele>
        <time>2021-06-03T07:48:31Z</time>
      </trkpt>
      <trkpt lat="43.88223" lon="6.6878">
        <ele>1208.03</ele>
        <time>2021-06-03T07:48:36Z</time>
      </trkpt>
      <trkpt lat="43.88234" lon="6.68774">
        <ele>1207.55</ele>
        <time>2021-06-03T07:48:50Z</time>
      </trkpt>
      <trkpt lat="43.88241" lon="6.6877">
        <ele>1210.44</ele>
        <time>2021-06-03T07:48:59Z</time>
      </trkpt>
      <trkpt lat="43.88241" lon="6.68769">
        <ele>1207.07</ele>
        <time>2021-06-03T07:49:00Z</time>
      </trkpt>
      <trkpt lat="43.88243" lon="6.68764">
        <ele>1208.51</ele>
        <time>2021-06-03T07:49:04Z</time>
      </trkpt>
      <trkpt lat="43.88243" lon="6.68761">
        <ele>1211.4</ele>
        <time>2021-06-03T07:49:07Z</time>
      </trkpt>
      <trkpt lat="43.88242" lon="6.68755">
        <ele>1209.48</ele>
        <time>2021-06-03T07:49:20Z</time>
      </trkpt>
      <trkpt lat="43.88241" lon="6.68739">
        <ele>1209</ele>
        <time>2021-06-03T07:49:32Z</time>
      </trkpt>
      <trkpt lat="43.88243" lon="6.68722">
        <ele>1207.55</ele>
        <time>2021-06-03T07:49:44Z</time>
      </trkpt>
      <trkpt lat="43.88242" lon="6.68716">
        <ele>1208.51</ele>
        <time>2021-06-03T07:49:48Z</time>
      </trkpt>
      <trkpt lat="43.88241" lon="6.68695">
        <ele>1206.59</ele>
        <time>2021-06-03T07:50:02Z</time>
      </trkpt>
      <trkpt lat="43.88242" lon="6.68689">
        <ele>1209.48</ele>
        <time>2021-06-03T07:50:06Z</time>
      </trkpt>
      <trkpt lat="43.88246" lon="6.68671">
        <ele>1210.44</ele>
        <time>2021-06-03T07:50:20Z</time>
      </trkpt>
      <trkpt lat="43.88248" lon="6.68668">
        <ele>1207.55</ele>
        <time>2021-06-03T07:50:24Z</time>
      </trkpt>
      <trkpt lat="43.88249" lon="6.68667">
        <ele>1211.88</ele>
        <time>2021-06-03T07:50:25Z</time>
      </trkpt>
      <trkpt lat="43.8825" lon="6.68665">
        <ele>1209</ele>
        <time>2021-06-03T07:50:27Z</time>
      </trkpt>
      <trkpt lat="43.88252" lon="6.68663">
        <ele>1209</ele>
        <time>2021-06-03T07:50:29Z</time>
      </trkpt>
      <trkpt lat="43.88252" lon="6.68663">
        <ele>1213.8</ele>
        <time>2021-06-03T07:50:30Z</time>
      </trkpt>
      <trkpt lat="43.88252" lon="6.68662">
        <ele>1209</ele>
        <time>2021-06-03T07:50:31Z</time>
      </trkpt>
      <trkpt lat="43.88255" lon="6.68654">
        <ele>1211.88</ele>
        <time>2021-06-03T07:50:39Z</time>
      </trkpt>
      <trkpt lat="43.88261" lon="6.68639">
        <ele>1213.32</ele>
        <time>2021-06-03T07:50:52Z</time>
      </trkpt>
      <trkpt lat="43.88262" lon="6.68636">
        <ele>1212.36</ele>
        <time>2021-06-03T07:50:54Z</time>
      </trkpt>
      <trkpt lat="43.88269" lon="6.68621">
        <ele>1213.32</ele>
        <time>2021-06-03T07:51:08Z</time>
      </trkpt>
      <trkpt lat="43.88275" lon="6.68608">
        <ele>1214.28</ele>
        <time>2021-06-03T07:51:20Z</time>
      </trkpt>
      <trkpt lat="43.8828" lon="6.68601">
        <ele>1214.28</ele>
        <time>2021-06-03T07:51:27Z</time>
      </trkpt>
      <trkpt lat="43.88282" lon="6.68588">
        <ele>1214.76</ele>
        <time>2021-06-03T07:51:40Z</time>
      </trkpt>
      <trkpt lat="43.88282" lon="6.68585">
        <ele>1217.65</ele>
        <time>2021-06-03T07:51:47Z</time>
      </trkpt>
      <trkpt lat="43.8829" lon="6.68586">
        <ele>1215.72</ele>
        <time>2021-06-03T07:51:59Z</time>
      </trkpt>
      <trkpt lat="43.8829" lon="6.68586">
        <ele>1220.53</ele>
        <time>2021-06-03T07:52:00Z</time>
      </trkpt>
      <trkpt lat="43.88291" lon="6.68586">
        <ele>1214.28</ele>
        <time>2021-06-03T07:52:01Z</time>
      </trkpt>
      <trkpt lat="43.88291" lon="6.68586">
        <ele>1221.97</ele>
        <time>2021-06-03T07:52:02Z</time>
      </trkpt>
      <trkpt lat="43.88292" lon="6.68586">
        <ele>1218.13</ele>
        <time>2021-06-03T07:52:03Z</time>
      </trkpt>
      <trkpt lat="43.88296" lon="6.68583">
        <ele>1217.65</ele>
        <time>2021-06-03T07:52:11Z</time>
      </trkpt>
      <trkpt lat="43.88298" lon="6.68582">
        <ele>1218.61</ele>
        <time>2021-06-03T07:52:13Z</time>
      </trkpt>
      <trkpt lat="43.88299" lon="6.68582">
        <ele>1222.45</ele>
        <time>2021-06-03T07:52:14Z</time>
      </trkpt>
      <trkpt lat="43.883" lon="6.68581">
        <ele>1219.57</ele>
        <time>2021-06-03T07:52:15Z</time>
      </trkpt>
      <trkpt lat="43.88302" lon="6.6858">
        <ele>1222.93</ele>
        <time>2021-06-03T07:52:19Z</time>
      </trkpt>
      <trkpt lat="43.88305" lon="6.68578">
        <ele>1219.57</ele>
        <time>2021-06-03T07:52:24Z</time>
      </trkpt>
      <trkpt lat="43.88306" lon="6.68578">
        <ele>1225.82</ele>
        <time>2021-06-03T07:52:25Z</time>
      </trkpt>
      <trkpt lat="43.88307" lon="6.68578">
        <ele>1221.97</ele>
        <time>2021-06-03T07:52:26Z</time>
      </trkpt>
      <trkpt lat="43.88307" lon="6.68578">
        <ele>1224.86</ele>
        <time>2021-06-03T07:52:27Z</time>
      </trkpt>
      <trkpt lat="43.88317" lon="6.68577">
        <ele>1225.34</ele>
        <time>2021-06-03T07:52:43Z</time>
      </trkpt>
      <trkpt lat="43.88323" lon="6.6858">
        <ele>1229.66</ele>
        <time>2021-06-03T07:52:53Z</time>
      </trkpt>
      <trkpt lat="43.88324" lon="6.6858">
        <ele>1226.3</ele>
        <time>2021-06-03T07:52:55Z</time>
      </trkpt>
      <trkpt lat="43.88325" lon="6.6858">
        <ele>1227.74</ele>
        <time>2021-06-03T07:52:56Z</time>
      </trkpt>
      <trkpt lat="43.88331" lon="6.6858">
        <ele>1231.11</ele>
        <time>2021-06-03T07:53:06Z</time>
      </trkpt>
      <trkpt lat="43.88335" lon="6.68579">
        <ele>1226.3</ele>
        <time>2021-06-03T07:53:11Z</time>
      </trkpt>
      <trkpt lat="43.88335" lon="6.6858">
        <ele>1232.07</ele>
        <time>2021-06-03T07:53:12Z</time>
      </trkpt>
      <trkpt lat="43.88336" lon="6.6858">
        <ele>1228.22</ele>
        <time>2021-06-03T07:53:13Z</time>
      </trkpt>
      <trkpt lat="43.88336" lon="6.6858">
        <ele>1233.03</ele>
        <time>2021-06-03T07:53:14Z</time>
      </trkpt>
      <trkpt lat="43.88337" lon="6.68579">
        <ele>1229.66</ele>
        <time>2021-06-03T07:53:15Z</time>
      </trkpt>
      <trkpt lat="43.88337" lon="6.68579">
        <ele>1233.99</ele>
        <time>2021-06-03T07:53:16Z</time>
      </trkpt>
      <trkpt lat="43.88338" lon="6.68579">
        <ele>1229.66</ele>
        <time>2021-06-03T07:53:17Z</time>
      </trkpt>
      <trkpt lat="43.8834" lon="6.68578">
        <ele>1233.03</ele>
        <time>2021-06-03T07:53:21Z</time>
      </trkpt>
      <trkpt lat="43.88341" lon="6.68578">
        <ele>1228.7</ele>
        <time>2021-06-03T07:53:22Z</time>
      </trkpt>
      <trkpt lat="43.88341" lon="6.68578">
        <ele>1233.51</ele>
        <time>2021-06-03T07:53:23Z</time>
      </trkpt>
      <trkpt lat="43.88351" lon="6.68577">
        <ele>1235.43</ele>
        <time>2021-06-03T07:53:38Z</time>
      </trkpt>
      <trkpt lat="43.88352" lon="6.68577">
        <ele>1231.11</ele>
        <time>2021-06-03T07:53:39Z</time>
      </trkpt>
      <trkpt lat="43.88352" lon="6.68577">
        <ele>1235.43</ele>
        <time>2021-06-03T07:53:40Z</time>
      </trkpt>
      <trkpt lat="43.88354" lon="6.68577">
        <ele>1234.47</ele>
        <time>2021-06-03T07:53:42Z</time>
      </trkpt>
      <trkpt lat="43.88362" lon="6.68577">
        <ele>1238.32</ele>
        <time>2021-06-03T07:53:54Z</time>
      </trkpt>
      <trkpt lat="43.88363" lon="6.68577">
        <ele>1234.47</ele>
        <time>2021-06-03T07:53:55Z</time>
      </trkpt>
      <trkpt lat="43.88363" lon="6.68577">
        <ele>1237.35</ele>
        <time>2021-06-03T07:53:56Z</time>
      </trkpt>
      <trkpt lat="43.88364" lon="6.68577">
        <ele>1233.99</ele>
        <time>2021-06-03T07:53:57Z</time>
      </trkpt>
      <trkpt lat="43.88364" lon="6.68577">
        <ele>1238.32</ele>
        <time>2021-06-03T07:53:58Z</time>
      </trkpt>
      <trkpt lat="43.88366" lon="6.68578">
        <ele>1234.47</ele>
        <time>2021-06-03T07:54:01Z</time>
      </trkpt>
      <trkpt lat="43.88367" lon="6.68578">
        <ele>1238.32</ele>
        <time>2021-06-03T07:54:02Z</time>
      </trkpt>
      <trkpt lat="43.88372" lon="6.68581">
        <ele>1234.95</ele>
        <time>2021-06-03T07:54:09Z</time>
      </trkpt>
      <trkpt lat="43.88373" lon="6.68582">
        <ele>1239.28</ele>
        <time>2021-06-03T07:54:11Z</time>
      </trkpt>
      <trkpt lat="43.88377" lon="6.68583">
        <ele>1239.76</ele>
        <time>2021-06-03T07:54:19Z</time>
      </trkpt>
      <trkpt lat="43.88382" lon="6.68584">
        <ele>1236.87</ele>
        <time>2021-06-03T07:54:28Z</time>
      </trkpt>
      <trkpt lat="43.88383" lon="6.68584">
        <ele>1243.12</ele>
        <time>2021-06-03T07:54:29Z</time>
      </trkpt>
      <trkpt lat="43.88383" lon="6.68584">
        <ele>1236.39</ele>
        <time>2021-06-03T07:54:30Z</time>
      </trkpt>
      <trkpt lat="43.88384" lon="6.68584">
        <ele>1243.6</ele>
        <time>2021-06-03T07:54:31Z</time>
      </trkpt>
      <trkpt lat="43.88386" lon="6.68584">
        <ele>1239.76</ele>
        <time>2021-06-03T07:54:34Z</time>
      </trkpt>
      <trkpt lat="43.88388" lon="6.68585">
        <ele>1242.16</ele>
        <time>2021-06-03T07:54:37Z</time>
      </trkpt>
      <trkpt lat="43.88396" lon="6.68583">
        <ele>1244.08</ele>
        <time>2021-06-03T07:54:50Z</time>
      </trkpt>
      <trkpt lat="43.884" lon="6.68584">
        <ele>1247.45</ele>
        <time>2021-06-03T07:54:58Z</time>
      </trkpt>
      <trkpt lat="43.88401" lon="6.68584">
        <ele>1242.64</ele>
        <time>2021-06-03T07:54:59Z</time>
      </trkpt>
      <trkpt lat="43.88401" lon="6.68584">
        <ele>1247.45</ele>
        <time>2021-06-03T07:55:00Z</time>
      </trkpt>
      <trkpt lat="43.88409" lon="6.68585">
        <ele>1246.97</ele>
        <time>2021-06-03T07:55:15Z</time>
      </trkpt>
      <trkpt lat="43.88413" lon="6.6858">
        <ele>1250.33</ele>
        <time>2021-06-03T07:55:23Z</time>
      </trkpt>
      <trkpt lat="43.88414" lon="6.6858">
        <ele>1246.49</ele>
        <time>2021-06-03T07:55:24Z</time>
      </trkpt>
      <trkpt lat="43.88415" lon="6.68579">
        <ele>1250.81</ele>
        <time>2021-06-03T07:55:25Z</time>
      </trkpt>
      <trkpt lat="43.88415" lon="6.68578">
        <ele>1246.01</ele>
        <time>2021-06-03T07:55:26Z</time>
      </trkpt>
      <trkpt lat="43.88416" lon="6.68577">
        <ele>1248.89</ele>
        <time>2021-06-03T07:55:28Z</time>
      </trkpt>
      <trkpt lat="43.8842" lon="6.68583">
        <ele>1252.74</ele>
        <time>2021-06-03T07:55:41Z</time>
      </trkpt>
      <trkpt lat="43.88419" lon="6.68586">
        <ele>1247.45</ele>
        <time>2021-06-03T07:55:44Z</time>
      </trkpt>
      <trkpt lat="43.88418" lon="6.68587">
        <ele>1253.7</ele>
        <time>2021-06-03T07:55:45Z</time>
      </trkpt>
      <trkpt lat="43.88418" lon="6.68587">
        <ele>1248.89</ele>
        <time>2021-06-03T07:55:46Z</time>
      </trkpt>
      <trkpt lat="43.88418" lon="6.68588">
        <ele>1253.22</ele>
        <time>2021-06-03T07:55:47Z</time>
      </trkpt>
      <trkpt lat="43.88418" lon="6.68589">
        <ele>1249.37</ele>
        <time>2021-06-03T07:55:48Z</time>
      </trkpt>
      <trkpt lat="43.88418" lon="6.6859">
        <ele>1254.66</ele>
        <time>2021-06-03T07:55:49Z</time>
      </trkpt>
      <trkpt lat="43.88418" lon="6.68591">
        <ele>1248.89</ele>
        <time>2021-06-03T07:55:50Z</time>
      </trkpt>
      <trkpt lat="43.88419" lon="6.68591">
        <ele>1254.18</ele>
        <time>2021-06-03T07:55:51Z</time>
      </trkpt>
      <trkpt lat="43.88419" lon="6.68593">
        <ele>1251.29</ele>
        <time>2021-06-03T07:55:53Z</time>
      </trkpt>
      <trkpt lat="43.88419" lon="6.68593">
        <ele>1254.66</ele>
        <time>2021-06-03T07:55:54Z</time>
      </trkpt>
      <trkpt lat="43.8842" lon="6.68594">
        <ele>1251.29</ele>
        <time>2021-06-03T07:55:55Z</time>
      </trkpt>
      <trkpt lat="43.8842" lon="6.68594">
        <ele>1255.62</ele>
        <time>2021-06-03T07:55:56Z</time>
      </trkpt>
      <trkpt lat="43.88421" lon="6.68594">
        <ele>1251.77</ele>
        <time>2021-06-03T07:55:57Z</time>
      </trkpt>
      <trkpt lat="43.88421" lon="6.68594">
        <ele>1255.14</ele>
        <time>2021-06-03T07:55:58Z</time>
      </trkpt>
      <trkpt lat="43.88421" lon="6.68594">
        <ele>1251.29</ele>
        <time>2021-06-03T07:55:59Z</time>
      </trkpt>
      <trkpt lat="43.88422" lon="6.68594">
        <ele>1255.62</ele>
        <time>2021-06-03T07:56:00Z</time>
      </trkpt>
      <trkpt lat="43.88423" lon="6.68593">
        <ele>1251.29</ele>
        <time>2021-06-03T07:56:01Z</time>
      </trkpt>
      <trkpt lat="43.88423" lon="6.68593">
        <ele>1254.66</ele>
        <time>2021-06-03T07:56:02Z</time>
      </trkpt>
      <trkpt lat="43.88424" lon="6.68593">
        <ele>1250.81</ele>
        <time>2021-06-03T07:56:05Z</time>
      </trkpt>
      <trkpt lat="43.88425" lon="6.68593">
        <ele>1257.06</ele>
        <time>2021-06-03T07:56:06Z</time>
      </trkpt>
      <trkpt lat="43.88425" lon="6.68593">
        <ele>1254.18</ele>
        <time>2021-06-03T07:56:07Z</time>
      </trkpt>
      <trkpt lat="43.88432" lon="6.68591">
        <ele>1257.06</ele>
        <time>2021-06-03T07:56:18Z</time>
      </trkpt>
      <trkpt lat="43.88441" lon="6.68592">
        <ele>1259.46</ele>
        <time>2021-06-03T07:56:34Z</time>
      </trkpt>
      <trkpt lat="43.88448" lon="6.68596">
        <ele>1259.94</ele>
        <time>2021-06-03T07:56:46Z</time>
      </trkpt>
      <trkpt lat="43.8845" lon="6.68598">
        <ele>1264.27</ele>
        <time>2021-06-03T07:56:50Z</time>
      </trkpt>
      <trkpt lat="43.88451" lon="6.68598">
        <ele>1258.5</ele>
        <time>2021-06-03T07:56:51Z</time>
      </trkpt>
      <trkpt lat="43.88451" lon="6.68598">
        <ele>1263.31</ele>
        <time>2021-06-03T07:56:52Z</time>
      </trkpt>
      <trkpt lat="43.88452" lon="6.68598">
        <ele>1258.02</ele>
        <time>2021-06-03T07:56:53Z</time>
      </trkpt>
      <trkpt lat="43.88452" lon="6.68598">
        <ele>1263.31</ele>
        <time>2021-06-03T07:56:54Z</time>
      </trkpt>
      <trkpt lat="43.88453" lon="6.68598">
        <ele>1258.5</ele>
        <time>2021-06-03T07:56:55Z</time>
      </trkpt>
      <trkpt lat="43.88453" lon="6.68598">
        <ele>1262.35</ele>
        <time>2021-06-03T07:56:56Z</time>
      </trkpt>
      <trkpt lat="43.88454" lon="6.68599">
        <ele>1257.54</ele>
        <time>2021-06-03T07:56:57Z</time>
      </trkpt>
      <trkpt lat="43.88454" lon="6.68599">
        <ele>1263.31</ele>
        <time>2021-06-03T07:56:58Z</time>
      </trkpt>
      <trkpt lat="43.88455" lon="6.68599">
        <ele>1258.98</ele>
        <time>2021-06-03T07:56:59Z</time>
      </trkpt>
      <trkpt lat="43.88455" lon="6.686">
        <ele>1265.23</ele>
        <time>2021-06-03T07:57:00Z</time>
      </trkpt>
      <trkpt lat="43.88456" lon="6.686">
        <ele>1260.43</ele>
        <time>2021-06-03T07:57:01Z</time>
      </trkpt>
      <trkpt lat="43.88458" lon="6.68602">
        <ele>1263.79</ele>
        <time>2021-06-03T07:57:05Z</time>
      </trkpt>
      <trkpt lat="43.88458" lon="6.68602">
        <ele>1263.31</ele>
        <time>2021-06-03T07:57:06Z</time>
      </trkpt>
      <trkpt lat="43.88459" lon="6.68602">
        <ele>1259.94</ele>
        <time>2021-06-03T07:57:07Z</time>
      </trkpt>
      <trkpt lat="43.88459" lon="6.68602">
        <ele>1267.64</ele>
        <time>2021-06-03T07:57:08Z</time>
      </trkpt>
      <trkpt lat="43.8846" lon="6.68602">
        <ele>1262.35</ele>
        <time>2021-06-03T07:57:09Z</time>
      </trkpt>
      <trkpt lat="43.88461" lon="6.68603">
        <ele>1263.79</ele>
        <time>2021-06-03T07:57:12Z</time>
      </trkpt>
      <trkpt lat="43.88464" lon="6.68603">
        <ele>1267.16</ele>
        <time>2021-06-03T07:57:17Z</time>
      </trkpt>
      <trkpt lat="43.88465" lon="6.68604">
        <ele>1263.79</ele>
        <time>2021-06-03T07:57:18Z</time>
      </trkpt>
      <trkpt lat="43.88465" lon="6.68604">
        <ele>1267.64</ele>
        <time>2021-06-03T07:57:19Z</time>
      </trkpt>
      <trkpt lat="43.88466" lon="6.68605">
        <ele>1261.87</ele>
        <time>2021-06-03T07:57:20Z</time>
      </trkpt>
      <trkpt lat="43.88467" lon="6.68605">
        <ele>1266.67</ele>
        <time>2021-06-03T07:57:21Z</time>
      </trkpt>
      <trkpt lat="43.88466" lon="6.68614">
        <ele>1267.64</ele>
        <time>2021-06-03T07:57:36Z</time>
      </trkpt>
      <trkpt lat="43.88464" lon="6.68617">
        <ele>1272.92</ele>
        <time>2021-06-03T07:57:42Z</time>
      </trkpt>
      <trkpt lat="43.88464" lon="6.68618">
        <ele>1265.71</ele>
        <time>2021-06-03T07:57:43Z</time>
      </trkpt>
      <trkpt lat="43.88464" lon="6.68619">
        <ele>1271</ele>
        <time>2021-06-03T07:57:44Z</time>
      </trkpt>
      <trkpt lat="43.8847" lon="6.68622">
        <ele>1266.67</ele>
        <time>2021-06-03T07:57:54Z</time>
      </trkpt>
      <trkpt lat="43.8847" lon="6.68622">
        <ele>1269.56</ele>
        <time>2021-06-03T07:57:55Z</time>
      </trkpt>
      <trkpt lat="43.88473" lon="6.68623">
        <ele>1273.88</ele>
        <time>2021-06-03T07:58:02Z</time>
      </trkpt>
      <trkpt lat="43.88474" lon="6.68623">
        <ele>1269.56</ele>
        <time>2021-06-03T07:58:03Z</time>
      </trkpt>
      <trkpt lat="43.88474" lon="6.68623">
        <ele>1274.85</ele>
        <time>2021-06-03T07:58:04Z</time>
      </trkpt>
      <trkpt lat="43.88475" lon="6.68623">
        <ele>1269.56</ele>
        <time>2021-06-03T07:58:05Z</time>
      </trkpt>
      <trkpt lat="43.88475" lon="6.68622">
        <ele>1276.29</ele>
        <time>2021-06-03T07:58:06Z</time>
      </trkpt>
      <trkpt lat="43.88476" lon="6.68622">
        <ele>1269.56</ele>
        <time>2021-06-03T07:58:07Z</time>
      </trkpt>
      <trkpt lat="43.88477" lon="6.68621">
        <ele>1274.36</ele>
        <time>2021-06-03T07:58:08Z</time>
      </trkpt>
      <trkpt lat="43.88478" lon="6.68621">
        <ele>1267.64</ele>
        <time>2021-06-03T07:58:09Z</time>
      </trkpt>
      <trkpt lat="43.88479" lon="6.68621">
        <ele>1274.85</ele>
        <time>2021-06-03T07:58:10Z</time>
      </trkpt>
      <trkpt lat="43.8848" lon="6.68621">
        <ele>1271.48</ele>
        <time>2021-06-03T07:58:11Z</time>
      </trkpt>
      <trkpt lat="43.88482" lon="6.68623">
        <ele>1275.81</ele>
        <time>2021-06-03T07:58:15Z</time>
      </trkpt>
      <trkpt lat="43.88485" lon="6.68625">
        <ele>1271.48</ele>
        <time>2021-06-03T07:58:20Z</time>
      </trkpt>
      <trkpt lat="43.88486" lon="6.68625">
        <ele>1277.25</ele>
        <time>2021-06-03T07:58:21Z</time>
      </trkpt>
      <trkpt lat="43.88487" lon="6.68625">
        <ele>1271.96</ele>
        <time>2021-06-03T07:58:22Z</time>
      </trkpt>
      <trkpt lat="43.88487" lon="6.68626">
        <ele>1277.73</ele>
        <time>2021-06-03T07:58:23Z</time>
      </trkpt>
      <trkpt lat="43.88488" lon="6.68627">
        <ele>1269.56</ele>
        <time>2021-06-03T07:58:24Z</time>
      </trkpt>
      <trkpt lat="43.88488" lon="6.68627">
        <ele>1275.81</ele>
        <time>2021-06-03T07:58:25Z</time>
      </trkpt>
      <trkpt lat="43.88489" lon="6.68628">
        <ele>1271.96</ele>
        <time>2021-06-03T07:58:26Z</time>
      </trkpt>
      <trkpt lat="43.88489" lon="6.68628">
        <ele>1276.29</ele>
        <time>2021-06-03T07:58:27Z</time>
      </trkpt>
      <trkpt lat="43.88491" lon="6.68637">
        <ele>1280.13</ele>
        <time>2021-06-03T07:58:40Z</time>
      </trkpt>
      <trkpt lat="43.88491" lon="6.68638">
        <ele>1276.29</ele>
        <time>2021-06-03T07:58:41Z</time>
      </trkpt>
      <trkpt lat="43.88489" lon="6.68643">
        <ele>1279.17</ele>
        <time>2021-06-03T07:58:47Z</time>
      </trkpt>
      <trkpt lat="43.88489" lon="6.68644">
        <ele>1274.85</ele>
        <time>2021-06-03T07:58:48Z</time>
      </trkpt>
      <trkpt lat="43.88489" lon="6.68645">
        <ele>1279.17</ele>
        <time>2021-06-03T07:58:49Z</time>
      </trkpt>
      <trkpt lat="43.88488" lon="6.68649">
        <ele>1275.33</ele>
        <time>2021-06-03T07:58:53Z</time>
      </trkpt>
      <trkpt lat="43.88488" lon="6.68651">
        <ele>1278.69</ele>
        <time>2021-06-03T07:58:54Z</time>
      </trkpt>
      <trkpt lat="43.88488" lon="6.68652">
        <ele>1274.85</ele>
        <time>2021-06-03T07:58:55Z</time>
      </trkpt>
      <trkpt lat="43.88488" lon="6.68653">
        <ele>1279.65</ele>
        <time>2021-06-03T07:58:56Z</time>
      </trkpt>
      <trkpt lat="43.88487" lon="6.68656">
        <ele>1276.29</ele>
        <time>2021-06-03T07:59:00Z</time>
      </trkpt>
      <trkpt lat="43.88487" lon="6.68658">
        <ele>1281.09</ele>
        <time>2021-06-03T07:59:01Z</time>
      </trkpt>
      <trkpt lat="43.88487" lon="6.68659">
        <ele>1274.85</ele>
        <time>2021-06-03T07:59:02Z</time>
      </trkpt>
      <trkpt lat="43.88488" lon="6.6866">
        <ele>1281.09</ele>
        <time>2021-06-03T07:59:03Z</time>
      </trkpt>
      <trkpt lat="43.88488" lon="6.68666">
        <ele>1277.73</ele>
        <time>2021-06-03T07:59:09Z</time>
      </trkpt>
      <trkpt lat="43.88488" lon="6.68667">
        <ele>1281.57</ele>
        <time>2021-06-03T07:59:10Z</time>
      </trkpt>
      <trkpt lat="43.88487" lon="6.68673">
        <ele>1278.21</ele>
        <time>2021-06-03T07:59:16Z</time>
      </trkpt>
      <trkpt lat="43.88486" lon="6.68675">
        <ele>1283.98</ele>
        <time>2021-06-03T07:59:17Z</time>
      </trkpt>
      <trkpt lat="43.88486" lon="6.68679">
        <ele>1277.73</ele>
        <time>2021-06-03T07:59:25Z</time>
      </trkpt>
      <trkpt lat="43.88487" lon="6.68679">
        <ele>1282.06</ele>
        <time>2021-06-03T07:59:26Z</time>
      </trkpt>
      <trkpt lat="43.88487" lon="6.6868">
        <ele>1284.46</ele>
        <time>2021-06-03T07:59:27Z</time>
      </trkpt>
      <trkpt lat="43.88488" lon="6.68682">
        <ele>1284.94</ele>
        <time>2021-06-03T07:59:29Z</time>
      </trkpt>
      <trkpt lat="43.8849" lon="6.68683">
        <ele>1287.34</ele>
        <time>2021-06-03T07:59:32Z</time>
      </trkpt>
      <trkpt lat="43.88491" lon="6.68685">
        <ele>1285.42</ele>
        <time>2021-06-03T07:59:34Z</time>
      </trkpt>
      <trkpt lat="43.88493" lon="6.68686">
        <ele>1288.3</ele>
        <time>2021-06-03T07:59:37Z</time>
      </trkpt>
      <trkpt lat="43.88494" lon="6.68687">
        <ele>1281.57</ele>
        <time>2021-06-03T07:59:38Z</time>
      </trkpt>
      <trkpt lat="43.88495" lon="6.68687">
        <ele>1286.38</ele>
        <time>2021-06-03T07:59:39Z</time>
      </trkpt>
      <trkpt lat="43.88495" lon="6.68688">
        <ele>1280.61</ele>
        <time>2021-06-03T07:59:40Z</time>
      </trkpt>
      <trkpt lat="43.88496" lon="6.68689">
        <ele>1286.38</ele>
        <time>2021-06-03T07:59:41Z</time>
      </trkpt>
      <trkpt lat="43.88501" lon="6.6869">
        <ele>1281.57</ele>
        <time>2021-06-03T07:59:47Z</time>
      </trkpt>
      <trkpt lat="43.88502" lon="6.68691">
        <ele>1286.38</ele>
        <time>2021-06-03T07:59:48Z</time>
      </trkpt>
      <trkpt lat="43.88506" lon="6.68693">
        <ele>1283.02</ele>
        <time>2021-06-03T07:59:54Z</time>
      </trkpt>
      <trkpt lat="43.88506" lon="6.68694">
        <ele>1287.82</ele>
        <time>2021-06-03T07:59:55Z</time>
      </trkpt>
      <trkpt lat="43.88507" lon="6.68694">
        <ele>1291.19</ele>
        <time>2021-06-03T07:59:56Z</time>
      </trkpt>
      <trkpt lat="43.88507" lon="6.68695">
        <ele>1287.82</ele>
        <time>2021-06-03T07:59:57Z</time>
      </trkpt>
      <trkpt lat="43.8851" lon="6.68697">
        <ele>1292.15</ele>
        <time>2021-06-03T08:00:02Z</time>
      </trkpt>
      <trkpt lat="43.8851" lon="6.68697">
        <ele>1283.98</ele>
        <time>2021-06-03T08:00:03Z</time>
      </trkpt>
      <trkpt lat="43.88511" lon="6.68697">
        <ele>1290.23</ele>
        <time>2021-06-03T08:00:04Z</time>
      </trkpt>
      <trkpt lat="43.88511" lon="6.68698">
        <ele>1284.94</ele>
        <time>2021-06-03T08:00:05Z</time>
      </trkpt>
      <trkpt lat="43.88512" lon="6.68698">
        <ele>1289.75</ele>
        <time>2021-06-03T08:00:06Z</time>
      </trkpt>
      <trkpt lat="43.88512" lon="6.68699">
        <ele>1286.38</ele>
        <time>2021-06-03T08:00:07Z</time>
      </trkpt>
      <trkpt lat="43.88513" lon="6.687">
        <ele>1289.75</ele>
        <time>2021-06-03T08:00:08Z</time>
      </trkpt>
      <trkpt lat="43.88514" lon="6.68701">
        <ele>1283.02</ele>
        <time>2021-06-03T08:00:11Z</time>
      </trkpt>
      <trkpt lat="43.88515" lon="6.68702">
        <ele>1289.27</ele>
        <time>2021-06-03T08:00:12Z</time>
      </trkpt>
      <trkpt lat="43.88516" lon="6.68704">
        <ele>1285.42</ele>
        <time>2021-06-03T08:00:17Z</time>
      </trkpt>
      <trkpt lat="43.88517" lon="6.68704">
        <ele>1291.67</ele>
        <time>2021-06-03T08:00:18Z</time>
      </trkpt>
      <trkpt lat="43.88517" lon="6.68704">
        <ele>1287.34</ele>
        <time>2021-06-03T08:00:19Z</time>
      </trkpt>
      <trkpt lat="43.88518" lon="6.68705">
        <ele>1290.71</ele>
        <time>2021-06-03T08:00:20Z</time>
      </trkpt>
      <trkpt lat="43.88518" lon="6.68705">
        <ele>1285.42</ele>
        <time>2021-06-03T08:00:21Z</time>
      </trkpt>
      <trkpt lat="43.88519" lon="6.68706">
        <ele>1292.15</ele>
        <time>2021-06-03T08:00:22Z</time>
      </trkpt>
      <trkpt lat="43.8852" lon="6.68706">
        <ele>1287.34</ele>
        <time>2021-06-03T08:00:23Z</time>
      </trkpt>
      <trkpt lat="43.8852" lon="6.68706">
        <ele>1295.51</ele>
        <time>2021-06-03T08:00:24Z</time>
      </trkpt>
      <trkpt lat="43.8852" lon="6.68706">
        <ele>1288.3</ele>
        <time>2021-06-03T08:00:25Z</time>
      </trkpt>
      <trkpt lat="43.88521" lon="6.68706">
        <ele>1295.51</ele>
        <time>2021-06-03T08:00:26Z</time>
      </trkpt>
      <trkpt lat="43.88521" lon="6.68707">
        <ele>1286.86</ele>
        <time>2021-06-03T08:00:27Z</time>
      </trkpt>
      <trkpt lat="43.88521" lon="6.68707">
        <ele>1293.59</ele>
        <time>2021-06-03T08:00:28Z</time>
      </trkpt>
      <trkpt lat="43.88521" lon="6.68708">
        <ele>1287.34</ele>
        <time>2021-06-03T08:00:29Z</time>
      </trkpt>
      <trkpt lat="43.88522" lon="6.68709">
        <ele>1294.07</ele>
        <time>2021-06-03T08:00:30Z</time>
      </trkpt>
      <trkpt lat="43.88522" lon="6.68709">
        <ele>1287.34</ele>
        <time>2021-06-03T08:00:31Z</time>
      </trkpt>
      <trkpt lat="43.88523" lon="6.6871">
        <ele>1293.59</ele>
        <time>2021-06-03T08:00:32Z</time>
      </trkpt>
      <trkpt lat="43.88523" lon="6.6871">
        <ele>1286.86</ele>
        <time>2021-06-03T08:00:33Z</time>
      </trkpt>
      <trkpt lat="43.88524" lon="6.6871">
        <ele>1295.03</ele>
        <time>2021-06-03T08:00:34Z</time>
      </trkpt>
      <trkpt lat="43.88524" lon="6.6871">
        <ele>1286.38</ele>
        <time>2021-06-03T08:00:35Z</time>
      </trkpt>
      <trkpt lat="43.88524" lon="6.6871">
        <ele>1297.92</ele>
        <time>2021-06-03T08:00:36Z</time>
      </trkpt>
      <trkpt lat="43.88525" lon="6.6871">
        <ele>1293.59</ele>
        <time>2021-06-03T08:00:37Z</time>
      </trkpt>
      <trkpt lat="43.88525" lon="6.6871">
        <ele>1290.23</ele>
        <time>2021-06-03T08:00:39Z</time>
      </trkpt>
      <trkpt lat="43.88526" lon="6.6871">
        <ele>1297.92</ele>
        <time>2021-06-03T08:00:40Z</time>
      </trkpt>
      <trkpt lat="43.88526" lon="6.6871">
        <ele>1288.3</ele>
        <time>2021-06-03T08:00:41Z</time>
      </trkpt>
      <trkpt lat="43.88527" lon="6.68711">
        <ele>1293.59</ele>
        <time>2021-06-03T08:00:42Z</time>
      </trkpt>
      <trkpt lat="43.88527" lon="6.68711">
        <ele>1288.78</ele>
        <time>2021-06-03T08:00:43Z</time>
      </trkpt>
      <trkpt lat="43.88527" lon="6.68711">
        <ele>1297.92</ele>
        <time>2021-06-03T08:00:44Z</time>
      </trkpt>
      <trkpt lat="43.88527" lon="6.68712">
        <ele>1287.82</ele>
        <time>2021-06-03T08:00:45Z</time>
      </trkpt>
      <trkpt lat="43.88528" lon="6.68712">
        <ele>1296.48</ele>
        <time>2021-06-03T08:00:46Z</time>
      </trkpt>
      <trkpt lat="43.88528" lon="6.68712">
        <ele>1289.27</ele>
        <time>2021-06-03T08:00:47Z</time>
      </trkpt>
      <trkpt lat="43.88529" lon="6.68713">
        <ele>1295.51</ele>
        <time>2021-06-03T08:00:48Z</time>
      </trkpt>
      <trkpt lat="43.88529" lon="6.68713">
        <ele>1289.27</ele>
        <time>2021-06-03T08:00:49Z</time>
      </trkpt>
      <trkpt lat="43.8853" lon="6.68714">
        <ele>1297.44</ele>
        <time>2021-06-03T08:00:50Z</time>
      </trkpt>
      <trkpt lat="43.8853" lon="6.68715">
        <ele>1293.11</ele>
        <time>2021-06-03T08:00:51Z</time>
      </trkpt>
      <trkpt lat="43.8853" lon="6.68716">
        <ele>1296.96</ele>
        <time>2021-06-03T08:00:52Z</time>
      </trkpt>
      <trkpt lat="43.88531" lon="6.68717">
        <ele>1300.32</ele>
        <time>2021-06-03T08:00:55Z</time>
      </trkpt>
      <trkpt lat="43.88532" lon="6.68718">
        <ele>1293.11</ele>
        <time>2021-06-03T08:00:56Z</time>
      </trkpt>
      <trkpt lat="43.88532" lon="6.68718">
        <ele>1298.4</ele>
        <time>2021-06-03T08:00:57Z</time>
      </trkpt>
      <trkpt lat="43.88533" lon="6.68719">
        <ele>1295.03</ele>
        <time>2021-06-03T08:00:59Z</time>
      </trkpt>
      <trkpt lat="43.88534" lon="6.68719">
        <ele>1300.8</ele>
        <time>2021-06-03T08:01:00Z</time>
      </trkpt>
      <trkpt lat="43.88535" lon="6.6872">
        <ele>1296.48</ele>
        <time>2021-06-03T08:01:01Z</time>
      </trkpt>
      <trkpt lat="43.88537" lon="6.68721">
        <ele>1299.84</ele>
        <time>2021-06-03T08:01:05Z</time>
      </trkpt>
      <trkpt lat="43.88538" lon="6.68722">
        <ele>1296.48</ele>
        <time>2021-06-03T08:01:06Z</time>
      </trkpt>
      <trkpt lat="43.88548" lon="6.68728">
        <ele>1296.96</ele>
        <time>2021-06-03T08:01:19Z</time>
      </trkpt>
      <trkpt lat="43.88556" lon="6.68729">
        <ele>1295.51</ele>
        <time>2021-06-03T08:01:35Z</time>
      </trkpt>
      <trkpt lat="43.88557" lon="6.6872">
        <ele>1293.11</ele>
        <time>2021-06-03T08:01:44Z</time>
      </trkpt>
      <trkpt lat="43.8856" lon="6.68707">
        <ele>1290.23</ele>
        <time>2021-06-03T08:01:59Z</time>
      </trkpt>
      <trkpt lat="43.88559" lon="6.68706">
        <ele>1293.11</ele>
        <time>2021-06-03T08:02:01Z</time>
      </trkpt>
      <trkpt lat="43.88559" lon="6.68703">
        <ele>1289.75</ele>
        <time>2021-06-03T08:02:04Z</time>
      </trkpt>
      <trkpt lat="43.88559" lon="6.68702">
        <ele>1293.11</ele>
        <time>2021-06-03T08:02:05Z</time>
      </trkpt>
      <trkpt lat="43.88562" lon="6.68694">
        <ele>1296.48</ele>
        <time>2021-06-03T08:02:15Z</time>
      </trkpt>
      <trkpt lat="43.88561" lon="6.68694">
        <ele>1292.63</ele>
        <time>2021-06-03T08:02:16Z</time>
      </trkpt>
      <trkpt lat="43.8856" lon="6.68694">
        <ele>1282.54</ele>
        <time>2021-06-03T08:02:20Z</time>
      </trkpt>
      <trkpt lat="43.8856" lon="6.68694">
        <ele>1296.48</ele>
        <time>2021-06-03T08:02:21Z</time>
      </trkpt>
      <trkpt lat="43.8856" lon="6.68694">
        <ele>1291.67</ele>
        <time>2021-06-03T08:02:22Z</time>
      </trkpt>
      <trkpt lat="43.8856" lon="6.68693">
        <ele>1292.15</ele>
        <time>2021-06-03T08:02:27Z</time>
      </trkpt>
      <trkpt lat="43.8856" lon="6.68694">
        <ele>1292.15</ele>
        <time>2021-06-03T08:02:48Z</time>
      </trkpt>
      <trkpt lat="43.88562" lon="6.68693">
        <ele>1292.63</ele>
        <time>2021-06-03T08:03:17Z</time>
      </trkpt>
      <trkpt lat="43.88563" lon="6.68693">
        <ele>1292.63</ele>
        <time>2021-06-03T08:03:48Z</time>
      </trkpt>
      <trkpt lat="43.88565" lon="6.68695">
        <ele>1293.11</ele>
        <time>2021-06-03T08:04:20Z</time>
      </trkpt>
      <trkpt lat="43.88564" lon="6.68692">
        <ele>1293.11</ele>
        <time>2021-06-03T08:04:55Z</time>
      </trkpt>
      <trkpt lat="43.88562" lon="6.6869">
        <ele>1292.63</ele>
        <time>2021-06-03T08:05:23Z</time>
      </trkpt>
      <trkpt lat="43.8856" lon="6.68691">
        <ele>1293.11</ele>
        <time>2021-06-03T08:05:55Z</time>
      </trkpt>
      <trkpt lat="43.88561" lon="6.68693">
        <ele>1292.63</ele>
        <time>2021-06-03T08:06:17Z</time>
      </trkpt>
      <trkpt lat="43.88563" lon="6.68694">
        <ele>1292.63</ele>
        <time>2021-06-03T08:06:43Z</time>
      </trkpt>
      <trkpt lat="43.88563" lon="6.68694">
        <ele>1296.48</ele>
        <time>2021-06-03T08:06:48Z</time>
      </trkpt>
      <trkpt lat="43.88563" lon="6.68694">
        <ele>1293.59</ele>
        <time>2021-06-03T08:06:49Z</time>
      </trkpt>
      <trkpt lat="43.88563" lon="6.68695">
        <ele>1292.15</ele>
        <time>2021-06-03T08:06:51Z</time>
      </trkpt>
      <trkpt lat="43.88561" lon="6.68696">
        <ele>1293.11</ele>
        <time>2021-06-03T08:07:23Z</time>
      </trkpt>
      <trkpt lat="43.88561" lon="6.68697">
        <ele>1293.59</ele>
        <time>2021-06-03T08:07:49Z</time>
      </trkpt>
      <trkpt lat="43.88561" lon="6.68695">
        <ele>1293.11</ele>
        <time>2021-06-03T08:08:22Z</time>
      </trkpt>
      <trkpt lat="43.88562" lon="6.68696">
        <ele>1293.11</ele>
        <time>2021-06-03T08:08:48Z</time>
      </trkpt>
      <trkpt lat="43.88563" lon="6.68696">
        <ele>1292.63</ele>
        <time>2021-06-03T08:09:11Z</time>
      </trkpt>
      <trkpt lat="43.88563" lon="6.68698">
        <ele>1293.11</ele>
        <time>2021-06-03T08:09:21Z</time>
      </trkpt>
      <trkpt lat="43.88563" lon="6.68697">
        <ele>1293.59</ele>
        <time>2021-06-03T08:09:42Z</time>
      </trkpt>
      <trkpt lat="43.88567" lon="6.68697">
        <ele>1294.07</ele>
        <time>2021-06-03T08:10:01Z</time>
      </trkpt>
      <trkpt lat="43.88575" lon="6.68707">
        <ele>1292.63</ele>
        <time>2021-06-03T08:10:13Z</time>
      </trkpt>
      <trkpt lat="43.88577" lon="6.68709">
        <ele>1291.67</ele>
        <time>2021-06-03T08:10:25Z</time>
      </trkpt>
      <trkpt lat="43.88578" lon="6.68715">
        <ele>1291.19</ele>
        <time>2021-06-03T08:10:39Z</time>
      </trkpt>
      <trkpt lat="43.88581" lon="6.68717">
        <ele>1289.75</ele>
        <time>2021-06-03T08:10:55Z</time>
      </trkpt>
      <trkpt lat="43.8858" lon="6.68716">
        <ele>1290.23</ele>
        <time>2021-06-03T08:11:17Z</time>
      </trkpt>
      <trkpt lat="43.88578" lon="6.68719">
        <ele>1290.23</ele>
        <time>2021-06-03T08:11:49Z</time>
      </trkpt>
      <trkpt lat="43.8858" lon="6.68717">
        <ele>1289.75</ele>
        <time>2021-06-03T08:12:16Z</time>
      </trkpt>
      <trkpt lat="43.88579" lon="6.68717">
        <ele>1289.75</ele>
        <time>2021-06-03T08:12:28Z</time>
      </trkpt>
      <trkpt lat="43.88578" lon="6.68724">
        <ele>1289.75</ele>
        <time>2021-06-03T08:12:35Z</time>
      </trkpt>
      <trkpt lat="43.88579" lon="6.68732">
        <ele>1289.75</ele>
        <time>2021-06-03T08:12:45Z</time>
      </trkpt>
      <trkpt lat="43.88583" lon="6.68742">
        <ele>1290.23</ele>
        <time>2021-06-03T08:12:59Z</time>
      </trkpt>
      <trkpt lat="43.88585" lon="6.68747">
        <ele>1290.71</ele>
        <time>2021-06-03T08:13:05Z</time>
      </trkpt>
      <trkpt lat="43.88589" lon="6.68753">
        <ele>1289.75</ele>
        <time>2021-06-03T08:13:12Z</time>
      </trkpt>
      <trkpt lat="43.88595" lon="6.68763">
        <ele>1289.75</ele>
        <time>2021-06-03T08:13:22Z</time>
      </trkpt>
      <trkpt lat="43.886" lon="6.68776">
        <ele>1288.78</ele>
        <time>2021-06-03T08:13:35Z</time>
      </trkpt>
      <trkpt lat="43.88611" lon="6.68778">
        <ele>1289.75</ele>
        <time>2021-06-03T08:13:53Z</time>
      </trkpt>
      <trkpt lat="43.88615" lon="6.68776">
        <ele>1287.82</ele>
        <time>2021-06-03T08:14:05Z</time>
      </trkpt>
      <trkpt lat="43.88618" lon="6.68771">
        <ele>1286.38</ele>
        <time>2021-06-03T08:14:15Z</time>
      </trkpt>
      <trkpt lat="43.88618" lon="6.68768">
        <ele>1285.9</ele>
        <time>2021-06-03T08:14:32Z</time>
      </trkpt>
      <trkpt lat="43.88621" lon="6.68764">
        <ele>1284.46</ele>
        <time>2021-06-03T08:14:40Z</time>
      </trkpt>
      <trkpt lat="43.88623" lon="6.68763">
        <ele>1284.46</ele>
        <time>2021-06-03T08:14:43Z</time>
      </trkpt>
      <trkpt lat="43.88626" lon="6.68762">
        <ele>1283.98</ele>
        <time>2021-06-03T08:14:46Z</time>
      </trkpt>
      <trkpt lat="43.8863" lon="6.68762">
        <ele>1285.9</ele>
        <time>2021-06-03T08:15:00Z</time>
      </trkpt>
      <trkpt lat="43.88632" lon="6.68762">
        <ele>1284.46</ele>
        <time>2021-06-03T08:15:14Z</time>
      </trkpt>
      <trkpt lat="43.88639" lon="6.68757">
        <ele>1282.06</ele>
        <time>2021-06-03T08:15:26Z</time>
      </trkpt>
      <trkpt lat="43.88648" lon="6.68754">
        <ele>1283.02</ele>
        <time>2021-06-03T08:15:36Z</time>
      </trkpt>
      <trkpt lat="43.88651" lon="6.68752">
        <ele>1282.06</ele>
        <time>2021-06-03T08:15:40Z</time>
      </trkpt>
      <trkpt lat="43.88653" lon="6.68753">
        <ele>1281.57</ele>
        <time>2021-06-03T08:15:43Z</time>
      </trkpt>
      <trkpt lat="43.88656" lon="6.68756">
        <ele>1281.57</ele>
        <time>2021-06-03T08:15:49Z</time>
      </trkpt>
      <trkpt lat="43.88664" lon="6.68764">
        <ele>1282.54</ele>
        <time>2021-06-03T08:16:01Z</time>
      </trkpt>
      <trkpt lat="43.88679" lon="6.68765">
        <ele>1281.57</ele>
        <time>2021-06-03T08:16:13Z</time>
      </trkpt>
      <trkpt lat="43.88682" lon="6.68765">
        <ele>1280.61</ele>
        <time>2021-06-03T08:16:16Z</time>
      </trkpt>
      <trkpt lat="43.88691" lon="6.68762">
        <ele>1280.61</ele>
        <time>2021-06-03T08:16:25Z</time>
      </trkpt>
      <trkpt lat="43.88694" lon="6.68761">
        <ele>1280.61</ele>
        <time>2021-06-03T08:16:28Z</time>
      </trkpt>
      <trkpt lat="43.88698" lon="6.68762">
        <ele>1279.17</ele>
        <time>2021-06-03T08:16:42Z</time>
      </trkpt>
      <trkpt lat="43.887" lon="6.68761">
        <ele>1279.65</ele>
        <time>2021-06-03T08:17:00Z</time>
      </trkpt>
      <trkpt lat="43.88705" lon="6.68763">
        <ele>1278.69</ele>
        <time>2021-06-03T08:17:06Z</time>
      </trkpt>
      <trkpt lat="43.88716" lon="6.68767">
        <ele>1278.69</ele>
        <time>2021-06-03T08:17:19Z</time>
      </trkpt>
      <trkpt lat="43.88719" lon="6.68767">
        <ele>1278.69</ele>
        <time>2021-06-03T08:17:21Z</time>
      </trkpt>
      <trkpt lat="43.88726" lon="6.68765">
        <ele>1278.21</ele>
        <time>2021-06-03T08:17:26Z</time>
      </trkpt>
      <trkpt lat="43.8873" lon="6.68766">
        <ele>1277.73</ele>
        <time>2021-06-03T08:17:30Z</time>
      </trkpt>
      <trkpt lat="43.88732" lon="6.68766">
        <ele>1276.77</ele>
        <time>2021-06-03T08:17:32Z</time>
      </trkpt>
      <trkpt lat="43.8874" lon="6.68765">
        <ele>1276.29</ele>
        <time>2021-06-03T08:17:40Z</time>
      </trkpt>
      <trkpt lat="43.88743" lon="6.68765">
        <ele>1275.33</ele>
        <time>2021-06-03T08:17:43Z</time>
      </trkpt>
      <trkpt lat="43.88746" lon="6.68764">
        <ele>1275.33</ele>
        <time>2021-06-03T08:17:47Z</time>
      </trkpt>
      <trkpt lat="43.88749" lon="6.68764">
        <ele>1274.85</ele>
        <time>2021-06-03T08:17:50Z</time>
      </trkpt>
      <trkpt lat="43.8876" lon="6.68762">
        <ele>1273.88</ele>
        <time>2021-06-03T08:18:00Z</time>
      </trkpt>
      <trkpt lat="43.8877" lon="6.68768">
        <ele>1273.4</ele>
        <time>2021-06-03T08:18:13Z</time>
      </trkpt>
      <trkpt lat="43.88775" lon="6.68773">
        <ele>1273.4</ele>
        <time>2021-06-03T08:18:21Z</time>
      </trkpt>
      <trkpt lat="43.88778" lon="6.68773">
        <ele>1272.92</ele>
        <time>2021-06-03T08:18:23Z</time>
      </trkpt>
      <trkpt lat="43.8879" lon="6.68774">
        <ele>1271</ele>
        <time>2021-06-03T08:18:35Z</time>
      </trkpt>
      <trkpt lat="43.88799" lon="6.68775">
        <ele>1269.08</ele>
        <time>2021-06-03T08:18:44Z</time>
      </trkpt>
      <trkpt lat="43.88805" lon="6.68778">
        <ele>1268.6</ele>
        <time>2021-06-03T08:18:53Z</time>
      </trkpt>
      <trkpt lat="43.88811" lon="6.68786">
        <ele>1268.12</ele>
        <time>2021-06-03T08:19:03Z</time>
      </trkpt>
      <trkpt lat="43.88817" lon="6.68789">
        <ele>1268.12</ele>
        <time>2021-06-03T08:19:14Z</time>
      </trkpt>
      <trkpt lat="43.8882" lon="6.68786">
        <ele>1267.64</ele>
        <time>2021-06-03T08:19:38Z</time>
      </trkpt>
      <trkpt lat="43.88827" lon="6.68792">
        <ele>1266.19</ele>
        <time>2021-06-03T08:19:50Z</time>
      </trkpt>
      <trkpt lat="43.88832" lon="6.68793">
        <ele>1266.19</ele>
        <time>2021-06-03T08:19:54Z</time>
      </trkpt>
      <trkpt lat="43.88835" lon="6.68796">
        <ele>1265.71</ele>
        <time>2021-06-03T08:19:57Z</time>
      </trkpt>
      <trkpt lat="43.88837" lon="6.68799">
        <ele>1265.23</ele>
        <time>2021-06-03T08:20:01Z</time>
      </trkpt>
      <trkpt lat="43.88851" lon="6.68806">
        <ele>1263.79</ele>
        <time>2021-06-03T08:20:15Z</time>
      </trkpt>
      <trkpt lat="43.88858" lon="6.6881">
        <ele>1263.31</ele>
        <time>2021-06-03T08:20:21Z</time>
      </trkpt>
      <trkpt lat="43.88862" lon="6.68814">
        <ele>1263.31</ele>
        <time>2021-06-03T08:20:28Z</time>
      </trkpt>
      <trkpt lat="43.88867" lon="6.68818">
        <ele>1263.31</ele>
        <time>2021-06-03T08:20:35Z</time>
      </trkpt>
      <trkpt lat="43.88876" lon="6.68821">
        <ele>1261.87</ele>
        <time>2021-06-03T08:20:46Z</time>
      </trkpt>
      <trkpt lat="43.88882" lon="6.68822">
        <ele>1260.91</ele>
        <time>2021-06-03T08:20:53Z</time>
      </trkpt>
      <trkpt lat="43.88894" lon="6.68826">
        <ele>1259.46</ele>
        <time>2021-06-03T08:21:04Z</time>
      </trkpt>
      <trkpt lat="43.88909" lon="6.68823">
        <ele>1259.94</ele>
        <time>2021-06-03T08:21:15Z</time>
      </trkpt>
      <trkpt lat="43.88916" lon="6.68824">
        <ele>1259.94</ele>
        <time>2021-06-03T08:21:20Z</time>
      </trkpt>
      <trkpt lat="43.88923" lon="6.68826">
        <ele>1258.98</ele>
        <time>2021-06-03T08:21:27Z</time>
      </trkpt>
      <trkpt lat="43.88935" lon="6.68831">
        <ele>1258.5</ele>
        <time>2021-06-03T08:21:39Z</time>
      </trkpt>
      <trkpt lat="43.88945" lon="6.68833">
        <ele>1257.06</ele>
        <time>2021-06-03T08:21:46Z</time>
      </trkpt>
      <trkpt lat="43.88948" lon="6.68833">
        <ele>1256.58</ele>
        <time>2021-06-03T08:21:48Z</time>
      </trkpt>
      <trkpt lat="43.88956" lon="6.68836">
        <ele>1255.62</ele>
        <time>2021-06-03T08:21:56Z</time>
      </trkpt>
      <trkpt lat="43.88958" lon="6.68836">
        <ele>1255.14</ele>
        <time>2021-06-03T08:21:58Z</time>
      </trkpt>
      <trkpt lat="43.88965" lon="6.68836">
        <ele>1254.66</ele>
        <time>2021-06-03T08:22:04Z</time>
      </trkpt>
      <trkpt lat="43.88968" lon="6.68837">
        <ele>1253.7</ele>
        <time>2021-06-03T08:22:09Z</time>
      </trkpt>
      <trkpt lat="43.88975" lon="6.68841">
        <ele>1252.74</ele>
        <time>2021-06-03T08:22:18Z</time>
      </trkpt>
      <trkpt lat="43.8898" lon="6.68843">
        <ele>1251.29</ele>
        <time>2021-06-03T08:22:22Z</time>
      </trkpt>
      <trkpt lat="43.88984" lon="6.68847">
        <ele>1250.81</ele>
        <time>2021-06-03T08:22:26Z</time>
      </trkpt>
      <trkpt lat="43.88994" lon="6.6885">
        <ele>1249.85</ele>
        <time>2021-06-03T08:22:37Z</time>
      </trkpt>
      <trkpt lat="43.88994" lon="6.68849">
        <ele>1249.85</ele>
        <time>2021-06-03T08:22:39Z</time>
      </trkpt>
      <trkpt lat="43.88996" lon="6.68846">
        <ele>1249.85</ele>
        <time>2021-06-03T08:22:41Z</time>
      </trkpt>
      <trkpt lat="43.88999" lon="6.68844">
        <ele>1249.37</ele>
        <time>2021-06-03T08:22:43Z</time>
      </trkpt>
      <trkpt lat="43.89003" lon="6.68841">
        <ele>1249.37</ele>
        <time>2021-06-03T08:22:46Z</time>
      </trkpt>
      <trkpt lat="43.89007" lon="6.68841">
        <ele>1248.89</ele>
        <time>2021-06-03T08:22:50Z</time>
      </trkpt>
      <trkpt lat="43.89012" lon="6.6884">
        <ele>1248.41</ele>
        <time>2021-06-03T08:22:54Z</time>
      </trkpt>
      <trkpt lat="43.89014" lon="6.68839">
        <ele>1247.93</ele>
        <time>2021-06-03T08:22:56Z</time>
      </trkpt>
      <trkpt lat="43.89024" lon="6.68835">
        <ele>1247.45</ele>
        <time>2021-06-03T08:23:07Z</time>
      </trkpt>
      <trkpt lat="43.89033" lon="6.68831">
        <ele>1247.93</ele>
        <time>2021-06-03T08:23:14Z</time>
      </trkpt>
      <trkpt lat="43.89037" lon="6.68831">
        <ele>1247.93</ele>
        <time>2021-06-03T08:23:17Z</time>
      </trkpt>
      <trkpt lat="43.89039" lon="6.68832">
        <ele>1247.45</ele>
        <time>2021-06-03T08:23:20Z</time>
      </trkpt>
      <trkpt lat="43.89044" lon="6.68831">
        <ele>1247.45</ele>
        <time>2021-06-03T08:23:24Z</time>
      </trkpt>
      <trkpt lat="43.89049" lon="6.68833">
        <ele>1247.45</ele>
        <time>2021-06-03T08:23:28Z</time>
      </trkpt>
      <trkpt lat="43.89054" lon="6.68836">
        <ele>1246.49</ele>
        <time>2021-06-03T08:23:36Z</time>
      </trkpt>
      <trkpt lat="43.89063" lon="6.68835">
        <ele>1246.49</ele>
        <time>2021-06-03T08:23:43Z</time>
      </trkpt>
      <trkpt lat="43.89073" lon="6.68838">
        <ele>1246.49</ele>
        <time>2021-06-03T08:23:55Z</time>
      </trkpt>
      <trkpt lat="43.89084" lon="6.68841">
        <ele>1245.53</ele>
        <time>2021-06-03T08:24:07Z</time>
      </trkpt>
      <trkpt lat="43.89095" lon="6.68842">
        <ele>1245.53</ele>
        <time>2021-06-03T08:24:18Z</time>
      </trkpt>
      <trkpt lat="43.89107" lon="6.6884">
        <ele>1246.01</ele>
        <time>2021-06-03T08:24:28Z</time>
      </trkpt>
      <trkpt lat="43.89113" lon="6.68835">
        <ele>1246.49</ele>
        <time>2021-06-03T08:24:40Z</time>
      </trkpt>
      <trkpt lat="43.89113" lon="6.68834">
        <ele>1246.49</ele>
        <time>2021-06-03T08:25:04Z</time>
      </trkpt>
      <trkpt lat="43.89116" lon="6.68835">
        <ele>1246.49</ele>
        <time>2021-06-03T08:25:20Z</time>
      </trkpt>
      <trkpt lat="43.89118" lon="6.68833">
        <ele>1245.53</ele>
        <time>2021-06-03T08:25:31Z</time>
      </trkpt>
      <trkpt lat="43.89121" lon="6.68831">
        <ele>1245.53</ele>
        <time>2021-06-03T08:25:34Z</time>
      </trkpt>
      <trkpt lat="43.89129" lon="6.68826">
        <ele>1245.53</ele>
        <time>2021-06-03T08:25:48Z</time>
      </trkpt>
      <trkpt lat="43.89136" lon="6.68822">
        <ele>1246.01</ele>
        <time>2021-06-03T08:26:00Z</time>
      </trkpt>
      <trkpt lat="43.89147" lon="6.68816">
        <ele>1245.04</ele>
        <time>2021-06-03T08:26:12Z</time>
      </trkpt>
      <trkpt lat="43.89163" lon="6.68803">
        <ele>1244.08</ele>
        <time>2021-06-03T08:26:25Z</time>
      </trkpt>
      <trkpt lat="43.89174" lon="6.68796">
        <ele>1244.08</ele>
        <time>2021-06-03T08:26:37Z</time>
      </trkpt>
      <trkpt lat="43.89181" lon="6.68793">
        <ele>1244.08</ele>
        <time>2021-06-03T08:26:44Z</time>
      </trkpt>
      <trkpt lat="43.89188" lon="6.68793">
        <ele>1244.08</ele>
        <time>2021-06-03T08:26:51Z</time>
      </trkpt>
      <trkpt lat="43.89202" lon="6.68794">
        <ele>1244.08</ele>
        <time>2021-06-03T08:27:03Z</time>
      </trkpt>
      <trkpt lat="43.89213" lon="6.68792">
        <ele>1243.6</ele>
        <time>2021-06-03T08:27:15Z</time>
      </trkpt>
      <trkpt lat="43.89221" lon="6.68791">
        <ele>1243.12</ele>
        <time>2021-06-03T08:27:21Z</time>
      </trkpt>
      <trkpt lat="43.89232" lon="6.68794">
        <ele>1243.6</ele>
        <time>2021-06-03T08:27:32Z</time>
      </trkpt>
      <trkpt lat="43.89238" lon="6.68794">
        <ele>1243.6</ele>
        <time>2021-06-03T08:27:37Z</time>
      </trkpt>
      <trkpt lat="43.89249" lon="6.68794">
        <ele>1243.12</ele>
        <time>2021-06-03T08:27:45Z</time>
      </trkpt>
      <trkpt lat="43.89255" lon="6.68794">
        <ele>1243.12</ele>
        <time>2021-06-03T08:27:50Z</time>
      </trkpt>
      <trkpt lat="43.89266" lon="6.68792">
        <ele>1243.12</ele>
        <time>2021-06-03T08:27:59Z</time>
      </trkpt>
      <trkpt lat="43.89269" lon="6.68792">
        <ele>1243.12</ele>
        <time>2021-06-03T08:28:02Z</time>
      </trkpt>
      <trkpt lat="43.89273" lon="6.68792">
        <ele>1243.12</ele>
        <time>2021-06-03T08:28:06Z</time>
      </trkpt>
      <trkpt lat="43.89279" lon="6.6879">
        <ele>1242.64</ele>
        <time>2021-06-03T08:28:13Z</time>
      </trkpt>
      <trkpt lat="43.89286" lon="6.68788">
        <ele>1242.64</ele>
        <time>2021-06-03T08:28:19Z</time>
      </trkpt>
      <trkpt lat="43.89291" lon="6.68787">
        <ele>1243.6</ele>
        <time>2021-06-03T08:28:23Z</time>
      </trkpt>
      <trkpt lat="43.89295" lon="6.68785">
        <ele>1242.64</ele>
        <time>2021-06-03T08:28:27Z</time>
      </trkpt>
      <trkpt lat="43.89299" lon="6.68784">
        <ele>1242.64</ele>
        <time>2021-06-03T08:28:31Z</time>
      </trkpt>
      <trkpt lat="43.8931" lon="6.68782">
        <ele>1241.68</ele>
        <time>2021-06-03T08:28:41Z</time>
      </trkpt>
      <trkpt lat="43.89315" lon="6.68782">
        <ele>1241.2</ele>
        <time>2021-06-03T08:28:45Z</time>
      </trkpt>
      <trkpt lat="43.89321" lon="6.68784">
        <ele>1241.68</ele>
        <time>2021-06-03T08:28:51Z</time>
      </trkpt>
      <trkpt lat="43.8933" lon="6.68789">
        <ele>1241.2</ele>
        <time>2021-06-03T08:28:59Z</time>
      </trkpt>
      <trkpt lat="43.89333" lon="6.68792">
        <ele>1241.68</ele>
        <time>2021-06-03T08:29:03Z</time>
      </trkpt>
      <trkpt lat="43.89342" lon="6.68801">
        <ele>1240.72</ele>
        <time>2021-06-03T08:29:14Z</time>
      </trkpt>
      <trkpt lat="43.89342" lon="6.68802">
        <ele>1241.68</ele>
        <time>2021-06-03T08:29:15Z</time>
      </trkpt>
      <trkpt lat="43.89345" lon="6.68806">
        <ele>1240.72</ele>
        <time>2021-06-03T08:29:19Z</time>
      </trkpt>
      <trkpt lat="43.89355" lon="6.68813">
        <ele>1240.72</ele>
        <time>2021-06-03T08:29:27Z</time>
      </trkpt>
      <trkpt lat="43.89359" lon="6.68823">
        <ele>1240.24</ele>
        <time>2021-06-03T08:29:35Z</time>
      </trkpt>
      <trkpt lat="43.89359" lon="6.68827">
        <ele>1239.76</ele>
        <time>2021-06-03T08:29:37Z</time>
      </trkpt>
      <trkpt lat="43.89361" lon="6.68829">
        <ele>1239.76</ele>
        <time>2021-06-03T08:29:39Z</time>
      </trkpt>
      <trkpt lat="43.89361" lon="6.68831">
        <ele>1239.28</ele>
        <time>2021-06-03T08:29:40Z</time>
      </trkpt>
      <trkpt lat="43.89362" lon="6.68833">
        <ele>1239.76</ele>
        <time>2021-06-03T08:29:42Z</time>
      </trkpt>
      <trkpt lat="43.89368" lon="6.6885">
        <ele>1238.8</ele>
        <time>2021-06-03T08:29:53Z</time>
      </trkpt>
      <trkpt lat="43.89368" lon="6.68853">
        <ele>1238.32</ele>
        <time>2021-06-03T08:29:55Z</time>
      </trkpt>
      <trkpt lat="43.89367" lon="6.6886">
        <ele>1237.83</ele>
        <time>2021-06-03T08:30:05Z</time>
      </trkpt>
      <trkpt lat="43.89365" lon="6.68864">
        <ele>1238.8</ele>
        <time>2021-06-03T08:30:30Z</time>
      </trkpt>
      <trkpt lat="43.89362" lon="6.68857">
        <ele>1238.8</ele>
        <time>2021-06-03T08:31:01Z</time>
      </trkpt>
      <trkpt lat="43.8937" lon="6.68854">
        <ele>1239.76</ele>
        <time>2021-06-03T08:31:16Z</time>
      </trkpt>
      <trkpt lat="43.89371" lon="6.68861">
        <ele>1238.8</ele>
        <time>2021-06-03T08:31:19Z</time>
      </trkpt>
      <trkpt lat="43.89372" lon="6.68866">
        <ele>1238.32</ele>
        <time>2021-06-03T08:31:22Z</time>
      </trkpt>
      <trkpt lat="43.89376" lon="6.68877">
        <ele>1236.87</ele>
        <time>2021-06-03T08:31:33Z</time>
      </trkpt>
      <trkpt lat="43.89375" lon="6.68882">
        <ele>1238.32</ele>
        <time>2021-06-03T08:31:36Z</time>
      </trkpt>
      <trkpt lat="43.89379" lon="6.68896">
        <ele>1236.87</ele>
        <time>2021-06-03T08:31:48Z</time>
      </trkpt>
      <trkpt lat="43.89379" lon="6.689">
        <ele>1236.87</ele>
        <time>2021-06-03T08:31:50Z</time>
      </trkpt>
      <trkpt lat="43.89375" lon="6.68919">
        <ele>1236.39</ele>
        <time>2021-06-03T08:32:00Z</time>
      </trkpt>
      <trkpt lat="43.89376" lon="6.68925">
        <ele>1236.39</ele>
        <time>2021-06-03T08:32:03Z</time>
      </trkpt>
      <trkpt lat="43.89373" lon="6.68934">
        <ele>1235.91</ele>
        <time>2021-06-03T08:32:10Z</time>
      </trkpt>
      <trkpt lat="43.89373" lon="6.6894">
        <ele>1235.91</ele>
        <time>2021-06-03T08:32:16Z</time>
      </trkpt>
      <trkpt lat="43.89372" lon="6.68946">
        <ele>1235.91</ele>
        <time>2021-06-03T08:32:19Z</time>
      </trkpt>
      <trkpt lat="43.89371" lon="6.6895">
        <ele>1235.43</ele>
        <time>2021-06-03T08:32:22Z</time>
      </trkpt>
      <trkpt lat="43.8937" lon="6.68953">
        <ele>1235.43</ele>
        <time>2021-06-03T08:32:24Z</time>
      </trkpt>
      <trkpt lat="43.8937" lon="6.68956">
        <ele>1235.43</ele>
        <time>2021-06-03T08:32:25Z</time>
      </trkpt>
      <trkpt lat="43.89371" lon="6.6896">
        <ele>1235.43</ele>
        <time>2021-06-03T08:32:27Z</time>
      </trkpt>
      <trkpt lat="43.89374" lon="6.68977">
        <ele>1233.51</ele>
        <time>2021-06-03T08:32:36Z</time>
      </trkpt>
      <trkpt lat="43.89374" lon="6.68979">
        <ele>1234.95</ele>
        <time>2021-06-03T08:32:37Z</time>
      </trkpt>
      <trkpt lat="43.89372" lon="6.68993">
        <ele>1234.47</ele>
        <time>2021-06-03T08:32:47Z</time>
      </trkpt>
      <trkpt lat="43.89376" lon="6.69005">
        <ele>1233.51</ele>
        <time>2021-06-03T08:32:53Z</time>
      </trkpt>
      <trkpt lat="43.89375" lon="6.69014">
        <ele>1233.51</ele>
        <time>2021-06-03T08:33:03Z</time>
      </trkpt>
      <trkpt lat="43.89379" lon="6.69017">
        <ele>1233.99</ele>
        <time>2021-06-03T08:33:07Z</time>
      </trkpt>
      <trkpt lat="43.89382" lon="6.6902">
        <ele>1233.03</ele>
        <time>2021-06-03T08:33:20Z</time>
      </trkpt>
      <trkpt lat="43.89382" lon="6.69018">
        <ele>1233.03</ele>
        <time>2021-06-03T08:33:25Z</time>
      </trkpt>
      <trkpt lat="43.8938" lon="6.6902">
        <ele>1233.03</ele>
        <time>2021-06-03T08:33:28Z</time>
      </trkpt>
      <trkpt lat="43.89378" lon="6.69022">
        <ele>1233.03</ele>
        <time>2021-06-03T08:33:31Z</time>
      </trkpt>
      <trkpt lat="43.89377" lon="6.69031">
        <ele>1233.51</ele>
        <time>2021-06-03T08:33:40Z</time>
      </trkpt>
      <trkpt lat="43.89376" lon="6.69034">
        <ele>1233.03</ele>
        <time>2021-06-03T08:33:41Z</time>
      </trkpt>
      <trkpt lat="43.89374" lon="6.69043">
        <ele>1233.03</ele>
        <time>2021-06-03T08:33:47Z</time>
      </trkpt>
      <trkpt lat="43.8937" lon="6.69054">
        <ele>1232.55</ele>
        <time>2021-06-03T08:33:55Z</time>
      </trkpt>
      <trkpt lat="43.8937" lon="6.69057">
        <ele>1232.55</ele>
        <time>2021-06-03T08:33:57Z</time>
      </trkpt>
      <trkpt lat="43.89369" lon="6.69064">
        <ele>1232.55</ele>
        <time>2021-06-03T08:34:01Z</time>
      </trkpt>
      <trkpt lat="43.89369" lon="6.69075">
        <ele>1232.07</ele>
        <time>2021-06-03T08:34:09Z</time>
      </trkpt>
      <trkpt lat="43.8937" lon="6.69078">
        <ele>1231.59</ele>
        <time>2021-06-03T08:34:11Z</time>
      </trkpt>
      <trkpt lat="43.89373" lon="6.69091">
        <ele>1231.59</ele>
        <time>2021-06-03T08:34:26Z</time>
      </trkpt>
      <trkpt lat="43.8937" lon="6.69087">
        <ele>1230.62</ele>
        <time>2021-06-03T08:34:38Z</time>
      </trkpt>
      <trkpt lat="43.89372" lon="6.6909">
        <ele>1232.07</ele>
        <time>2021-06-03T08:34:57Z</time>
      </trkpt>
      <trkpt lat="43.89373" lon="6.69093">
        <ele>1231.11</ele>
        <time>2021-06-03T08:35:13Z</time>
      </trkpt>
      <trkpt lat="43.89376" lon="6.69105">
        <ele>1231.11</ele>
        <time>2021-06-03T08:35:20Z</time>
      </trkpt>
      <trkpt lat="43.89378" lon="6.69126">
        <ele>1229.66</ele>
        <time>2021-06-03T08:35:35Z</time>
      </trkpt>
      <trkpt lat="43.89386" lon="6.69128">
        <ele>1230.14</ele>
        <time>2021-06-03T08:35:48Z</time>
      </trkpt>
      <trkpt lat="43.89387" lon="6.69126">
        <ele>1228.7</ele>
        <time>2021-06-03T08:35:51Z</time>
      </trkpt>
      <trkpt lat="43.89388" lon="6.69125">
        <ele>1230.62</ele>
        <time>2021-06-03T08:35:52Z</time>
      </trkpt>
      <trkpt lat="43.89388" lon="6.69124">
        <ele>1229.66</ele>
        <time>2021-06-03T08:35:53Z</time>
      </trkpt>
      <trkpt lat="43.89388" lon="6.6912">
        <ele>1233.99</ele>
        <time>2021-06-03T08:35:58Z</time>
      </trkpt>
      <trkpt lat="43.89389" lon="6.69119">
        <ele>1229.66</ele>
        <time>2021-06-03T08:35:59Z</time>
      </trkpt>
      <trkpt lat="43.8939" lon="6.69119">
        <ele>1233.51</ele>
        <time>2021-06-03T08:36:01Z</time>
      </trkpt>
      <trkpt lat="43.8939" lon="6.6912">
        <ele>1228.7</ele>
        <time>2021-06-03T08:36:02Z</time>
      </trkpt>
      <trkpt lat="43.89391" lon="6.69121">
        <ele>1233.03</ele>
        <time>2021-06-03T08:36:03Z</time>
      </trkpt>
      <trkpt lat="43.89394" lon="6.69133">
        <ele>1232.07</ele>
        <time>2021-06-03T08:36:14Z</time>
      </trkpt>
      <trkpt lat="43.89395" lon="6.69135">
        <ele>1230.62</ele>
        <time>2021-06-03T08:36:18Z</time>
      </trkpt>
      <trkpt lat="43.89396" lon="6.69143">
        <ele>1227.26</ele>
        <time>2021-06-03T08:36:25Z</time>
      </trkpt>
      <trkpt lat="43.89396" lon="6.69144">
        <ele>1232.55</ele>
        <time>2021-06-03T08:36:26Z</time>
      </trkpt>
      <trkpt lat="43.894" lon="6.69157">
        <ele>1233.03</ele>
        <time>2021-06-03T08:36:35Z</time>
      </trkpt>
      <trkpt lat="43.894" lon="6.69158">
        <ele>1232.07</ele>
        <time>2021-06-03T08:36:37Z</time>
      </trkpt>
      <trkpt lat="43.89401" lon="6.69161">
        <ele>1230.62</ele>
        <time>2021-06-03T08:36:39Z</time>
      </trkpt>
      <trkpt lat="43.89406" lon="6.69183">
        <ele>1231.11</ele>
        <time>2021-06-03T08:36:54Z</time>
      </trkpt>
      <trkpt lat="43.89409" lon="6.69189">
        <ele>1228.22</ele>
        <time>2021-06-03T08:36:59Z</time>
      </trkpt>
      <trkpt lat="43.8941" lon="6.69192">
        <ele>1231.59</ele>
        <time>2021-06-03T08:37:01Z</time>
      </trkpt>
      <trkpt lat="43.8941" lon="6.69194">
        <ele>1231.11</ele>
        <time>2021-06-03T08:37:02Z</time>
      </trkpt>
      <trkpt lat="43.89413" lon="6.69199">
        <ele>1230.14</ele>
        <time>2021-06-03T08:37:07Z</time>
      </trkpt>
      <trkpt lat="43.89415" lon="6.69201">
        <ele>1231.59</ele>
        <time>2021-06-03T08:37:09Z</time>
      </trkpt>
      <trkpt lat="43.89416" lon="6.69203">
        <ele>1226.3</ele>
        <time>2021-06-03T08:37:11Z</time>
      </trkpt>
      <trkpt lat="43.89417" lon="6.69204">
        <ele>1230.62</ele>
        <time>2021-06-03T08:37:12Z</time>
      </trkpt>
      <trkpt lat="43.89422" lon="6.69209">
        <ele>1230.14</ele>
        <time>2021-06-03T08:37:18Z</time>
      </trkpt>
      <trkpt lat="43.89425" lon="6.69213">
        <ele>1232.07</ele>
        <time>2021-06-03T08:37:21Z</time>
      </trkpt>
      <trkpt lat="43.89426" lon="6.69215">
        <ele>1231.11</ele>
        <time>2021-06-03T08:37:23Z</time>
      </trkpt>
      <trkpt lat="43.89428" lon="6.69218">
        <ele>1230.62</ele>
        <time>2021-06-03T08:37:26Z</time>
      </trkpt>
      <trkpt lat="43.8943" lon="6.6922">
        <ele>1231.59</ele>
        <time>2021-06-03T08:37:28Z</time>
      </trkpt>
      <trkpt lat="43.89442" lon="6.69233">
        <ele>1232.55</ele>
        <time>2021-06-03T08:37:41Z</time>
      </trkpt>
      <trkpt lat="43.89445" lon="6.69236">
        <ele>1231.11</ele>
        <time>2021-06-03T08:37:44Z</time>
      </trkpt>
      <trkpt lat="43.89446" lon="6.69237">
        <ele>1232.07</ele>
        <time>2021-06-03T08:37:46Z</time>
      </trkpt>
      <trkpt lat="43.89448" lon="6.69239">
        <ele>1231.11</ele>
        <time>2021-06-03T08:37:48Z</time>
      </trkpt>
      <trkpt lat="43.89455" lon="6.6925">
        <ele>1229.66</ele>
        <time>2021-06-03T08:37:57Z</time>
      </trkpt>
      <trkpt lat="43.89459" lon="6.69255">
        <ele>1231.59</ele>
        <time>2021-06-03T08:38:02Z</time>
      </trkpt>
      <trkpt lat="43.89463" lon="6.69265">
        <ele>1228.22</ele>
        <time>2021-06-03T08:38:09Z</time>
      </trkpt>
      <trkpt lat="43.89465" lon="6.69269">
        <ele>1231.59</ele>
        <time>2021-06-03T08:38:12Z</time>
      </trkpt>
      <trkpt lat="43.89465" lon="6.69271">
        <ele>1229.66</ele>
        <time>2021-06-03T08:38:14Z</time>
      </trkpt>
      <trkpt lat="43.89468" lon="6.69279">
        <ele>1229.66</ele>
        <time>2021-06-03T08:38:28Z</time>
      </trkpt>
      <trkpt lat="43.89469" lon="6.69279">
        <ele>1226.3</ele>
        <time>2021-06-03T08:38:32Z</time>
      </trkpt>
      <trkpt lat="43.89469" lon="6.6928">
        <ele>1233.99</ele>
        <time>2021-06-03T08:38:33Z</time>
      </trkpt>
      <trkpt lat="43.8947" lon="6.6928">
        <ele>1228.7</ele>
        <time>2021-06-03T08:38:34Z</time>
      </trkpt>
      <trkpt lat="43.89475" lon="6.69289">
        <ele>1231.59</ele>
        <time>2021-06-03T08:38:44Z</time>
      </trkpt>
      <trkpt lat="43.89475" lon="6.69291">
        <ele>1230.14</ele>
        <time>2021-06-03T08:39:02Z</time>
      </trkpt>
      <trkpt lat="43.8948" lon="6.69294">
        <ele>1233.51</ele>
        <time>2021-06-03T08:39:15Z</time>
      </trkpt>
      <trkpt lat="43.89481" lon="6.69294">
        <ele>1229.18</ele>
        <time>2021-06-03T08:39:16Z</time>
      </trkpt>
      <trkpt lat="43.89485" lon="6.69295">
        <ele>1230.62</ele>
        <time>2021-06-03T08:39:32Z</time>
      </trkpt>
      <trkpt lat="43.89486" lon="6.69299">
        <ele>1230.14</ele>
        <time>2021-06-03T08:39:35Z</time>
      </trkpt>
      <trkpt lat="43.89497" lon="6.6931">
        <ele>1229.18</ele>
        <time>2021-06-03T08:39:49Z</time>
      </trkpt>
      <trkpt lat="43.89502" lon="6.69316">
        <ele>1229.66</ele>
        <time>2021-06-03T08:39:57Z</time>
      </trkpt>
      <trkpt lat="43.89503" lon="6.69318">
        <ele>1228.22</ele>
        <time>2021-06-03T08:40:00Z</time>
      </trkpt>
      <trkpt lat="43.89505" lon="6.69321">
        <ele>1228.22</ele>
        <time>2021-06-03T08:40:03Z</time>
      </trkpt>
      <trkpt lat="43.89506" lon="6.69324">
        <ele>1229.18</ele>
        <time>2021-06-03T08:40:05Z</time>
      </trkpt>
      <trkpt lat="43.89517" lon="6.69333">
        <ele>1229.18</ele>
        <time>2021-06-03T08:40:16Z</time>
      </trkpt>
      <trkpt lat="43.89518" lon="6.69335">
        <ele>1231.11</ele>
        <time>2021-06-03T08:40:18Z</time>
      </trkpt>
      <trkpt lat="43.89529" lon="6.69345">
        <ele>1230.62</ele>
        <time>2021-06-03T08:40:28Z</time>
      </trkpt>
      <trkpt lat="43.8953" lon="6.69346">
        <ele>1227.26</ele>
        <time>2021-06-03T08:40:29Z</time>
      </trkpt>
      <trkpt lat="43.89531" lon="6.69347">
        <ele>1230.14</ele>
        <time>2021-06-03T08:40:31Z</time>
      </trkpt>
      <trkpt lat="43.89533" lon="6.69348">
        <ele>1228.22</ele>
        <time>2021-06-03T08:40:33Z</time>
      </trkpt>
      <trkpt lat="43.89539" lon="6.69354">
        <ele>1227.26</ele>
        <time>2021-06-03T08:40:39Z</time>
      </trkpt>
      <trkpt lat="43.89542" lon="6.69357">
        <ele>1227.26</ele>
        <time>2021-06-03T08:40:42Z</time>
      </trkpt>
      <trkpt lat="43.8955" lon="6.69364">
        <ele>1226.3</ele>
        <time>2021-06-03T08:40:51Z</time>
      </trkpt>
      <trkpt lat="43.89551" lon="6.69365">
        <ele>1227.74</ele>
        <time>2021-06-03T08:40:52Z</time>
      </trkpt>
      <trkpt lat="43.89556" lon="6.6937">
        <ele>1227.26</ele>
        <time>2021-06-03T08:40:57Z</time>
      </trkpt>
      <trkpt lat="43.89561" lon="6.69373">
        <ele>1222.93</ele>
        <time>2021-06-03T08:41:02Z</time>
      </trkpt>
      <trkpt lat="43.89562" lon="6.69373">
        <ele>1222.93</ele>
        <time>2021-06-03T08:41:03Z</time>
      </trkpt>
      <trkpt lat="43.89563" lon="6.69374">
        <ele>1228.22</ele>
        <time>2021-06-03T08:41:04Z</time>
      </trkpt>
      <trkpt lat="43.89565" lon="6.69375">
        <ele>1224.86</ele>
        <time>2021-06-03T08:41:06Z</time>
      </trkpt>
      <trkpt lat="43.89573" lon="6.69377">
        <ele>1223.9</ele>
        <time>2021-06-03T08:41:12Z</time>
      </trkpt>
      <trkpt lat="43.89576" lon="6.69378">
        <ele>1224.86</ele>
        <time>2021-06-03T08:41:14Z</time>
      </trkpt>
      <trkpt lat="43.89587" lon="6.69382">
        <ele>1225.34</ele>
        <time>2021-06-03T08:41:25Z</time>
      </trkpt>
      <trkpt lat="43.89594" lon="6.69387">
        <ele>1222.45</ele>
        <time>2021-06-03T08:41:31Z</time>
      </trkpt>
      <trkpt lat="43.89604" lon="6.6939">
        <ele>1221.97</ele>
        <time>2021-06-03T08:41:39Z</time>
      </trkpt>
      <trkpt lat="43.89607" lon="6.69391">
        <ele>1221.49</ele>
        <time>2021-06-03T08:41:43Z</time>
      </trkpt>
      <trkpt lat="43.89614" lon="6.69395">
        <ele>1218.13</ele>
        <time>2021-06-03T08:41:51Z</time>
      </trkpt>
      <trkpt lat="43.89616" lon="6.69396">
        <ele>1221.01</ele>
        <time>2021-06-03T08:41:53Z</time>
      </trkpt>
      <trkpt lat="43.89618" lon="6.69399">
        <ele>1218.13</ele>
        <time>2021-06-03T08:41:56Z</time>
      </trkpt>
      <trkpt lat="43.89628" lon="6.69403">
        <ele>1215.24</ele>
        <time>2021-06-03T08:42:05Z</time>
      </trkpt>
      <trkpt lat="43.89628" lon="6.69404">
        <ele>1217.65</ele>
        <time>2021-06-03T08:42:06Z</time>
      </trkpt>
      <trkpt lat="43.8963" lon="6.69406">
        <ele>1215.24</ele>
        <time>2021-06-03T08:42:08Z</time>
      </trkpt>
      <trkpt lat="43.89643" lon="6.69415">
        <ele>1214.28</ele>
        <time>2021-06-03T08:42:19Z</time>
      </trkpt>
      <trkpt lat="43.89648" lon="6.69418">
        <ele>1213.32</ele>
        <time>2021-06-03T08:42:25Z</time>
      </trkpt>
      <trkpt lat="43.89656" lon="6.69425">
        <ele>1211.4</ele>
        <time>2021-06-03T08:42:34Z</time>
      </trkpt>
      <trkpt lat="43.8966" lon="6.69427">
        <ele>1209.96</ele>
        <time>2021-06-03T08:42:37Z</time>
      </trkpt>
      <trkpt lat="43.89663" lon="6.6943">
        <ele>1211.88</ele>
        <time>2021-06-03T08:42:40Z</time>
      </trkpt>
      <trkpt lat="43.8967" lon="6.69435">
        <ele>1208.03</ele>
        <time>2021-06-03T08:42:50Z</time>
      </trkpt>
      <trkpt lat="43.89672" lon="6.69436">
        <ele>1209</ele>
        <time>2021-06-03T08:42:51Z</time>
      </trkpt>
      <trkpt lat="43.8968" lon="6.69439">
        <ele>1206.59</ele>
        <time>2021-06-03T08:43:02Z</time>
      </trkpt>
      <trkpt lat="43.89689" lon="6.69444">
        <ele>1205.63</ele>
        <time>2021-06-03T08:43:16Z</time>
      </trkpt>
      <trkpt lat="43.89687" lon="6.69448">
        <ele>1202.75</ele>
        <time>2021-06-03T08:43:22Z</time>
      </trkpt>
      <trkpt lat="43.89693" lon="6.69452">
        <ele>1202.75</ele>
        <time>2021-06-03T08:43:35Z</time>
      </trkpt>
      <trkpt lat="43.89699" lon="6.69454">
        <ele>1198.9</ele>
        <time>2021-06-03T08:43:45Z</time>
      </trkpt>
      <trkpt lat="43.89701" lon="6.69454">
        <ele>1203.23</ele>
        <time>2021-06-03T08:43:47Z</time>
      </trkpt>
      <trkpt lat="43.89702" lon="6.69454">
        <ele>1202.27</ele>
        <time>2021-06-03T08:43:48Z</time>
      </trkpt>
      <trkpt lat="43.8971" lon="6.69458">
        <ele>1199.86</ele>
        <time>2021-06-03T08:44:00Z</time>
      </trkpt>
      <trkpt lat="43.89715" lon="6.69462">
        <ele>1199.86</ele>
        <time>2021-06-03T08:44:09Z</time>
      </trkpt>
      <trkpt lat="43.8972" lon="6.69467">
        <ele>1198.9</ele>
        <time>2021-06-03T08:44:25Z</time>
      </trkpt>
      <trkpt lat="43.8972" lon="6.69467">
        <ele>1198.9</ele>
        <time>2021-06-03T08:44:32Z</time>
      </trkpt>
      <trkpt lat="43.89722" lon="6.69471">
        <ele>1199.38</ele>
        <time>2021-06-03T08:45:04Z</time>
      </trkpt>
      <trkpt lat="43.89718" lon="6.69471">
        <ele>1199.38</ele>
        <time>2021-06-03T08:45:31Z</time>
      </trkpt>
      <trkpt lat="43.89718" lon="6.69471">
        <ele>1197.94</ele>
        <time>2021-06-03T08:45:35Z</time>
      </trkpt>
      <trkpt lat="43.89716" lon="6.69468">
        <ele>1199.38</ele>
        <time>2021-06-03T08:46:01Z</time>
      </trkpt>
      <trkpt lat="43.89716" lon="6.69468">
        <ele>1195.54</ele>
        <time>2021-06-03T08:46:02Z</time>
      </trkpt>
      <trkpt lat="43.89715" lon="6.69468">
        <ele>1199.86</ele>
        <time>2021-06-03T08:46:03Z</time>
      </trkpt>
      <trkpt lat="43.8971" lon="6.69469">
        <ele>1196.02</ele>
        <time>2021-06-03T08:46:16Z</time>
      </trkpt>
      <trkpt lat="43.89711" lon="6.69473">
        <ele>1195.06</ele>
        <time>2021-06-03T08:46:24Z</time>
      </trkpt>
      <trkpt lat="43.89716" lon="6.69475">
        <ele>1195.54</ele>
        <time>2021-06-03T08:46:31Z</time>
      </trkpt>
      <trkpt lat="43.89721" lon="6.69476">
        <ele>1193.61</ele>
        <time>2021-06-03T08:46:36Z</time>
      </trkpt>
      <trkpt lat="43.89728" lon="6.69479">
        <ele>1192.17</ele>
        <time>2021-06-03T08:46:46Z</time>
      </trkpt>
      <trkpt lat="43.8973" lon="6.69481">
        <ele>1195.54</ele>
        <time>2021-06-03T08:46:49Z</time>
      </trkpt>
      <trkpt lat="43.89731" lon="6.6948">
        <ele>1191.69</ele>
        <time>2021-06-03T08:46:59Z</time>
      </trkpt>
      <trkpt lat="43.89732" lon="6.69481">
        <ele>1196.5</ele>
        <time>2021-06-03T08:47:03Z</time>
      </trkpt>
      <trkpt lat="43.89732" lon="6.69481">
        <ele>1192.65</ele>
        <time>2021-06-03T08:47:04Z</time>
      </trkpt>
      <trkpt lat="43.89732" lon="6.69484">
        <ele>1193.61</ele>
        <time>2021-06-03T08:47:21Z</time>
      </trkpt>
      <trkpt lat="43.89732" lon="6.69484">
        <ele>1184.96</ele>
        <time>2021-06-03T08:47:22Z</time>
      </trkpt>
      <trkpt lat="43.89732" lon="6.69483">
        <ele>1177.27</ele>
        <time>2021-06-03T08:47:23Z</time>
      </trkpt>
      <trkpt lat="43.89733" lon="6.69484">
        <ele>1210.44</ele>
        <time>2021-06-03T08:47:24Z</time>
      </trkpt>
      <trkpt lat="43.89733" lon="6.69484">
        <ele>1190.25</ele>
        <time>2021-06-03T08:47:25Z</time>
      </trkpt>
      <trkpt lat="43.89733" lon="6.69485">
        <ele>1193.13</ele>
        <time>2021-06-03T08:47:27Z</time>
      </trkpt>
      <trkpt lat="43.89735" lon="6.69485">
        <ele>1189.77</ele>
        <time>2021-06-03T08:47:33Z</time>
      </trkpt>
      <trkpt lat="43.89735" lon="6.69485">
        <ele>1192.17</ele>
        <time>2021-06-03T08:47:36Z</time>
      </trkpt>
      <trkpt lat="43.89735" lon="6.69483">
        <ele>1188.33</ele>
        <time>2021-06-03T08:47:53Z</time>
      </trkpt>
      <trkpt lat="43.89735" lon="6.69483">
        <ele>1196.5</ele>
        <time>2021-06-03T08:47:54Z</time>
      </trkpt>
      <trkpt lat="43.89735" lon="6.69483">
        <ele>1192.17</ele>
        <time>2021-06-03T08:47:56Z</time>
      </trkpt>
      <trkpt lat="43.89734" lon="6.69484">
        <ele>1192.17</ele>
        <time>2021-06-03T08:48:01Z</time>
      </trkpt>
      <trkpt lat="43.89733" lon="6.69484">
        <ele>1191.21</ele>
        <time>2021-06-03T08:48:12Z</time>
      </trkpt>
      <trkpt lat="43.89732" lon="6.69483">
        <ele>1194.58</ele>
        <time>2021-06-03T08:48:16Z</time>
      </trkpt>
      <trkpt lat="43.89732" lon="6.69482">
        <ele>1190.73</ele>
        <time>2021-06-03T08:48:18Z</time>
      </trkpt>
      <trkpt lat="43.89731" lon="6.69479">
        <ele>1194.09</ele>
        <time>2021-06-03T08:48:23Z</time>
      </trkpt>
      <trkpt lat="43.89731" lon="6.69478">
        <ele>1190.25</ele>
        <time>2021-06-03T08:48:25Z</time>
      </trkpt>
      <trkpt lat="43.89731" lon="6.69478">
        <ele>1194.09</ele>
        <time>2021-06-03T08:48:34Z</time>
      </trkpt>
      <trkpt lat="43.89732" lon="6.69481">
        <ele>1190.73</ele>
        <time>2021-06-03T08:48:49Z</time>
      </trkpt>
      <trkpt lat="43.89732" lon="6.69481">
        <ele>1194.58</ele>
        <time>2021-06-03T08:48:50Z</time>
      </trkpt>
      <trkpt lat="43.89732" lon="6.69481">
        <ele>1191.21</ele>
        <time>2021-06-03T08:48:51Z</time>
      </trkpt>
      <trkpt lat="43.89732" lon="6.69481">
        <ele>1195.06</ele>
        <time>2021-06-03T08:48:53Z</time>
      </trkpt>
      <trkpt lat="43.89732" lon="6.69481">
        <ele>1188.81</ele>
        <time>2021-06-03T08:48:54Z</time>
      </trkpt>
      <trkpt lat="43.89732" lon="6.69482">
        <ele>1197.46</ele>
        <time>2021-06-03T08:48:55Z</time>
      </trkpt>
      <trkpt lat="43.89732" lon="6.69482">
        <ele>1193.61</ele>
        <time>2021-06-03T08:48:56Z</time>
      </trkpt>
      <trkpt lat="43.89736" lon="6.69483">
        <ele>1193.61</ele>
        <time>2021-06-03T08:49:27Z</time>
      </trkpt>
      <trkpt lat="43.89737" lon="6.69483">
        <ele>1190.25</ele>
        <time>2021-06-03T08:49:31Z</time>
      </trkpt>
      <trkpt lat="43.89737" lon="6.69483">
        <ele>1193.13</ele>
        <time>2021-06-03T08:49:33Z</time>
      </trkpt>
      <trkpt lat="43.89735" lon="6.69484">
        <ele>1196.5</ele>
        <time>2021-06-03T08:49:55Z</time>
      </trkpt>
      <trkpt lat="43.89735" lon="6.69485">
        <ele>1193.13</ele>
        <time>2021-06-03T08:49:56Z</time>
      </trkpt>
      <trkpt lat="43.89733" lon="6.69483">
        <ele>1194.09</ele>
        <time>2021-06-03T08:50:32Z</time>
      </trkpt>
      <trkpt lat="43.89733" lon="6.69482">
        <ele>1190.73</ele>
        <time>2021-06-03T08:50:49Z</time>
      </trkpt>
      <trkpt lat="43.89733" lon="6.69482">
        <ele>1194.58</ele>
        <time>2021-06-03T08:50:56Z</time>
      </trkpt>
      <trkpt lat="43.89733" lon="6.69482">
        <ele>1191.69</ele>
        <time>2021-06-03T08:50:57Z</time>
      </trkpt>
      <trkpt lat="43.89734" lon="6.69487">
        <ele>1192.17</ele>
        <time>2021-06-03T08:51:27Z</time>
      </trkpt>
      <trkpt lat="43.89733" lon="6.69484">
        <ele>1193.13</ele>
        <time>2021-06-03T08:51:55Z</time>
      </trkpt>
      <trkpt lat="43.89733" lon="6.69484">
        <ele>1192.65</ele>
        <time>2021-06-03T08:52:22Z</time>
      </trkpt>
      <trkpt lat="43.89733" lon="6.69485">
        <ele>1196.5</ele>
        <time>2021-06-03T08:52:38Z</time>
      </trkpt>
      <trkpt lat="43.89733" lon="6.69485">
        <ele>1190.73</ele>
        <time>2021-06-03T08:52:39Z</time>
      </trkpt>
      <trkpt lat="43.89733" lon="6.69485">
        <ele>1194.09</ele>
        <time>2021-06-03T08:52:40Z</time>
      </trkpt>
      <trkpt lat="43.89734" lon="6.69484">
        <ele>1193.61</ele>
        <time>2021-06-03T08:52:49Z</time>
      </trkpt>
      <trkpt lat="43.89734" lon="6.69486">
        <ele>1195.54</ele>
        <time>2021-06-03T08:53:17Z</time>
      </trkpt>
      <trkpt lat="43.89734" lon="6.69486">
        <ele>1193.13</ele>
        <time>2021-06-03T08:53:20Z</time>
      </trkpt>
      <trkpt lat="43.89734" lon="6.69487">
        <ele>1199.38</ele>
        <time>2021-06-03T08:53:35Z</time>
      </trkpt>
      <trkpt lat="43.89734" lon="6.69486">
        <ele>1193.13</ele>
        <time>2021-06-03T08:53:36Z</time>
      </trkpt>
      <trkpt lat="43.89734" lon="6.69487">
        <ele>1195.06</ele>
        <time>2021-06-03T08:54:02Z</time>
      </trkpt>
      <trkpt lat="43.89734" lon="6.69487">
        <ele>1191.69</ele>
        <time>2021-06-03T08:54:03Z</time>
      </trkpt>
      <trkpt lat="43.89734" lon="6.69487">
        <ele>1193.61</ele>
        <time>2021-06-03T08:54:10Z</time>
      </trkpt>
      <trkpt lat="43.89733" lon="6.69488">
        <ele>1199.86</ele>
        <time>2021-06-03T08:54:20Z</time>
      </trkpt>
      <trkpt lat="43.89733" lon="6.69487">
        <ele>1196.5</ele>
        <time>2021-06-03T08:54:21Z</time>
      </trkpt>
      <trkpt lat="43.89734" lon="6.69488">
        <ele>1190.73</ele>
        <time>2021-06-03T08:54:22Z</time>
      </trkpt>
      <trkpt lat="43.89734" lon="6.69488">
        <ele>1196.98</ele>
        <time>2021-06-03T08:54:23Z</time>
      </trkpt>
      <trkpt lat="43.89734" lon="6.69488">
        <ele>1193.61</ele>
        <time>2021-06-03T08:54:24Z</time>
      </trkpt>
      <trkpt lat="43.89734" lon="6.69488">
        <ele>1197.94</ele>
        <time>2021-06-03T08:54:29Z</time>
      </trkpt>
      <trkpt lat="43.89734" lon="6.69489">
        <ele>1194.58</ele>
        <time>2021-06-03T08:54:30Z</time>
      </trkpt>
      <trkpt lat="43.89734" lon="6.69489">
        <ele>1193.13</ele>
        <time>2021-06-03T08:54:32Z</time>
      </trkpt>
      <trkpt lat="43.89731" lon="6.69484">
        <ele>1194.09</ele>
        <time>2021-06-03T08:54:51Z</time>
      </trkpt>
      <trkpt lat="43.89726" lon="6.6948">
        <ele>1197.46</ele>
        <time>2021-06-03T08:54:59Z</time>
      </trkpt>
      <trkpt lat="43.89726" lon="6.6948">
        <ele>1194.09</ele>
        <time>2021-06-03T08:55:00Z</time>
      </trkpt>
      <trkpt lat="43.89725" lon="6.69479">
        <ele>1197.94</ele>
        <time>2021-06-03T08:55:03Z</time>
      </trkpt>
      <trkpt lat="43.89724" lon="6.69478">
        <ele>1196.5</ele>
        <time>2021-06-03T08:55:04Z</time>
      </trkpt>
      <trkpt lat="43.89717" lon="6.69479">
        <ele>1193.61</ele>
        <time>2021-06-03T08:55:29Z</time>
      </trkpt>
      <trkpt lat="43.8972" lon="6.69479">
        <ele>1195.06</ele>
        <time>2021-06-03T08:56:11Z</time>
      </trkpt>
      <trkpt lat="43.89706" lon="6.69473">
        <ele>1195.54</ele>
        <time>2021-06-03T08:56:40Z</time>
      </trkpt>
      <trkpt lat="43.89719" lon="6.69476">
        <ele>1195.54</ele>
        <time>2021-06-03T08:57:08Z</time>
      </trkpt>
      <trkpt lat="43.89725" lon="6.69478">
        <ele>1195.06</ele>
        <time>2021-06-03T08:57:20Z</time>
      </trkpt>
      <trkpt lat="43.89724" lon="6.69477">
        <ele>1195.06</ele>
        <time>2021-06-03T08:57:48Z</time>
      </trkpt>
      <trkpt lat="43.89727" lon="6.69477">
        <ele>1195.06</ele>
        <time>2021-06-03T08:58:11Z</time>
      </trkpt>
      <trkpt lat="43.89728" lon="6.69478">
        <ele>1193.61</ele>
        <time>2021-06-03T08:58:14Z</time>
      </trkpt>
      <trkpt lat="43.89732" lon="6.69478">
        <ele>1193.13</ele>
        <time>2021-06-03T08:58:27Z</time>
      </trkpt>
      <trkpt lat="43.89731" lon="6.69476">
        <ele>1193.61</ele>
        <time>2021-06-03T08:58:50Z</time>
      </trkpt>
      <trkpt lat="43.89735" lon="6.69479">
        <ele>1191.69</ele>
        <time>2021-06-03T08:59:07Z</time>
      </trkpt>
      <trkpt lat="43.89732" lon="6.69479">
        <ele>1192.65</ele>
        <time>2021-06-03T08:59:27Z</time>
      </trkpt>
      <trkpt lat="43.89733" lon="6.69483">
        <ele>1192.65</ele>
        <time>2021-06-03T08:59:51Z</time>
      </trkpt>
      <trkpt lat="43.89739" lon="6.69486">
        <ele>1192.17</ele>
        <time>2021-06-03T09:00:22Z</time>
      </trkpt>
      <trkpt lat="43.89741" lon="6.69483">
        <ele>1191.69</ele>
        <time>2021-06-03T09:00:51Z</time>
      </trkpt>
      <trkpt lat="43.89737" lon="6.69484">
        <ele>1192.17</ele>
        <time>2021-06-03T09:01:18Z</time>
      </trkpt>
      <trkpt lat="43.89743" lon="6.69486">
        <ele>1189.77</ele>
        <time>2021-06-03T09:01:31Z</time>
      </trkpt>
      <trkpt lat="43.89745" lon="6.69488">
        <ele>1190.25</ele>
        <time>2021-06-03T09:01:35Z</time>
      </trkpt>
      <trkpt lat="43.89754" lon="6.6949">
        <ele>1188.33</ele>
        <time>2021-06-03T09:01:49Z</time>
      </trkpt>
      <trkpt lat="43.89756" lon="6.69492">
        <ele>1187.37</ele>
        <time>2021-06-03T09:01:53Z</time>
      </trkpt>
      <trkpt lat="43.89763" lon="6.69496">
        <ele>1186.88</ele>
        <time>2021-06-03T09:02:06Z</time>
      </trkpt>
      <trkpt lat="43.89771" lon="6.69504">
        <ele>1184</ele>
        <time>2021-06-03T09:02:21Z</time>
      </trkpt>
      <trkpt lat="43.89776" lon="6.69508">
        <ele>1183.04</ele>
        <time>2021-06-03T09:02:33Z</time>
      </trkpt>
      <trkpt lat="43.8978" lon="6.69511">
        <ele>1179.67</ele>
        <time>2021-06-03T09:02:41Z</time>
      </trkpt>
      <trkpt lat="43.89788" lon="6.69519">
        <ele>1178.71</ele>
        <time>2021-06-03T09:02:54Z</time>
      </trkpt>
      <trkpt lat="43.89789" lon="6.69519">
        <ele>1178.23</ele>
        <time>2021-06-03T09:02:56Z</time>
      </trkpt>
      <trkpt lat="43.89791" lon="6.69524">
        <ele>1174.87</ele>
        <time>2021-06-03T09:03:04Z</time>
      </trkpt>
      <trkpt lat="43.8979" lon="6.69524">
        <ele>1178.71</ele>
        <time>2021-06-03T09:03:05Z</time>
      </trkpt>
      <trkpt lat="43.89786" lon="6.69525">
        <ele>1175.35</ele>
        <time>2021-06-03T09:03:11Z</time>
      </trkpt>
      <trkpt lat="43.89785" lon="6.69532">
        <ele>1172.47</ele>
        <time>2021-06-03T09:03:23Z</time>
      </trkpt>
      <trkpt lat="43.89785" lon="6.69533">
        <ele>1174.87</ele>
        <time>2021-06-03T09:03:24Z</time>
      </trkpt>
      <trkpt lat="43.89794" lon="6.69539">
        <ele>1171.98</ele>
        <time>2021-06-03T09:03:36Z</time>
      </trkpt>
      <trkpt lat="43.89801" lon="6.69544">
        <ele>1171.02</ele>
        <time>2021-06-03T09:03:48Z</time>
      </trkpt>
      <trkpt lat="43.89805" lon="6.69549">
        <ele>1170.54</ele>
        <time>2021-06-03T09:03:56Z</time>
      </trkpt>
      <trkpt lat="43.89809" lon="6.69552">
        <ele>1167.66</ele>
        <time>2021-06-03T09:04:03Z</time>
      </trkpt>
      <trkpt lat="43.89813" lon="6.69564">
        <ele>1167.18</ele>
        <time>2021-06-03T09:04:15Z</time>
      </trkpt>
      <trkpt lat="43.89818" lon="6.69572">
        <ele>1166.22</ele>
        <time>2021-06-03T09:04:26Z</time>
      </trkpt>
      <trkpt lat="43.89825" lon="6.69579">
        <ele>1165.26</ele>
        <time>2021-06-03T09:04:39Z</time>
      </trkpt>
      <trkpt lat="43.89827" lon="6.6958">
        <ele>1166.22</ele>
        <time>2021-06-03T09:04:49Z</time>
      </trkpt>
      <trkpt lat="43.89831" lon="6.6958">
        <ele>1164.29</ele>
        <time>2021-06-03T09:04:53Z</time>
      </trkpt>
      <trkpt lat="43.89833" lon="6.69579">
        <ele>1164.77</ele>
        <time>2021-06-03T09:04:55Z</time>
      </trkpt>
      <trkpt lat="43.89845" lon="6.69578">
        <ele>1162.37</ele>
        <time>2021-06-03T09:05:08Z</time>
      </trkpt>
      <trkpt lat="43.89853" lon="6.6958">
        <ele>1160.93</ele>
        <time>2021-06-03T09:05:15Z</time>
      </trkpt>
      <trkpt lat="43.8986" lon="6.69583">
        <ele>1159.49</ele>
        <time>2021-06-03T09:05:21Z</time>
      </trkpt>
      <trkpt lat="43.89862" lon="6.69583">
        <ele>1159.49</ele>
        <time>2021-06-03T09:05:23Z</time>
      </trkpt>
      <trkpt lat="43.89872" lon="6.69579">
        <ele>1158.53</ele>
        <time>2021-06-03T09:05:37Z</time>
      </trkpt>
      <trkpt lat="43.89878" lon="6.69576">
        <ele>1156.12</ele>
        <time>2021-06-03T09:05:45Z</time>
      </trkpt>
      <trkpt lat="43.89882" lon="6.69575">
        <ele>1154.68</ele>
        <time>2021-06-03T09:05:49Z</time>
      </trkpt>
      <trkpt lat="43.89888" lon="6.69569">
        <ele>1154.68</ele>
        <time>2021-06-03T09:06:02Z</time>
      </trkpt>
      <trkpt lat="43.89889" lon="6.69568">
        <ele>1153.24</ele>
        <time>2021-06-03T09:06:04Z</time>
      </trkpt>
      <trkpt lat="43.8989" lon="6.69567">
        <ele>1153.24</ele>
        <time>2021-06-03T09:06:06Z</time>
      </trkpt>
      <trkpt lat="43.89899" lon="6.6956">
        <ele>1150.35</ele>
        <time>2021-06-03T09:06:17Z</time>
      </trkpt>
      <trkpt lat="43.89899" lon="6.6956">
        <ele>1150.84</ele>
        <time>2021-06-03T09:06:18Z</time>
      </trkpt>
      <trkpt lat="43.899" lon="6.69558">
        <ele>1148.43</ele>
        <time>2021-06-03T09:06:22Z</time>
      </trkpt>
      <trkpt lat="43.899" lon="6.69557">
        <ele>1154.2</ele>
        <time>2021-06-03T09:06:24Z</time>
      </trkpt>
      <trkpt lat="43.89907" lon="6.69556">
        <ele>1150.84</ele>
        <time>2021-06-03T09:06:30Z</time>
      </trkpt>
      <trkpt lat="43.89911" lon="6.69555">
        <ele>1148.91</ele>
        <time>2021-06-03T09:06:34Z</time>
      </trkpt>
      <trkpt lat="43.89914" lon="6.69555">
        <ele>1146.03</ele>
        <time>2021-06-03T09:06:37Z</time>
      </trkpt>
      <trkpt lat="43.89915" lon="6.69554">
        <ele>1147.47</ele>
        <time>2021-06-03T09:06:38Z</time>
      </trkpt>
      <trkpt lat="43.89921" lon="6.69552">
        <ele>1145.55</ele>
        <time>2021-06-03T09:06:45Z</time>
      </trkpt>
      <trkpt lat="43.89931" lon="6.69545">
        <ele>1145.07</ele>
        <time>2021-06-03T09:07:00Z</time>
      </trkpt>
      <trkpt lat="43.89934" lon="6.69544">
        <ele>1142.66</ele>
        <time>2021-06-03T09:07:04Z</time>
      </trkpt>
      <trkpt lat="43.89944" lon="6.69541">
        <ele>1139.78</ele>
        <time>2021-06-03T09:07:16Z</time>
      </trkpt>
      <trkpt lat="43.89946" lon="6.69539">
        <ele>1139.3</ele>
        <time>2021-06-03T09:07:20Z</time>
      </trkpt>
      <trkpt lat="43.89956" lon="6.69535">
        <ele>1135.94</ele>
        <time>2021-06-03T09:07:32Z</time>
      </trkpt>
      <trkpt lat="43.89957" lon="6.69534">
        <ele>1136.42</ele>
        <time>2021-06-03T09:07:33Z</time>
      </trkpt>
      <trkpt lat="43.8996" lon="6.69532">
        <ele>1134.49</ele>
        <time>2021-06-03T09:07:38Z</time>
      </trkpt>
      <trkpt lat="43.8997" lon="6.69524">
        <ele>1132.57</ele>
        <time>2021-06-03T09:07:50Z</time>
      </trkpt>
      <trkpt lat="43.89978" lon="6.69517">
        <ele>1130.17</ele>
        <time>2021-06-03T09:08:02Z</time>
      </trkpt>
      <trkpt lat="43.89981" lon="6.69519">
        <ele>1129.21</ele>
        <time>2021-06-03T09:08:07Z</time>
      </trkpt>
      <trkpt lat="43.8998" lon="6.69528">
        <ele>1127.28</ele>
        <time>2021-06-03T09:08:16Z</time>
      </trkpt>
      <trkpt lat="43.89976" lon="6.69538">
        <ele>1125.36</ele>
        <time>2021-06-03T09:08:28Z</time>
      </trkpt>
      <trkpt lat="43.89975" lon="6.69543">
        <ele>1124.4</ele>
        <time>2021-06-03T09:08:34Z</time>
      </trkpt>
      <trkpt lat="43.89972" lon="6.69548">
        <ele>1124.4</ele>
        <time>2021-06-03T09:08:39Z</time>
      </trkpt>
      <trkpt lat="43.8997" lon="6.69559">
        <ele>1120.55</ele>
        <time>2021-06-03T09:08:50Z</time>
      </trkpt>
      <trkpt lat="43.89965" lon="6.69571">
        <ele>1118.15</ele>
        <time>2021-06-03T09:09:01Z</time>
      </trkpt>
      <trkpt lat="43.89963" lon="6.69574">
        <ele>1117.67</ele>
        <time>2021-06-03T09:09:06Z</time>
      </trkpt>
      <trkpt lat="43.89958" lon="6.69584">
        <ele>1116.23</ele>
        <time>2021-06-03T09:09:19Z</time>
      </trkpt>
      <trkpt lat="43.89957" lon="6.69588">
        <ele>1115.75</ele>
        <time>2021-06-03T09:09:23Z</time>
      </trkpt>
      <trkpt lat="43.89955" lon="6.69598">
        <ele>1112.86</ele>
        <time>2021-06-03T09:09:29Z</time>
      </trkpt>
      <trkpt lat="43.89954" lon="6.69599">
        <ele>1113.34</ele>
        <time>2021-06-03T09:09:30Z</time>
      </trkpt>
      <trkpt lat="43.89949" lon="6.69621">
        <ele>1111.9</ele>
        <time>2021-06-03T09:09:44Z</time>
      </trkpt>
      <trkpt lat="43.8995" lon="6.69625">
        <ele>1109.02</ele>
        <time>2021-06-03T09:09:50Z</time>
      </trkpt>
      <trkpt lat="43.89958" lon="6.69625">
        <ele>1108.06</ele>
        <time>2021-06-03T09:10:03Z</time>
      </trkpt>
      <trkpt lat="43.89964" lon="6.69622">
        <ele>1104.69</ele>
        <time>2021-06-03T09:10:13Z</time>
      </trkpt>
      <trkpt lat="43.89969" lon="6.69617">
        <ele>1103.73</ele>
        <time>2021-06-03T09:10:21Z</time>
      </trkpt>
      <trkpt lat="43.89976" lon="6.69609">
        <ele>1101.81</ele>
        <time>2021-06-03T09:10:33Z</time>
      </trkpt>
      <trkpt lat="43.89982" lon="6.696">
        <ele>1099.89</ele>
        <time>2021-06-03T09:10:45Z</time>
      </trkpt>
      <trkpt lat="43.89983" lon="6.69599">
        <ele>1100.37</ele>
        <time>2021-06-03T09:10:46Z</time>
      </trkpt>
      <trkpt lat="43.89984" lon="6.69598">
        <ele>1098.92</ele>
        <time>2021-06-03T09:10:48Z</time>
      </trkpt>
      <trkpt lat="43.89989" lon="6.69592">
        <ele>1090.75</ele>
        <time>2021-06-03T09:10:57Z</time>
      </trkpt>
      <trkpt lat="43.8999" lon="6.69592">
        <ele>1100.85</ele>
        <time>2021-06-03T09:10:58Z</time>
      </trkpt>
      <trkpt lat="43.89992" lon="6.6959">
        <ele>1097.48</ele>
        <time>2021-06-03T09:11:01Z</time>
      </trkpt>
      <trkpt lat="43.89993" lon="6.6959">
        <ele>1099.4</ele>
        <time>2021-06-03T09:11:12Z</time>
      </trkpt>
      <trkpt lat="43.89993" lon="6.6959">
        <ele>1097.48</ele>
        <time>2021-06-03T09:11:13Z</time>
      </trkpt>
      <trkpt lat="43.89996" lon="6.69596">
        <ele>1097.48</ele>
        <time>2021-06-03T09:11:41Z</time>
      </trkpt>
      <trkpt lat="43.89998" lon="6.696">
        <ele>1098.44</ele>
        <time>2021-06-03T09:12:07Z</time>
      </trkpt>
      <trkpt lat="43.89997" lon="6.69591">
        <ele>1098.92</ele>
        <time>2021-06-03T09:12:46Z</time>
      </trkpt>
      <trkpt lat="43.89998" lon="6.69598">
        <ele>1098.44</ele>
        <time>2021-06-03T09:13:22Z</time>
      </trkpt>
      <trkpt lat="43.89998" lon="6.69598">
        <ele>1094.12</ele>
        <time>2021-06-03T09:13:35Z</time>
      </trkpt>
      <trkpt lat="43.89998" lon="6.69599">
        <ele>1102.77</ele>
        <time>2021-06-03T09:13:36Z</time>
      </trkpt>
      <trkpt lat="43.89998" lon="6.69599">
        <ele>1097.96</ele>
        <time>2021-06-03T09:13:37Z</time>
      </trkpt>
      <trkpt lat="43.9" lon="6.69597">
        <ele>1097.48</ele>
        <time>2021-06-03T09:13:50Z</time>
      </trkpt>
      <trkpt lat="43.90002" lon="6.69596">
        <ele>1098.44</ele>
        <time>2021-06-03T09:13:56Z</time>
      </trkpt>
      <trkpt lat="43.90006" lon="6.6959">
        <ele>1095.56</ele>
        <time>2021-06-03T09:14:04Z</time>
      </trkpt>
      <trkpt lat="43.90017" lon="6.69577">
        <ele>1094.6</ele>
        <time>2021-06-03T09:14:20Z</time>
      </trkpt>
      <trkpt lat="43.90021" lon="6.69575">
        <ele>1093.16</ele>
        <time>2021-06-03T09:14:24Z</time>
      </trkpt>
      <trkpt lat="43.90024" lon="6.69574">
        <ele>1093.64</ele>
        <time>2021-06-03T09:14:27Z</time>
      </trkpt>
      <trkpt lat="43.90035" lon="6.6957">
        <ele>1089.79</ele>
        <time>2021-06-03T09:14:40Z</time>
      </trkpt>
      <trkpt lat="43.90037" lon="6.69569">
        <ele>1089.31</ele>
        <time>2021-06-03T09:14:46Z</time>
      </trkpt>
      <trkpt lat="43.90042" lon="6.69567">
        <ele>1087.39</ele>
        <time>2021-06-03T09:14:51Z</time>
      </trkpt>
      <trkpt lat="43.90048" lon="6.69562">
        <ele>1084.02</ele>
        <time>2021-06-03T09:14:59Z</time>
      </trkpt>
      <trkpt lat="43.90052" lon="6.69555">
        <ele>1084.5</ele>
        <time>2021-06-03T09:15:09Z</time>
      </trkpt>
      <trkpt lat="43.90053" lon="6.69554">
        <ele>1086.43</ele>
        <time>2021-06-03T09:15:10Z</time>
      </trkpt>
      <trkpt lat="43.90056" lon="6.69551">
        <ele>1082.58</ele>
        <time>2021-06-03T09:15:13Z</time>
      </trkpt>
      <trkpt lat="43.90056" lon="6.6955">
        <ele>1084.02</ele>
        <time>2021-06-03T09:15:14Z</time>
      </trkpt>
      <trkpt lat="43.90071" lon="6.69537">
        <ele>1080.66</ele>
        <time>2021-06-03T09:15:30Z</time>
      </trkpt>
      <trkpt lat="43.90072" lon="6.69536">
        <ele>1080.66</ele>
        <time>2021-06-03T09:15:31Z</time>
      </trkpt>
      <trkpt lat="43.90081" lon="6.6953">
        <ele>1081.14</ele>
        <time>2021-06-03T09:15:40Z</time>
      </trkpt>
      <trkpt lat="43.90082" lon="6.69529">
        <ele>1078.26</ele>
        <time>2021-06-03T09:15:41Z</time>
      </trkpt>
      <trkpt lat="43.90094" lon="6.69522">
        <ele>1077.78</ele>
        <time>2021-06-03T09:15:54Z</time>
      </trkpt>
      <trkpt lat="43.90102" lon="6.69517">
        <ele>1074.89</ele>
        <time>2021-06-03T09:16:06Z</time>
      </trkpt>
      <trkpt lat="43.90105" lon="6.69514">
        <ele>1075.37</ele>
        <time>2021-06-03T09:16:11Z</time>
      </trkpt>
      <trkpt lat="43.90108" lon="6.69511">
        <ele>1073.45</ele>
        <time>2021-06-03T09:16:14Z</time>
      </trkpt>
      <trkpt lat="43.9011" lon="6.6951">
        <ele>1076.81</ele>
        <time>2021-06-03T09:16:16Z</time>
      </trkpt>
      <trkpt lat="43.90117" lon="6.69506">
        <ele>1073.45</ele>
        <time>2021-06-03T09:16:24Z</time>
      </trkpt>
      <trkpt lat="43.9012" lon="6.69505">
        <ele>1074.89</ele>
        <time>2021-06-03T09:16:26Z</time>
      </trkpt>
      <trkpt lat="43.90125" lon="6.69502">
        <ele>1075.85</ele>
        <time>2021-06-03T09:16:31Z</time>
      </trkpt>
      <trkpt lat="43.90131" lon="6.69502">
        <ele>1073.45</ele>
        <time>2021-06-03T09:16:37Z</time>
      </trkpt>
      <trkpt lat="43.90137" lon="6.69499">
        <ele>1073.45</ele>
        <time>2021-06-03T09:16:43Z</time>
      </trkpt>
      <trkpt lat="43.90143" lon="6.69498">
        <ele>1073.45</ele>
        <time>2021-06-03T09:16:47Z</time>
      </trkpt>
      <trkpt lat="43.90152" lon="6.69498">
        <ele>1070.57</ele>
        <time>2021-06-03T09:16:54Z</time>
      </trkpt>
      <trkpt lat="43.90158" lon="6.69499">
        <ele>1071.53</ele>
        <time>2021-06-03T09:16:58Z</time>
      </trkpt>
      <trkpt lat="43.90162" lon="6.695">
        <ele>1070.08</ele>
        <time>2021-06-03T09:17:01Z</time>
      </trkpt>
      <trkpt lat="43.90164" lon="6.695">
        <ele>1070.57</ele>
        <time>2021-06-03T09:17:02Z</time>
      </trkpt>
      <trkpt lat="43.90169" lon="6.69503">
        <ele>1068.16</ele>
        <time>2021-06-03T09:17:07Z</time>
      </trkpt>
      <trkpt lat="43.9017" lon="6.69504">
        <ele>1069.12</ele>
        <time>2021-06-03T09:17:10Z</time>
      </trkpt>
      <trkpt lat="43.90176" lon="6.69505">
        <ele>1066.24</ele>
        <time>2021-06-03T09:17:17Z</time>
      </trkpt>
      <trkpt lat="43.90178" lon="6.69508">
        <ele>1067.2</ele>
        <time>2021-06-03T09:17:20Z</time>
      </trkpt>
      <trkpt lat="43.90186" lon="6.69517">
        <ele>1063.84</ele>
        <time>2021-06-03T09:17:33Z</time>
      </trkpt>
      <trkpt lat="43.90186" lon="6.69523">
        <ele>1060.47</ele>
        <time>2021-06-03T09:17:39Z</time>
      </trkpt>
      <trkpt lat="43.90191" lon="6.69525">
        <ele>1060.95</ele>
        <time>2021-06-03T09:17:47Z</time>
      </trkpt>
      <trkpt lat="43.90196" lon="6.69521">
        <ele>1059.03</ele>
        <time>2021-06-03T09:17:56Z</time>
      </trkpt>
      <trkpt lat="43.90207" lon="6.69513">
        <ele>1056.15</ele>
        <time>2021-06-03T09:18:10Z</time>
      </trkpt>
      <trkpt lat="43.9021" lon="6.69508">
        <ele>1055.67</ele>
        <time>2021-06-03T09:18:19Z</time>
      </trkpt>
      <trkpt lat="43.90213" lon="6.69506">
        <ele>1054.7</ele>
        <time>2021-06-03T09:18:22Z</time>
      </trkpt>
      <trkpt lat="43.90214" lon="6.69506">
        <ele>1053.74</ele>
        <time>2021-06-03T09:18:23Z</time>
      </trkpt>
      <trkpt lat="43.9022" lon="6.69504">
        <ele>1053.26</ele>
        <time>2021-06-03T09:18:30Z</time>
      </trkpt>
      <trkpt lat="43.90228" lon="6.69496">
        <ele>1048.94</ele>
        <time>2021-06-03T09:18:40Z</time>
      </trkpt>
      <trkpt lat="43.90228" lon="6.69496">
        <ele>1050.38</ele>
        <time>2021-06-03T09:18:41Z</time>
      </trkpt>
      <trkpt lat="43.90229" lon="6.69495">
        <ele>1051.34</ele>
        <time>2021-06-03T09:18:43Z</time>
      </trkpt>
      <trkpt lat="43.90234" lon="6.6949">
        <ele>1049.9</ele>
        <time>2021-06-03T09:18:49Z</time>
      </trkpt>
      <trkpt lat="43.90239" lon="6.69485">
        <ele>1048.94</ele>
        <time>2021-06-03T09:18:55Z</time>
      </trkpt>
      <trkpt lat="43.9024" lon="6.69483">
        <ele>1049.42</ele>
        <time>2021-06-03T09:18:56Z</time>
      </trkpt>
      <trkpt lat="43.90245" lon="6.69478">
        <ele>1048.45</ele>
        <time>2021-06-03T09:19:00Z</time>
      </trkpt>
      <trkpt lat="43.90254" lon="6.69468">
        <ele>1047.49</ele>
        <time>2021-06-03T09:19:10Z</time>
      </trkpt>
      <trkpt lat="43.90255" lon="6.69467">
        <ele>1048.45</ele>
        <time>2021-06-03T09:19:11Z</time>
      </trkpt>
      <trkpt lat="43.90259" lon="6.69464">
        <ele>1046.53</ele>
        <time>2021-06-03T09:19:15Z</time>
      </trkpt>
      <trkpt lat="43.90264" lon="6.6946">
        <ele>1046.53</ele>
        <time>2021-06-03T09:19:20Z</time>
      </trkpt>
      <trkpt lat="43.90275" lon="6.69453">
        <ele>1044.13</ele>
        <time>2021-06-03T09:19:33Z</time>
      </trkpt>
      <trkpt lat="43.90276" lon="6.69452">
        <ele>1044.13</ele>
        <time>2021-06-03T09:19:34Z</time>
      </trkpt>
      <trkpt lat="43.90279" lon="6.69452">
        <ele>1046.05</ele>
        <time>2021-06-03T09:19:36Z</time>
      </trkpt>
      <trkpt lat="43.90283" lon="6.69451">
        <ele>1043.65</ele>
        <time>2021-06-03T09:19:39Z</time>
      </trkpt>
      <trkpt lat="43.90287" lon="6.69449">
        <ele>1044.13</ele>
        <time>2021-06-03T09:19:43Z</time>
      </trkpt>
      <trkpt lat="43.90292" lon="6.69446">
        <ele>1044.13</ele>
        <time>2021-06-03T09:19:48Z</time>
      </trkpt>
      <trkpt lat="43.903" lon="6.69444">
        <ele>1041.25</ele>
        <time>2021-06-03T09:19:57Z</time>
      </trkpt>
      <trkpt lat="43.90304" lon="6.69443">
        <ele>1039.8</ele>
        <time>2021-06-03T09:20:02Z</time>
      </trkpt>
      <trkpt lat="43.90309" lon="6.69437">
        <ele>1037.88</ele>
        <time>2021-06-03T09:20:12Z</time>
      </trkpt>
      <trkpt lat="43.90312" lon="6.69434">
        <ele>1036.92</ele>
        <time>2021-06-03T09:20:15Z</time>
      </trkpt>
      <trkpt lat="43.90321" lon="6.69425">
        <ele>1035.96</ele>
        <time>2021-06-03T09:20:27Z</time>
      </trkpt>
      <trkpt lat="43.90324" lon="6.69423">
        <ele>1034.52</ele>
        <time>2021-06-03T09:20:31Z</time>
      </trkpt>
      <trkpt lat="43.90344" lon="6.69419">
        <ele>1032.11</ele>
        <time>2021-06-03T09:20:43Z</time>
      </trkpt>
      <trkpt lat="43.90349" lon="6.69418">
        <ele>1030.19</ele>
        <time>2021-06-03T09:20:48Z</time>
      </trkpt>
      <trkpt lat="43.90351" lon="6.69417">
        <ele>1031.15</ele>
        <time>2021-06-03T09:20:49Z</time>
      </trkpt>
      <trkpt lat="43.90357" lon="6.69418">
        <ele>1029.71</ele>
        <time>2021-06-03T09:20:54Z</time>
      </trkpt>
      <trkpt lat="43.90363" lon="6.69411">
        <ele>1030.19</ele>
        <time>2021-06-03T09:21:10Z</time>
      </trkpt>
      <trkpt lat="43.9037" lon="6.69409">
        <ele>1029.23</ele>
        <time>2021-06-03T09:21:22Z</time>
      </trkpt>
      <trkpt lat="43.90372" lon="6.69409">
        <ele>1028.27</ele>
        <time>2021-06-03T09:21:25Z</time>
      </trkpt>
      <trkpt lat="43.90379" lon="6.69411">
        <ele>1027.31</ele>
        <time>2021-06-03T09:21:31Z</time>
      </trkpt>
      <trkpt lat="43.90389" lon="6.69427">
        <ele>1023.94</ele>
        <time>2021-06-03T09:21:46Z</time>
      </trkpt>
      <trkpt lat="43.9039" lon="6.69428">
        <ele>1024.42</ele>
        <time>2021-06-03T09:21:47Z</time>
      </trkpt>
      <trkpt lat="43.90391" lon="6.69431">
        <ele>1022.5</ele>
        <time>2021-06-03T09:21:49Z</time>
      </trkpt>
      <trkpt lat="43.90394" lon="6.69434">
        <ele>1023.46</ele>
        <time>2021-06-03T09:21:52Z</time>
      </trkpt>
      <trkpt lat="43.90401" lon="6.69441">
        <ele>1020.1</ele>
        <time>2021-06-03T09:22:01Z</time>
      </trkpt>
      <trkpt lat="43.90402" lon="6.69445">
        <ele>1020.58</ele>
        <time>2021-06-03T09:22:04Z</time>
      </trkpt>
      <trkpt lat="43.90404" lon="6.69449">
        <ele>1019.62</ele>
        <time>2021-06-03T09:22:07Z</time>
      </trkpt>
      <trkpt lat="43.9041" lon="6.69459">
        <ele>1015.77</ele>
        <time>2021-06-03T09:22:16Z</time>
      </trkpt>
      <trkpt lat="43.90412" lon="6.69462">
        <ele>1017.69</ele>
        <time>2021-06-03T09:22:19Z</time>
      </trkpt>
      <trkpt lat="43.9042" lon="6.69471">
        <ele>1014.81</ele>
        <time>2021-06-03T09:22:29Z</time>
      </trkpt>
      <trkpt lat="43.90426" lon="6.69477">
        <ele>1014.81</ele>
        <time>2021-06-03T09:22:36Z</time>
      </trkpt>
      <trkpt lat="43.90432" lon="6.69477">
        <ele>1012.89</ele>
        <time>2021-06-03T09:22:40Z</time>
      </trkpt>
      <trkpt lat="43.90445" lon="6.69481">
        <ele>1011.93</ele>
        <time>2021-06-03T09:22:51Z</time>
      </trkpt>
      <trkpt lat="43.90455" lon="6.69481">
        <ele>1010.96</ele>
        <time>2021-06-03T09:23:03Z</time>
      </trkpt>
      <trkpt lat="43.9046" lon="6.69483">
        <ele>1008.08</ele>
        <time>2021-06-03T09:23:14Z</time>
      </trkpt>
      <trkpt lat="43.9047" lon="6.69489">
        <ele>1005.68</ele>
        <time>2021-06-03T09:23:26Z</time>
      </trkpt>
      <trkpt lat="43.90475" lon="6.69493">
        <ele>1001.83</ele>
        <time>2021-06-03T09:23:33Z</time>
      </trkpt>
      <trkpt lat="43.90476" lon="6.69494">
        <ele>1005.68</ele>
        <time>2021-06-03T09:23:35Z</time>
      </trkpt>
      <trkpt lat="43.90477" lon="6.69495">
        <ele>999.91</ele>
        <time>2021-06-03T09:23:37Z</time>
      </trkpt>
      <trkpt lat="43.90478" lon="6.69495">
        <ele>1003.75</ele>
        <time>2021-06-03T09:23:38Z</time>
      </trkpt>
      <trkpt lat="43.90485" lon="6.69498">
        <ele>1002.31</ele>
        <time>2021-06-03T09:23:43Z</time>
      </trkpt>
      <trkpt lat="43.90488" lon="6.69502">
        <ele>1001.35</ele>
        <time>2021-06-03T09:23:47Z</time>
      </trkpt>
      <trkpt lat="43.90491" lon="6.69503">
        <ele>1000.87</ele>
        <time>2021-06-03T09:23:51Z</time>
      </trkpt>
      <trkpt lat="43.90493" lon="6.69504">
        <ele>1002.31</ele>
        <time>2021-06-03T09:23:53Z</time>
      </trkpt>
      <trkpt lat="43.90494" lon="6.69506">
        <ele>1000.87</ele>
        <time>2021-06-03T09:23:55Z</time>
      </trkpt>
      <trkpt lat="43.90496" lon="6.69506">
        <ele>1000.39</ele>
        <time>2021-06-03T09:24:03Z</time>
      </trkpt>
      <trkpt lat="43.90503" lon="6.69511">
        <ele>997.02</ele>
        <time>2021-06-03T09:24:12Z</time>
      </trkpt>
      <trkpt lat="43.90507" lon="6.69514">
        <ele>995.1</ele>
        <time>2021-06-03T09:24:20Z</time>
      </trkpt>
      <trkpt lat="43.90512" lon="6.69518">
        <ele>992.7</ele>
        <time>2021-06-03T09:24:29Z</time>
      </trkpt>
      <trkpt lat="43.90515" lon="6.69519">
        <ele>993.18</ele>
        <time>2021-06-03T09:24:33Z</time>
      </trkpt>
      <trkpt lat="43.90518" lon="6.6952">
        <ele>992.22</ele>
        <time>2021-06-03T09:24:37Z</time>
      </trkpt>
      <trkpt lat="43.90519" lon="6.6952">
        <ele>993.66</ele>
        <time>2021-06-03T09:24:38Z</time>
      </trkpt>
      <trkpt lat="43.90523" lon="6.69523">
        <ele>991.26</ele>
        <time>2021-06-03T09:24:44Z</time>
      </trkpt>
      <trkpt lat="43.9053" lon="6.69527">
        <ele>989.81</ele>
        <time>2021-06-03T09:24:56Z</time>
      </trkpt>
      <trkpt lat="43.90532" lon="6.69529">
        <ele>988.85</ele>
        <time>2021-06-03T09:24:59Z</time>
      </trkpt>
      <trkpt lat="43.90539" lon="6.69533">
        <ele>988.37</ele>
        <time>2021-06-03T09:25:10Z</time>
      </trkpt>
      <trkpt lat="43.9054" lon="6.69534">
        <ele>987.41</ele>
        <time>2021-06-03T09:25:12Z</time>
      </trkpt>
      <trkpt lat="43.90542" lon="6.69537">
        <ele>984.05</ele>
        <time>2021-06-03T09:25:15Z</time>
      </trkpt>
      <trkpt lat="43.90542" lon="6.69538">
        <ele>987.41</ele>
        <time>2021-06-03T09:25:16Z</time>
      </trkpt>
      <trkpt lat="43.90544" lon="6.69542">
        <ele>985.01</ele>
        <time>2021-06-03T09:25:19Z</time>
      </trkpt>
      <trkpt lat="43.90546" lon="6.69544">
        <ele>987.41</ele>
        <time>2021-06-03T09:25:22Z</time>
      </trkpt>
      <trkpt lat="43.90548" lon="6.69546">
        <ele>984.05</ele>
        <time>2021-06-03T09:25:24Z</time>
      </trkpt>
      <trkpt lat="43.90549" lon="6.69546">
        <ele>985.97</ele>
        <time>2021-06-03T09:25:25Z</time>
      </trkpt>
      <trkpt lat="43.90555" lon="6.69551">
        <ele>981.16</ele>
        <time>2021-06-03T09:25:39Z</time>
      </trkpt>
      <trkpt lat="43.90561" lon="6.69552">
        <ele>981.64</ele>
        <time>2021-06-03T09:25:47Z</time>
      </trkpt>
      <trkpt lat="43.90565" lon="6.69555">
        <ele>981.64</ele>
        <time>2021-06-03T09:25:55Z</time>
      </trkpt>
      <trkpt lat="43.90568" lon="6.69556">
        <ele>979.24</ele>
        <time>2021-06-03T09:26:02Z</time>
      </trkpt>
      <trkpt lat="43.90573" lon="6.69554">
        <ele>979.24</ele>
        <time>2021-06-03T09:26:13Z</time>
      </trkpt>
      <trkpt lat="43.90579" lon="6.69552">
        <ele>980.68</ele>
        <time>2021-06-03T09:26:23Z</time>
      </trkpt>
      <trkpt lat="43.90579" lon="6.69551">
        <ele>977.32</ele>
        <time>2021-06-03T09:26:24Z</time>
      </trkpt>
      <trkpt lat="43.9058" lon="6.69551">
        <ele>979.72</ele>
        <time>2021-06-03T09:26:26Z</time>
      </trkpt>
      <trkpt lat="43.9058" lon="6.6955">
        <ele>977.8</ele>
        <time>2021-06-03T09:26:27Z</time>
      </trkpt>
      <trkpt lat="43.90581" lon="6.6955">
        <ele>976.36</ele>
        <time>2021-06-03T09:26:28Z</time>
      </trkpt>
      <trkpt lat="43.90581" lon="6.6955">
        <ele>979.24</ele>
        <time>2021-06-03T09:26:29Z</time>
      </trkpt>
      <trkpt lat="43.90581" lon="6.69549">
        <ele>977.8</ele>
        <time>2021-06-03T09:26:30Z</time>
      </trkpt>
      <trkpt lat="43.90582" lon="6.69549">
        <ele>976.36</ele>
        <time>2021-06-03T09:26:31Z</time>
      </trkpt>
      <trkpt lat="43.90582" lon="6.69548">
        <ele>978.76</ele>
        <time>2021-06-03T09:26:32Z</time>
      </trkpt>
      <trkpt lat="43.90582" lon="6.69548">
        <ele>977.32</ele>
        <time>2021-06-03T09:26:33Z</time>
      </trkpt>
      <trkpt lat="43.90582" lon="6.69548">
        <ele>974.91</ele>
        <time>2021-06-03T09:26:34Z</time>
      </trkpt>
      <trkpt lat="43.90584" lon="6.69547">
        <ele>977.8</ele>
        <time>2021-06-03T09:26:36Z</time>
      </trkpt>
      <trkpt lat="43.90585" lon="6.69546">
        <ele>976.36</ele>
        <time>2021-06-03T09:26:38Z</time>
      </trkpt>
      <trkpt lat="43.90588" lon="6.69544">
        <ele>974.91</ele>
        <time>2021-06-03T09:26:50Z</time>
      </trkpt>
      <trkpt lat="43.90588" lon="6.69542">
        <ele>973.47</ele>
        <time>2021-06-03T09:26:53Z</time>
      </trkpt>
      <trkpt lat="43.90588" lon="6.6954">
        <ele>976.36</ele>
        <time>2021-06-03T09:26:56Z</time>
      </trkpt>
      <trkpt lat="43.90588" lon="6.69539">
        <ele>974.43</ele>
        <time>2021-06-03T09:26:57Z</time>
      </trkpt>
      <trkpt lat="43.9059" lon="6.69535">
        <ele>972.51</ele>
        <time>2021-06-03T09:27:03Z</time>
      </trkpt>
      <trkpt lat="43.9059" lon="6.69535">
        <ele>973.95</ele>
        <time>2021-06-03T09:27:04Z</time>
      </trkpt>
      <trkpt lat="43.9059" lon="6.69532">
        <ele>973.47</ele>
        <time>2021-06-03T09:27:06Z</time>
      </trkpt>
      <trkpt lat="43.90591" lon="6.69531">
        <ele>973.95</ele>
        <time>2021-06-03T09:27:08Z</time>
      </trkpt>
      <trkpt lat="43.90591" lon="6.6953">
        <ele>972.51</ele>
        <time>2021-06-03T09:27:09Z</time>
      </trkpt>
      <trkpt lat="43.90592" lon="6.69526">
        <ele>972.03</ele>
        <time>2021-06-03T09:27:14Z</time>
      </trkpt>
      <trkpt lat="43.90594" lon="6.69523">
        <ele>973.47</ele>
        <time>2021-06-03T09:27:16Z</time>
      </trkpt>
      <trkpt lat="43.90594" lon="6.69523">
        <ele>970.59</ele>
        <time>2021-06-03T09:27:17Z</time>
      </trkpt>
      <trkpt lat="43.90596" lon="6.6952">
        <ele>970.11</ele>
        <time>2021-06-03T09:27:22Z</time>
      </trkpt>
      <trkpt lat="43.90602" lon="6.69517">
        <ele>968.67</ele>
        <time>2021-06-03T09:27:31Z</time>
      </trkpt>
      <trkpt lat="43.90603" lon="6.69516">
        <ele>970.11</ele>
        <time>2021-06-03T09:27:32Z</time>
      </trkpt>
      <trkpt lat="43.90605" lon="6.69516">
        <ele>969.63</ele>
        <time>2021-06-03T09:27:34Z</time>
      </trkpt>
      <trkpt lat="43.90608" lon="6.69513">
        <ele>968.67</ele>
        <time>2021-06-03T09:27:39Z</time>
      </trkpt>
      <trkpt lat="43.90609" lon="6.69512">
        <ele>971.07</ele>
        <time>2021-06-03T09:27:41Z</time>
      </trkpt>
      <trkpt lat="43.90609" lon="6.69512">
        <ele>968.67</ele>
        <time>2021-06-03T09:27:42Z</time>
      </trkpt>
      <trkpt lat="43.90611" lon="6.69512">
        <ele>970.59</ele>
        <time>2021-06-03T09:27:45Z</time>
      </trkpt>
      <trkpt lat="43.90611" lon="6.69512">
        <ele>968.18</ele>
        <time>2021-06-03T09:27:46Z</time>
      </trkpt>
      <trkpt lat="43.90613" lon="6.69512">
        <ele>966.74</ele>
        <time>2021-06-03T09:27:49Z</time>
      </trkpt>
      <trkpt lat="43.90613" lon="6.69511">
        <ele>970.59</ele>
        <time>2021-06-03T09:27:50Z</time>
      </trkpt>
      <trkpt lat="43.90614" lon="6.69512">
        <ele>970.59</ele>
        <time>2021-06-03T09:27:51Z</time>
      </trkpt>
      <trkpt lat="43.90615" lon="6.69512">
        <ele>967.7</ele>
        <time>2021-06-03T09:27:52Z</time>
      </trkpt>
      <trkpt lat="43.90616" lon="6.69512">
        <ele>965.78</ele>
        <time>2021-06-03T09:27:53Z</time>
      </trkpt>
      <trkpt lat="43.90618" lon="6.69512">
        <ele>967.7</ele>
        <time>2021-06-03T09:27:54Z</time>
      </trkpt>
      <trkpt lat="43.9062" lon="6.69512">
        <ele>967.22</ele>
        <time>2021-06-03T09:27:56Z</time>
      </trkpt>
      <trkpt lat="43.90623" lon="6.69513">
        <ele>967.22</ele>
        <time>2021-06-03T09:27:59Z</time>
      </trkpt>
      <trkpt lat="43.90626" lon="6.69513">
        <ele>965.78</ele>
        <time>2021-06-03T09:28:02Z</time>
      </trkpt>
      <trkpt lat="43.90627" lon="6.69515">
        <ele>967.22</ele>
        <time>2021-06-03T09:28:04Z</time>
      </trkpt>
      <trkpt lat="43.90628" lon="6.69516">
        <ele>965.3</ele>
        <time>2021-06-03T09:28:05Z</time>
      </trkpt>
      <trkpt lat="43.9063" lon="6.69517">
        <ele>963.38</ele>
        <time>2021-06-03T09:28:09Z</time>
      </trkpt>
      <trkpt lat="43.9063" lon="6.69518">
        <ele>967.22</ele>
        <time>2021-06-03T09:28:10Z</time>
      </trkpt>
      <trkpt lat="43.90634" lon="6.69519">
        <ele>969.63</ele>
        <time>2021-06-03T09:28:11Z</time>
      </trkpt>
      <trkpt lat="43.90634" lon="6.69519">
        <ele>965.78</ele>
        <time>2021-06-03T09:28:12Z</time>
      </trkpt>
      <trkpt lat="43.90636" lon="6.69519">
        <ele>965.78</ele>
        <time>2021-06-03T09:28:15Z</time>
      </trkpt>
      <trkpt lat="43.9064" lon="6.6952">
        <ele>965.3</ele>
        <time>2021-06-03T09:28:18Z</time>
      </trkpt>
      <trkpt lat="43.90644" lon="6.6952">
        <ele>966.74</ele>
        <time>2021-06-03T09:28:20Z</time>
      </trkpt>
      <trkpt lat="43.90645" lon="6.6952">
        <ele>964.34</ele>
        <time>2021-06-03T09:28:21Z</time>
      </trkpt>
      <trkpt lat="43.90646" lon="6.69519">
        <ele>969.63</ele>
        <time>2021-06-03T09:28:22Z</time>
      </trkpt>
      <trkpt lat="43.90647" lon="6.69519">
        <ele>963.38</ele>
        <time>2021-06-03T09:28:23Z</time>
      </trkpt>
      <trkpt lat="43.90648" lon="6.69519">
        <ele>963.86</ele>
        <time>2021-06-03T09:28:24Z</time>
      </trkpt>
      <trkpt lat="43.9065" lon="6.69518">
        <ele>970.11</ele>
        <time>2021-06-03T09:28:26Z</time>
      </trkpt>
      <trkpt lat="43.9065" lon="6.69518">
        <ele>966.26</ele>
        <time>2021-06-03T09:28:27Z</time>
      </trkpt>
      <trkpt lat="43.90654" lon="6.69517">
        <ele>964.82</ele>
        <time>2021-06-03T09:28:34Z</time>
      </trkpt>
      <trkpt lat="43.90655" lon="6.69517">
        <ele>966.74</ele>
        <time>2021-06-03T09:28:35Z</time>
      </trkpt>
      <trkpt lat="43.90656" lon="6.69516">
        <ele>965.3</ele>
        <time>2021-06-03T09:28:37Z</time>
      </trkpt>
      <trkpt lat="43.90658" lon="6.69516">
        <ele>966.74</ele>
        <time>2021-06-03T09:28:41Z</time>
      </trkpt>
      <trkpt lat="43.90661" lon="6.69515">
        <ele>968.67</ele>
        <time>2021-06-03T09:28:46Z</time>
      </trkpt>
      <trkpt lat="43.90661" lon="6.69515">
        <ele>966.74</ele>
        <time>2021-06-03T09:28:47Z</time>
      </trkpt>
      <trkpt lat="43.9066" lon="6.69515">
        <ele>965.3</ele>
        <time>2021-06-03T09:28:50Z</time>
      </trkpt>
      <trkpt lat="43.9066" lon="6.69515">
        <ele>970.59</ele>
        <time>2021-06-03T09:28:51Z</time>
      </trkpt>
      <trkpt lat="43.90659" lon="6.69516">
        <ele>964.34</ele>
        <time>2021-06-03T09:28:52Z</time>
      </trkpt>
      <trkpt lat="43.90659" lon="6.69516">
        <ele>966.26</ele>
        <time>2021-06-03T09:28:53Z</time>
      </trkpt>
      <trkpt lat="43.90659" lon="6.69514">
        <ele>968.18</ele>
        <time>2021-06-03T09:28:56Z</time>
      </trkpt>
      <trkpt lat="43.90659" lon="6.69514">
        <ele>964.34</ele>
        <time>2021-06-03T09:28:57Z</time>
      </trkpt>
      <trkpt lat="43.90659" lon="6.69514">
        <ele>967.7</ele>
        <time>2021-06-03T09:28:59Z</time>
      </trkpt>
      <trkpt lat="43.90657" lon="6.69515">
        <ele>965.78</ele>
        <time>2021-06-03T09:29:28Z</time>
      </trkpt>
      <trkpt lat="43.90656" lon="6.69518">
        <ele>965.78</ele>
        <time>2021-06-03T09:29:57Z</time>
      </trkpt>
      <trkpt lat="43.90656" lon="6.6952">
        <ele>964.82</ele>
        <time>2021-06-03T09:30:04Z</time>
      </trkpt>
      <trkpt lat="43.90655" lon="6.6952">
        <ele>965.78</ele>
        <time>2021-06-03T09:30:05Z</time>
      </trkpt>
      <trkpt lat="43.90655" lon="6.69518">
        <ele>967.7</ele>
        <time>2021-06-03T09:30:14Z</time>
      </trkpt>
      <trkpt lat="43.90656" lon="6.69516">
        <ele>964.82</ele>
        <time>2021-06-03T09:30:15Z</time>
      </trkpt>
      <trkpt lat="43.90656" lon="6.69525">
        <ele>969.15</ele>
        <time>2021-06-03T09:30:39Z</time>
      </trkpt>
      <trkpt lat="43.90656" lon="6.69524">
        <ele>969.15</ele>
        <time>2021-06-03T09:30:40Z</time>
      </trkpt>
      <trkpt lat="43.90656" lon="6.69522">
        <ele>966.26</ele>
        <time>2021-06-03T09:30:41Z</time>
      </trkpt>
      <trkpt lat="43.90657" lon="6.6952">
        <ele>968.67</ele>
        <time>2021-06-03T09:30:45Z</time>
      </trkpt>
      <trkpt lat="43.90657" lon="6.6952">
        <ele>961.46</ele>
        <time>2021-06-03T09:30:46Z</time>
      </trkpt>
      <trkpt lat="43.90657" lon="6.6952">
        <ele>967.7</ele>
        <time>2021-06-03T09:30:47Z</time>
      </trkpt>
      <trkpt lat="43.90657" lon="6.6952">
        <ele>965.78</ele>
        <time>2021-06-03T09:30:48Z</time>
      </trkpt>
      <trkpt lat="43.90657" lon="6.69522">
        <ele>965.78</ele>
        <time>2021-06-03T09:30:59Z</time>
      </trkpt>
      <trkpt lat="43.90659" lon="6.69522">
        <ele>966.74</ele>
        <time>2021-06-03T09:31:07Z</time>
      </trkpt>
      <trkpt lat="43.90657" lon="6.69515">
        <ele>966.74</ele>
        <time>2021-06-03T09:31:40Z</time>
      </trkpt>
      <trkpt lat="43.90657" lon="6.69515">
        <ele>964.82</ele>
        <time>2021-06-03T09:31:42Z</time>
      </trkpt>
      <trkpt lat="43.9066" lon="6.69518">
        <ele>965.3</ele>
        <time>2021-06-03T09:31:59Z</time>
      </trkpt>
      <trkpt lat="43.9066" lon="6.69517">
        <ele>966.74</ele>
        <time>2021-06-03T09:32:00Z</time>
      </trkpt>
      <trkpt lat="43.90663" lon="6.69519">
        <ele>964.34</ele>
        <time>2021-06-03T09:32:06Z</time>
      </trkpt>
      <trkpt lat="43.90663" lon="6.69519">
        <ele>966.26</ele>
        <time>2021-06-03T09:32:07Z</time>
      </trkpt>
      <trkpt lat="43.90664" lon="6.6952">
        <ele>966.74</ele>
        <time>2021-06-03T09:32:09Z</time>
      </trkpt>
      <trkpt lat="43.90663" lon="6.69519">
        <ele>965.3</ele>
        <time>2021-06-03T09:32:24Z</time>
      </trkpt>
      <trkpt lat="43.90663" lon="6.69521">
        <ele>965.3</ele>
        <time>2021-06-03T09:32:45Z</time>
      </trkpt>
      <trkpt lat="43.90664" lon="6.69522">
        <ele>965.3</ele>
        <time>2021-06-03T09:33:09Z</time>
      </trkpt>
      <trkpt lat="43.90666" lon="6.6952">
        <ele>965.3</ele>
        <time>2021-06-03T09:33:36Z</time>
      </trkpt>
      <trkpt lat="43.90669" lon="6.69529">
        <ele>966.74</ele>
        <time>2021-06-03T09:33:57Z</time>
      </trkpt>
      <trkpt lat="43.90672" lon="6.69535">
        <ele>962.9</ele>
        <time>2021-06-03T09:34:03Z</time>
      </trkpt>
      <trkpt lat="43.90673" lon="6.69537">
        <ele>966.26</ele>
        <time>2021-06-03T09:34:07Z</time>
      </trkpt>
      <trkpt lat="43.90674" lon="6.69538">
        <ele>962.9</ele>
        <time>2021-06-03T09:34:08Z</time>
      </trkpt>
      <trkpt lat="43.90679" lon="6.69543">
        <ele>967.22</ele>
        <time>2021-06-03T09:34:19Z</time>
      </trkpt>
      <trkpt lat="43.90679" lon="6.69545">
        <ele>963.86</ele>
        <time>2021-06-03T09:34:21Z</time>
      </trkpt>
      <trkpt lat="43.9068" lon="6.69546">
        <ele>967.22</ele>
        <time>2021-06-03T09:34:22Z</time>
      </trkpt>
      <trkpt lat="43.90683" lon="6.69549">
        <ele>966.74</ele>
        <time>2021-06-03T09:34:25Z</time>
      </trkpt>
      <trkpt lat="43.90684" lon="6.6955">
        <ele>964.82</ele>
        <time>2021-06-03T09:34:26Z</time>
      </trkpt>
      <trkpt lat="43.90688" lon="6.69555">
        <ele>966.74</ele>
        <time>2021-06-03T09:34:33Z</time>
      </trkpt>
      <trkpt lat="43.90693" lon="6.69563">
        <ele>964.82</ele>
        <time>2021-06-03T09:34:40Z</time>
      </trkpt>
      <trkpt lat="43.90695" lon="6.69572">
        <ele>970.11</ele>
        <time>2021-06-03T09:34:49Z</time>
      </trkpt>
      <trkpt lat="43.90695" lon="6.69573">
        <ele>965.3</ele>
        <time>2021-06-03T09:34:50Z</time>
      </trkpt>
      <trkpt lat="43.90701" lon="6.6958">
        <ele>969.15</ele>
        <time>2021-06-03T09:34:58Z</time>
      </trkpt>
      <trkpt lat="43.90704" lon="6.69581">
        <ele>967.22</ele>
        <time>2021-06-03T09:35:00Z</time>
      </trkpt>
      <trkpt lat="43.90705" lon="6.69581">
        <ele>970.11</ele>
        <time>2021-06-03T09:35:01Z</time>
      </trkpt>
      <trkpt lat="43.90705" lon="6.69581">
        <ele>963.86</ele>
        <time>2021-06-03T09:35:02Z</time>
      </trkpt>
      <trkpt lat="43.90706" lon="6.69582">
        <ele>968.18</ele>
        <time>2021-06-03T09:35:03Z</time>
      </trkpt>
      <trkpt lat="43.90708" lon="6.69582">
        <ele>961.94</ele>
        <time>2021-06-03T09:35:04Z</time>
      </trkpt>
      <trkpt lat="43.90708" lon="6.69582">
        <ele>965.78</ele>
        <time>2021-06-03T09:35:05Z</time>
      </trkpt>
      <trkpt lat="43.90709" lon="6.69581">
        <ele>969.15</ele>
        <time>2021-06-03T09:35:06Z</time>
      </trkpt>
      <trkpt lat="43.90709" lon="6.69581">
        <ele>968.67</ele>
        <time>2021-06-03T09:35:07Z</time>
      </trkpt>
      <trkpt lat="43.90711" lon="6.6958">
        <ele>964.82</ele>
        <time>2021-06-03T09:35:10Z</time>
      </trkpt>
      <trkpt lat="43.90711" lon="6.6958">
        <ele>969.63</ele>
        <time>2021-06-03T09:35:11Z</time>
      </trkpt>
      <trkpt lat="43.90714" lon="6.69578">
        <ele>964.82</ele>
        <time>2021-06-03T09:35:15Z</time>
      </trkpt>
      <trkpt lat="43.90715" lon="6.69577">
        <ele>970.11</ele>
        <time>2021-06-03T09:35:16Z</time>
      </trkpt>
      <trkpt lat="43.90719" lon="6.69573">
        <ele>965.78</ele>
        <time>2021-06-03T09:35:22Z</time>
      </trkpt>
      <trkpt lat="43.9072" lon="6.69572">
        <ele>969.63</ele>
        <time>2021-06-03T09:35:23Z</time>
      </trkpt>
      <trkpt lat="43.90722" lon="6.69571">
        <ele>972.51</ele>
        <time>2021-06-03T09:35:26Z</time>
      </trkpt>
      <trkpt lat="43.90722" lon="6.6957">
        <ele>965.78</ele>
        <time>2021-06-03T09:35:27Z</time>
      </trkpt>
      <trkpt lat="43.90723" lon="6.6957">
        <ele>970.11</ele>
        <time>2021-06-03T09:35:28Z</time>
      </trkpt>
      <trkpt lat="43.90733" lon="6.69572">
        <ele>974.43</ele>
        <time>2021-06-03T09:35:40Z</time>
      </trkpt>
      <trkpt lat="43.90733" lon="6.69573">
        <ele>967.7</ele>
        <time>2021-06-03T09:35:41Z</time>
      </trkpt>
      <trkpt lat="43.90733" lon="6.69573">
        <ele>972.03</ele>
        <time>2021-06-03T09:35:42Z</time>
      </trkpt>
      <trkpt lat="43.90733" lon="6.69573">
        <ele>968.67</ele>
        <time>2021-06-03T09:35:43Z</time>
      </trkpt>
      <trkpt lat="43.90734" lon="6.69573">
        <ele>972.03</ele>
        <time>2021-06-03T09:35:44Z</time>
      </trkpt>
      <trkpt lat="43.90736" lon="6.69575">
        <ele>975.39</ele>
        <time>2021-06-03T09:35:47Z</time>
      </trkpt>
      <trkpt lat="43.90736" lon="6.69575">
        <ele>969.15</ele>
        <time>2021-06-03T09:35:48Z</time>
      </trkpt>
      <trkpt lat="43.90737" lon="6.69575">
        <ele>972.51</ele>
        <time>2021-06-03T09:35:49Z</time>
      </trkpt>
      <trkpt lat="43.90737" lon="6.69575">
        <ele>968.67</ele>
        <time>2021-06-03T09:35:50Z</time>
      </trkpt>
      <trkpt lat="43.90738" lon="6.69575">
        <ele>972.51</ele>
        <time>2021-06-03T09:35:51Z</time>
      </trkpt>
      <trkpt lat="43.90739" lon="6.69575">
        <ele>969.15</ele>
        <time>2021-06-03T09:35:52Z</time>
      </trkpt>
      <trkpt lat="43.90739" lon="6.69575">
        <ele>972.99</ele>
        <time>2021-06-03T09:35:53Z</time>
      </trkpt>
      <trkpt lat="43.90739" lon="6.69575">
        <ele>968.67</ele>
        <time>2021-06-03T09:35:54Z</time>
      </trkpt>
      <trkpt lat="43.9074" lon="6.69575">
        <ele>972.99</ele>
        <time>2021-06-03T09:35:55Z</time>
      </trkpt>
      <trkpt lat="43.90741" lon="6.69576">
        <ele>968.67</ele>
        <time>2021-06-03T09:35:56Z</time>
      </trkpt>
      <trkpt lat="43.90742" lon="6.69576">
        <ele>972.51</ele>
        <time>2021-06-03T09:35:57Z</time>
      </trkpt>
      <trkpt lat="43.90745" lon="6.69578">
        <ele>975.88</ele>
        <time>2021-06-03T09:36:02Z</time>
      </trkpt>
      <trkpt lat="43.90746" lon="6.69578">
        <ele>972.03</ele>
        <time>2021-06-03T09:36:03Z</time>
      </trkpt>
      <trkpt lat="43.90746" lon="6.69578">
        <ele>976.36</ele>
        <time>2021-06-03T09:36:04Z</time>
      </trkpt>
      <trkpt lat="43.90747" lon="6.69578">
        <ele>972.99</ele>
        <time>2021-06-03T09:36:05Z</time>
      </trkpt>
      <trkpt lat="43.90747" lon="6.69579">
        <ele>977.32</ele>
        <time>2021-06-03T09:36:06Z</time>
      </trkpt>
      <trkpt lat="43.90749" lon="6.69579">
        <ele>973.47</ele>
        <time>2021-06-03T09:36:09Z</time>
      </trkpt>
      <trkpt lat="43.90751" lon="6.6958">
        <ele>977.32</ele>
        <time>2021-06-03T09:36:12Z</time>
      </trkpt>
      <trkpt lat="43.90752" lon="6.69579">
        <ele>973.47</ele>
        <time>2021-06-03T09:36:13Z</time>
      </trkpt>
      <trkpt lat="43.90752" lon="6.69579">
        <ele>978.76</ele>
        <time>2021-06-03T09:36:14Z</time>
      </trkpt>
      <trkpt lat="43.90752" lon="6.69579">
        <ele>972.99</ele>
        <time>2021-06-03T09:36:15Z</time>
      </trkpt>
      <trkpt lat="43.90753" lon="6.69579">
        <ele>976.36</ele>
        <time>2021-06-03T09:36:16Z</time>
      </trkpt>
      <trkpt lat="43.90754" lon="6.69579">
        <ele>971.55</ele>
        <time>2021-06-03T09:36:17Z</time>
      </trkpt>
      <trkpt lat="43.90754" lon="6.69579">
        <ele>976.36</ele>
        <time>2021-06-03T09:36:18Z</time>
      </trkpt>
      <trkpt lat="43.90755" lon="6.6958">
        <ele>972.51</ele>
        <time>2021-06-03T09:36:19Z</time>
      </trkpt>
      <trkpt lat="43.90756" lon="6.6958">
        <ele>976.36</ele>
        <time>2021-06-03T09:36:20Z</time>
      </trkpt>
      <trkpt lat="43.90757" lon="6.69581">
        <ele>980.68</ele>
        <time>2021-06-03T09:36:21Z</time>
      </trkpt>
      <trkpt lat="43.90757" lon="6.69582">
        <ele>975.39</ele>
        <time>2021-06-03T09:36:22Z</time>
      </trkpt>
      <trkpt lat="43.90761" lon="6.69584">
        <ele>972.03</ele>
        <time>2021-06-03T09:36:28Z</time>
      </trkpt>
      <trkpt lat="43.90761" lon="6.69584">
        <ele>977.32</ele>
        <time>2021-06-03T09:36:29Z</time>
      </trkpt>
      <trkpt lat="43.90762" lon="6.69585">
        <ele>973.47</ele>
        <time>2021-06-03T09:36:30Z</time>
      </trkpt>
      <trkpt lat="43.90762" lon="6.69586">
        <ele>976.84</ele>
        <time>2021-06-03T09:36:31Z</time>
      </trkpt>
      <trkpt lat="43.9077" lon="6.69592">
        <ele>980.2</ele>
        <time>2021-06-03T09:36:43Z</time>
      </trkpt>
      <trkpt lat="43.90771" lon="6.69592">
        <ele>975.88</ele>
        <time>2021-06-03T09:36:44Z</time>
      </trkpt>
      <trkpt lat="43.90772" lon="6.69593">
        <ele>981.64</ele>
        <time>2021-06-03T09:36:45Z</time>
      </trkpt>
      <trkpt lat="43.90772" lon="6.69593">
        <ele>975.39</ele>
        <time>2021-06-03T09:36:46Z</time>
      </trkpt>
      <trkpt lat="43.90773" lon="6.69593">
        <ele>979.72</ele>
        <time>2021-06-03T09:36:47Z</time>
      </trkpt>
      <trkpt lat="43.90773" lon="6.69594">
        <ele>975.88</ele>
        <time>2021-06-03T09:36:48Z</time>
      </trkpt>
      <trkpt lat="43.90774" lon="6.69595">
        <ele>981.64</ele>
        <time>2021-06-03T09:36:49Z</time>
      </trkpt>
      <trkpt lat="43.90774" lon="6.69595">
        <ele>973.47</ele>
        <time>2021-06-03T09:36:50Z</time>
      </trkpt>
      <trkpt lat="43.90775" lon="6.69596">
        <ele>979.24</ele>
        <time>2021-06-03T09:36:51Z</time>
      </trkpt>
      <trkpt lat="43.90778" lon="6.69598">
        <ele>975.88</ele>
        <time>2021-06-03T09:36:55Z</time>
      </trkpt>
      <trkpt lat="43.90779" lon="6.69599">
        <ele>980.68</ele>
        <time>2021-06-03T09:36:56Z</time>
      </trkpt>
      <trkpt lat="43.90779" lon="6.69599">
        <ele>977.32</ele>
        <time>2021-06-03T09:36:57Z</time>
      </trkpt>
      <trkpt lat="43.9078" lon="6.696">
        <ele>983.09</ele>
        <time>2021-06-03T09:36:59Z</time>
      </trkpt>
      <trkpt lat="43.9078" lon="6.696">
        <ele>977.32</ele>
        <time>2021-06-03T09:37:00Z</time>
      </trkpt>
      <trkpt lat="43.9078" lon="6.696">
        <ele>980.2</ele>
        <time>2021-06-03T09:37:01Z</time>
      </trkpt>
      <trkpt lat="43.90782" lon="6.69601">
        <ele>985.01</ele>
        <time>2021-06-03T09:37:04Z</time>
      </trkpt>
      <trkpt lat="43.90783" lon="6.69601">
        <ele>978.76</ele>
        <time>2021-06-03T09:37:05Z</time>
      </trkpt>
      <trkpt lat="43.90785" lon="6.696">
        <ele>985.01</ele>
        <time>2021-06-03T09:37:07Z</time>
      </trkpt>
      <trkpt lat="43.90786" lon="6.696">
        <ele>981.16</ele>
        <time>2021-06-03T09:37:08Z</time>
      </trkpt>
      <trkpt lat="43.9079" lon="6.69598">
        <ele>984.53</ele>
        <time>2021-06-03T09:37:14Z</time>
      </trkpt>
      <trkpt lat="43.9079" lon="6.69597">
        <ele>977.8</ele>
        <time>2021-06-03T09:37:15Z</time>
      </trkpt>
      <trkpt lat="43.90791" lon="6.69596">
        <ele>983.09</ele>
        <time>2021-06-03T09:37:16Z</time>
      </trkpt>
      <trkpt lat="43.90792" lon="6.69595">
        <ele>979.72</ele>
        <time>2021-06-03T09:37:18Z</time>
      </trkpt>
      <trkpt lat="43.90793" lon="6.69594">
        <ele>984.53</ele>
        <time>2021-06-03T09:37:19Z</time>
      </trkpt>
      <trkpt lat="43.90794" lon="6.69591">
        <ele>989.33</ele>
        <time>2021-06-03T09:37:22Z</time>
      </trkpt>
      <trkpt lat="43.90794" lon="6.69589">
        <ele>978.28</ele>
        <time>2021-06-03T09:37:23Z</time>
      </trkpt>
      <trkpt lat="43.90795" lon="6.69588">
        <ele>984.05</ele>
        <time>2021-06-03T09:37:24Z</time>
      </trkpt>
      <trkpt lat="43.90795" lon="6.69587">
        <ele>987.89</ele>
        <time>2021-06-03T09:37:25Z</time>
      </trkpt>
      <trkpt lat="43.90795" lon="6.69586">
        <ele>980.68</ele>
        <time>2021-06-03T09:37:26Z</time>
      </trkpt>
      <trkpt lat="43.90795" lon="6.69585">
        <ele>984.53</ele>
        <time>2021-06-03T09:37:27Z</time>
      </trkpt>
      <trkpt lat="43.90796" lon="6.69583">
        <ele>987.89</ele>
        <time>2021-06-03T09:37:30Z</time>
      </trkpt>
      <trkpt lat="43.90796" lon="6.69582">
        <ele>981.16</ele>
        <time>2021-06-03T09:37:31Z</time>
      </trkpt>
      <trkpt lat="43.90797" lon="6.69581">
        <ele>985.01</ele>
        <time>2021-06-03T09:37:32Z</time>
      </trkpt>
      <trkpt lat="43.90804" lon="6.69579">
        <ele>988.37</ele>
        <time>2021-06-03T09:37:41Z</time>
      </trkpt>
      <trkpt lat="43.90804" lon="6.69579">
        <ele>982.6</ele>
        <time>2021-06-03T09:37:42Z</time>
      </trkpt>
      <trkpt lat="43.90805" lon="6.69579">
        <ele>986.45</ele>
        <time>2021-06-03T09:37:43Z</time>
      </trkpt>
      <trkpt lat="43.90806" lon="6.69579">
        <ele>989.33</ele>
        <time>2021-06-03T09:37:44Z</time>
      </trkpt>
      <trkpt lat="43.90806" lon="6.69579">
        <ele>983.09</ele>
        <time>2021-06-03T09:37:45Z</time>
      </trkpt>
      <trkpt lat="43.90807" lon="6.69579">
        <ele>988.37</ele>
        <time>2021-06-03T09:37:46Z</time>
      </trkpt>
      <trkpt lat="43.90813" lon="6.6958">
        <ele>982.6</ele>
        <time>2021-06-03T09:37:53Z</time>
      </trkpt>
      <trkpt lat="43.90814" lon="6.6958">
        <ele>986.93</ele>
        <time>2021-06-03T09:37:54Z</time>
      </trkpt>
      <trkpt lat="43.90821" lon="6.69579">
        <ele>984.53</ele>
        <time>2021-06-03T09:38:07Z</time>
      </trkpt>
      <trkpt lat="43.90821" lon="6.69578">
        <ele>987.89</ele>
        <time>2021-06-03T09:38:08Z</time>
      </trkpt>
      <trkpt lat="43.90822" lon="6.69579">
        <ele>992.7</ele>
        <time>2021-06-03T09:38:09Z</time>
      </trkpt>
      <trkpt lat="43.90823" lon="6.69578">
        <ele>988.85</ele>
        <time>2021-06-03T09:38:10Z</time>
      </trkpt>
      <trkpt lat="43.90824" lon="6.69578">
        <ele>992.22</ele>
        <time>2021-06-03T09:38:11Z</time>
      </trkpt>
      <trkpt lat="43.90824" lon="6.69577">
        <ele>985.49</ele>
        <time>2021-06-03T09:38:12Z</time>
      </trkpt>
      <trkpt lat="43.90825" lon="6.69576">
        <ele>990.78</ele>
        <time>2021-06-03T09:38:13Z</time>
      </trkpt>
      <trkpt lat="43.90824" lon="6.69575">
        <ele>986.45</ele>
        <time>2021-06-03T09:38:14Z</time>
      </trkpt>
      <trkpt lat="43.90825" lon="6.69571">
        <ele>987.89</ele>
        <time>2021-06-03T09:38:30Z</time>
      </trkpt>
      <trkpt lat="43.90822" lon="6.69571">
        <ele>987.89</ele>
        <time>2021-06-03T09:38:49Z</time>
      </trkpt>
      <trkpt lat="43.90822" lon="6.69569">
        <ele>988.85</ele>
        <time>2021-06-03T09:39:11Z</time>
      </trkpt>
      <trkpt lat="43.90822" lon="6.69564">
        <ele>989.33</ele>
        <time>2021-06-03T09:39:22Z</time>
      </trkpt>
      <trkpt lat="43.90821" lon="6.69564">
        <ele>985.97</ele>
        <time>2021-06-03T09:39:26Z</time>
      </trkpt>
      <trkpt lat="43.9082" lon="6.69564">
        <ele>992.7</ele>
        <time>2021-06-03T09:39:27Z</time>
      </trkpt>
      <trkpt lat="43.9082" lon="6.69564">
        <ele>987.41</ele>
        <time>2021-06-03T09:39:28Z</time>
      </trkpt>
      <trkpt lat="43.90819" lon="6.69564">
        <ele>991.74</ele>
        <time>2021-06-03T09:39:29Z</time>
      </trkpt>
      <trkpt lat="43.90819" lon="6.69564">
        <ele>988.85</ele>
        <time>2021-06-03T09:39:30Z</time>
      </trkpt>
      <trkpt lat="43.90821" lon="6.69566">
        <ele>989.33</ele>
        <time>2021-06-03T09:39:51Z</time>
      </trkpt>
      <trkpt lat="43.90821" lon="6.69564">
        <ele>989.33</ele>
        <time>2021-06-03T09:40:18Z</time>
      </trkpt>
      <trkpt lat="43.90823" lon="6.69563">
        <ele>989.33</ele>
        <time>2021-06-03T09:40:48Z</time>
      </trkpt>
      <trkpt lat="43.90818" lon="6.69551">
        <ele>992.22</ele>
        <time>2021-06-03T09:40:58Z</time>
      </trkpt>
      <trkpt lat="43.90819" lon="6.6955">
        <ele>988.85</ele>
        <time>2021-06-03T09:40:59Z</time>
      </trkpt>
      <trkpt lat="43.90819" lon="6.69549">
        <ele>985.01</ele>
        <time>2021-06-03T09:41:01Z</time>
      </trkpt>
      <trkpt lat="43.9082" lon="6.69548">
        <ele>991.26</ele>
        <time>2021-06-03T09:41:02Z</time>
      </trkpt>
      <trkpt lat="43.9082" lon="6.69548">
        <ele>990.3</ele>
        <time>2021-06-03T09:41:23Z</time>
      </trkpt>
      <trkpt lat="43.9082" lon="6.69545">
        <ele>993.66</ele>
        <time>2021-06-03T09:41:28Z</time>
      </trkpt>
      <trkpt lat="43.9082" lon="6.69544">
        <ele>989.33</ele>
        <time>2021-06-03T09:41:29Z</time>
      </trkpt>
      <trkpt lat="43.9082" lon="6.69543">
        <ele>993.66</ele>
        <time>2021-06-03T09:41:30Z</time>
      </trkpt>
      <trkpt lat="43.9082" lon="6.69542">
        <ele>985.97</ele>
        <time>2021-06-03T09:41:31Z</time>
      </trkpt>
      <trkpt lat="43.9082" lon="6.69541">
        <ele>991.74</ele>
        <time>2021-06-03T09:41:32Z</time>
      </trkpt>
      <trkpt lat="43.90821" lon="6.69537">
        <ele>996.06</ele>
        <time>2021-06-03T09:41:37Z</time>
      </trkpt>
      <trkpt lat="43.90821" lon="6.69536">
        <ele>987.89</ele>
        <time>2021-06-03T09:41:38Z</time>
      </trkpt>
      <trkpt lat="43.90821" lon="6.69535">
        <ele>992.7</ele>
        <time>2021-06-03T09:41:39Z</time>
      </trkpt>
      <trkpt lat="43.90822" lon="6.69532">
        <ele>995.58</ele>
        <time>2021-06-03T09:41:42Z</time>
      </trkpt>
      <trkpt lat="43.90823" lon="6.69531">
        <ele>991.74</ele>
        <time>2021-06-03T09:41:43Z</time>
      </trkpt>
      <trkpt lat="43.90823" lon="6.6953">
        <ele>995.1</ele>
        <time>2021-06-03T09:41:44Z</time>
      </trkpt>
      <trkpt lat="43.90823" lon="6.69529">
        <ele>989.33</ele>
        <time>2021-06-03T09:41:46Z</time>
      </trkpt>
      <trkpt lat="43.90824" lon="6.69528">
        <ele>994.14</ele>
        <time>2021-06-03T09:41:47Z</time>
      </trkpt>
      <trkpt lat="43.90824" lon="6.69522">
        <ele>988.37</ele>
        <time>2021-06-03T09:41:53Z</time>
      </trkpt>
      <trkpt lat="43.90824" lon="6.69521">
        <ele>994.62</ele>
        <time>2021-06-03T09:41:54Z</time>
      </trkpt>
      <trkpt lat="43.90824" lon="6.69518">
        <ele>999.43</ele>
        <time>2021-06-03T09:42:02Z</time>
      </trkpt>
      <trkpt lat="43.90825" lon="6.69518">
        <ele>992.7</ele>
        <time>2021-06-03T09:42:03Z</time>
      </trkpt>
      <trkpt lat="43.90825" lon="6.69517">
        <ele>996.54</ele>
        <time>2021-06-03T09:42:04Z</time>
      </trkpt>
      <trkpt lat="43.90825" lon="6.69519">
        <ele>993.18</ele>
        <time>2021-06-03T09:42:08Z</time>
      </trkpt>
      <trkpt lat="43.90821" lon="6.69523">
        <ele>994.14</ele>
        <time>2021-06-03T09:42:36Z</time>
      </trkpt>
      <trkpt lat="43.90821" lon="6.69523">
        <ele>994.14</ele>
        <time>2021-06-03T09:43:13Z</time>
      </trkpt>
      <trkpt lat="43.90823" lon="6.69521">
        <ele>993.66</ele>
        <time>2021-06-03T09:43:34Z</time>
      </trkpt>
      <trkpt lat="43.90825" lon="6.69519">
        <ele>993.66</ele>
        <time>2021-06-03T09:44:04Z</time>
      </trkpt>
      <trkpt lat="43.90832" lon="6.6951">
        <ele>996.54</ele>
        <time>2021-06-03T09:44:20Z</time>
      </trkpt>
      <trkpt lat="43.90835" lon="6.69502">
        <ele>997.02</ele>
        <time>2021-06-03T09:44:36Z</time>
      </trkpt>
      <trkpt lat="43.90836" lon="6.69502">
        <ele>996.54</ele>
        <time>2021-06-03T09:44:37Z</time>
      </trkpt>
      <trkpt lat="43.90836" lon="6.69492">
        <ele>1002.31</ele>
        <time>2021-06-03T09:44:48Z</time>
      </trkpt>
      <trkpt lat="43.90836" lon="6.69492">
        <ele>998.47</ele>
        <time>2021-06-03T09:44:49Z</time>
      </trkpt>
      <trkpt lat="43.90836" lon="6.69483">
        <ele>1002.79</ele>
        <time>2021-06-03T09:44:58Z</time>
      </trkpt>
      <trkpt lat="43.90836" lon="6.69482">
        <ele>998.47</ele>
        <time>2021-06-03T09:44:59Z</time>
      </trkpt>
      <trkpt lat="43.90836" lon="6.6948">
        <ele>1003.27</ele>
        <time>2021-06-03T09:45:01Z</time>
      </trkpt>
      <trkpt lat="43.90836" lon="6.69479">
        <ele>998.47</ele>
        <time>2021-06-03T09:45:02Z</time>
      </trkpt>
      <trkpt lat="43.90837" lon="6.69479">
        <ele>1002.31</ele>
        <time>2021-06-03T09:45:03Z</time>
      </trkpt>
      <trkpt lat="43.90837" lon="6.69477">
        <ele>998.95</ele>
        <time>2021-06-03T09:45:04Z</time>
      </trkpt>
      <trkpt lat="43.90838" lon="6.69476">
        <ele>1001.83</ele>
        <time>2021-06-03T09:45:05Z</time>
      </trkpt>
      <trkpt lat="43.90838" lon="6.69474">
        <ele>1006.16</ele>
        <time>2021-06-03T09:45:08Z</time>
      </trkpt>
      <trkpt lat="43.90838" lon="6.69473">
        <ele>999.91</ele>
        <time>2021-06-03T09:45:09Z</time>
      </trkpt>
      <trkpt lat="43.90839" lon="6.69471">
        <ele>1003.27</ele>
        <time>2021-06-03T09:45:12Z</time>
      </trkpt>
      <trkpt lat="43.90843" lon="6.69466">
        <ele>1007.6</ele>
        <time>2021-06-03T09:45:19Z</time>
      </trkpt>
      <trkpt lat="43.90843" lon="6.69465">
        <ele>1002.79</ele>
        <time>2021-06-03T09:45:20Z</time>
      </trkpt>
      <trkpt lat="43.90843" lon="6.69465">
        <ele>1006.16</ele>
        <time>2021-06-03T09:45:21Z</time>
      </trkpt>
      <trkpt lat="43.90843" lon="6.69464">
        <ele>1001.35</ele>
        <time>2021-06-03T09:45:22Z</time>
      </trkpt>
      <trkpt lat="43.90844" lon="6.69464">
        <ele>1005.2</ele>
        <time>2021-06-03T09:45:23Z</time>
      </trkpt>
      <trkpt lat="43.90847" lon="6.69462">
        <ele>1009.04</ele>
        <time>2021-06-03T09:45:28Z</time>
      </trkpt>
      <trkpt lat="43.90848" lon="6.69462">
        <ele>1003.75</ele>
        <time>2021-06-03T09:45:29Z</time>
      </trkpt>
      <trkpt lat="43.90848" lon="6.69462">
        <ele>1011.93</ele>
        <time>2021-06-03T09:45:30Z</time>
      </trkpt>
      <trkpt lat="43.90849" lon="6.69461">
        <ele>1002.79</ele>
        <time>2021-06-03T09:45:31Z</time>
      </trkpt>
      <trkpt lat="43.90849" lon="6.69461">
        <ele>1009.04</ele>
        <time>2021-06-03T09:45:32Z</time>
      </trkpt>
      <trkpt lat="43.90849" lon="6.6946">
        <ele>1004.72</ele>
        <time>2021-06-03T09:45:33Z</time>
      </trkpt>
      <trkpt lat="43.90851" lon="6.69459">
        <ele>1005.2</ele>
        <time>2021-06-03T09:45:42Z</time>
      </trkpt>
      <trkpt lat="43.90851" lon="6.69459">
        <ele>1009.04</ele>
        <time>2021-06-03T09:45:43Z</time>
      </trkpt>
      <trkpt lat="43.90851" lon="6.6946">
        <ele>1006.64</ele>
        <time>2021-06-03T09:45:44Z</time>
      </trkpt>
      <trkpt lat="43.90851" lon="6.69464">
        <ele>1007.12</ele>
        <time>2021-06-03T09:46:07Z</time>
      </trkpt>
      <trkpt lat="43.9085" lon="6.69463">
        <ele>1006.64</ele>
        <time>2021-06-03T09:46:33Z</time>
      </trkpt>
      <trkpt lat="43.90851" lon="6.69463">
        <ele>1007.12</ele>
        <time>2021-06-03T09:46:54Z</time>
      </trkpt>
      <trkpt lat="43.9085" lon="6.69461">
        <ele>1007.12</ele>
        <time>2021-06-03T09:47:25Z</time>
      </trkpt>
      <trkpt lat="43.90852" lon="6.69457">
        <ele>1010.48</ele>
        <time>2021-06-03T09:47:33Z</time>
      </trkpt>
      <trkpt lat="43.90853" lon="6.69456">
        <ele>1004.23</ele>
        <time>2021-06-03T09:47:34Z</time>
      </trkpt>
      <trkpt lat="43.90853" lon="6.69456">
        <ele>1008.08</ele>
        <time>2021-06-03T09:47:35Z</time>
      </trkpt>
      <trkpt lat="43.90857" lon="6.69456">
        <ele>1004.72</ele>
        <time>2021-06-03T09:47:41Z</time>
      </trkpt>
      <trkpt lat="43.90857" lon="6.69455">
        <ele>1010</ele>
        <time>2021-06-03T09:47:42Z</time>
      </trkpt>
      <trkpt lat="43.90859" lon="6.69452">
        <ele>1013.85</ele>
        <time>2021-06-03T09:47:47Z</time>
      </trkpt>
      <trkpt lat="43.9086" lon="6.69451">
        <ele>1008.08</ele>
        <time>2021-06-03T09:47:48Z</time>
      </trkpt>
      <trkpt lat="43.90863" lon="6.6945">
        <ele>1011.93</ele>
        <time>2021-06-03T09:47:54Z</time>
      </trkpt>
      <trkpt lat="43.90864" lon="6.69449">
        <ele>1008.56</ele>
        <time>2021-06-03T09:47:55Z</time>
      </trkpt>
      <trkpt lat="43.90865" lon="6.69449">
        <ele>1011.93</ele>
        <time>2021-06-03T09:47:56Z</time>
      </trkpt>
      <trkpt lat="43.90871" lon="6.69445">
        <ele>1017.69</ele>
        <time>2021-06-03T09:48:04Z</time>
      </trkpt>
      <trkpt lat="43.90872" lon="6.69445">
        <ele>1012.41</ele>
        <time>2021-06-03T09:48:05Z</time>
      </trkpt>
      <trkpt lat="43.90872" lon="6.69444">
        <ele>1016.25</ele>
        <time>2021-06-03T09:48:06Z</time>
      </trkpt>
      <trkpt lat="43.90873" lon="6.69444">
        <ele>1011.44</ele>
        <time>2021-06-03T09:48:07Z</time>
      </trkpt>
      <trkpt lat="43.90874" lon="6.69443">
        <ele>1008.56</ele>
        <time>2021-06-03T09:48:09Z</time>
      </trkpt>
      <trkpt lat="43.90874" lon="6.69442">
        <ele>1015.77</ele>
        <time>2021-06-03T09:48:10Z</time>
      </trkpt>
      <trkpt lat="43.90875" lon="6.69442">
        <ele>1011.44</ele>
        <time>2021-06-03T09:48:11Z</time>
      </trkpt>
      <trkpt lat="43.90875" lon="6.69441">
        <ele>1014.81</ele>
        <time>2021-06-03T09:48:12Z</time>
      </trkpt>
      <trkpt lat="43.90878" lon="6.69438">
        <ele>1018.17</ele>
        <time>2021-06-03T09:48:17Z</time>
      </trkpt>
      <trkpt lat="43.90878" lon="6.69437">
        <ele>1013.85</ele>
        <time>2021-06-03T09:48:18Z</time>
      </trkpt>
      <trkpt lat="43.90876" lon="6.69432">
        <ele>1017.21</ele>
        <time>2021-06-03T09:48:24Z</time>
      </trkpt>
      <trkpt lat="43.90874" lon="6.69423">
        <ele>1015.77</ele>
        <time>2021-06-03T09:48:33Z</time>
      </trkpt>
      <trkpt lat="43.90875" lon="6.69423">
        <ele>1019.13</ele>
        <time>2021-06-03T09:48:34Z</time>
      </trkpt>
      <trkpt lat="43.90869" lon="6.69416">
        <ele>1023.46</ele>
        <time>2021-06-03T09:48:48Z</time>
      </trkpt>
      <trkpt lat="43.90869" lon="6.69415">
        <ele>1015.29</ele>
        <time>2021-06-03T09:48:49Z</time>
      </trkpt>
      <trkpt lat="43.90869" lon="6.69415">
        <ele>1022.5</ele>
        <time>2021-06-03T09:48:50Z</time>
      </trkpt>
      <trkpt lat="43.90868" lon="6.69414">
        <ele>1014.81</ele>
        <time>2021-06-03T09:48:51Z</time>
      </trkpt>
      <trkpt lat="43.90868" lon="6.69414">
        <ele>1022.02</ele>
        <time>2021-06-03T09:48:52Z</time>
      </trkpt>
      <trkpt lat="43.90867" lon="6.69413">
        <ele>1017.21</ele>
        <time>2021-06-03T09:48:53Z</time>
      </trkpt>
      <trkpt lat="43.90867" lon="6.69411">
        <ele>1022.02</ele>
        <time>2021-06-03T09:48:56Z</time>
      </trkpt>
      <trkpt lat="43.90867" lon="6.6941">
        <ele>1017.21</ele>
        <time>2021-06-03T09:48:57Z</time>
      </trkpt>
      <trkpt lat="43.90867" lon="6.6941">
        <ele>1020.58</ele>
        <time>2021-06-03T09:48:58Z</time>
      </trkpt>
      <trkpt lat="43.90866" lon="6.69404">
        <ele>1015.77</ele>
        <time>2021-06-03T09:49:04Z</time>
      </trkpt>
      <trkpt lat="43.90866" lon="6.69403">
        <ele>1022.98</ele>
        <time>2021-06-03T09:49:05Z</time>
      </trkpt>
      <trkpt lat="43.90866" lon="6.69401">
        <ele>1017.69</ele>
        <time>2021-06-03T09:49:07Z</time>
      </trkpt>
      <trkpt lat="43.90866" lon="6.69401">
        <ele>1022.98</ele>
        <time>2021-06-03T09:49:08Z</time>
      </trkpt>
      <trkpt lat="43.90866" lon="6.69398">
        <ele>1026.83</ele>
        <time>2021-06-03T09:49:11Z</time>
      </trkpt>
      <trkpt lat="43.90866" lon="6.69397">
        <ele>1020.1</ele>
        <time>2021-06-03T09:49:12Z</time>
      </trkpt>
      <trkpt lat="43.90866" lon="6.69396">
        <ele>1026.83</ele>
        <time>2021-06-03T09:49:13Z</time>
      </trkpt>
      <trkpt lat="43.90865" lon="6.69395">
        <ele>1020.58</ele>
        <time>2021-06-03T09:49:14Z</time>
      </trkpt>
      <trkpt lat="43.90865" lon="6.69394">
        <ele>1023.94</ele>
        <time>2021-06-03T09:49:15Z</time>
      </trkpt>
      <trkpt lat="43.90865" lon="6.69393">
        <ele>1018.17</ele>
        <time>2021-06-03T09:49:16Z</time>
      </trkpt>
      <trkpt lat="43.90864" lon="6.69392">
        <ele>1023.46</ele>
        <time>2021-06-03T09:49:17Z</time>
      </trkpt>
      <trkpt lat="43.90863" lon="6.69384">
        <ele>1020.1</ele>
        <time>2021-06-03T09:49:26Z</time>
      </trkpt>
      <trkpt lat="43.90863" lon="6.69383">
        <ele>1024.42</ele>
        <time>2021-06-03T09:49:27Z</time>
      </trkpt>
      <trkpt lat="43.90862" lon="6.69381">
        <ele>1022.5</ele>
        <time>2021-06-03T09:49:29Z</time>
      </trkpt>
      <trkpt lat="43.90862" lon="6.69379">
        <ele>1026.83</ele>
        <time>2021-06-03T09:49:30Z</time>
      </trkpt>
      <trkpt lat="43.90862" lon="6.69378">
        <ele>1020.1</ele>
        <time>2021-06-03T09:49:31Z</time>
      </trkpt>
      <trkpt lat="43.90862" lon="6.69377">
        <ele>1024.9</ele>
        <time>2021-06-03T09:49:32Z</time>
      </trkpt>
      <trkpt lat="43.90861" lon="6.69375">
        <ele>1028.75</ele>
        <time>2021-06-03T09:49:35Z</time>
      </trkpt>
      <trkpt lat="43.9086" lon="6.69374">
        <ele>1022.98</ele>
        <time>2021-06-03T09:49:36Z</time>
      </trkpt>
      <trkpt lat="43.9086" lon="6.69374">
        <ele>1027.31</ele>
        <time>2021-06-03T09:49:37Z</time>
      </trkpt>
      <trkpt lat="43.90859" lon="6.69374">
        <ele>1022.02</ele>
        <time>2021-06-03T09:49:38Z</time>
      </trkpt>
      <trkpt lat="43.90858" lon="6.69374">
        <ele>1027.31</ele>
        <time>2021-06-03T09:49:39Z</time>
      </trkpt>
      <trkpt lat="43.90857" lon="6.69377">
        <ele>1022.98</ele>
        <time>2021-06-03T09:49:42Z</time>
      </trkpt>
      <trkpt lat="43.90857" lon="6.69378">
        <ele>1031.63</ele>
        <time>2021-06-03T09:49:43Z</time>
      </trkpt>
      <trkpt lat="43.90856" lon="6.69379">
        <ele>1025.38</ele>
        <time>2021-06-03T09:49:44Z</time>
      </trkpt>
      <trkpt lat="43.90855" lon="6.69379">
        <ele>1029.23</ele>
        <time>2021-06-03T09:49:45Z</time>
      </trkpt>
      <trkpt lat="43.90855" lon="6.69379">
        <ele>1022.98</ele>
        <time>2021-06-03T09:49:46Z</time>
      </trkpt>
      <trkpt lat="43.90854" lon="6.69379">
        <ele>1027.31</ele>
        <time>2021-06-03T09:49:47Z</time>
      </trkpt>
      <trkpt lat="43.90852" lon="6.69378">
        <ele>1031.63</ele>
        <time>2021-06-03T09:49:50Z</time>
      </trkpt>
      <trkpt lat="43.90851" lon="6.69378">
        <ele>1026.83</ele>
        <time>2021-06-03T09:49:51Z</time>
      </trkpt>
      <trkpt lat="43.9085" lon="6.69379">
        <ele>1031.15</ele>
        <time>2021-06-03T09:49:52Z</time>
      </trkpt>
      <trkpt lat="43.9085" lon="6.69378">
        <ele>1025.86</ele>
        <time>2021-06-03T09:49:53Z</time>
      </trkpt>
      <trkpt lat="43.90849" lon="6.69376">
        <ele>1030.67</ele>
        <time>2021-06-03T09:49:55Z</time>
      </trkpt>
      <trkpt lat="43.90846" lon="6.69375">
        <ele>1035</ele>
        <time>2021-06-03T09:50:01Z</time>
      </trkpt>
      <trkpt lat="43.90845" lon="6.69375">
        <ele>1028.75</ele>
        <time>2021-06-03T09:50:02Z</time>
      </trkpt>
      <trkpt lat="43.90845" lon="6.69374">
        <ele>1033.07</ele>
        <time>2021-06-03T09:50:03Z</time>
      </trkpt>
      <trkpt lat="43.90844" lon="6.69374">
        <ele>1029.23</ele>
        <time>2021-06-03T09:50:04Z</time>
      </trkpt>
      <trkpt lat="43.90844" lon="6.69373">
        <ele>1034.04</ele>
        <time>2021-06-03T09:50:05Z</time>
      </trkpt>
      <trkpt lat="43.90843" lon="6.69372">
        <ele>1028.75</ele>
        <time>2021-06-03T09:50:06Z</time>
      </trkpt>
      <trkpt lat="43.90843" lon="6.69372">
        <ele>1035</ele>
        <time>2021-06-03T09:50:07Z</time>
      </trkpt>
      <trkpt lat="43.90843" lon="6.69371">
        <ele>1028.27</ele>
        <time>2021-06-03T09:50:08Z</time>
      </trkpt>
      <trkpt lat="43.90842" lon="6.69371">
        <ele>1034.52</ele>
        <time>2021-06-03T09:50:09Z</time>
      </trkpt>
      <trkpt lat="43.90841" lon="6.69371">
        <ele>1027.31</ele>
        <time>2021-06-03T09:50:10Z</time>
      </trkpt>
      <trkpt lat="43.90841" lon="6.6937">
        <ele>1034.52</ele>
        <time>2021-06-03T09:50:11Z</time>
      </trkpt>
      <trkpt lat="43.90841" lon="6.69369">
        <ele>1028.75</ele>
        <time>2021-06-03T09:50:12Z</time>
      </trkpt>
      <trkpt lat="43.9084" lon="6.69368">
        <ele>1035</ele>
        <time>2021-06-03T09:50:13Z</time>
      </trkpt>
      <trkpt lat="43.9084" lon="6.69367">
        <ele>1029.71</ele>
        <time>2021-06-03T09:50:14Z</time>
      </trkpt>
      <trkpt lat="43.9084" lon="6.69367">
        <ele>1038.84</ele>
        <time>2021-06-03T09:50:15Z</time>
      </trkpt>
      <trkpt lat="43.9084" lon="6.69366">
        <ele>1030.19</ele>
        <time>2021-06-03T09:50:16Z</time>
      </trkpt>
      <trkpt lat="43.90838" lon="6.69366">
        <ele>1033.55</ele>
        <time>2021-06-03T09:50:20Z</time>
      </trkpt>
      <trkpt lat="43.90837" lon="6.69366">
        <ele>1029.23</ele>
        <time>2021-06-03T09:50:21Z</time>
      </trkpt>
      <trkpt lat="43.90837" lon="6.69366">
        <ele>1033.07</ele>
        <time>2021-06-03T09:50:22Z</time>
      </trkpt>
      <trkpt lat="43.90835" lon="6.69362">
        <ele>1038.84</ele>
        <time>2021-06-03T09:50:29Z</time>
      </trkpt>
      <trkpt lat="43.90835" lon="6.69362">
        <ele>1032.11</ele>
        <time>2021-06-03T09:50:30Z</time>
      </trkpt>
      <trkpt lat="43.90834" lon="6.69361">
        <ele>1038.36</ele>
        <time>2021-06-03T09:50:31Z</time>
      </trkpt>
      <trkpt lat="43.90834" lon="6.69361">
        <ele>1033.07</ele>
        <time>2021-06-03T09:50:32Z</time>
      </trkpt>
      <trkpt lat="43.90833" lon="6.6936">
        <ele>1038.84</ele>
        <time>2021-06-03T09:50:33Z</time>
      </trkpt>
      <trkpt lat="43.90833" lon="6.6936">
        <ele>1033.07</ele>
        <time>2021-06-03T09:50:34Z</time>
      </trkpt>
      <trkpt lat="43.90833" lon="6.69359">
        <ele>1039.32</ele>
        <time>2021-06-03T09:50:35Z</time>
      </trkpt>
      <trkpt lat="43.90832" lon="6.69359">
        <ele>1033.07</ele>
        <time>2021-06-03T09:50:36Z</time>
      </trkpt>
      <trkpt lat="43.90832" lon="6.69358">
        <ele>1040.28</ele>
        <time>2021-06-03T09:50:37Z</time>
      </trkpt>
      <trkpt lat="43.90832" lon="6.69358">
        <ele>1034.04</ele>
        <time>2021-06-03T09:50:38Z</time>
      </trkpt>
      <trkpt lat="43.90832" lon="6.69357">
        <ele>1040.28</ele>
        <time>2021-06-03T09:50:39Z</time>
      </trkpt>
      <trkpt lat="43.90831" lon="6.69355">
        <ele>1034.04</ele>
        <time>2021-06-03T09:50:40Z</time>
      </trkpt>
      <trkpt lat="43.9083" lon="6.69354">
        <ele>1033.07</ele>
        <time>2021-06-03T09:50:42Z</time>
      </trkpt>
      <trkpt lat="43.90829" lon="6.69353">
        <ele>1040.28</ele>
        <time>2021-06-03T09:50:43Z</time>
      </trkpt>
      <trkpt lat="43.90829" lon="6.69353">
        <ele>1036.44</ele>
        <time>2021-06-03T09:50:44Z</time>
      </trkpt>
      <trkpt lat="43.90828" lon="6.69353">
        <ele>1041.73</ele>
        <time>2021-06-03T09:50:45Z</time>
      </trkpt>
      <trkpt lat="43.90828" lon="6.69353">
        <ele>1035.96</ele>
        <time>2021-06-03T09:50:46Z</time>
      </trkpt>
      <trkpt lat="43.90828" lon="6.69352">
        <ele>1042.21</ele>
        <time>2021-06-03T09:50:47Z</time>
      </trkpt>
      <trkpt lat="43.90828" lon="6.69352">
        <ele>1035.48</ele>
        <time>2021-06-03T09:50:48Z</time>
      </trkpt>
      <trkpt lat="43.90828" lon="6.69352">
        <ele>1041.25</ele>
        <time>2021-06-03T09:50:49Z</time>
      </trkpt>
      <trkpt lat="43.90827" lon="6.69352">
        <ele>1033.55</ele>
        <time>2021-06-03T09:50:50Z</time>
      </trkpt>
      <trkpt lat="43.90827" lon="6.69352">
        <ele>1041.73</ele>
        <time>2021-06-03T09:50:51Z</time>
      </trkpt>
      <trkpt lat="43.90827" lon="6.69351">
        <ele>1036.92</ele>
        <time>2021-06-03T09:50:52Z</time>
      </trkpt>
      <trkpt lat="43.90826" lon="6.6935">
        <ele>1031.63</ele>
        <time>2021-06-03T09:50:54Z</time>
      </trkpt>
      <trkpt lat="43.90825" lon="6.6935">
        <ele>1038.84</ele>
        <time>2021-06-03T09:50:55Z</time>
      </trkpt>
      <trkpt lat="43.90824" lon="6.6935">
        <ele>1034.52</ele>
        <time>2021-06-03T09:50:56Z</time>
      </trkpt>
      <trkpt lat="43.90824" lon="6.69349">
        <ele>1045.09</ele>
        <time>2021-06-03T09:50:57Z</time>
      </trkpt>
      <trkpt lat="43.90824" lon="6.69349">
        <ele>1035</ele>
        <time>2021-06-03T09:50:58Z</time>
      </trkpt>
      <trkpt lat="43.90823" lon="6.69349">
        <ele>1042.69</ele>
        <time>2021-06-03T09:50:59Z</time>
      </trkpt>
      <trkpt lat="43.90823" lon="6.69348">
        <ele>1035.96</ele>
        <time>2021-06-03T09:51:00Z</time>
      </trkpt>
      <trkpt lat="43.90822" lon="6.69347">
        <ele>1043.17</ele>
        <time>2021-06-03T09:51:01Z</time>
      </trkpt>
      <trkpt lat="43.90822" lon="6.69347">
        <ele>1035.96</ele>
        <time>2021-06-03T09:51:02Z</time>
      </trkpt>
      <trkpt lat="43.90822" lon="6.69346">
        <ele>1042.69</ele>
        <time>2021-06-03T09:51:03Z</time>
      </trkpt>
      <trkpt lat="43.90821" lon="6.69346">
        <ele>1037.88</ele>
        <time>2021-06-03T09:51:04Z</time>
      </trkpt>
      <trkpt lat="43.90821" lon="6.69345">
        <ele>1042.21</ele>
        <time>2021-06-03T09:51:05Z</time>
      </trkpt>
      <trkpt lat="43.90821" lon="6.69346">
        <ele>1036.92</ele>
        <time>2021-06-03T09:51:06Z</time>
      </trkpt>
      <trkpt lat="43.9082" lon="6.69346">
        <ele>1044.61</ele>
        <time>2021-06-03T09:51:07Z</time>
      </trkpt>
      <trkpt lat="43.9082" lon="6.69346">
        <ele>1037.4</ele>
        <time>2021-06-03T09:51:08Z</time>
      </trkpt>
      <trkpt lat="43.90819" lon="6.69346">
        <ele>1041.25</ele>
        <time>2021-06-03T09:51:09Z</time>
      </trkpt>
      <trkpt lat="43.90819" lon="6.69346">
        <ele>1037.4</ele>
        <time>2021-06-03T09:51:11Z</time>
      </trkpt>
      <trkpt lat="43.90818" lon="6.69345">
        <ele>1040.76</ele>
        <time>2021-06-03T09:51:14Z</time>
      </trkpt>
      <trkpt lat="43.90818" lon="6.69342">
        <ele>1044.13</ele>
        <time>2021-06-03T09:51:23Z</time>
      </trkpt>
      <trkpt lat="43.90818" lon="6.69338">
        <ele>1048.45</ele>
        <time>2021-06-03T09:51:27Z</time>
      </trkpt>
      <trkpt lat="43.90818" lon="6.69338">
        <ele>1044.13</ele>
        <time>2021-06-03T09:51:28Z</time>
      </trkpt>
      <trkpt lat="43.90817" lon="6.69337">
        <ele>1049.9</ele>
        <time>2021-06-03T09:51:29Z</time>
      </trkpt>
      <trkpt lat="43.90817" lon="6.69337">
        <ele>1040.28</ele>
        <time>2021-06-03T09:51:30Z</time>
      </trkpt>
      <trkpt lat="43.90816" lon="6.69337">
        <ele>1047.97</ele>
        <time>2021-06-03T09:51:31Z</time>
      </trkpt>
      <trkpt lat="43.90816" lon="6.69337">
        <ele>1042.69</ele>
        <time>2021-06-03T09:51:32Z</time>
      </trkpt>
      <trkpt lat="43.90815" lon="6.69337">
        <ele>1047.49</ele>
        <time>2021-06-03T09:51:33Z</time>
      </trkpt>
      <trkpt lat="43.90814" lon="6.69337">
        <ele>1042.69</ele>
        <time>2021-06-03T09:51:34Z</time>
      </trkpt>
      <trkpt lat="43.90814" lon="6.69337">
        <ele>1049.42</ele>
        <time>2021-06-03T09:51:35Z</time>
      </trkpt>
      <trkpt lat="43.90813" lon="6.69337">
        <ele>1042.69</ele>
        <time>2021-06-03T09:51:36Z</time>
      </trkpt>
      <trkpt lat="43.90813" lon="6.69336">
        <ele>1048.94</ele>
        <time>2021-06-03T09:51:37Z</time>
      </trkpt>
      <trkpt lat="43.90813" lon="6.69336">
        <ele>1043.65</ele>
        <time>2021-06-03T09:51:38Z</time>
      </trkpt>
      <trkpt lat="43.90813" lon="6.69335">
        <ele>1050.86</ele>
        <time>2021-06-03T09:51:39Z</time>
      </trkpt>
      <trkpt lat="43.90813" lon="6.69334">
        <ele>1043.17</ele>
        <time>2021-06-03T09:51:40Z</time>
      </trkpt>
      <trkpt lat="43.90813" lon="6.69333">
        <ele>1049.42</ele>
        <time>2021-06-03T09:51:41Z</time>
      </trkpt>
      <trkpt lat="43.90813" lon="6.69332">
        <ele>1043.65</ele>
        <time>2021-06-03T09:51:42Z</time>
      </trkpt>
      <trkpt lat="43.90813" lon="6.69331">
        <ele>1048.45</ele>
        <time>2021-06-03T09:51:43Z</time>
      </trkpt>
      <trkpt lat="43.90813" lon="6.6933">
        <ele>1038.36</ele>
        <time>2021-06-03T09:51:44Z</time>
      </trkpt>
      <trkpt lat="43.90813" lon="6.69329">
        <ele>1047.01</ele>
        <time>2021-06-03T09:51:45Z</time>
      </trkpt>
      <trkpt lat="43.90813" lon="6.69329">
        <ele>1041.25</ele>
        <time>2021-06-03T09:51:46Z</time>
      </trkpt>
      <trkpt lat="43.90813" lon="6.69328">
        <ele>1047.01</ele>
        <time>2021-06-03T09:51:47Z</time>
      </trkpt>
      <trkpt lat="43.90813" lon="6.69327">
        <ele>1040.76</ele>
        <time>2021-06-03T09:51:48Z</time>
      </trkpt>
      <trkpt lat="43.90813" lon="6.69326">
        <ele>1050.86</ele>
        <time>2021-06-03T09:51:49Z</time>
      </trkpt>
      <trkpt lat="43.90813" lon="6.69325">
        <ele>1041.73</ele>
        <time>2021-06-03T09:51:50Z</time>
      </trkpt>
      <trkpt lat="43.90813" lon="6.69324">
        <ele>1047.97</ele>
        <time>2021-06-03T09:51:51Z</time>
      </trkpt>
      <trkpt lat="43.90808" lon="6.69318">
        <ele>1047.97</ele>
        <time>2021-06-03T09:52:07Z</time>
      </trkpt>
      <trkpt lat="43.90807" lon="6.69317">
        <ele>1053.26</ele>
        <time>2021-06-03T09:52:09Z</time>
      </trkpt>
      <trkpt lat="43.90807" lon="6.69316">
        <ele>1045.57</ele>
        <time>2021-06-03T09:52:10Z</time>
      </trkpt>
      <trkpt lat="43.90806" lon="6.69316">
        <ele>1052.3</ele>
        <time>2021-06-03T09:52:11Z</time>
      </trkpt>
      <trkpt lat="43.90806" lon="6.69316">
        <ele>1045.09</ele>
        <time>2021-06-03T09:52:12Z</time>
      </trkpt>
      <trkpt lat="43.90805" lon="6.69316">
        <ele>1049.9</ele>
        <time>2021-06-03T09:52:13Z</time>
      </trkpt>
      <trkpt lat="43.90805" lon="6.69315">
        <ele>1045.57</ele>
        <time>2021-06-03T09:52:14Z</time>
      </trkpt>
      <trkpt lat="43.90804" lon="6.69315">
        <ele>1050.86</ele>
        <time>2021-06-03T09:52:16Z</time>
      </trkpt>
      <trkpt lat="43.90803" lon="6.69314">
        <ele>1049.9</ele>
        <time>2021-06-03T09:52:17Z</time>
      </trkpt>
      <trkpt lat="43.90802" lon="6.69314">
        <ele>1054.22</ele>
        <time>2021-06-03T09:52:18Z</time>
      </trkpt>
      <trkpt lat="43.90802" lon="6.69313">
        <ele>1047.49</ele>
        <time>2021-06-03T09:52:19Z</time>
      </trkpt>
      <trkpt lat="43.90801" lon="6.69313">
        <ele>1053.74</ele>
        <time>2021-06-03T09:52:20Z</time>
      </trkpt>
      <trkpt lat="43.90801" lon="6.69312">
        <ele>1047.49</ele>
        <time>2021-06-03T09:52:21Z</time>
      </trkpt>
      <trkpt lat="43.908" lon="6.69312">
        <ele>1051.34</ele>
        <time>2021-06-03T09:52:22Z</time>
      </trkpt>
      <trkpt lat="43.908" lon="6.69307">
        <ele>1056.15</ele>
        <time>2021-06-03T09:52:29Z</time>
      </trkpt>
      <trkpt lat="43.908" lon="6.69306">
        <ele>1049.42</ele>
        <time>2021-06-03T09:52:30Z</time>
      </trkpt>
      <trkpt lat="43.90799" lon="6.69304">
        <ele>1052.78</ele>
        <time>2021-06-03T09:52:32Z</time>
      </trkpt>
      <trkpt lat="43.90799" lon="6.69304">
        <ele>1058.07</ele>
        <time>2021-06-03T09:52:33Z</time>
      </trkpt>
      <trkpt lat="43.90798" lon="6.69303">
        <ele>1049.9</ele>
        <time>2021-06-03T09:52:34Z</time>
      </trkpt>
      <trkpt lat="43.90797" lon="6.69302">
        <ele>1050.86</ele>
        <time>2021-06-03T09:52:36Z</time>
      </trkpt>
      <trkpt lat="43.90796" lon="6.69302">
        <ele>1054.22</ele>
        <time>2021-06-03T09:52:37Z</time>
      </trkpt>
      <trkpt lat="43.90796" lon="6.69301">
        <ele>1049.9</ele>
        <time>2021-06-03T09:52:38Z</time>
      </trkpt>
      <trkpt lat="43.90796" lon="6.69301">
        <ele>1054.22</ele>
        <time>2021-06-03T09:52:39Z</time>
      </trkpt>
      <trkpt lat="43.90796" lon="6.69301">
        <ele>1049.9</ele>
        <time>2021-06-03T09:52:40Z</time>
      </trkpt>
      <trkpt lat="43.90795" lon="6.69301">
        <ele>1054.22</ele>
        <time>2021-06-03T09:52:41Z</time>
      </trkpt>
      <trkpt lat="43.90792" lon="6.69299">
        <ele>1055.18</ele>
        <time>2021-06-03T09:52:56Z</time>
      </trkpt>
      <trkpt lat="43.90791" lon="6.69297">
        <ele>1050.86</ele>
        <time>2021-06-03T09:52:59Z</time>
      </trkpt>
      <trkpt lat="43.90791" lon="6.69296">
        <ele>1057.11</ele>
        <time>2021-06-03T09:53:00Z</time>
      </trkpt>
      <trkpt lat="43.90791" lon="6.69296">
        <ele>1049.9</ele>
        <time>2021-06-03T09:53:01Z</time>
      </trkpt>
      <trkpt lat="43.90791" lon="6.69295">
        <ele>1055.67</ele>
        <time>2021-06-03T09:53:02Z</time>
      </trkpt>
      <trkpt lat="43.9079" lon="6.69292">
        <ele>1059.03</ele>
        <time>2021-06-03T09:53:05Z</time>
      </trkpt>
      <trkpt lat="43.90789" lon="6.69291">
        <ele>1054.22</ele>
        <time>2021-06-03T09:53:06Z</time>
      </trkpt>
      <trkpt lat="43.90789" lon="6.69291">
        <ele>1060.47</ele>
        <time>2021-06-03T09:53:07Z</time>
      </trkpt>
      <trkpt lat="43.90789" lon="6.6929">
        <ele>1055.18</ele>
        <time>2021-06-03T09:53:08Z</time>
      </trkpt>
      <trkpt lat="43.90789" lon="6.69289">
        <ele>1061.91</ele>
        <time>2021-06-03T09:53:09Z</time>
      </trkpt>
      <trkpt lat="43.90788" lon="6.69288">
        <ele>1055.18</ele>
        <time>2021-06-03T09:53:10Z</time>
      </trkpt>
      <trkpt lat="43.90788" lon="6.69288">
        <ele>1059.99</ele>
        <time>2021-06-03T09:53:11Z</time>
      </trkpt>
      <trkpt lat="43.90788" lon="6.69287">
        <ele>1052.3</ele>
        <time>2021-06-03T09:53:12Z</time>
      </trkpt>
      <trkpt lat="43.90787" lon="6.69286">
        <ele>1058.07</ele>
        <time>2021-06-03T09:53:13Z</time>
      </trkpt>
      <trkpt lat="43.90787" lon="6.69285">
        <ele>1052.78</ele>
        <time>2021-06-03T09:53:16Z</time>
      </trkpt>
      <trkpt lat="43.90786" lon="6.69284">
        <ele>1057.11</ele>
        <time>2021-06-03T09:53:17Z</time>
      </trkpt>
      <trkpt lat="43.90786" lon="6.69284">
        <ele>1060.95</ele>
        <time>2021-06-03T09:53:18Z</time>
      </trkpt>
      <trkpt lat="43.90786" lon="6.69284">
        <ele>1058.55</ele>
        <time>2021-06-03T09:53:19Z</time>
      </trkpt>
      <trkpt lat="43.90786" lon="6.69283">
        <ele>1062.39</ele>
        <time>2021-06-03T09:53:20Z</time>
      </trkpt>
      <trkpt lat="43.90786" lon="6.69282">
        <ele>1057.59</ele>
        <time>2021-06-03T09:53:21Z</time>
      </trkpt>
      <trkpt lat="43.90785" lon="6.69281">
        <ele>1062.87</ele>
        <time>2021-06-03T09:53:22Z</time>
      </trkpt>
      <trkpt lat="43.90785" lon="6.69281">
        <ele>1058.07</ele>
        <time>2021-06-03T09:53:23Z</time>
      </trkpt>
      <trkpt lat="43.90782" lon="6.69277">
        <ele>1061.91</ele>
        <time>2021-06-03T09:53:29Z</time>
      </trkpt>
      <trkpt lat="43.90782" lon="6.69277">
        <ele>1060.47</ele>
        <time>2021-06-03T09:53:30Z</time>
      </trkpt>
      <trkpt lat="43.90781" lon="6.69277">
        <ele>1059.51</ele>
        <time>2021-06-03T09:53:32Z</time>
      </trkpt>
      <trkpt lat="43.9078" lon="6.69275">
        <ele>1063.36</ele>
        <time>2021-06-03T09:53:34Z</time>
      </trkpt>
      <trkpt lat="43.9078" lon="6.69274">
        <ele>1060.47</ele>
        <time>2021-06-03T09:53:35Z</time>
      </trkpt>
      <trkpt lat="43.90779" lon="6.69271">
        <ele>1064.32</ele>
        <time>2021-06-03T09:53:38Z</time>
      </trkpt>
      <trkpt lat="43.90779" lon="6.6927">
        <ele>1057.11</ele>
        <time>2021-06-03T09:53:39Z</time>
      </trkpt>
      <trkpt lat="43.90779" lon="6.69269">
        <ele>1065.28</ele>
        <time>2021-06-03T09:53:40Z</time>
      </trkpt>
      <trkpt lat="43.90779" lon="6.69268">
        <ele>1058.55</ele>
        <time>2021-06-03T09:53:41Z</time>
      </trkpt>
      <trkpt lat="43.90779" lon="6.69267">
        <ele>1064.8</ele>
        <time>2021-06-03T09:53:42Z</time>
      </trkpt>
      <trkpt lat="43.90779" lon="6.69266">
        <ele>1054.7</ele>
        <time>2021-06-03T09:53:43Z</time>
      </trkpt>
      <trkpt lat="43.90779" lon="6.69265">
        <ele>1062.39</ele>
        <time>2021-06-03T09:53:44Z</time>
      </trkpt>
      <trkpt lat="43.90778" lon="6.69263">
        <ele>1054.22</ele>
        <time>2021-06-03T09:53:47Z</time>
      </trkpt>
      <trkpt lat="43.90777" lon="6.69263">
        <ele>1062.39</ele>
        <time>2021-06-03T09:53:48Z</time>
      </trkpt>
      <trkpt lat="43.90776" lon="6.69261">
        <ele>1066.24</ele>
        <time>2021-06-03T09:53:51Z</time>
      </trkpt>
      <trkpt lat="43.90776" lon="6.6926">
        <ele>1060.95</ele>
        <time>2021-06-03T09:53:52Z</time>
      </trkpt>
      <trkpt lat="43.90772" lon="6.69255">
        <ele>1067.2</ele>
        <time>2021-06-03T09:54:03Z</time>
      </trkpt>
      <trkpt lat="43.90771" lon="6.69255">
        <ele>1064.8</ele>
        <time>2021-06-03T09:54:04Z</time>
      </trkpt>
      <trkpt lat="43.90769" lon="6.6925">
        <ele>1069.6</ele>
        <time>2021-06-03T09:54:12Z</time>
      </trkpt>
      <trkpt lat="43.90769" lon="6.69249">
        <ele>1061.91</ele>
        <time>2021-06-03T09:54:13Z</time>
      </trkpt>
      <trkpt lat="43.9077" lon="6.69249">
        <ele>1069.12</ele>
        <time>2021-06-03T09:54:14Z</time>
      </trkpt>
      <trkpt lat="43.90769" lon="6.69248">
        <ele>1059.99</ele>
        <time>2021-06-03T09:54:15Z</time>
      </trkpt>
      <trkpt lat="43.90769" lon="6.69247">
        <ele>1065.76</ele>
        <time>2021-06-03T09:54:16Z</time>
      </trkpt>
      <trkpt lat="43.90769" lon="6.69247">
        <ele>1062.87</ele>
        <time>2021-06-03T09:54:17Z</time>
      </trkpt>
      <trkpt lat="43.90769" lon="6.69246">
        <ele>1068.16</ele>
        <time>2021-06-03T09:54:20Z</time>
      </trkpt>
      <trkpt lat="43.90768" lon="6.69245">
        <ele>1064.32</ele>
        <time>2021-06-03T09:54:21Z</time>
      </trkpt>
      <trkpt lat="43.90768" lon="6.69244">
        <ele>1067.68</ele>
        <time>2021-06-03T09:54:23Z</time>
      </trkpt>
      <trkpt lat="43.90768" lon="6.69244">
        <ele>1067.2</ele>
        <time>2021-06-03T09:54:24Z</time>
      </trkpt>
      <trkpt lat="43.90767" lon="6.69243">
        <ele>1062.87</ele>
        <time>2021-06-03T09:54:26Z</time>
      </trkpt>
      <trkpt lat="43.90766" lon="6.69243">
        <ele>1066.72</ele>
        <time>2021-06-03T09:54:27Z</time>
      </trkpt>
      <trkpt lat="43.90766" lon="6.69243">
        <ele>1059.99</ele>
        <time>2021-06-03T09:54:28Z</time>
      </trkpt>
      <trkpt lat="43.90766" lon="6.69242">
        <ele>1068.64</ele>
        <time>2021-06-03T09:54:29Z</time>
      </trkpt>
      <trkpt lat="43.90766" lon="6.69238">
        <ele>1072.49</ele>
        <time>2021-06-03T09:54:34Z</time>
      </trkpt>
      <trkpt lat="43.90766" lon="6.69236">
        <ele>1067.68</ele>
        <time>2021-06-03T09:54:35Z</time>
      </trkpt>
      <trkpt lat="43.90766" lon="6.69234">
        <ele>1063.84</ele>
        <time>2021-06-03T09:54:37Z</time>
      </trkpt>
      <trkpt lat="43.90765" lon="6.69233">
        <ele>1070.08</ele>
        <time>2021-06-03T09:54:38Z</time>
      </trkpt>
      <trkpt lat="43.90765" lon="6.69229">
        <ele>1074.41</ele>
        <time>2021-06-03T09:54:43Z</time>
      </trkpt>
      <trkpt lat="43.90765" lon="6.69228">
        <ele>1068.16</ele>
        <time>2021-06-03T09:54:44Z</time>
      </trkpt>
      <trkpt lat="43.90765" lon="6.69228">
        <ele>1076.33</ele>
        <time>2021-06-03T09:54:45Z</time>
      </trkpt>
      <trkpt lat="43.90766" lon="6.69227">
        <ele>1068.16</ele>
        <time>2021-06-03T09:54:46Z</time>
      </trkpt>
      <trkpt lat="43.90766" lon="6.69226">
        <ele>1074.89</ele>
        <time>2021-06-03T09:54:47Z</time>
      </trkpt>
      <trkpt lat="43.90766" lon="6.69225">
        <ele>1065.76</ele>
        <time>2021-06-03T09:54:48Z</time>
      </trkpt>
      <trkpt lat="43.90765" lon="6.69224">
        <ele>1075.37</ele>
        <time>2021-06-03T09:54:49Z</time>
      </trkpt>
      <trkpt lat="43.90765" lon="6.69224">
        <ele>1070.57</ele>
        <time>2021-06-03T09:54:50Z</time>
      </trkpt>
      <trkpt lat="43.90764" lon="6.69223">
        <ele>1076.81</ele>
        <time>2021-06-03T09:54:51Z</time>
      </trkpt>
      <trkpt lat="43.90764" lon="6.69222">
        <ele>1070.57</ele>
        <time>2021-06-03T09:54:52Z</time>
      </trkpt>
      <trkpt lat="43.90764" lon="6.69221">
        <ele>1075.37</ele>
        <time>2021-06-03T09:54:53Z</time>
      </trkpt>
      <trkpt lat="43.90764" lon="6.6922">
        <ele>1070.08</ele>
        <time>2021-06-03T09:54:54Z</time>
      </trkpt>
      <trkpt lat="43.90764" lon="6.69219">
        <ele>1074.41</ele>
        <time>2021-06-03T09:54:55Z</time>
      </trkpt>
      <trkpt lat="43.90764" lon="6.69218">
        <ele>1069.12</ele>
        <time>2021-06-03T09:54:56Z</time>
      </trkpt>
      <trkpt lat="43.90764" lon="6.69217">
        <ele>1076.33</ele>
        <time>2021-06-03T09:54:57Z</time>
      </trkpt>
      <trkpt lat="43.90764" lon="6.69216">
        <ele>1069.6</ele>
        <time>2021-06-03T09:54:58Z</time>
      </trkpt>
      <trkpt lat="43.90764" lon="6.69215">
        <ele>1073.93</ele>
        <time>2021-06-03T09:54:59Z</time>
      </trkpt>
      <trkpt lat="43.90764" lon="6.69215">
        <ele>1068.16</ele>
        <time>2021-06-03T09:55:00Z</time>
      </trkpt>
      <trkpt lat="43.90764" lon="6.69214">
        <ele>1074.41</ele>
        <time>2021-06-03T09:55:01Z</time>
      </trkpt>
      <trkpt lat="43.90763" lon="6.69214">
        <ele>1070.57</ele>
        <time>2021-06-03T09:55:02Z</time>
      </trkpt>
      <trkpt lat="43.90764" lon="6.69214">
        <ele>1073.45</ele>
        <time>2021-06-03T09:55:03Z</time>
      </trkpt>
      <trkpt lat="43.90763" lon="6.69213">
        <ele>1067.68</ele>
        <time>2021-06-03T09:55:04Z</time>
      </trkpt>
      <trkpt lat="43.90763" lon="6.69213">
        <ele>1073.93</ele>
        <time>2021-06-03T09:55:05Z</time>
      </trkpt>
      <trkpt lat="43.90763" lon="6.69212">
        <ele>1069.12</ele>
        <time>2021-06-03T09:55:06Z</time>
      </trkpt>
      <trkpt lat="43.90763" lon="6.69211">
        <ele>1076.33</ele>
        <time>2021-06-03T09:55:07Z</time>
      </trkpt>
      <trkpt lat="43.90763" lon="6.69211">
        <ele>1069.6</ele>
        <time>2021-06-03T09:55:08Z</time>
      </trkpt>
      <trkpt lat="43.90763" lon="6.6921">
        <ele>1078.74</ele>
        <time>2021-06-03T09:55:09Z</time>
      </trkpt>
      <trkpt lat="43.90762" lon="6.69209">
        <ele>1071.05</ele>
        <time>2021-06-03T09:55:10Z</time>
      </trkpt>
      <trkpt lat="43.90761" lon="6.69209">
        <ele>1075.85</ele>
        <time>2021-06-03T09:55:11Z</time>
      </trkpt>
      <trkpt lat="43.90761" lon="6.69209">
        <ele>1070.08</ele>
        <time>2021-06-03T09:55:12Z</time>
      </trkpt>
      <trkpt lat="43.9076" lon="6.69209">
        <ele>1076.81</ele>
        <time>2021-06-03T09:55:13Z</time>
      </trkpt>
      <trkpt lat="43.9076" lon="6.69208">
        <ele>1072.49</ele>
        <time>2021-06-03T09:55:14Z</time>
      </trkpt>
      <trkpt lat="43.90759" lon="6.69207">
        <ele>1075.37</ele>
        <time>2021-06-03T09:55:16Z</time>
      </trkpt>
      <trkpt lat="43.90758" lon="6.69206">
        <ele>1078.74</ele>
        <time>2021-06-03T09:55:20Z</time>
      </trkpt>
      <trkpt lat="43.90759" lon="6.69206">
        <ele>1076.33</ele>
        <time>2021-06-03T09:55:21Z</time>
      </trkpt>
      <trkpt lat="43.90759" lon="6.69202">
        <ele>1080.66</ele>
        <time>2021-06-03T09:55:26Z</time>
      </trkpt>
      <trkpt lat="43.9076" lon="6.69201">
        <ele>1074.89</ele>
        <time>2021-06-03T09:55:27Z</time>
      </trkpt>
      <trkpt lat="43.9076" lon="6.692">
        <ele>1080.18</ele>
        <time>2021-06-03T09:55:28Z</time>
      </trkpt>
      <trkpt lat="43.90759" lon="6.69199">
        <ele>1073.93</ele>
        <time>2021-06-03T09:55:29Z</time>
      </trkpt>
      <trkpt lat="43.90759" lon="6.69199">
        <ele>1078.74</ele>
        <time>2021-06-03T09:55:30Z</time>
      </trkpt>
      <trkpt lat="43.9076" lon="6.69198">
        <ele>1072.97</ele>
        <time>2021-06-03T09:55:31Z</time>
      </trkpt>
      <trkpt lat="43.9076" lon="6.69198">
        <ele>1077.78</ele>
        <time>2021-06-03T09:55:32Z</time>
      </trkpt>
      <trkpt lat="43.9076" lon="6.69195">
        <ele>1070.08</ele>
        <time>2021-06-03T09:55:35Z</time>
      </trkpt>
      <trkpt lat="43.9076" lon="6.69195">
        <ele>1080.66</ele>
        <time>2021-06-03T09:55:36Z</time>
      </trkpt>
      <trkpt lat="43.9076" lon="6.69194">
        <ele>1074.41</ele>
        <time>2021-06-03T09:55:37Z</time>
      </trkpt>
      <trkpt lat="43.90759" lon="6.69193">
        <ele>1079.7</ele>
        <time>2021-06-03T09:55:38Z</time>
      </trkpt>
      <trkpt lat="43.90758" lon="6.69188">
        <ele>1084.5</ele>
        <time>2021-06-03T09:55:47Z</time>
      </trkpt>
      <trkpt lat="43.90758" lon="6.69187">
        <ele>1080.66</ele>
        <time>2021-06-03T09:55:48Z</time>
      </trkpt>
      <trkpt lat="43.90759" lon="6.69187">
        <ele>1084.02</ele>
        <time>2021-06-03T09:55:49Z</time>
      </trkpt>
      <trkpt lat="43.90759" lon="6.69187">
        <ele>1080.66</ele>
        <time>2021-06-03T09:55:50Z</time>
      </trkpt>
      <trkpt lat="43.9076" lon="6.69183">
        <ele>1087.39</ele>
        <time>2021-06-03T09:55:57Z</time>
      </trkpt>
      <trkpt lat="43.9076" lon="6.69182">
        <ele>1080.66</ele>
        <time>2021-06-03T09:55:58Z</time>
      </trkpt>
      <trkpt lat="43.9076" lon="6.69181">
        <ele>1085.47</ele>
        <time>2021-06-03T09:55:59Z</time>
      </trkpt>
      <trkpt lat="43.90759" lon="6.6918">
        <ele>1078.74</ele>
        <time>2021-06-03T09:56:00Z</time>
      </trkpt>
      <trkpt lat="43.90759" lon="6.69179">
        <ele>1084.02</ele>
        <time>2021-06-03T09:56:01Z</time>
      </trkpt>
      <trkpt lat="43.90759" lon="6.69179">
        <ele>1079.22</ele>
        <time>2021-06-03T09:56:02Z</time>
      </trkpt>
      <trkpt lat="43.90758" lon="6.69178">
        <ele>1083.06</ele>
        <time>2021-06-03T09:56:03Z</time>
      </trkpt>
      <trkpt lat="43.90758" lon="6.69177">
        <ele>1078.26</ele>
        <time>2021-06-03T09:56:04Z</time>
      </trkpt>
      <trkpt lat="43.90758" lon="6.69176">
        <ele>1084.5</ele>
        <time>2021-06-03T09:56:05Z</time>
      </trkpt>
      <trkpt lat="43.90757" lon="6.69175">
        <ele>1092.68</ele>
        <time>2021-06-03T09:56:06Z</time>
      </trkpt>
      <trkpt lat="43.90757" lon="6.69175">
        <ele>1083.54</ele>
        <time>2021-06-03T09:56:07Z</time>
      </trkpt>
      <trkpt lat="43.90757" lon="6.69172">
        <ele>1086.91</ele>
        <time>2021-06-03T09:56:16Z</time>
      </trkpt>
      <trkpt lat="43.90757" lon="6.69171">
        <ele>1079.22</ele>
        <time>2021-06-03T09:56:17Z</time>
      </trkpt>
      <trkpt lat="43.90757" lon="6.69171">
        <ele>1084.99</ele>
        <time>2021-06-03T09:56:18Z</time>
      </trkpt>
      <trkpt lat="43.9076" lon="6.69173">
        <ele>1089.31</ele>
        <time>2021-06-03T09:56:25Z</time>
      </trkpt>
      <trkpt lat="43.9076" lon="6.69173">
        <ele>1082.1</ele>
        <time>2021-06-03T09:56:26Z</time>
      </trkpt>
      <trkpt lat="43.90761" lon="6.69173">
        <ele>1090.27</ele>
        <time>2021-06-03T09:56:27Z</time>
      </trkpt>
      <trkpt lat="43.90761" lon="6.69174">
        <ele>1081.62</ele>
        <time>2021-06-03T09:56:28Z</time>
      </trkpt>
      <trkpt lat="43.90762" lon="6.69173">
        <ele>1089.79</ele>
        <time>2021-06-03T09:56:29Z</time>
      </trkpt>
      <trkpt lat="43.90762" lon="6.69172">
        <ele>1081.62</ele>
        <time>2021-06-03T09:56:30Z</time>
      </trkpt>
      <trkpt lat="43.90762" lon="6.69171">
        <ele>1086.43</ele>
        <time>2021-06-03T09:56:31Z</time>
      </trkpt>
      <trkpt lat="43.90763" lon="6.69171">
        <ele>1080.18</ele>
        <time>2021-06-03T09:56:32Z</time>
      </trkpt>
      <trkpt lat="43.90763" lon="6.6917">
        <ele>1086.91</ele>
        <time>2021-06-03T09:56:33Z</time>
      </trkpt>
      <trkpt lat="43.90764" lon="6.69166">
        <ele>1090.27</ele>
        <time>2021-06-03T09:56:38Z</time>
      </trkpt>
      <trkpt lat="43.90764" lon="6.69165">
        <ele>1086.43</ele>
        <time>2021-06-03T09:56:39Z</time>
      </trkpt>
      <trkpt lat="43.90764" lon="6.69164">
        <ele>1093.16</ele>
        <time>2021-06-03T09:56:40Z</time>
      </trkpt>
      <trkpt lat="43.90764" lon="6.69164">
        <ele>1084.5</ele>
        <time>2021-06-03T09:56:41Z</time>
      </trkpt>
      <trkpt lat="43.90765" lon="6.69164">
        <ele>1088.35</ele>
        <time>2021-06-03T09:56:42Z</time>
      </trkpt>
      <trkpt lat="43.90765" lon="6.69163">
        <ele>1082.58</ele>
        <time>2021-06-03T09:56:43Z</time>
      </trkpt>
      <trkpt lat="43.90766" lon="6.69163">
        <ele>1089.31</ele>
        <time>2021-06-03T09:56:44Z</time>
      </trkpt>
      <trkpt lat="43.90766" lon="6.69161">
        <ele>1092.2</ele>
        <time>2021-06-03T09:56:49Z</time>
      </trkpt>
      <trkpt lat="43.90766" lon="6.6916">
        <ele>1088.35</ele>
        <time>2021-06-03T09:56:50Z</time>
      </trkpt>
      <trkpt lat="43.90766" lon="6.69159">
        <ele>1093.64</ele>
        <time>2021-06-03T09:56:51Z</time>
      </trkpt>
      <trkpt lat="43.90766" lon="6.69158">
        <ele>1082.58</ele>
        <time>2021-06-03T09:56:52Z</time>
      </trkpt>
      <trkpt lat="43.90766" lon="6.69157">
        <ele>1092.68</ele>
        <time>2021-06-03T09:56:53Z</time>
      </trkpt>
      <trkpt lat="43.90766" lon="6.69156">
        <ele>1086.43</ele>
        <time>2021-06-03T09:56:54Z</time>
      </trkpt>
      <trkpt lat="43.90765" lon="6.69155">
        <ele>1098.92</ele>
        <time>2021-06-03T09:56:55Z</time>
      </trkpt>
      <trkpt lat="43.90765" lon="6.69154">
        <ele>1086.91</ele>
        <time>2021-06-03T09:56:56Z</time>
      </trkpt>
      <trkpt lat="43.90765" lon="6.69154">
        <ele>1096.04</ele>
        <time>2021-06-03T09:56:57Z</time>
      </trkpt>
      <trkpt lat="43.90765" lon="6.69153">
        <ele>1089.31</ele>
        <time>2021-06-03T09:56:58Z</time>
      </trkpt>
      <trkpt lat="43.90764" lon="6.69153">
        <ele>1092.68</ele>
        <time>2021-06-03T09:56:59Z</time>
      </trkpt>
      <trkpt lat="43.90765" lon="6.69152">
        <ele>1089.31</ele>
        <time>2021-06-03T09:57:01Z</time>
      </trkpt>
      <trkpt lat="43.90765" lon="6.69151">
        <ele>1092.68</ele>
        <time>2021-06-03T09:57:03Z</time>
      </trkpt>
      <trkpt lat="43.90766" lon="6.6915">
        <ele>1096.52</ele>
        <time>2021-06-03T09:57:05Z</time>
      </trkpt>
      <trkpt lat="43.90766" lon="6.69149">
        <ele>1089.79</ele>
        <time>2021-06-03T09:57:06Z</time>
      </trkpt>
      <trkpt lat="43.90766" lon="6.69148">
        <ele>1099.89</ele>
        <time>2021-06-03T09:57:07Z</time>
      </trkpt>
      <trkpt lat="43.90767" lon="6.69148">
        <ele>1089.31</ele>
        <time>2021-06-03T09:57:08Z</time>
      </trkpt>
      <trkpt lat="43.90767" lon="6.69147">
        <ele>1097</ele>
        <time>2021-06-03T09:57:09Z</time>
      </trkpt>
      <trkpt lat="43.90767" lon="6.69146">
        <ele>1086.91</ele>
        <time>2021-06-03T09:57:10Z</time>
      </trkpt>
      <trkpt lat="43.90767" lon="6.69146">
        <ele>1102.77</ele>
        <time>2021-06-03T09:57:11Z</time>
      </trkpt>
      <trkpt lat="43.90767" lon="6.69145">
        <ele>1091.71</ele>
        <time>2021-06-03T09:57:12Z</time>
      </trkpt>
      <trkpt lat="43.90767" lon="6.69144">
        <ele>1097</ele>
        <time>2021-06-03T09:57:13Z</time>
      </trkpt>
      <trkpt lat="43.90767" lon="6.69144">
        <ele>1093.16</ele>
        <time>2021-06-03T09:57:14Z</time>
      </trkpt>
      <trkpt lat="43.90767" lon="6.69141">
        <ele>1089.79</ele>
        <time>2021-06-03T09:57:19Z</time>
      </trkpt>
      <trkpt lat="43.90767" lon="6.69141">
        <ele>1098.44</ele>
        <time>2021-06-03T09:57:20Z</time>
      </trkpt>
      <trkpt lat="43.90768" lon="6.69142">
        <ele>1094.6</ele>
        <time>2021-06-03T09:57:21Z</time>
      </trkpt>
      <trkpt lat="43.90769" lon="6.69141">
        <ele>1088.83</ele>
        <time>2021-06-03T09:57:26Z</time>
      </trkpt>
      <trkpt lat="43.90769" lon="6.69141">
        <ele>1097.48</ele>
        <time>2021-06-03T09:57:27Z</time>
      </trkpt>
      <trkpt lat="43.90769" lon="6.69141">
        <ele>1093.64</ele>
        <time>2021-06-03T09:57:28Z</time>
      </trkpt>
      <trkpt lat="43.9077" lon="6.6914">
        <ele>1092.2</ele>
        <time>2021-06-03T09:57:30Z</time>
      </trkpt>
      <trkpt lat="43.90771" lon="6.69141">
        <ele>1097</ele>
        <time>2021-06-03T09:57:31Z</time>
      </trkpt>
      <trkpt lat="43.90771" lon="6.69141">
        <ele>1094.6</ele>
        <time>2021-06-03T09:57:32Z</time>
      </trkpt>
      <trkpt lat="43.90772" lon="6.69139">
        <ele>1098.44</ele>
        <time>2021-06-03T09:57:37Z</time>
      </trkpt>
      <trkpt lat="43.90773" lon="6.6914">
        <ele>1095.08</ele>
        <time>2021-06-03T09:57:45Z</time>
      </trkpt>
      <trkpt lat="43.90773" lon="6.6914">
        <ele>1085.47</ele>
        <time>2021-06-03T09:57:46Z</time>
      </trkpt>
      <trkpt lat="43.90773" lon="6.6914">
        <ele>1103.25</ele>
        <time>2021-06-03T09:57:47Z</time>
      </trkpt>
      <trkpt lat="43.90773" lon="6.69139">
        <ele>1094.6</ele>
        <time>2021-06-03T09:57:48Z</time>
      </trkpt>
      <trkpt lat="43.90773" lon="6.69139">
        <ele>1104.21</ele>
        <time>2021-06-03T09:57:49Z</time>
      </trkpt>
      <trkpt lat="43.90773" lon="6.69139">
        <ele>1096.04</ele>
        <time>2021-06-03T09:57:50Z</time>
      </trkpt>
      <trkpt lat="43.90774" lon="6.69139">
        <ele>1095.56</ele>
        <time>2021-06-03T09:57:54Z</time>
      </trkpt>
      <trkpt lat="43.90772" lon="6.69138">
        <ele>1097.48</ele>
        <time>2021-06-03T09:58:09Z</time>
      </trkpt>
      <trkpt lat="43.90771" lon="6.69138">
        <ele>1094.12</ele>
        <time>2021-06-03T09:58:25Z</time>
      </trkpt>
      <trkpt lat="43.90771" lon="6.69138">
        <ele>1097</ele>
        <time>2021-06-03T09:58:27Z</time>
      </trkpt>
      <trkpt lat="43.90771" lon="6.69138">
        <ele>1097</ele>
        <time>2021-06-03T09:58:28Z</time>
      </trkpt>
      <trkpt lat="43.90772" lon="6.69139">
        <ele>1093.64</ele>
        <time>2021-06-03T09:58:41Z</time>
      </trkpt>
      <trkpt lat="43.90772" lon="6.69139">
        <ele>1097</ele>
        <time>2021-06-03T09:58:42Z</time>
      </trkpt>
      <trkpt lat="43.90771" lon="6.69141">
        <ele>1096.52</ele>
        <time>2021-06-03T09:59:07Z</time>
      </trkpt>
      <trkpt lat="43.9077" lon="6.6914">
        <ele>1102.29</ele>
        <time>2021-06-03T09:59:40Z</time>
      </trkpt>
      <trkpt lat="43.9077" lon="6.69141">
        <ele>1098.44</ele>
        <time>2021-06-03T09:59:41Z</time>
      </trkpt>
      <trkpt lat="43.9077" lon="6.69139">
        <ele>1081.62</ele>
        <time>2021-06-03T09:59:49Z</time>
      </trkpt>
      <trkpt lat="43.9077" lon="6.69139">
        <ele>1113.34</ele>
        <time>2021-06-03T09:59:50Z</time>
      </trkpt>
      <trkpt lat="43.9077" lon="6.69138">
        <ele>1099.89</ele>
        <time>2021-06-03T09:59:51Z</time>
      </trkpt>
      <trkpt lat="43.90771" lon="6.69137">
        <ele>1096.52</ele>
        <time>2021-06-03T09:59:52Z</time>
      </trkpt>
      <trkpt lat="43.90771" lon="6.69137">
        <ele>1097.48</ele>
        <time>2021-06-03T09:59:53Z</time>
      </trkpt>
      <trkpt lat="43.9077" lon="6.69137">
        <ele>1097</ele>
        <time>2021-06-03T10:00:11Z</time>
      </trkpt>
      <trkpt lat="43.90771" lon="6.69138">
        <ele>1097.48</ele>
        <time>2021-06-03T10:00:31Z</time>
      </trkpt>
      <trkpt lat="43.90774" lon="6.6914">
        <ele>1097.48</ele>
        <time>2021-06-03T10:00:53Z</time>
      </trkpt>
      <trkpt lat="43.90772" lon="6.69139">
        <ele>1097.48</ele>
        <time>2021-06-03T10:01:16Z</time>
      </trkpt>
      <trkpt lat="43.90772" lon="6.69139">
        <ele>1097.48</ele>
        <time>2021-06-03T10:01:40Z</time>
      </trkpt>
      <trkpt lat="43.90771" lon="6.69136">
        <ele>1097.48</ele>
        <time>2021-06-03T10:02:08Z</time>
      </trkpt>
      <trkpt lat="43.90771" lon="6.69137">
        <ele>1097.48</ele>
        <time>2021-06-03T10:02:32Z</time>
      </trkpt>
      <trkpt lat="43.90771" lon="6.69139">
        <ele>1097.48</ele>
        <time>2021-06-03T10:02:54Z</time>
      </trkpt>
      <trkpt lat="43.90772" lon="6.69139">
        <ele>1097.48</ele>
        <time>2021-06-03T10:03:16Z</time>
      </trkpt>
      <trkpt lat="43.90771" lon="6.69136">
        <ele>1096.52</ele>
        <time>2021-06-03T10:03:38Z</time>
      </trkpt>
      <trkpt lat="43.90769" lon="6.69134">
        <ele>1097</ele>
        <time>2021-06-03T10:04:04Z</time>
      </trkpt>
      <trkpt lat="43.90772" lon="6.69136">
        <ele>1098.44</ele>
        <time>2021-06-03T10:04:32Z</time>
      </trkpt>
      <trkpt lat="43.90772" lon="6.69136">
        <ele>1096.52</ele>
        <time>2021-06-03T10:04:33Z</time>
      </trkpt>
      <trkpt lat="43.90772" lon="6.69135">
        <ele>1097</ele>
        <time>2021-06-03T10:05:01Z</time>
      </trkpt>
      <trkpt lat="43.90773" lon="6.69137">
        <ele>1097</ele>
        <time>2021-06-03T10:05:27Z</time>
      </trkpt>
      <trkpt lat="43.90773" lon="6.69136">
        <ele>1097.48</ele>
        <time>2021-06-03T10:05:53Z</time>
      </trkpt>
      <trkpt lat="43.90774" lon="6.69135">
        <ele>1097.96</ele>
        <time>2021-06-03T10:06:25Z</time>
      </trkpt>
      <trkpt lat="43.90773" lon="6.69136">
        <ele>1098.44</ele>
        <time>2021-06-03T10:06:46Z</time>
      </trkpt>
      <trkpt lat="43.90769" lon="6.69134">
        <ele>1098.44</ele>
        <time>2021-06-03T10:07:16Z</time>
      </trkpt>
      <trkpt lat="43.9077" lon="6.69136">
        <ele>1098.44</ele>
        <time>2021-06-03T10:07:45Z</time>
      </trkpt>
      <trkpt lat="43.9077" lon="6.69131">
        <ele>1098.92</ele>
        <time>2021-06-03T10:08:15Z</time>
      </trkpt>
      <trkpt lat="43.90771" lon="6.69132">
        <ele>1097</ele>
        <time>2021-06-03T10:08:20Z</time>
      </trkpt>
      <trkpt lat="43.90769" lon="6.69128">
        <ele>1096.04</ele>
        <time>2021-06-03T10:08:24Z</time>
      </trkpt>
      <trkpt lat="43.90768" lon="6.69124">
        <ele>1099.4</ele>
        <time>2021-06-03T10:08:27Z</time>
      </trkpt>
      <trkpt lat="43.90764" lon="6.69111">
        <ele>1094.12</ele>
        <time>2021-06-03T10:08:38Z</time>
      </trkpt>
      <trkpt lat="43.90764" lon="6.6911">
        <ele>1099.89</ele>
        <time>2021-06-03T10:08:39Z</time>
      </trkpt>
      <trkpt lat="43.90763" lon="6.69103">
        <ele>1099.4</ele>
        <time>2021-06-03T10:08:45Z</time>
      </trkpt>
      <trkpt lat="43.90763" lon="6.691">
        <ele>1098.44</ele>
        <time>2021-06-03T10:08:47Z</time>
      </trkpt>
      <trkpt lat="43.90761" lon="6.69094">
        <ele>1102.77</ele>
        <time>2021-06-03T10:08:52Z</time>
      </trkpt>
      <trkpt lat="43.90761" lon="6.69093">
        <ele>1098.92</ele>
        <time>2021-06-03T10:08:53Z</time>
      </trkpt>
      <trkpt lat="43.9076" lon="6.69091">
        <ele>1091.23</ele>
        <time>2021-06-03T10:08:58Z</time>
      </trkpt>
      <trkpt lat="43.90759" lon="6.69091">
        <ele>1103.73</ele>
        <time>2021-06-03T10:08:59Z</time>
      </trkpt>
      <trkpt lat="43.90759" lon="6.6909">
        <ele>1098.92</ele>
        <time>2021-06-03T10:09:00Z</time>
      </trkpt>
      <trkpt lat="43.90758" lon="6.69088">
        <ele>1102.29</ele>
        <time>2021-06-03T10:09:03Z</time>
      </trkpt>
      <trkpt lat="43.90758" lon="6.69087">
        <ele>1100.85</ele>
        <time>2021-06-03T10:09:05Z</time>
      </trkpt>
      <trkpt lat="43.90754" lon="6.69083">
        <ele>1101.81</ele>
        <time>2021-06-03T10:09:23Z</time>
      </trkpt>
      <trkpt lat="43.90756" lon="6.69079">
        <ele>1106.13</ele>
        <time>2021-06-03T10:09:29Z</time>
      </trkpt>
      <trkpt lat="43.90756" lon="6.69078">
        <ele>1102.29</ele>
        <time>2021-06-03T10:09:30Z</time>
      </trkpt>
      <trkpt lat="43.90758" lon="6.69075">
        <ele>1104.21</ele>
        <time>2021-06-03T10:09:35Z</time>
      </trkpt>
      <trkpt lat="43.90761" lon="6.69069">
        <ele>1103.25</ele>
        <time>2021-06-03T10:09:51Z</time>
      </trkpt>
      <trkpt lat="43.90761" lon="6.69063">
        <ele>1101.33</ele>
        <time>2021-06-03T10:10:07Z</time>
      </trkpt>
      <trkpt lat="43.90762" lon="6.6906">
        <ele>1106.13</ele>
        <time>2021-06-03T10:10:11Z</time>
      </trkpt>
      <trkpt lat="43.90762" lon="6.6906">
        <ele>1106.13</ele>
        <time>2021-06-03T10:10:12Z</time>
      </trkpt>
      <trkpt lat="43.90762" lon="6.6906">
        <ele>1101.81</ele>
        <time>2021-06-03T10:10:14Z</time>
      </trkpt>
      <trkpt lat="43.90762" lon="6.6906">
        <ele>1108.06</ele>
        <time>2021-06-03T10:10:15Z</time>
      </trkpt>
      <trkpt lat="43.90762" lon="6.69055">
        <ele>1102.29</ele>
        <time>2021-06-03T10:10:20Z</time>
      </trkpt>
      <trkpt lat="43.90762" lon="6.69054">
        <ele>1109.5</ele>
        <time>2021-06-03T10:10:21Z</time>
      </trkpt>
      <trkpt lat="43.90762" lon="6.69054">
        <ele>1106.13</ele>
        <time>2021-06-03T10:10:25Z</time>
      </trkpt>
      <trkpt lat="43.90762" lon="6.69053">
        <ele>1109.5</ele>
        <time>2021-06-03T10:10:29Z</time>
      </trkpt>
      <trkpt lat="43.90765" lon="6.69052">
        <ele>1103.25</ele>
        <time>2021-06-03T10:10:35Z</time>
      </trkpt>
      <trkpt lat="43.90765" lon="6.69052">
        <ele>1109.5</ele>
        <time>2021-06-03T10:10:36Z</time>
      </trkpt>
      <trkpt lat="43.90768" lon="6.69054">
        <ele>1105.65</ele>
        <time>2021-06-03T10:10:53Z</time>
      </trkpt>
      <trkpt lat="43.90768" lon="6.69054">
        <ele>1109.98</ele>
        <time>2021-06-03T10:10:54Z</time>
      </trkpt>
      <trkpt lat="43.90769" lon="6.69054">
        <ele>1107.1</ele>
        <time>2021-06-03T10:10:55Z</time>
      </trkpt>
      <trkpt lat="43.9077" lon="6.69054">
        <ele>1110.46</ele>
        <time>2021-06-03T10:10:56Z</time>
      </trkpt>
      <trkpt lat="43.9077" lon="6.69054">
        <ele>1115.27</ele>
        <time>2021-06-03T10:10:58Z</time>
      </trkpt>
      <trkpt lat="43.90771" lon="6.69054">
        <ele>1110.46</ele>
        <time>2021-06-03T10:10:59Z</time>
      </trkpt>
      <trkpt lat="43.90774" lon="6.69055">
        <ele>1114.79</ele>
        <time>2021-06-03T10:11:06Z</time>
      </trkpt>
      <trkpt lat="43.90775" lon="6.69055">
        <ele>1109.02</ele>
        <time>2021-06-03T10:11:07Z</time>
      </trkpt>
      <trkpt lat="43.90775" lon="6.69055">
        <ele>1113.82</ele>
        <time>2021-06-03T10:11:08Z</time>
      </trkpt>
      <trkpt lat="43.90777" lon="6.69056">
        <ele>1113.82</ele>
        <time>2021-06-03T10:11:19Z</time>
      </trkpt>
      <trkpt lat="43.90779" lon="6.69054">
        <ele>1117.67</ele>
        <time>2021-06-03T10:11:34Z</time>
      </trkpt>
      <trkpt lat="43.90779" lon="6.69053">
        <ele>1113.34</ele>
        <time>2021-06-03T10:11:35Z</time>
      </trkpt>
      <trkpt lat="43.90779" lon="6.69052">
        <ele>1117.19</ele>
        <time>2021-06-03T10:11:36Z</time>
      </trkpt>
      <trkpt lat="43.90779" lon="6.69051">
        <ele>1111.9</ele>
        <time>2021-06-03T10:11:37Z</time>
      </trkpt>
      <trkpt lat="43.90779" lon="6.69051">
        <ele>1116.71</ele>
        <time>2021-06-03T10:11:38Z</time>
      </trkpt>
      <trkpt lat="43.90779" lon="6.6905">
        <ele>1113.34</ele>
        <time>2021-06-03T10:11:39Z</time>
      </trkpt>
      <trkpt lat="43.90779" lon="6.69049">
        <ele>1116.71</ele>
        <time>2021-06-03T10:11:40Z</time>
      </trkpt>
      <trkpt lat="43.90777" lon="6.69045">
        <ele>1112.86</ele>
        <time>2021-06-03T10:11:47Z</time>
      </trkpt>
      <trkpt lat="43.90777" lon="6.69044">
        <ele>1117.67</ele>
        <time>2021-06-03T10:11:48Z</time>
      </trkpt>
      <trkpt lat="43.90777" lon="6.69037">
        <ele>1118.15</ele>
        <time>2021-06-03T10:12:02Z</time>
      </trkpt>
      <trkpt lat="43.90776" lon="6.69035">
        <ele>1121.03</ele>
        <time>2021-06-03T10:12:05Z</time>
      </trkpt>
      <trkpt lat="43.90775" lon="6.69034">
        <ele>1117.67</ele>
        <time>2021-06-03T10:12:06Z</time>
      </trkpt>
      <trkpt lat="43.90775" lon="6.69033">
        <ele>1121.03</ele>
        <time>2021-06-03T10:12:07Z</time>
      </trkpt>
      <trkpt lat="43.90776" lon="6.69032">
        <ele>1116.23</ele>
        <time>2021-06-03T10:12:08Z</time>
      </trkpt>
      <trkpt lat="43.90776" lon="6.69032">
        <ele>1120.07</ele>
        <time>2021-06-03T10:12:09Z</time>
      </trkpt>
      <trkpt lat="43.90776" lon="6.69031">
        <ele>1116.71</ele>
        <time>2021-06-03T10:12:10Z</time>
      </trkpt>
      <trkpt lat="43.90776" lon="6.6903">
        <ele>1121.52</ele>
        <time>2021-06-03T10:12:11Z</time>
      </trkpt>
      <trkpt lat="43.90776" lon="6.6903">
        <ele>1117.19</ele>
        <time>2021-06-03T10:12:12Z</time>
      </trkpt>
      <trkpt lat="43.90775" lon="6.69028">
        <ele>1122.48</ele>
        <time>2021-06-03T10:12:15Z</time>
      </trkpt>
      <trkpt lat="43.90775" lon="6.69027">
        <ele>1114.79</ele>
        <time>2021-06-03T10:12:16Z</time>
      </trkpt>
      <trkpt lat="43.90775" lon="6.69026">
        <ele>1122</ele>
        <time>2021-06-03T10:12:17Z</time>
      </trkpt>
      <trkpt lat="43.90773" lon="6.69021">
        <ele>1117.67</ele>
        <time>2021-06-03T10:12:24Z</time>
      </trkpt>
      <trkpt lat="43.90773" lon="6.6902">
        <ele>1122</ele>
        <time>2021-06-03T10:12:25Z</time>
      </trkpt>
      <trkpt lat="43.90774" lon="6.69016">
        <ele>1117.19</ele>
        <time>2021-06-03T10:12:28Z</time>
      </trkpt>
      <trkpt lat="43.90774" lon="6.69016">
        <ele>1122.96</ele>
        <time>2021-06-03T10:12:29Z</time>
      </trkpt>
      <trkpt lat="43.90774" lon="6.69015">
        <ele>1119.59</ele>
        <time>2021-06-03T10:12:30Z</time>
      </trkpt>
      <trkpt lat="43.90773" lon="6.69012">
        <ele>1125.84</ele>
        <time>2021-06-03T10:12:33Z</time>
      </trkpt>
      <trkpt lat="43.90773" lon="6.69012">
        <ele>1121.03</ele>
        <time>2021-06-03T10:12:34Z</time>
      </trkpt>
      <trkpt lat="43.90773" lon="6.69011">
        <ele>1124.88</ele>
        <time>2021-06-03T10:12:35Z</time>
      </trkpt>
      <trkpt lat="43.90773" lon="6.6901">
        <ele>1121.52</ele>
        <time>2021-06-03T10:12:36Z</time>
      </trkpt>
      <trkpt lat="43.90773" lon="6.69008">
        <ele>1117.67</ele>
        <time>2021-06-03T10:12:38Z</time>
      </trkpt>
      <trkpt lat="43.90773" lon="6.69008">
        <ele>1125.84</ele>
        <time>2021-06-03T10:12:39Z</time>
      </trkpt>
      <trkpt lat="43.90772" lon="6.69008">
        <ele>1122</ele>
        <time>2021-06-03T10:12:42Z</time>
      </trkpt>
      <trkpt lat="43.90771" lon="6.69008">
        <ele>1125.84</ele>
        <time>2021-06-03T10:12:43Z</time>
      </trkpt>
      <trkpt lat="43.90771" lon="6.69006">
        <ele>1122</ele>
        <time>2021-06-03T10:12:45Z</time>
      </trkpt>
      <trkpt lat="43.9077" lon="6.69005">
        <ele>1124.4</ele>
        <time>2021-06-03T10:12:46Z</time>
      </trkpt>
      <trkpt lat="43.90769" lon="6.69001">
        <ele>1131.13</ele>
        <time>2021-06-03T10:12:55Z</time>
      </trkpt>
      <trkpt lat="43.90769" lon="6.69001">
        <ele>1124.4</ele>
        <time>2021-06-03T10:12:56Z</time>
      </trkpt>
      <trkpt lat="43.90768" lon="6.69">
        <ele>1127.76</ele>
        <time>2021-06-03T10:12:57Z</time>
      </trkpt>
      <trkpt lat="43.90768" lon="6.68999">
        <ele>1122.96</ele>
        <time>2021-06-03T10:12:58Z</time>
      </trkpt>
      <trkpt lat="43.90767" lon="6.68998">
        <ele>1126.8</ele>
        <time>2021-06-03T10:12:59Z</time>
      </trkpt>
      <trkpt lat="43.90767" lon="6.68996">
        <ele>1123.44</ele>
        <time>2021-06-03T10:13:01Z</time>
      </trkpt>
      <trkpt lat="43.90767" lon="6.68996">
        <ele>1127.76</ele>
        <time>2021-06-03T10:13:02Z</time>
      </trkpt>
      <trkpt lat="43.90766" lon="6.68995">
        <ele>1123.92</ele>
        <time>2021-06-03T10:13:03Z</time>
      </trkpt>
      <trkpt lat="43.90766" lon="6.68995">
        <ele>1122.48</ele>
        <time>2021-06-03T10:13:08Z</time>
      </trkpt>
      <trkpt lat="43.90764" lon="6.68983">
        <ele>1128.73</ele>
        <time>2021-06-03T10:13:21Z</time>
      </trkpt>
      <trkpt lat="43.90761" lon="6.68976">
        <ele>1133.53</ele>
        <time>2021-06-03T10:13:31Z</time>
      </trkpt>
      <trkpt lat="43.90761" lon="6.68975">
        <ele>1129.21</ele>
        <time>2021-06-03T10:13:32Z</time>
      </trkpt>
      <trkpt lat="43.90761" lon="6.68975">
        <ele>1133.05</ele>
        <time>2021-06-03T10:13:33Z</time>
      </trkpt>
      <trkpt lat="43.9076" lon="6.68973">
        <ele>1129.69</ele>
        <time>2021-06-03T10:13:35Z</time>
      </trkpt>
      <trkpt lat="43.9076" lon="6.68969">
        <ele>1131.61</ele>
        <time>2021-06-03T10:13:38Z</time>
      </trkpt>
      <trkpt lat="43.90759" lon="6.68967">
        <ele>1131.61</ele>
        <time>2021-06-03T10:13:40Z</time>
      </trkpt>
      <trkpt lat="43.90756" lon="6.68964">
        <ele>1128.24</ele>
        <time>2021-06-03T10:13:45Z</time>
      </trkpt>
      <trkpt lat="43.90756" lon="6.68963">
        <ele>1133.05</ele>
        <time>2021-06-03T10:13:46Z</time>
      </trkpt>
      <trkpt lat="43.90755" lon="6.68959">
        <ele>1129.21</ele>
        <time>2021-06-03T10:13:51Z</time>
      </trkpt>
      <trkpt lat="43.90755" lon="6.68958">
        <ele>1129.69</ele>
        <time>2021-06-03T10:13:52Z</time>
      </trkpt>
      <trkpt lat="43.90754" lon="6.68956">
        <ele>1132.09</ele>
        <time>2021-06-03T10:13:54Z</time>
      </trkpt>
      <trkpt lat="43.90754" lon="6.68954">
        <ele>1135.94</ele>
        <time>2021-06-03T10:13:58Z</time>
      </trkpt>
      <trkpt lat="43.90753" lon="6.68953">
        <ele>1131.61</ele>
        <time>2021-06-03T10:13:59Z</time>
      </trkpt>
      <trkpt lat="43.90753" lon="6.68951">
        <ele>1134.97</ele>
        <time>2021-06-03T10:14:00Z</time>
      </trkpt>
      <trkpt lat="43.90753" lon="6.6895">
        <ele>1129.21</ele>
        <time>2021-06-03T10:14:01Z</time>
      </trkpt>
      <trkpt lat="43.90753" lon="6.68949">
        <ele>1134.49</ele>
        <time>2021-06-03T10:14:02Z</time>
      </trkpt>
      <trkpt lat="43.90753" lon="6.68948">
        <ele>1129.21</ele>
        <time>2021-06-03T10:14:03Z</time>
      </trkpt>
      <trkpt lat="43.90753" lon="6.68947">
        <ele>1133.05</ele>
        <time>2021-06-03T10:14:04Z</time>
      </trkpt>
      <trkpt lat="43.90752" lon="6.68942">
        <ele>1130.17</ele>
        <time>2021-06-03T10:14:10Z</time>
      </trkpt>
      <trkpt lat="43.90752" lon="6.68941">
        <ele>1134.97</ele>
        <time>2021-06-03T10:14:11Z</time>
      </trkpt>
      <trkpt lat="43.90752" lon="6.6894">
        <ele>1130.65</ele>
        <time>2021-06-03T10:14:12Z</time>
      </trkpt>
      <trkpt lat="43.90752" lon="6.68939">
        <ele>1134.49</ele>
        <time>2021-06-03T10:14:13Z</time>
      </trkpt>
      <trkpt lat="43.90751" lon="6.68936">
        <ele>1132.09</ele>
        <time>2021-06-03T10:14:17Z</time>
      </trkpt>
      <trkpt lat="43.90751" lon="6.68935">
        <ele>1136.9</ele>
        <time>2021-06-03T10:14:18Z</time>
      </trkpt>
      <trkpt lat="43.9075" lon="6.68934">
        <ele>1132.57</ele>
        <time>2021-06-03T10:14:19Z</time>
      </trkpt>
      <trkpt lat="43.9075" lon="6.68933">
        <ele>1135.94</ele>
        <time>2021-06-03T10:14:20Z</time>
      </trkpt>
      <trkpt lat="43.9075" lon="6.6893">
        <ele>1134.97</ele>
        <time>2021-06-03T10:14:23Z</time>
      </trkpt>
      <trkpt lat="43.9075" lon="6.68925">
        <ele>1133.53</ele>
        <time>2021-06-03T10:14:28Z</time>
      </trkpt>
      <trkpt lat="43.90749" lon="6.68924">
        <ele>1139.78</ele>
        <time>2021-06-03T10:14:29Z</time>
      </trkpt>
      <trkpt lat="43.90749" lon="6.68923">
        <ele>1133.53</ele>
        <time>2021-06-03T10:14:30Z</time>
      </trkpt>
      <trkpt lat="43.90748" lon="6.68921">
        <ele>1132.09</ele>
        <time>2021-06-03T10:14:32Z</time>
      </trkpt>
      <trkpt lat="43.90748" lon="6.68921">
        <ele>1136.9</ele>
        <time>2021-06-03T10:14:33Z</time>
      </trkpt>
      <trkpt lat="43.90748" lon="6.6892">
        <ele>1139.78</ele>
        <time>2021-06-03T10:14:34Z</time>
      </trkpt>
      <trkpt lat="43.90748" lon="6.6892">
        <ele>1136.42</ele>
        <time>2021-06-03T10:14:35Z</time>
      </trkpt>
      <trkpt lat="43.90744" lon="6.6891">
        <ele>1137.38</ele>
        <time>2021-06-03T10:14:46Z</time>
      </trkpt>
      <trkpt lat="43.90744" lon="6.68909">
        <ele>1140.74</ele>
        <time>2021-06-03T10:14:47Z</time>
      </trkpt>
      <trkpt lat="43.90743" lon="6.68908">
        <ele>1136.42</ele>
        <time>2021-06-03T10:14:48Z</time>
      </trkpt>
      <trkpt lat="43.90742" lon="6.689">
        <ele>1140.74</ele>
        <time>2021-06-03T10:14:56Z</time>
      </trkpt>
      <trkpt lat="43.90742" lon="6.68897">
        <ele>1137.38</ele>
        <time>2021-06-03T10:14:59Z</time>
      </trkpt>
      <trkpt lat="43.90742" lon="6.68896">
        <ele>1141.7</ele>
        <time>2021-06-03T10:15:00Z</time>
      </trkpt>
      <trkpt lat="43.90742" lon="6.68895">
        <ele>1133.53</ele>
        <time>2021-06-03T10:15:01Z</time>
      </trkpt>
      <trkpt lat="43.90742" lon="6.68894">
        <ele>1141.22</ele>
        <time>2021-06-03T10:15:02Z</time>
      </trkpt>
      <trkpt lat="43.90742" lon="6.68893">
        <ele>1134.97</ele>
        <time>2021-06-03T10:15:03Z</time>
      </trkpt>
      <trkpt lat="43.90742" lon="6.68892">
        <ele>1139.3</ele>
        <time>2021-06-03T10:15:04Z</time>
      </trkpt>
      <trkpt lat="43.90742" lon="6.68891">
        <ele>1142.66</ele>
        <time>2021-06-03T10:15:06Z</time>
      </trkpt>
      <trkpt lat="43.90742" lon="6.68891">
        <ele>1139.3</ele>
        <time>2021-06-03T10:15:07Z</time>
      </trkpt>
      <trkpt lat="43.90742" lon="6.6889">
        <ele>1142.66</ele>
        <time>2021-06-03T10:15:08Z</time>
      </trkpt>
      <trkpt lat="43.90743" lon="6.6889">
        <ele>1136.9</ele>
        <time>2021-06-03T10:15:12Z</time>
      </trkpt>
      <trkpt lat="43.90742" lon="6.68889">
        <ele>1143.63</ele>
        <time>2021-06-03T10:15:13Z</time>
      </trkpt>
      <trkpt lat="43.90742" lon="6.68888">
        <ele>1137.38</ele>
        <time>2021-06-03T10:15:14Z</time>
      </trkpt>
      <trkpt lat="43.90741" lon="6.68884">
        <ele>1143.63</ele>
        <time>2021-06-03T10:15:18Z</time>
      </trkpt>
      <trkpt lat="43.90741" lon="6.68883">
        <ele>1138.82</ele>
        <time>2021-06-03T10:15:19Z</time>
      </trkpt>
      <trkpt lat="43.90741" lon="6.6888">
        <ele>1142.18</ele>
        <time>2021-06-03T10:15:23Z</time>
      </trkpt>
      <trkpt lat="43.90741" lon="6.68877">
        <ele>1145.07</ele>
        <time>2021-06-03T10:15:27Z</time>
      </trkpt>
      <trkpt lat="43.90741" lon="6.68876">
        <ele>1140.26</ele>
        <time>2021-06-03T10:15:28Z</time>
      </trkpt>
      <trkpt lat="43.90741" lon="6.68875">
        <ele>1143.14</ele>
        <time>2021-06-03T10:15:29Z</time>
      </trkpt>
      <trkpt lat="43.90741" lon="6.68874">
        <ele>1139.3</ele>
        <time>2021-06-03T10:15:30Z</time>
      </trkpt>
      <trkpt lat="43.90741" lon="6.68872">
        <ele>1138.34</ele>
        <time>2021-06-03T10:15:32Z</time>
      </trkpt>
      <trkpt lat="43.90741" lon="6.68871">
        <ele>1144.11</ele>
        <time>2021-06-03T10:15:33Z</time>
      </trkpt>
      <trkpt lat="43.90741" lon="6.68871">
        <ele>1141.7</ele>
        <time>2021-06-03T10:15:34Z</time>
      </trkpt>
      <trkpt lat="43.9074" lon="6.68869">
        <ele>1146.03</ele>
        <time>2021-06-03T10:15:36Z</time>
      </trkpt>
      <trkpt lat="43.9074" lon="6.6886">
        <ele>1145.07</ele>
        <time>2021-06-03T10:15:50Z</time>
      </trkpt>
      <trkpt lat="43.9074" lon="6.68859">
        <ele>1140.26</ele>
        <time>2021-06-03T10:15:51Z</time>
      </trkpt>
      <trkpt lat="43.9074" lon="6.68858">
        <ele>1145.07</ele>
        <time>2021-06-03T10:15:52Z</time>
      </trkpt>
      <trkpt lat="43.9074" lon="6.68848">
        <ele>1144.59</ele>
        <time>2021-06-03T10:16:03Z</time>
      </trkpt>
      <trkpt lat="43.9074" lon="6.68845">
        <ele>1150.35</ele>
        <time>2021-06-03T10:16:07Z</time>
      </trkpt>
      <trkpt lat="43.9074" lon="6.68844">
        <ele>1147.47</ele>
        <time>2021-06-03T10:16:08Z</time>
      </trkpt>
      <trkpt lat="43.90737" lon="6.68835">
        <ele>1150.35</ele>
        <time>2021-06-03T10:16:18Z</time>
      </trkpt>
      <trkpt lat="43.90737" lon="6.68834">
        <ele>1144.59</ele>
        <time>2021-06-03T10:16:19Z</time>
      </trkpt>
      <trkpt lat="43.90737" lon="6.68833">
        <ele>1150.35</ele>
        <time>2021-06-03T10:16:20Z</time>
      </trkpt>
      <trkpt lat="43.90736" lon="6.68833">
        <ele>1146.99</ele>
        <time>2021-06-03T10:16:24Z</time>
      </trkpt>
      <trkpt lat="43.90736" lon="6.68832">
        <ele>1151.8</ele>
        <time>2021-06-03T10:16:25Z</time>
      </trkpt>
      <trkpt lat="43.90736" lon="6.68832">
        <ele>1146.99</ele>
        <time>2021-06-03T10:16:26Z</time>
      </trkpt>
      <trkpt lat="43.90734" lon="6.68827">
        <ele>1151.8</ele>
        <time>2021-06-03T10:16:31Z</time>
      </trkpt>
      <trkpt lat="43.90733" lon="6.68827">
        <ele>1151.8</ele>
        <time>2021-06-03T10:16:32Z</time>
      </trkpt>
      <trkpt lat="43.90732" lon="6.68825">
        <ele>1150.84</ele>
        <time>2021-06-03T10:16:34Z</time>
      </trkpt>
      <trkpt lat="43.90728" lon="6.6882">
        <ele>1146.99</ele>
        <time>2021-06-03T10:16:40Z</time>
      </trkpt>
      <trkpt lat="43.90728" lon="6.6882">
        <ele>1150.84</ele>
        <time>2021-06-03T10:16:41Z</time>
      </trkpt>
      <trkpt lat="43.90727" lon="6.68819">
        <ele>1151.8</ele>
        <time>2021-06-03T10:16:43Z</time>
      </trkpt>
      <trkpt lat="43.90725" lon="6.68814">
        <ele>1154.68</ele>
        <time>2021-06-03T10:16:48Z</time>
      </trkpt>
      <trkpt lat="43.90724" lon="6.68813">
        <ele>1149.39</ele>
        <time>2021-06-03T10:16:49Z</time>
      </trkpt>
      <trkpt lat="43.90724" lon="6.68812">
        <ele>1153.72</ele>
        <time>2021-06-03T10:16:50Z</time>
      </trkpt>
      <trkpt lat="43.90724" lon="6.68811">
        <ele>1148.91</ele>
        <time>2021-06-03T10:16:51Z</time>
      </trkpt>
      <trkpt lat="43.90723" lon="6.68809">
        <ele>1152.76</ele>
        <time>2021-06-03T10:16:54Z</time>
      </trkpt>
      <trkpt lat="43.90723" lon="6.68808">
        <ele>1155.64</ele>
        <time>2021-06-03T10:16:55Z</time>
      </trkpt>
      <trkpt lat="43.90722" lon="6.68807">
        <ele>1151.8</ele>
        <time>2021-06-03T10:16:56Z</time>
      </trkpt>
      <trkpt lat="43.90722" lon="6.68806">
        <ele>1156.12</ele>
        <time>2021-06-03T10:16:57Z</time>
      </trkpt>
      <trkpt lat="43.90722" lon="6.68805">
        <ele>1147.95</ele>
        <time>2021-06-03T10:16:58Z</time>
      </trkpt>
      <trkpt lat="43.90722" lon="6.68804">
        <ele>1154.68</ele>
        <time>2021-06-03T10:16:59Z</time>
      </trkpt>
      <trkpt lat="43.90722" lon="6.68803">
        <ele>1149.39</ele>
        <time>2021-06-03T10:17:00Z</time>
      </trkpt>
      <trkpt lat="43.90721" lon="6.68802">
        <ele>1154.68</ele>
        <time>2021-06-03T10:17:01Z</time>
      </trkpt>
      <trkpt lat="43.90721" lon="6.68802">
        <ele>1148.43</ele>
        <time>2021-06-03T10:17:02Z</time>
      </trkpt>
      <trkpt lat="43.90721" lon="6.68801">
        <ele>1154.68</ele>
        <time>2021-06-03T10:17:03Z</time>
      </trkpt>
      <trkpt lat="43.90721" lon="6.68799">
        <ele>1149.39</ele>
        <time>2021-06-03T10:17:06Z</time>
      </trkpt>
      <trkpt lat="43.90721" lon="6.68798">
        <ele>1156.12</ele>
        <time>2021-06-03T10:17:07Z</time>
      </trkpt>
      <trkpt lat="43.90721" lon="6.68797">
        <ele>1152.28</ele>
        <time>2021-06-03T10:17:10Z</time>
      </trkpt>
      <trkpt lat="43.90721" lon="6.68797">
        <ele>1156.12</ele>
        <time>2021-06-03T10:17:11Z</time>
      </trkpt>
      <trkpt lat="43.90721" lon="6.68798">
        <ele>1147.47</ele>
        <time>2021-06-03T10:17:20Z</time>
      </trkpt>
      <trkpt lat="43.90721" lon="6.68797">
        <ele>1159.97</ele>
        <time>2021-06-03T10:17:21Z</time>
      </trkpt>
      <trkpt lat="43.90721" lon="6.68797">
        <ele>1157.56</ele>
        <time>2021-06-03T10:17:22Z</time>
      </trkpt>
      <trkpt lat="43.90721" lon="6.68797">
        <ele>1154.68</ele>
        <time>2021-06-03T10:17:23Z</time>
      </trkpt>
      <trkpt lat="43.90721" lon="6.68797">
        <ele>1150.84</ele>
        <time>2021-06-03T10:17:33Z</time>
      </trkpt>
      <trkpt lat="43.90721" lon="6.68797">
        <ele>1157.08</ele>
        <time>2021-06-03T10:17:35Z</time>
      </trkpt>
      <trkpt lat="43.90721" lon="6.68797">
        <ele>1153.24</ele>
        <time>2021-06-03T10:17:36Z</time>
      </trkpt>
      <trkpt lat="43.90722" lon="6.688">
        <ele>1153.72</ele>
        <time>2021-06-03T10:18:03Z</time>
      </trkpt>
      <trkpt lat="43.90721" lon="6.68799">
        <ele>1153.72</ele>
        <time>2021-06-03T10:18:33Z</time>
      </trkpt>
      <trkpt lat="43.90722" lon="6.68802">
        <ele>1154.2</ele>
        <time>2021-06-03T10:19:07Z</time>
      </trkpt>
      <trkpt lat="43.90722" lon="6.68803">
        <ele>1150.35</ele>
        <time>2021-06-03T10:19:22Z</time>
      </trkpt>
      <trkpt lat="43.90722" lon="6.68802">
        <ele>1155.16</ele>
        <time>2021-06-03T10:19:23Z</time>
      </trkpt>
      <trkpt lat="43.90726" lon="6.68797">
        <ele>1151.8</ele>
        <time>2021-06-03T10:19:51Z</time>
      </trkpt>
      <trkpt lat="43.90725" lon="6.68797">
        <ele>1156.12</ele>
        <time>2021-06-03T10:19:52Z</time>
      </trkpt>
      <trkpt lat="43.90725" lon="6.68797">
        <ele>1153.24</ele>
        <time>2021-06-03T10:19:53Z</time>
      </trkpt>
      <trkpt lat="43.90725" lon="6.68797">
        <ele>1156.6</ele>
        <time>2021-06-03T10:19:56Z</time>
      </trkpt>
      <trkpt lat="43.90725" lon="6.68799">
        <ele>1153.24</ele>
        <time>2021-06-03T10:20:04Z</time>
      </trkpt>
      <trkpt lat="43.90725" lon="6.688">
        <ele>1157.08</ele>
        <time>2021-06-03T10:20:08Z</time>
      </trkpt>
      <trkpt lat="43.90725" lon="6.688">
        <ele>1150.35</ele>
        <time>2021-06-03T10:20:09Z</time>
      </trkpt>
      <trkpt lat="43.90725" lon="6.688">
        <ele>1153.72</ele>
        <time>2021-06-03T10:20:10Z</time>
      </trkpt>
      <trkpt lat="43.90725" lon="6.68801">
        <ele>1157.08</ele>
        <time>2021-06-03T10:20:13Z</time>
      </trkpt>
      <trkpt lat="43.90725" lon="6.688">
        <ele>1153.24</ele>
        <time>2021-06-03T10:20:14Z</time>
      </trkpt>
      <trkpt lat="43.90721" lon="6.68801">
        <ele>1154.2</ele>
        <time>2021-06-03T10:20:54Z</time>
      </trkpt>
      <trkpt lat="43.90722" lon="6.68802">
        <ele>1150.84</ele>
        <time>2021-06-03T10:20:58Z</time>
      </trkpt>
      <trkpt lat="43.90722" lon="6.68802">
        <ele>1156.6</ele>
        <time>2021-06-03T10:20:59Z</time>
      </trkpt>
      <trkpt lat="43.90722" lon="6.68802">
        <ele>1153.72</ele>
        <time>2021-06-03T10:21:02Z</time>
      </trkpt>
      <trkpt lat="43.90722" lon="6.68802">
        <ele>1157.08</ele>
        <time>2021-06-03T10:21:16Z</time>
      </trkpt>
      <trkpt lat="43.90722" lon="6.68802">
        <ele>1154.68</ele>
        <time>2021-06-03T10:21:17Z</time>
      </trkpt>
      <trkpt lat="43.90722" lon="6.68802">
        <ele>1154.2</ele>
        <time>2021-06-03T10:21:19Z</time>
      </trkpt>
      <trkpt lat="43.90722" lon="6.68802">
        <ele>1155.16</ele>
        <time>2021-06-03T10:21:21Z</time>
      </trkpt>
      <trkpt lat="43.90723" lon="6.68802">
        <ele>1151.32</ele>
        <time>2021-06-03T10:21:26Z</time>
      </trkpt>
      <trkpt lat="43.90722" lon="6.68802">
        <ele>1154.68</ele>
        <time>2021-06-03T10:21:30Z</time>
      </trkpt>
      <trkpt lat="43.90721" lon="6.68803">
        <ele>1150.84</ele>
        <time>2021-06-03T10:21:43Z</time>
      </trkpt>
      <trkpt lat="43.90721" lon="6.68802">
        <ele>1154.2</ele>
        <time>2021-06-03T10:21:44Z</time>
      </trkpt>
      <trkpt lat="43.90722" lon="6.68801">
        <ele>1152.76</ele>
        <time>2021-06-03T10:22:17Z</time>
      </trkpt>
      <trkpt lat="43.90722" lon="6.68802">
        <ele>1157.56</ele>
        <time>2021-06-03T10:22:32Z</time>
      </trkpt>
      <trkpt lat="43.90722" lon="6.68802">
        <ele>1151.8</ele>
        <time>2021-06-03T10:22:34Z</time>
      </trkpt>
      <trkpt lat="43.90722" lon="6.68801">
        <ele>1158.05</ele>
        <time>2021-06-03T10:22:47Z</time>
      </trkpt>
      <trkpt lat="43.90722" lon="6.68801">
        <ele>1154.68</ele>
        <time>2021-06-03T10:22:48Z</time>
      </trkpt>
      <trkpt lat="43.90724" lon="6.68801">
        <ele>1154.68</ele>
        <time>2021-06-03T10:23:19Z</time>
      </trkpt>
      <trkpt lat="43.90724" lon="6.688">
        <ele>1159.97</ele>
        <time>2021-06-03T10:23:40Z</time>
      </trkpt>
      <trkpt lat="43.90724" lon="6.688">
        <ele>1155.16</ele>
        <time>2021-06-03T10:23:41Z</time>
      </trkpt>
      <trkpt lat="43.90724" lon="6.688">
        <ele>1160.45</ele>
        <time>2021-06-03T10:24:05Z</time>
      </trkpt>
      <trkpt lat="43.90724" lon="6.68799">
        <ele>1155.16</ele>
        <time>2021-06-03T10:24:06Z</time>
      </trkpt>
      <trkpt lat="43.90723" lon="6.68797">
        <ele>1154.68</ele>
        <time>2021-06-03T10:24:36Z</time>
      </trkpt>
      <trkpt lat="43.90723" lon="6.68799">
        <ele>1155.16</ele>
        <time>2021-06-03T10:25:01Z</time>
      </trkpt>
      <trkpt lat="43.90722" lon="6.68802">
        <ele>1154.68</ele>
        <time>2021-06-03T10:25:37Z</time>
      </trkpt>
      <trkpt lat="43.90721" lon="6.68804">
        <ele>1155.16</ele>
        <time>2021-06-03T10:26:04Z</time>
      </trkpt>
      <trkpt lat="43.90723" lon="6.68801">
        <ele>1154.68</ele>
        <time>2021-06-03T10:26:36Z</time>
      </trkpt>
      <trkpt lat="43.90724" lon="6.68799">
        <ele>1157.56</ele>
        <time>2021-06-03T10:26:40Z</time>
      </trkpt>
      <trkpt lat="43.90723" lon="6.688">
        <ele>1154.2</ele>
        <time>2021-06-03T10:26:45Z</time>
      </trkpt>
      <trkpt lat="43.90722" lon="6.688">
        <ele>1150.35</ele>
        <time>2021-06-03T10:26:47Z</time>
      </trkpt>
      <trkpt lat="43.90722" lon="6.68801">
        <ele>1160.93</ele>
        <time>2021-06-03T10:26:48Z</time>
      </trkpt>
      <trkpt lat="43.90722" lon="6.68801">
        <ele>1155.64</ele>
        <time>2021-06-03T10:26:49Z</time>
      </trkpt>
      <trkpt lat="43.9072" lon="6.688">
        <ele>1154.68</ele>
        <time>2021-06-03T10:26:51Z</time>
      </trkpt>
      <trkpt lat="43.90719" lon="6.68799">
        <ele>1154.2</ele>
        <time>2021-06-03T10:26:53Z</time>
      </trkpt>
      <trkpt lat="43.90714" lon="6.68792">
        <ele>1156.12</ele>
        <time>2021-06-03T10:27:01Z</time>
      </trkpt>
      <trkpt lat="43.90706" lon="6.68784">
        <ele>1159.97</ele>
        <time>2021-06-03T10:27:12Z</time>
      </trkpt>
      <trkpt lat="43.90703" lon="6.6878">
        <ele>1158.53</ele>
        <time>2021-06-03T10:27:16Z</time>
      </trkpt>
      <trkpt lat="43.90697" lon="6.68774">
        <ele>1161.41</ele>
        <time>2021-06-03T10:27:24Z</time>
      </trkpt>
      <trkpt lat="43.90696" lon="6.68774">
        <ele>1159.49</ele>
        <time>2021-06-03T10:27:25Z</time>
      </trkpt>
      <trkpt lat="43.90693" lon="6.68772">
        <ele>1158.53</ele>
        <time>2021-06-03T10:27:28Z</time>
      </trkpt>
      <trkpt lat="43.90691" lon="6.6877">
        <ele>1159.49</ele>
        <time>2021-06-03T10:27:31Z</time>
      </trkpt>
      <trkpt lat="43.90687" lon="6.68766">
        <ele>1162.37</ele>
        <time>2021-06-03T10:27:35Z</time>
      </trkpt>
      <trkpt lat="43.90686" lon="6.68765">
        <ele>1157.56</ele>
        <time>2021-06-03T10:27:36Z</time>
      </trkpt>
      <trkpt lat="43.90685" lon="6.68763">
        <ele>1160.93</ele>
        <time>2021-06-03T10:27:38Z</time>
      </trkpt>
      <trkpt lat="43.90685" lon="6.68762">
        <ele>1157.08</ele>
        <time>2021-06-03T10:27:39Z</time>
      </trkpt>
      <trkpt lat="43.90684" lon="6.68761">
        <ele>1160.45</ele>
        <time>2021-06-03T10:27:40Z</time>
      </trkpt>
      <trkpt lat="43.90683" lon="6.68759">
        <ele>1157.08</ele>
        <time>2021-06-03T10:27:42Z</time>
      </trkpt>
      <trkpt lat="43.90682" lon="6.68758">
        <ele>1160.45</ele>
        <time>2021-06-03T10:27:43Z</time>
      </trkpt>
      <trkpt lat="43.90679" lon="6.68752">
        <ele>1156.12</ele>
        <time>2021-06-03T10:27:50Z</time>
      </trkpt>
      <trkpt lat="43.90679" lon="6.6875">
        <ele>1159.49</ele>
        <time>2021-06-03T10:27:51Z</time>
      </trkpt>
      <trkpt lat="43.90678" lon="6.6875">
        <ele>1162.37</ele>
        <time>2021-06-03T10:27:52Z</time>
      </trkpt>
      <trkpt lat="43.90677" lon="6.68749">
        <ele>1156.6</ele>
        <time>2021-06-03T10:27:53Z</time>
      </trkpt>
      <trkpt lat="43.90677" lon="6.68748">
        <ele>1161.41</ele>
        <time>2021-06-03T10:27:54Z</time>
      </trkpt>
      <trkpt lat="43.90672" lon="6.68739">
        <ele>1164.77</ele>
        <time>2021-06-03T10:28:05Z</time>
      </trkpt>
      <trkpt lat="43.90671" lon="6.68738">
        <ele>1156.6</ele>
        <time>2021-06-03T10:28:06Z</time>
      </trkpt>
      <trkpt lat="43.9067" lon="6.68737">
        <ele>1162.85</ele>
        <time>2021-06-03T10:28:07Z</time>
      </trkpt>
      <trkpt lat="43.9067" lon="6.68735">
        <ele>1160.93</ele>
        <time>2021-06-03T10:28:08Z</time>
      </trkpt>
      <trkpt lat="43.90667" lon="6.68729">
        <ele>1162.85</ele>
        <time>2021-06-03T10:28:14Z</time>
      </trkpt>
      <trkpt lat="43.90656" lon="6.68723">
        <ele>1163.33</ele>
        <time>2021-06-03T10:28:29Z</time>
      </trkpt>
      <trkpt lat="43.90649" lon="6.68719">
        <ele>1161.41</ele>
        <time>2021-06-03T10:28:35Z</time>
      </trkpt>
      <trkpt lat="43.90648" lon="6.68717">
        <ele>1164.29</ele>
        <time>2021-06-03T10:28:37Z</time>
      </trkpt>
      <trkpt lat="43.90647" lon="6.68715">
        <ele>1160.93</ele>
        <time>2021-06-03T10:28:39Z</time>
      </trkpt>
      <trkpt lat="43.90646" lon="6.68713">
        <ele>1163.81</ele>
        <time>2021-06-03T10:28:41Z</time>
      </trkpt>
      <trkpt lat="43.90643" lon="6.68711">
        <ele>1165.74</ele>
        <time>2021-06-03T10:28:44Z</time>
      </trkpt>
      <trkpt lat="43.90642" lon="6.68711">
        <ele>1160.93</ele>
        <time>2021-06-03T10:28:45Z</time>
      </trkpt>
      <trkpt lat="43.90641" lon="6.6871">
        <ele>1162.37</ele>
        <time>2021-06-03T10:28:46Z</time>
      </trkpt>
      <trkpt lat="43.90638" lon="6.68707">
        <ele>1164.29</ele>
        <time>2021-06-03T10:28:51Z</time>
      </trkpt>
      <trkpt lat="43.90637" lon="6.68707">
        <ele>1159.49</ele>
        <time>2021-06-03T10:28:52Z</time>
      </trkpt>
      <trkpt lat="43.90637" lon="6.68706">
        <ele>1164.29</ele>
        <time>2021-06-03T10:28:53Z</time>
      </trkpt>
      <trkpt lat="43.90629" lon="6.68698">
        <ele>1163.33</ele>
        <time>2021-06-03T10:29:03Z</time>
      </trkpt>
      <trkpt lat="43.90626" lon="6.68695">
        <ele>1164.77</ele>
        <time>2021-06-03T10:29:07Z</time>
      </trkpt>
      <trkpt lat="43.90624" lon="6.68695">
        <ele>1163.33</ele>
        <time>2021-06-03T10:29:22Z</time>
      </trkpt>
      <trkpt lat="43.90619" lon="6.68691">
        <ele>1163.33</ele>
        <time>2021-06-03T10:29:38Z</time>
      </trkpt>
      <trkpt lat="43.90616" lon="6.68687">
        <ele>1166.7</ele>
        <time>2021-06-03T10:29:44Z</time>
      </trkpt>
      <trkpt lat="43.90614" lon="6.68683">
        <ele>1161.89</ele>
        <time>2021-06-03T10:29:48Z</time>
      </trkpt>
      <trkpt lat="43.90614" lon="6.68682">
        <ele>1165.74</ele>
        <time>2021-06-03T10:29:49Z</time>
      </trkpt>
      <trkpt lat="43.90608" lon="6.68673">
        <ele>1169.58</ele>
        <time>2021-06-03T10:29:59Z</time>
      </trkpt>
      <trkpt lat="43.90607" lon="6.68672">
        <ele>1165.26</ele>
        <time>2021-06-03T10:30:00Z</time>
      </trkpt>
      <trkpt lat="43.90607" lon="6.68672">
        <ele>1168.14</ele>
        <time>2021-06-03T10:30:01Z</time>
      </trkpt>
      <trkpt lat="43.90607" lon="6.68669">
        <ele>1166.7</ele>
        <time>2021-06-03T10:30:03Z</time>
      </trkpt>
      <trkpt lat="43.90606" lon="6.68669">
        <ele>1171.02</ele>
        <time>2021-06-03T10:30:04Z</time>
      </trkpt>
      <trkpt lat="43.90606" lon="6.68668">
        <ele>1166.7</ele>
        <time>2021-06-03T10:30:05Z</time>
      </trkpt>
      <trkpt lat="43.90605" lon="6.68666">
        <ele>1170.06</ele>
        <time>2021-06-03T10:30:07Z</time>
      </trkpt>
      <trkpt lat="43.90604" lon="6.68666">
        <ele>1166.22</ele>
        <time>2021-06-03T10:30:08Z</time>
      </trkpt>
      <trkpt lat="43.90603" lon="6.68665">
        <ele>1170.06</ele>
        <time>2021-06-03T10:30:09Z</time>
      </trkpt>
      <trkpt lat="43.90602" lon="6.68663">
        <ele>1165.26</ele>
        <time>2021-06-03T10:30:11Z</time>
      </trkpt>
      <trkpt lat="43.90601" lon="6.68662">
        <ele>1169.1</ele>
        <time>2021-06-03T10:30:12Z</time>
      </trkpt>
      <trkpt lat="43.90596" lon="6.68654">
        <ele>1169.58</ele>
        <time>2021-06-03T10:30:25Z</time>
      </trkpt>
      <trkpt lat="43.90589" lon="6.68646">
        <ele>1169.1</ele>
        <time>2021-06-03T10:30:37Z</time>
      </trkpt>
      <trkpt lat="43.90589" lon="6.68645">
        <ele>1171.98</ele>
        <time>2021-06-03T10:30:38Z</time>
      </trkpt>
      <trkpt lat="43.90588" lon="6.68645">
        <ele>1169.1</ele>
        <time>2021-06-03T10:30:39Z</time>
      </trkpt>
      <trkpt lat="43.90588" lon="6.68644">
        <ele>1171.98</ele>
        <time>2021-06-03T10:30:40Z</time>
      </trkpt>
      <trkpt lat="43.90585" lon="6.68643">
        <ele>1172.95</ele>
        <time>2021-06-03T10:30:44Z</time>
      </trkpt>
      <trkpt lat="43.9058" lon="6.68638">
        <ele>1169.58</ele>
        <time>2021-06-03T10:30:52Z</time>
      </trkpt>
      <trkpt lat="43.90579" lon="6.68636">
        <ele>1173.91</ele>
        <time>2021-06-03T10:30:54Z</time>
      </trkpt>
      <trkpt lat="43.90579" lon="6.68636">
        <ele>1170.06</ele>
        <time>2021-06-03T10:30:55Z</time>
      </trkpt>
      <trkpt lat="43.90578" lon="6.68634">
        <ele>1173.91</ele>
        <time>2021-06-03T10:30:57Z</time>
      </trkpt>
      <trkpt lat="43.90577" lon="6.68631">
        <ele>1169.58</ele>
        <time>2021-06-03T10:31:00Z</time>
      </trkpt>
      <trkpt lat="43.90576" lon="6.6863">
        <ele>1173.91</ele>
        <time>2021-06-03T10:31:01Z</time>
      </trkpt>
      <trkpt lat="43.90573" lon="6.68624">
        <ele>1174.87</ele>
        <time>2021-06-03T10:31:09Z</time>
      </trkpt>
      <trkpt lat="43.90564" lon="6.68614">
        <ele>1176.79</ele>
        <time>2021-06-03T10:31:23Z</time>
      </trkpt>
      <trkpt lat="43.90563" lon="6.68613">
        <ele>1171.5</ele>
        <time>2021-06-03T10:31:24Z</time>
      </trkpt>
      <trkpt lat="43.90563" lon="6.68613">
        <ele>1175.83</ele>
        <time>2021-06-03T10:31:25Z</time>
      </trkpt>
      <trkpt lat="43.90555" lon="6.68606">
        <ele>1178.71</ele>
        <time>2021-06-03T10:31:37Z</time>
      </trkpt>
      <trkpt lat="43.90554" lon="6.68605">
        <ele>1179.19</ele>
        <time>2021-06-03T10:31:38Z</time>
      </trkpt>
      <trkpt lat="43.90554" lon="6.68605">
        <ele>1173.43</ele>
        <time>2021-06-03T10:31:39Z</time>
      </trkpt>
      <trkpt lat="43.90553" lon="6.68604">
        <ele>1177.27</ele>
        <time>2021-06-03T10:31:40Z</time>
      </trkpt>
      <trkpt lat="43.90552" lon="6.68603">
        <ele>1175.35</ele>
        <time>2021-06-03T10:31:42Z</time>
      </trkpt>
      <trkpt lat="43.90548" lon="6.68599">
        <ele>1178.23</ele>
        <time>2021-06-03T10:31:47Z</time>
      </trkpt>
      <trkpt lat="43.90541" lon="6.68591">
        <ele>1177.75</ele>
        <time>2021-06-03T10:31:57Z</time>
      </trkpt>
      <trkpt lat="43.9054" lon="6.68591">
        <ele>1180.64</ele>
        <time>2021-06-03T10:31:58Z</time>
      </trkpt>
      <trkpt lat="43.90532" lon="6.68582">
        <ele>1180.64</ele>
        <time>2021-06-03T10:32:11Z</time>
      </trkpt>
      <trkpt lat="43.90532" lon="6.68581">
        <ele>1176.31</ele>
        <time>2021-06-03T10:32:12Z</time>
      </trkpt>
      <trkpt lat="43.90531" lon="6.6858">
        <ele>1178.23</ele>
        <time>2021-06-03T10:32:13Z</time>
      </trkpt>
      <trkpt lat="43.90531" lon="6.68579">
        <ele>1183.04</ele>
        <time>2021-06-03T10:32:14Z</time>
      </trkpt>
      <trkpt lat="43.9053" lon="6.68578">
        <ele>1177.27</ele>
        <time>2021-06-03T10:32:15Z</time>
      </trkpt>
      <trkpt lat="43.90529" lon="6.68577">
        <ele>1180.64</ele>
        <time>2021-06-03T10:32:16Z</time>
      </trkpt>
      <trkpt lat="43.90528" lon="6.68576">
        <ele>1181.6</ele>
        <time>2021-06-03T10:32:18Z</time>
      </trkpt>
      <trkpt lat="43.90523" lon="6.6857">
        <ele>1183.04</ele>
        <time>2021-06-03T10:32:26Z</time>
      </trkpt>
      <trkpt lat="43.90522" lon="6.68569">
        <ele>1179.19</ele>
        <time>2021-06-03T10:32:27Z</time>
      </trkpt>
      <trkpt lat="43.90522" lon="6.68569">
        <ele>1182.08</ele>
        <time>2021-06-03T10:32:28Z</time>
      </trkpt>
      <trkpt lat="43.90522" lon="6.68568">
        <ele>1179.19</ele>
        <time>2021-06-03T10:32:32Z</time>
      </trkpt>
      <trkpt lat="43.90522" lon="6.68568">
        <ele>1182.08</ele>
        <time>2021-06-03T10:32:33Z</time>
      </trkpt>
      <trkpt lat="43.90519" lon="6.68564">
        <ele>1182.56</ele>
        <time>2021-06-03T10:32:38Z</time>
      </trkpt>
      <trkpt lat="43.90519" lon="6.68563">
        <ele>1182.56</ele>
        <time>2021-06-03T10:32:39Z</time>
      </trkpt>
      <trkpt lat="43.90513" lon="6.6855">
        <ele>1183.04</ele>
        <time>2021-06-03T10:32:51Z</time>
      </trkpt>
      <trkpt lat="43.90512" lon="6.68549">
        <ele>1181.6</ele>
        <time>2021-06-03T10:32:53Z</time>
      </trkpt>
      <trkpt lat="43.90511" lon="6.68548">
        <ele>1184.48</ele>
        <time>2021-06-03T10:32:54Z</time>
      </trkpt>
      <trkpt lat="43.9051" lon="6.68547">
        <ele>1180.64</ele>
        <time>2021-06-03T10:32:55Z</time>
      </trkpt>
      <trkpt lat="43.9051" lon="6.68545">
        <ele>1184</ele>
        <time>2021-06-03T10:32:57Z</time>
      </trkpt>
      <trkpt lat="43.90507" lon="6.6854">
        <ele>1181.6</ele>
        <time>2021-06-03T10:33:03Z</time>
      </trkpt>
      <trkpt lat="43.90506" lon="6.6854">
        <ele>1184.96</ele>
        <time>2021-06-03T10:33:04Z</time>
      </trkpt>
      <trkpt lat="43.90504" lon="6.68536">
        <ele>1186.4</ele>
        <time>2021-06-03T10:33:07Z</time>
      </trkpt>
      <trkpt lat="43.90504" lon="6.68533">
        <ele>1186.4</ele>
        <time>2021-06-03T10:33:10Z</time>
      </trkpt>
      <trkpt lat="43.90503" lon="6.68531">
        <ele>1183.04</ele>
        <time>2021-06-03T10:33:11Z</time>
      </trkpt>
      <trkpt lat="43.90503" lon="6.68529">
        <ele>1187.37</ele>
        <time>2021-06-03T10:33:13Z</time>
      </trkpt>
      <trkpt lat="43.90503" lon="6.68528">
        <ele>1181.6</ele>
        <time>2021-06-03T10:33:14Z</time>
      </trkpt>
      <trkpt lat="43.90503" lon="6.68527">
        <ele>1184.96</ele>
        <time>2021-06-03T10:33:15Z</time>
      </trkpt>
      <trkpt lat="43.90503" lon="6.68526">
        <ele>1188.81</ele>
        <time>2021-06-03T10:33:16Z</time>
      </trkpt>
      <trkpt lat="43.90502" lon="6.68525">
        <ele>1182.56</ele>
        <time>2021-06-03T10:33:17Z</time>
      </trkpt>
      <trkpt lat="43.90502" lon="6.68525">
        <ele>1185.92</ele>
        <time>2021-06-03T10:33:18Z</time>
      </trkpt>
      <trkpt lat="43.905" lon="6.6852">
        <ele>1186.4</ele>
        <time>2021-06-03T10:33:23Z</time>
      </trkpt>
      <trkpt lat="43.905" lon="6.68519">
        <ele>1189.77</ele>
        <time>2021-06-03T10:33:24Z</time>
      </trkpt>
      <trkpt lat="43.90499" lon="6.68518">
        <ele>1184</ele>
        <time>2021-06-03T10:33:25Z</time>
      </trkpt>
      <trkpt lat="43.90499" lon="6.68517">
        <ele>1187.85</ele>
        <time>2021-06-03T10:33:26Z</time>
      </trkpt>
      <trkpt lat="43.90499" lon="6.68515">
        <ele>1185.44</ele>
        <time>2021-06-03T10:33:28Z</time>
      </trkpt>
      <trkpt lat="43.90499" lon="6.68514">
        <ele>1188.81</ele>
        <time>2021-06-03T10:33:29Z</time>
      </trkpt>
      <trkpt lat="43.90499" lon="6.68513">
        <ele>1193.61</ele>
        <time>2021-06-03T10:33:30Z</time>
      </trkpt>
      <trkpt lat="43.90498" lon="6.68513">
        <ele>1187.85</ele>
        <time>2021-06-03T10:33:31Z</time>
      </trkpt>
      <trkpt lat="43.90498" lon="6.68512">
        <ele>1190.73</ele>
        <time>2021-06-03T10:33:32Z</time>
      </trkpt>
      <trkpt lat="43.90497" lon="6.68512">
        <ele>1187.37</ele>
        <time>2021-06-03T10:33:33Z</time>
      </trkpt>
      <trkpt lat="43.90493" lon="6.68511">
        <ele>1188.81</ele>
        <time>2021-06-03T10:33:38Z</time>
      </trkpt>
      <trkpt lat="43.90481" lon="6.68513">
        <ele>1185.44</ele>
        <time>2021-06-03T10:33:51Z</time>
      </trkpt>
      <trkpt lat="43.9048" lon="6.68513">
        <ele>1189.29</ele>
        <time>2021-06-03T10:33:52Z</time>
      </trkpt>
      <trkpt lat="43.90478" lon="6.68512">
        <ele>1189.29</ele>
        <time>2021-06-03T10:33:55Z</time>
      </trkpt>
      <trkpt lat="43.90474" lon="6.68508">
        <ele>1185.44</ele>
        <time>2021-06-03T10:34:02Z</time>
      </trkpt>
      <trkpt lat="43.90473" lon="6.68507">
        <ele>1189.77</ele>
        <time>2021-06-03T10:34:03Z</time>
      </trkpt>
      <trkpt lat="43.90468" lon="6.68505">
        <ele>1191.21</ele>
        <time>2021-06-03T10:34:11Z</time>
      </trkpt>
      <trkpt lat="43.90465" lon="6.68504">
        <ele>1186.88</ele>
        <time>2021-06-03T10:34:15Z</time>
      </trkpt>
      <trkpt lat="43.90464" lon="6.68504">
        <ele>1190.73</ele>
        <time>2021-06-03T10:34:16Z</time>
      </trkpt>
      <trkpt lat="43.90461" lon="6.68503">
        <ele>1194.09</ele>
        <time>2021-06-03T10:34:22Z</time>
      </trkpt>
      <trkpt lat="43.90458" lon="6.68503">
        <ele>1190.73</ele>
        <time>2021-06-03T10:34:26Z</time>
      </trkpt>
      <trkpt lat="43.90455" lon="6.68501">
        <ele>1194.09</ele>
        <time>2021-06-03T10:34:30Z</time>
      </trkpt>
      <trkpt lat="43.90455" lon="6.68501">
        <ele>1189.29</ele>
        <time>2021-06-03T10:34:31Z</time>
      </trkpt>
      <trkpt lat="43.90454" lon="6.685">
        <ele>1196.5</ele>
        <time>2021-06-03T10:34:32Z</time>
      </trkpt>
      <trkpt lat="43.90453" lon="6.685">
        <ele>1190.73</ele>
        <time>2021-06-03T10:34:33Z</time>
      </trkpt>
      <trkpt lat="43.90453" lon="6.685">
        <ele>1195.54</ele>
        <time>2021-06-03T10:34:34Z</time>
      </trkpt>
      <trkpt lat="43.90452" lon="6.685">
        <ele>1191.21</ele>
        <time>2021-06-03T10:34:35Z</time>
      </trkpt>
      <trkpt lat="43.90452" lon="6.685">
        <ele>1195.06</ele>
        <time>2021-06-03T10:34:36Z</time>
      </trkpt>
      <trkpt lat="43.90449" lon="6.68499">
        <ele>1196.02</ele>
        <time>2021-06-03T10:34:40Z</time>
      </trkpt>
      <trkpt lat="43.90448" lon="6.68499">
        <ele>1191.21</ele>
        <time>2021-06-03T10:34:41Z</time>
      </trkpt>
      <trkpt lat="43.90448" lon="6.68499">
        <ele>1196.02</ele>
        <time>2021-06-03T10:34:42Z</time>
      </trkpt>
      <trkpt lat="43.90447" lon="6.68498">
        <ele>1191.21</ele>
        <time>2021-06-03T10:34:43Z</time>
      </trkpt>
      <trkpt lat="43.90447" lon="6.68498">
        <ele>1194.58</ele>
        <time>2021-06-03T10:34:44Z</time>
      </trkpt>
      <trkpt lat="43.90444" lon="6.68496">
        <ele>1194.09</ele>
        <time>2021-06-03T10:34:48Z</time>
      </trkpt>
      <trkpt lat="43.90442" lon="6.68496">
        <ele>1190.73</ele>
        <time>2021-06-03T10:34:52Z</time>
      </trkpt>
      <trkpt lat="43.90442" lon="6.68495">
        <ele>1196.5</ele>
        <time>2021-06-03T10:34:53Z</time>
      </trkpt>
      <trkpt lat="43.90439" lon="6.68493">
        <ele>1192.65</ele>
        <time>2021-06-03T10:34:59Z</time>
      </trkpt>
      <trkpt lat="43.90438" lon="6.68493">
        <ele>1196.02</ele>
        <time>2021-06-03T10:35:00Z</time>
      </trkpt>
      <trkpt lat="43.90432" lon="6.68487">
        <ele>1196.5</ele>
        <time>2021-06-03T10:35:11Z</time>
      </trkpt>
      <trkpt lat="43.90426" lon="6.68483">
        <ele>1200.34</ele>
        <time>2021-06-03T10:35:21Z</time>
      </trkpt>
      <trkpt lat="43.90425" lon="6.68482">
        <ele>1195.54</ele>
        <time>2021-06-03T10:35:22Z</time>
      </trkpt>
      <trkpt lat="43.90425" lon="6.68482">
        <ele>1202.75</ele>
        <time>2021-06-03T10:35:23Z</time>
      </trkpt>
      <trkpt lat="43.90424" lon="6.68482">
        <ele>1197.46</ele>
        <time>2021-06-03T10:35:24Z</time>
      </trkpt>
      <trkpt lat="43.90422" lon="6.68482">
        <ele>1194.09</ele>
        <time>2021-06-03T10:35:28Z</time>
      </trkpt>
      <trkpt lat="43.90421" lon="6.68482">
        <ele>1198.9</ele>
        <time>2021-06-03T10:35:29Z</time>
      </trkpt>
      <trkpt lat="43.90421" lon="6.68482">
        <ele>1195.06</ele>
        <time>2021-06-03T10:35:30Z</time>
      </trkpt>
      <trkpt lat="43.9042" lon="6.68482">
        <ele>1198.9</ele>
        <time>2021-06-03T10:35:31Z</time>
      </trkpt>
      <trkpt lat="43.90417" lon="6.68485">
        <ele>1203.71</ele>
        <time>2021-06-03T10:35:36Z</time>
      </trkpt>
      <trkpt lat="43.90417" lon="6.68485">
        <ele>1197.46</ele>
        <time>2021-06-03T10:35:37Z</time>
      </trkpt>
      <trkpt lat="43.90417" lon="6.68486">
        <ele>1202.27</ele>
        <time>2021-06-03T10:35:38Z</time>
      </trkpt>
      <trkpt lat="43.90412" lon="6.68486">
        <ele>1197.94</ele>
        <time>2021-06-03T10:35:48Z</time>
      </trkpt>
      <trkpt lat="43.90411" lon="6.68486">
        <ele>1200.82</ele>
        <time>2021-06-03T10:35:51Z</time>
      </trkpt>
      <trkpt lat="43.90404" lon="6.68488">
        <ele>1205.15</ele>
        <time>2021-06-03T10:36:02Z</time>
      </trkpt>
      <trkpt lat="43.90403" lon="6.68488">
        <ele>1201.3</ele>
        <time>2021-06-03T10:36:03Z</time>
      </trkpt>
      <trkpt lat="43.90403" lon="6.68488">
        <ele>1205.63</ele>
        <time>2021-06-03T10:36:04Z</time>
      </trkpt>
      <trkpt lat="43.90399" lon="6.6849">
        <ele>1201.3</ele>
        <time>2021-06-03T10:36:14Z</time>
      </trkpt>
      <trkpt lat="43.90398" lon="6.6849">
        <ele>1205.15</ele>
        <time>2021-06-03T10:36:15Z</time>
      </trkpt>
      <trkpt lat="43.90398" lon="6.6849">
        <ele>1201.79</ele>
        <time>2021-06-03T10:36:16Z</time>
      </trkpt>
      <trkpt lat="43.90397" lon="6.6849">
        <ele>1207.07</ele>
        <time>2021-06-03T10:36:17Z</time>
      </trkpt>
      <trkpt lat="43.90397" lon="6.68491">
        <ele>1202.75</ele>
        <time>2021-06-03T10:36:20Z</time>
      </trkpt>
      <trkpt lat="43.90396" lon="6.6849">
        <ele>1206.11</ele>
        <time>2021-06-03T10:36:24Z</time>
      </trkpt>
      <trkpt lat="43.90394" lon="6.68492">
        <ele>1205.15</ele>
        <time>2021-06-03T10:36:37Z</time>
      </trkpt>
      <trkpt lat="43.90394" lon="6.68493">
        <ele>1205.63</ele>
        <time>2021-06-03T10:36:59Z</time>
      </trkpt>
      <trkpt lat="43.90391" lon="6.68491">
        <ele>1206.59</ele>
        <time>2021-06-03T10:37:24Z</time>
      </trkpt>
      <trkpt lat="43.90391" lon="6.68491">
        <ele>1206.59</ele>
        <time>2021-06-03T10:37:25Z</time>
      </trkpt>
      <trkpt lat="43.90392" lon="6.68489">
        <ele>1207.07</ele>
        <time>2021-06-03T10:37:33Z</time>
      </trkpt>
      <trkpt lat="43.90392" lon="6.68489">
        <ele>1205.63</ele>
        <time>2021-06-03T10:37:35Z</time>
      </trkpt>
      <trkpt lat="43.9039" lon="6.68488">
        <ele>1207.07</ele>
        <time>2021-06-03T10:37:56Z</time>
      </trkpt>
      <trkpt lat="43.9039" lon="6.68487">
        <ele>1206.59</ele>
        <time>2021-06-03T10:38:15Z</time>
      </trkpt>
      <trkpt lat="43.90392" lon="6.68488">
        <ele>1203.71</ele>
        <time>2021-06-03T10:38:22Z</time>
      </trkpt>
      <trkpt lat="43.90391" lon="6.68488">
        <ele>1207.55</ele>
        <time>2021-06-03T10:38:23Z</time>
      </trkpt>
      <trkpt lat="43.9039" lon="6.68489">
        <ele>1206.11</ele>
        <time>2021-06-03T10:38:28Z</time>
      </trkpt>
      <trkpt lat="43.90389" lon="6.68491">
        <ele>1202.75</ele>
        <time>2021-06-03T10:38:36Z</time>
      </trkpt>
      <trkpt lat="43.90389" lon="6.6849">
        <ele>1206.59</ele>
        <time>2021-06-03T10:38:37Z</time>
      </trkpt>
      <trkpt lat="43.90385" lon="6.68481">
        <ele>1203.23</ele>
        <time>2021-06-03T10:38:45Z</time>
      </trkpt>
      <trkpt lat="43.90385" lon="6.6848">
        <ele>1207.07</ele>
        <time>2021-06-03T10:38:46Z</time>
      </trkpt>
      <trkpt lat="43.90382" lon="6.68474">
        <ele>1210.44</ele>
        <time>2021-06-03T10:38:52Z</time>
      </trkpt>
      <trkpt lat="43.90382" lon="6.68473">
        <ele>1204.19</ele>
        <time>2021-06-03T10:38:53Z</time>
      </trkpt>
      <trkpt lat="43.90381" lon="6.68473">
        <ele>1208.51</ele>
        <time>2021-06-03T10:38:54Z</time>
      </trkpt>
      <trkpt lat="43.90381" lon="6.68472">
        <ele>1204.19</ele>
        <time>2021-06-03T10:38:55Z</time>
      </trkpt>
      <trkpt lat="43.90381" lon="6.68471">
        <ele>1208.03</ele>
        <time>2021-06-03T10:38:56Z</time>
      </trkpt>
      <trkpt lat="43.90376" lon="6.68459">
        <ele>1208.03</ele>
        <time>2021-06-03T10:39:09Z</time>
      </trkpt>
      <trkpt lat="43.9037" lon="6.68445">
        <ele>1208.03</ele>
        <time>2021-06-03T10:39:23Z</time>
      </trkpt>
      <trkpt lat="43.9037" lon="6.68444">
        <ele>1209</ele>
        <time>2021-06-03T10:39:24Z</time>
      </trkpt>
      <trkpt lat="43.90365" lon="6.6843">
        <ele>1210.44</ele>
        <time>2021-06-03T10:39:36Z</time>
      </trkpt>
      <trkpt lat="43.90365" lon="6.68428">
        <ele>1207.07</ele>
        <time>2021-06-03T10:39:38Z</time>
      </trkpt>
      <trkpt lat="43.90364" lon="6.68425">
        <ele>1210.92</ele>
        <time>2021-06-03T10:39:40Z</time>
      </trkpt>
      <trkpt lat="43.90364" lon="6.68424">
        <ele>1208.03</ele>
        <time>2021-06-03T10:39:41Z</time>
      </trkpt>
      <trkpt lat="43.90363" lon="6.68422">
        <ele>1211.88</ele>
        <time>2021-06-03T10:39:43Z</time>
      </trkpt>
      <trkpt lat="43.90362" lon="6.68421">
        <ele>1206.11</ele>
        <time>2021-06-03T10:39:44Z</time>
      </trkpt>
      <trkpt lat="43.9036" lon="6.68418">
        <ele>1209</ele>
        <time>2021-06-03T10:39:47Z</time>
      </trkpt>
      <trkpt lat="43.9036" lon="6.68417">
        <ele>1213.32</ele>
        <time>2021-06-03T10:39:48Z</time>
      </trkpt>
      <trkpt lat="43.90359" lon="6.68415">
        <ele>1209.48</ele>
        <time>2021-06-03T10:39:50Z</time>
      </trkpt>
      <trkpt lat="43.90357" lon="6.68411">
        <ele>1210.44</ele>
        <time>2021-06-03T10:39:54Z</time>
      </trkpt>
      <trkpt lat="43.90357" lon="6.6841">
        <ele>1213.8</ele>
        <time>2021-06-03T10:39:55Z</time>
      </trkpt>
      <trkpt lat="43.90357" lon="6.68409">
        <ele>1209.48</ele>
        <time>2021-06-03T10:39:56Z</time>
      </trkpt>
      <trkpt lat="43.90356" lon="6.68407">
        <ele>1213.32</ele>
        <time>2021-06-03T10:39:58Z</time>
      </trkpt>
      <trkpt lat="43.90356" lon="6.68406">
        <ele>1209</ele>
        <time>2021-06-03T10:39:59Z</time>
      </trkpt>
      <trkpt lat="43.90356" lon="6.68405">
        <ele>1212.84</ele>
        <time>2021-06-03T10:40:00Z</time>
      </trkpt>
      <trkpt lat="43.90354" lon="6.68393">
        <ele>1211.88</ele>
        <time>2021-06-03T10:40:14Z</time>
      </trkpt>
      <trkpt lat="43.90354" lon="6.68392">
        <ele>1212.36</ele>
        <time>2021-06-03T10:40:33Z</time>
      </trkpt>
      <trkpt lat="43.90355" lon="6.68392">
        <ele>1211.88</ele>
        <time>2021-06-03T10:40:36Z</time>
      </trkpt>
      <trkpt lat="43.90356" lon="6.68396">
        <ele>1216.69</ele>
        <time>2021-06-03T10:40:40Z</time>
      </trkpt>
      <trkpt lat="43.90357" lon="6.68398">
        <ele>1213.32</ele>
        <time>2021-06-03T10:40:42Z</time>
      </trkpt>
      <trkpt lat="43.90358" lon="6.68398">
        <ele>1213.32</ele>
        <time>2021-06-03T10:40:44Z</time>
      </trkpt>
      <trkpt lat="43.90356" lon="6.68399">
        <ele>1213.32</ele>
        <time>2021-06-03T10:40:56Z</time>
      </trkpt>
      <trkpt lat="43.90357" lon="6.68398">
        <ele>1209</ele>
        <time>2021-06-03T10:41:08Z</time>
      </trkpt>
      <trkpt lat="43.90358" lon="6.68398">
        <ele>1214.76</ele>
        <time>2021-06-03T10:41:09Z</time>
      </trkpt>
      <trkpt lat="43.90359" lon="6.68398">
        <ele>1214.76</ele>
        <time>2021-06-03T10:41:13Z</time>
      </trkpt>
      <trkpt lat="43.9036" lon="6.68396">
        <ele>1214.76</ele>
        <time>2021-06-03T10:41:33Z</time>
      </trkpt>
      <trkpt lat="43.90355" lon="6.68393">
        <ele>1211.88</ele>
        <time>2021-06-03T10:41:50Z</time>
      </trkpt>
      <trkpt lat="43.90356" lon="6.6839">
        <ele>1213.32</ele>
        <time>2021-06-03T10:42:07Z</time>
      </trkpt>
      <trkpt lat="43.90357" lon="6.68385">
        <ele>1209.96</ele>
        <time>2021-06-03T10:42:17Z</time>
      </trkpt>
      <trkpt lat="43.90358" lon="6.68384">
        <ele>1213.32</ele>
        <time>2021-06-03T10:42:18Z</time>
      </trkpt>
      <trkpt lat="43.90363" lon="6.68379">
        <ele>1210.92</ele>
        <time>2021-06-03T10:42:24Z</time>
      </trkpt>
      <trkpt lat="43.90365" lon="6.68378">
        <ele>1214.76</ele>
        <time>2021-06-03T10:42:26Z</time>
      </trkpt>
      <trkpt lat="43.90366" lon="6.68377">
        <ele>1213.32</ele>
        <time>2021-06-03T10:42:27Z</time>
      </trkpt>
      <trkpt lat="43.9037" lon="6.68373">
        <ele>1214.28</ele>
        <time>2021-06-03T10:42:34Z</time>
      </trkpt>
      <trkpt lat="43.90371" lon="6.68372">
        <ele>1211.4</ele>
        <time>2021-06-03T10:42:36Z</time>
      </trkpt>
      <trkpt lat="43.90372" lon="6.68372">
        <ele>1215.24</ele>
        <time>2021-06-03T10:42:37Z</time>
      </trkpt>
      <trkpt lat="43.90374" lon="6.6837">
        <ele>1217.65</ele>
        <time>2021-06-03T10:42:40Z</time>
      </trkpt>
      <trkpt lat="43.90376" lon="6.68368">
        <ele>1213.8</ele>
        <time>2021-06-03T10:42:44Z</time>
      </trkpt>
      <trkpt lat="43.90379" lon="6.68366">
        <ele>1218.61</ele>
        <time>2021-06-03T10:42:47Z</time>
      </trkpt>
      <trkpt lat="43.90379" lon="6.68365">
        <ele>1215.24</ele>
        <time>2021-06-03T10:42:48Z</time>
      </trkpt>
      <trkpt lat="43.9038" lon="6.68364">
        <ele>1218.61</ele>
        <time>2021-06-03T10:42:50Z</time>
      </trkpt>
      <trkpt lat="43.90381" lon="6.68363">
        <ele>1215.72</ele>
        <time>2021-06-03T10:42:51Z</time>
      </trkpt>
      <trkpt lat="43.90382" lon="6.68363">
        <ele>1219.57</ele>
        <time>2021-06-03T10:42:52Z</time>
      </trkpt>
      <trkpt lat="43.90382" lon="6.68362">
        <ele>1213.32</ele>
        <time>2021-06-03T10:42:53Z</time>
      </trkpt>
      <trkpt lat="43.90383" lon="6.68362">
        <ele>1218.13</ele>
        <time>2021-06-03T10:42:54Z</time>
      </trkpt>
      <trkpt lat="43.90384" lon="6.68358">
        <ele>1217.17</ele>
        <time>2021-06-03T10:42:57Z</time>
      </trkpt>
      <trkpt lat="43.90386" lon="6.68345">
        <ele>1217.17</ele>
        <time>2021-06-03T10:43:08Z</time>
      </trkpt>
      <trkpt lat="43.90383" lon="6.68337">
        <ele>1215.72</ele>
        <time>2021-06-03T10:43:14Z</time>
      </trkpt>
      <trkpt lat="43.90382" lon="6.68329">
        <ele>1216.69</ele>
        <time>2021-06-03T10:43:20Z</time>
      </trkpt>
      <trkpt lat="43.90383" lon="6.68326">
        <ele>1211.88</ele>
        <time>2021-06-03T10:43:22Z</time>
      </trkpt>
      <trkpt lat="43.90383" lon="6.68325">
        <ele>1216.21</ele>
        <time>2021-06-03T10:43:23Z</time>
      </trkpt>
      <trkpt lat="43.90386" lon="6.68312">
        <ele>1215.24</ele>
        <time>2021-06-03T10:43:33Z</time>
      </trkpt>
      <trkpt lat="43.90387" lon="6.68309">
        <ele>1216.69</ele>
        <time>2021-06-03T10:43:35Z</time>
      </trkpt>
      <trkpt lat="43.9039" lon="6.68301">
        <ele>1216.69</ele>
        <time>2021-06-03T10:43:42Z</time>
      </trkpt>
      <trkpt lat="43.90391" lon="6.683">
        <ele>1213.32</ele>
        <time>2021-06-03T10:43:43Z</time>
      </trkpt>
      <trkpt lat="43.90391" lon="6.68299">
        <ele>1216.69</ele>
        <time>2021-06-03T10:43:44Z</time>
      </trkpt>
      <trkpt lat="43.90394" lon="6.68294">
        <ele>1218.13</ele>
        <time>2021-06-03T10:43:48Z</time>
      </trkpt>
      <trkpt lat="43.90396" lon="6.68292">
        <ele>1216.69</ele>
        <time>2021-06-03T10:43:51Z</time>
      </trkpt>
      <trkpt lat="43.90399" lon="6.68287">
        <ele>1218.13</ele>
        <time>2021-06-03T10:43:56Z</time>
      </trkpt>
      <trkpt lat="43.90399" lon="6.68286">
        <ele>1214.76</ele>
        <time>2021-06-03T10:43:57Z</time>
      </trkpt>
      <trkpt lat="43.904" lon="6.68285">
        <ele>1217.17</ele>
        <time>2021-06-03T10:43:58Z</time>
      </trkpt>
      <trkpt lat="43.90401" lon="6.68281">
        <ele>1217.65</ele>
        <time>2021-06-03T10:44:14Z</time>
      </trkpt>
      <trkpt lat="43.90405" lon="6.68267">
        <ele>1216.69</ele>
        <time>2021-06-03T10:44:26Z</time>
      </trkpt>
      <trkpt lat="43.90406" lon="6.68261">
        <ele>1216.21</ele>
        <time>2021-06-03T10:44:31Z</time>
      </trkpt>
      <trkpt lat="43.90408" lon="6.68242">
        <ele>1215.72</ele>
        <time>2021-06-03T10:44:45Z</time>
      </trkpt>
      <trkpt lat="43.90408" lon="6.68241">
        <ele>1215.72</ele>
        <time>2021-06-03T10:44:46Z</time>
      </trkpt>
      <trkpt lat="43.90405" lon="6.68218">
        <ele>1216.21</ele>
        <time>2021-06-03T10:45:01Z</time>
      </trkpt>
      <trkpt lat="43.90404" lon="6.68208">
        <ele>1211.88</ele>
        <time>2021-06-03T10:45:08Z</time>
      </trkpt>
      <trkpt lat="43.90404" lon="6.68184">
        <ele>1211.4</ele>
        <time>2021-06-03T10:45:23Z</time>
      </trkpt>
      <trkpt lat="43.90409" lon="6.68165">
        <ele>1211.88</ele>
        <time>2021-06-03T10:45:35Z</time>
      </trkpt>
      <trkpt lat="43.90413" lon="6.6816">
        <ele>1208.51</ele>
        <time>2021-06-03T10:45:39Z</time>
      </trkpt>
      <trkpt lat="43.90414" lon="6.68157">
        <ele>1211.4</ele>
        <time>2021-06-03T10:45:41Z</time>
      </trkpt>
      <trkpt lat="43.90417" lon="6.68154">
        <ele>1209.96</ele>
        <time>2021-06-03T10:45:44Z</time>
      </trkpt>
      <trkpt lat="43.90425" lon="6.68148">
        <ele>1208.03</ele>
        <time>2021-06-03T10:45:51Z</time>
      </trkpt>
      <trkpt lat="43.90429" lon="6.68147">
        <ele>1209.48</ele>
        <time>2021-06-03T10:45:54Z</time>
      </trkpt>
      <trkpt lat="43.9044" lon="6.68139">
        <ele>1207.55</ele>
        <time>2021-06-03T10:46:07Z</time>
      </trkpt>
      <trkpt lat="43.9044" lon="6.68135">
        <ele>1204.19</ele>
        <time>2021-06-03T10:46:10Z</time>
      </trkpt>
      <trkpt lat="43.90441" lon="6.68134">
        <ele>1207.07</ele>
        <time>2021-06-03T10:46:11Z</time>
      </trkpt>
      <trkpt lat="43.90441" lon="6.68132">
        <ele>1208.51</ele>
        <time>2021-06-03T10:46:12Z</time>
      </trkpt>
      <trkpt lat="43.9044" lon="6.68129">
        <ele>1204.67</ele>
        <time>2021-06-03T10:46:14Z</time>
      </trkpt>
      <trkpt lat="43.9044" lon="6.68128">
        <ele>1206.59</ele>
        <time>2021-06-03T10:46:15Z</time>
      </trkpt>
      <trkpt lat="43.9044" lon="6.68125">
        <ele>1208.51</ele>
        <time>2021-06-03T10:46:17Z</time>
      </trkpt>
      <trkpt lat="43.90439" lon="6.68122">
        <ele>1207.55</ele>
        <time>2021-06-03T10:46:19Z</time>
      </trkpt>
      <trkpt lat="43.90438" lon="6.68116">
        <ele>1207.07</ele>
        <time>2021-06-03T10:46:23Z</time>
      </trkpt>
      <trkpt lat="43.90436" lon="6.68107">
        <ele>1207.07</ele>
        <time>2021-06-03T10:46:30Z</time>
      </trkpt>
      <trkpt lat="43.90435" lon="6.681">
        <ele>1203.71</ele>
        <time>2021-06-03T10:46:36Z</time>
      </trkpt>
      <trkpt lat="43.90434" lon="6.68097">
        <ele>1207.07</ele>
        <time>2021-06-03T10:46:38Z</time>
      </trkpt>
      <trkpt lat="43.90431" lon="6.68087">
        <ele>1206.11</ele>
        <time>2021-06-03T10:46:45Z</time>
      </trkpt>
      <trkpt lat="43.90429" lon="6.68084">
        <ele>1202.75</ele>
        <time>2021-06-03T10:46:47Z</time>
      </trkpt>
      <trkpt lat="43.90425" lon="6.68065">
        <ele>1202.27</ele>
        <time>2021-06-03T10:47:00Z</time>
      </trkpt>
      <trkpt lat="43.90425" lon="6.6806">
        <ele>1202.27</ele>
        <time>2021-06-03T10:47:04Z</time>
      </trkpt>
      <trkpt lat="43.90425" lon="6.68056">
        <ele>1199.86</ele>
        <time>2021-06-03T10:47:06Z</time>
      </trkpt>
      <trkpt lat="43.90433" lon="6.68038">
        <ele>1197.94</ele>
        <time>2021-06-03T10:47:20Z</time>
      </trkpt>
      <trkpt lat="43.90434" lon="6.68037">
        <ele>1197.46</ele>
        <time>2021-06-03T10:47:21Z</time>
      </trkpt>
      <trkpt lat="43.90443" lon="6.68029">
        <ele>1198.9</ele>
        <time>2021-06-03T10:47:29Z</time>
      </trkpt>
      <trkpt lat="43.90446" lon="6.68026">
        <ele>1196.02</ele>
        <time>2021-06-03T10:47:32Z</time>
      </trkpt>
      <trkpt lat="43.90447" lon="6.68024">
        <ele>1196.5</ele>
        <time>2021-06-03T10:47:33Z</time>
      </trkpt>
      <trkpt lat="43.9045" lon="6.68018">
        <ele>1196.02</ele>
        <time>2021-06-03T10:47:38Z</time>
      </trkpt>
      <trkpt lat="43.90452" lon="6.6801">
        <ele>1199.38</ele>
        <time>2021-06-03T10:47:43Z</time>
      </trkpt>
      <trkpt lat="43.90452" lon="6.68009">
        <ele>1198.9</ele>
        <time>2021-06-03T10:47:44Z</time>
      </trkpt>
      <trkpt lat="43.90453" lon="6.68009">
        <ele>1196.02</ele>
        <time>2021-06-03T10:47:45Z</time>
      </trkpt>
      <trkpt lat="43.90454" lon="6.68004">
        <ele>1195.06</ele>
        <time>2021-06-03T10:47:50Z</time>
      </trkpt>
      <trkpt lat="43.90454" lon="6.68003">
        <ele>1199.38</ele>
        <time>2021-06-03T10:47:51Z</time>
      </trkpt>
      <trkpt lat="43.90455" lon="6.68001">
        <ele>1195.06</ele>
        <time>2021-06-03T10:47:53Z</time>
      </trkpt>
      <trkpt lat="43.90455" lon="6.68">
        <ele>1197.46</ele>
        <time>2021-06-03T10:47:54Z</time>
      </trkpt>
      <trkpt lat="43.90456" lon="6.67999">
        <ele>1200.34</ele>
        <time>2021-06-03T10:47:55Z</time>
      </trkpt>
      <trkpt lat="43.90457" lon="6.67995">
        <ele>1196.5</ele>
        <time>2021-06-03T10:47:57Z</time>
      </trkpt>
      <trkpt lat="43.90457" lon="6.67994">
        <ele>1197.94</ele>
        <time>2021-06-03T10:47:58Z</time>
      </trkpt>
      <trkpt lat="43.90459" lon="6.67992">
        <ele>1198.9</ele>
        <time>2021-06-03T10:48:00Z</time>
      </trkpt>
      <trkpt lat="43.9046" lon="6.67989">
        <ele>1197.46</ele>
        <time>2021-06-03T10:48:02Z</time>
      </trkpt>
      <trkpt lat="43.90461" lon="6.67986">
        <ele>1198.42</ele>
        <time>2021-06-03T10:48:04Z</time>
      </trkpt>
      <trkpt lat="43.90467" lon="6.67978">
        <ele>1195.54</ele>
        <time>2021-06-03T10:48:11Z</time>
      </trkpt>
      <trkpt lat="43.90468" lon="6.67977">
        <ele>1195.06</ele>
        <time>2021-06-03T10:48:13Z</time>
      </trkpt>
      <trkpt lat="43.9047" lon="6.67973">
        <ele>1195.06</ele>
        <time>2021-06-03T10:48:16Z</time>
      </trkpt>
      <trkpt lat="43.90476" lon="6.67965">
        <ele>1196.98</ele>
        <time>2021-06-03T10:48:24Z</time>
      </trkpt>
      <trkpt lat="43.90484" lon="6.67955">
        <ele>1193.13</ele>
        <time>2021-06-03T10:48:34Z</time>
      </trkpt>
      <trkpt lat="43.90484" lon="6.67955">
        <ele>1196.5</ele>
        <time>2021-06-03T10:48:35Z</time>
      </trkpt>
      <trkpt lat="43.90488" lon="6.6795">
        <ele>1195.06</ele>
        <time>2021-06-03T10:48:41Z</time>
      </trkpt>
      <trkpt lat="43.90491" lon="6.67947">
        <ele>1193.61</ele>
        <time>2021-06-03T10:48:46Z</time>
      </trkpt>
      <trkpt lat="43.905" lon="6.6794">
        <ele>1197.46</ele>
        <time>2021-06-03T10:48:52Z</time>
      </trkpt>
      <trkpt lat="43.90501" lon="6.67937">
        <ele>1193.13</ele>
        <time>2021-06-03T10:48:54Z</time>
      </trkpt>
      <trkpt lat="43.90502" lon="6.67937">
        <ele>1195.54</ele>
        <time>2021-06-03T10:48:55Z</time>
      </trkpt>
      <trkpt lat="43.90505" lon="6.67934">
        <ele>1198.9</ele>
        <time>2021-06-03T10:49:00Z</time>
      </trkpt>
      <trkpt lat="43.90505" lon="6.67933">
        <ele>1196.5</ele>
        <time>2021-06-03T10:49:01Z</time>
      </trkpt>
      <trkpt lat="43.90506" lon="6.67932">
        <ele>1191.69</ele>
        <time>2021-06-03T10:49:02Z</time>
      </trkpt>
      <trkpt lat="43.90507" lon="6.67931">
        <ele>1195.06</ele>
        <time>2021-06-03T10:49:03Z</time>
      </trkpt>
      <trkpt lat="43.90509" lon="6.67929">
        <ele>1198.9</ele>
        <time>2021-06-03T10:49:07Z</time>
      </trkpt>
      <trkpt lat="43.90509" lon="6.67929">
        <ele>1193.61</ele>
        <time>2021-06-03T10:49:08Z</time>
      </trkpt>
      <trkpt lat="43.90509" lon="6.67928">
        <ele>1194.58</ele>
        <time>2021-06-03T10:49:09Z</time>
      </trkpt>
      <trkpt lat="43.9051" lon="6.67924">
        <ele>1193.61</ele>
        <time>2021-06-03T10:49:11Z</time>
      </trkpt>
      <trkpt lat="43.9051" lon="6.67923">
        <ele>1196.5</ele>
        <time>2021-06-03T10:49:12Z</time>
      </trkpt>
      <trkpt lat="43.90512" lon="6.67922">
        <ele>1201.3</ele>
        <time>2021-06-03T10:49:15Z</time>
      </trkpt>
      <trkpt lat="43.90512" lon="6.67921">
        <ele>1194.09</ele>
        <time>2021-06-03T10:49:16Z</time>
      </trkpt>
      <trkpt lat="43.90512" lon="6.67917">
        <ele>1199.38</ele>
        <time>2021-06-03T10:49:19Z</time>
      </trkpt>
      <trkpt lat="43.90511" lon="6.67915">
        <ele>1196.02</ele>
        <time>2021-06-03T10:49:21Z</time>
      </trkpt>
      <trkpt lat="43.9051" lon="6.67913">
        <ele>1198.9</ele>
        <time>2021-06-03T10:49:23Z</time>
      </trkpt>
      <trkpt lat="43.90509" lon="6.67912">
        <ele>1197.94</ele>
        <time>2021-06-03T10:49:24Z</time>
      </trkpt>
      <trkpt lat="43.905" lon="6.67907">
        <ele>1194.58</ele>
        <time>2021-06-03T10:49:36Z</time>
      </trkpt>
      <trkpt lat="43.90499" lon="6.67907">
        <ele>1198.9</ele>
        <time>2021-06-03T10:49:37Z</time>
      </trkpt>
      <trkpt lat="43.90488" lon="6.67906">
        <ele>1197.46</ele>
        <time>2021-06-03T10:49:51Z</time>
      </trkpt>
      <trkpt lat="43.90487" lon="6.67905">
        <ele>1201.3</ele>
        <time>2021-06-03T10:49:52Z</time>
      </trkpt>
      <trkpt lat="43.90486" lon="6.67905">
        <ele>1196.5</ele>
        <time>2021-06-03T10:49:59Z</time>
      </trkpt>
      <trkpt lat="43.90485" lon="6.67904">
        <ele>1201.3</ele>
        <time>2021-06-03T10:50:00Z</time>
      </trkpt>
      <trkpt lat="43.9048" lon="6.67903">
        <ele>1199.38</ele>
        <time>2021-06-03T10:50:14Z</time>
      </trkpt>
      <trkpt lat="43.90479" lon="6.67902">
        <ele>1203.71</ele>
        <time>2021-06-03T10:50:16Z</time>
      </trkpt>
      <trkpt lat="43.90479" lon="6.67901">
        <ele>1199.86</ele>
        <time>2021-06-03T10:50:17Z</time>
      </trkpt>
      <trkpt lat="43.90472" lon="6.679">
        <ele>1201.3</ele>
        <time>2021-06-03T10:50:24Z</time>
      </trkpt>
      <trkpt lat="43.90466" lon="6.67898">
        <ele>1200.82</ele>
        <time>2021-06-03T10:50:30Z</time>
      </trkpt>
      <trkpt lat="43.90462" lon="6.67897">
        <ele>1203.71</ele>
        <time>2021-06-03T10:50:35Z</time>
      </trkpt>
      <trkpt lat="43.9046" lon="6.67897">
        <ele>1198.9</ele>
        <time>2021-06-03T10:50:37Z</time>
      </trkpt>
      <trkpt lat="43.90457" lon="6.67897">
        <ele>1203.71</ele>
        <time>2021-06-03T10:50:39Z</time>
      </trkpt>
      <trkpt lat="43.90456" lon="6.67897">
        <ele>1199.38</ele>
        <time>2021-06-03T10:50:40Z</time>
      </trkpt>
      <trkpt lat="43.90453" lon="6.67897">
        <ele>1203.71</ele>
        <time>2021-06-03T10:50:43Z</time>
      </trkpt>
      <trkpt lat="43.90452" lon="6.67897">
        <ele>1202.75</ele>
        <time>2021-06-03T10:50:44Z</time>
      </trkpt>
      <trkpt lat="43.9045" lon="6.67897">
        <ele>1200.82</ele>
        <time>2021-06-03T10:50:46Z</time>
      </trkpt>
      <trkpt lat="43.9045" lon="6.67897">
        <ele>1204.67</ele>
        <time>2021-06-03T10:50:47Z</time>
      </trkpt>
      <trkpt lat="43.90449" lon="6.67897">
        <ele>1202.75</ele>
        <time>2021-06-03T10:50:48Z</time>
      </trkpt>
      <trkpt lat="43.90448" lon="6.67897">
        <ele>1198.9</ele>
        <time>2021-06-03T10:50:49Z</time>
      </trkpt>
      <trkpt lat="43.90446" lon="6.67897">
        <ele>1202.75</ele>
        <time>2021-06-03T10:50:50Z</time>
      </trkpt>
      <trkpt lat="43.90444" lon="6.67895">
        <ele>1197.94</ele>
        <time>2021-06-03T10:50:53Z</time>
      </trkpt>
      <trkpt lat="43.90443" lon="6.67895">
        <ele>1202.27</ele>
        <time>2021-06-03T10:50:54Z</time>
      </trkpt>
      <trkpt lat="43.90442" lon="6.67894">
        <ele>1205.15</ele>
        <time>2021-06-03T10:50:55Z</time>
      </trkpt>
      <trkpt lat="43.9044" lon="6.67894">
        <ele>1201.3</ele>
        <time>2021-06-03T10:50:57Z</time>
      </trkpt>
      <trkpt lat="43.90439" lon="6.67894">
        <ele>1203.71</ele>
        <time>2021-06-03T10:50:58Z</time>
      </trkpt>
      <trkpt lat="43.90434" lon="6.67892">
        <ele>1203.71</ele>
        <time>2021-06-03T10:51:03Z</time>
      </trkpt>
      <trkpt lat="43.90433" lon="6.67892">
        <ele>1200.34</ele>
        <time>2021-06-03T10:51:04Z</time>
      </trkpt>
      <trkpt lat="43.90432" lon="6.67891">
        <ele>1204.19</ele>
        <time>2021-06-03T10:51:05Z</time>
      </trkpt>
      <trkpt lat="43.90428" lon="6.67887">
        <ele>1204.19</ele>
        <time>2021-06-03T10:51:10Z</time>
      </trkpt>
      <trkpt lat="43.90427" lon="6.67885">
        <ele>1202.75</ele>
        <time>2021-06-03T10:51:12Z</time>
      </trkpt>
      <trkpt lat="43.90419" lon="6.67878">
        <ele>1202.27</ele>
        <time>2021-06-03T10:51:20Z</time>
      </trkpt>
      <trkpt lat="43.90417" lon="6.67877">
        <ele>1206.11</ele>
        <time>2021-06-03T10:51:22Z</time>
      </trkpt>
      <trkpt lat="43.90416" lon="6.67875">
        <ele>1201.79</ele>
        <time>2021-06-03T10:51:23Z</time>
      </trkpt>
      <trkpt lat="43.90413" lon="6.67872">
        <ele>1206.11</ele>
        <time>2021-06-03T10:51:26Z</time>
      </trkpt>
      <trkpt lat="43.90412" lon="6.6787">
        <ele>1199.86</ele>
        <time>2021-06-03T10:51:28Z</time>
      </trkpt>
      <trkpt lat="43.90411" lon="6.67869">
        <ele>1202.75</ele>
        <time>2021-06-03T10:51:29Z</time>
      </trkpt>
      <trkpt lat="43.90409" lon="6.67867">
        <ele>1204.19</ele>
        <time>2021-06-03T10:51:31Z</time>
      </trkpt>
      <trkpt lat="43.90408" lon="6.67866">
        <ele>1201.3</ele>
        <time>2021-06-03T10:51:32Z</time>
      </trkpt>
      <trkpt lat="43.90408" lon="6.67865">
        <ele>1203.23</ele>
        <time>2021-06-03T10:51:33Z</time>
      </trkpt>
      <trkpt lat="43.90397" lon="6.67854">
        <ele>1204.67</ele>
        <time>2021-06-03T10:51:44Z</time>
      </trkpt>
      <trkpt lat="43.90395" lon="6.67851">
        <ele>1201.3</ele>
        <time>2021-06-03T10:51:46Z</time>
      </trkpt>
      <trkpt lat="43.90394" lon="6.6785">
        <ele>1201.79</ele>
        <time>2021-06-03T10:51:48Z</time>
      </trkpt>
      <trkpt lat="43.90392" lon="6.67848">
        <ele>1199.86</ele>
        <time>2021-06-03T10:51:50Z</time>
      </trkpt>
      <trkpt lat="43.90388" lon="6.67844">
        <ele>1201.3</ele>
        <time>2021-06-03T10:51:55Z</time>
      </trkpt>
      <trkpt lat="43.90385" lon="6.6784">
        <ele>1204.67</ele>
        <time>2021-06-03T10:51:58Z</time>
      </trkpt>
      <trkpt lat="43.90385" lon="6.67839">
        <ele>1199.38</ele>
        <time>2021-06-03T10:51:59Z</time>
      </trkpt>
      <trkpt lat="43.90384" lon="6.67838">
        <ele>1201.79</ele>
        <time>2021-06-03T10:52:00Z</time>
      </trkpt>
      <trkpt lat="43.90382" lon="6.67835">
        <ele>1202.75</ele>
        <time>2021-06-03T10:52:02Z</time>
      </trkpt>
      <trkpt lat="43.90381" lon="6.67833">
        <ele>1200.82</ele>
        <time>2021-06-03T10:52:04Z</time>
      </trkpt>
      <trkpt lat="43.90378" lon="6.67828">
        <ele>1199.86</ele>
        <time>2021-06-03T10:52:08Z</time>
      </trkpt>
      <trkpt lat="43.90376" lon="6.67822">
        <ele>1198.9</ele>
        <time>2021-06-03T10:52:12Z</time>
      </trkpt>
      <trkpt lat="43.90376" lon="6.67821">
        <ele>1199.86</ele>
        <time>2021-06-03T10:52:13Z</time>
      </trkpt>
      <trkpt lat="43.90375" lon="6.67819">
        <ele>1204.19</ele>
        <time>2021-06-03T10:52:14Z</time>
      </trkpt>
      <trkpt lat="43.90375" lon="6.67817">
        <ele>1202.27</ele>
        <time>2021-06-03T10:52:15Z</time>
      </trkpt>
      <trkpt lat="43.90375" lon="6.67814">
        <ele>1200.34</ele>
        <time>2021-06-03T10:52:17Z</time>
      </trkpt>
      <trkpt lat="43.90375" lon="6.67811">
        <ele>1203.23</ele>
        <time>2021-06-03T10:52:19Z</time>
      </trkpt>
      <trkpt lat="43.90374" lon="6.67808">
        <ele>1199.38</ele>
        <time>2021-06-03T10:52:21Z</time>
      </trkpt>
      <trkpt lat="43.90374" lon="6.67807">
        <ele>1202.75</ele>
        <time>2021-06-03T10:52:22Z</time>
      </trkpt>
      <trkpt lat="43.90374" lon="6.67802">
        <ele>1197.94</ele>
        <time>2021-06-03T10:52:25Z</time>
      </trkpt>
      <trkpt lat="43.90374" lon="6.67801">
        <ele>1201.79</ele>
        <time>2021-06-03T10:52:26Z</time>
      </trkpt>
      <trkpt lat="43.90374" lon="6.67799">
        <ele>1204.67</ele>
        <time>2021-06-03T10:52:27Z</time>
      </trkpt>
      <trkpt lat="43.90374" lon="6.67798">
        <ele>1200.82</ele>
        <time>2021-06-03T10:52:28Z</time>
      </trkpt>
      <trkpt lat="43.90374" lon="6.67794">
        <ele>1204.19</ele>
        <time>2021-06-03T10:52:31Z</time>
      </trkpt>
      <trkpt lat="43.90374" lon="6.67793">
        <ele>1200.82</ele>
        <time>2021-06-03T10:52:32Z</time>
      </trkpt>
      <trkpt lat="43.90374" lon="6.67792">
        <ele>1201.79</ele>
        <time>2021-06-03T10:52:33Z</time>
      </trkpt>
      <trkpt lat="43.90374" lon="6.6779">
        <ele>1205.15</ele>
        <time>2021-06-03T10:52:34Z</time>
      </trkpt>
      <trkpt lat="43.90374" lon="6.67789">
        <ele>1202.27</ele>
        <time>2021-06-03T10:52:35Z</time>
      </trkpt>
      <trkpt lat="43.90374" lon="6.67784">
        <ele>1206.11</ele>
        <time>2021-06-03T10:52:40Z</time>
      </trkpt>
      <trkpt lat="43.90374" lon="6.67783">
        <ele>1202.27</ele>
        <time>2021-06-03T10:52:41Z</time>
      </trkpt>
      <trkpt lat="43.90374" lon="6.67782">
        <ele>1202.27</ele>
        <time>2021-06-03T10:52:42Z</time>
      </trkpt>
      <trkpt lat="43.90375" lon="6.67778">
        <ele>1207.07</ele>
        <time>2021-06-03T10:52:45Z</time>
      </trkpt>
      <trkpt lat="43.90375" lon="6.67775">
        <ele>1204.19</ele>
        <time>2021-06-03T10:52:47Z</time>
      </trkpt>
      <trkpt lat="43.90374" lon="6.67772">
        <ele>1200.34</ele>
        <time>2021-06-03T10:52:49Z</time>
      </trkpt>
      <trkpt lat="43.90375" lon="6.67769">
        <ele>1206.11</ele>
        <time>2021-06-03T10:52:51Z</time>
      </trkpt>
      <trkpt lat="43.90375" lon="6.67763">
        <ele>1206.11</ele>
        <time>2021-06-03T10:52:55Z</time>
      </trkpt>
      <trkpt lat="43.90375" lon="6.67761">
        <ele>1205.63</ele>
        <time>2021-06-03T10:52:56Z</time>
      </trkpt>
      <trkpt lat="43.90375" lon="6.6776">
        <ele>1199.86</ele>
        <time>2021-06-03T10:52:57Z</time>
      </trkpt>
      <trkpt lat="43.90375" lon="6.67758">
        <ele>1203.71</ele>
        <time>2021-06-03T10:52:58Z</time>
      </trkpt>
      <trkpt lat="43.90376" lon="6.67756">
        <ele>1202.27</ele>
        <time>2021-06-03T10:53:00Z</time>
      </trkpt>
      <trkpt lat="43.90377" lon="6.6775">
        <ele>1200.34</ele>
        <time>2021-06-03T10:53:04Z</time>
      </trkpt>
      <trkpt lat="43.90377" lon="6.67749">
        <ele>1205.15</ele>
        <time>2021-06-03T10:53:05Z</time>
      </trkpt>
      <trkpt lat="43.90378" lon="6.67743">
        <ele>1205.63</ele>
        <time>2021-06-03T10:53:10Z</time>
      </trkpt>
      <trkpt lat="43.90379" lon="6.6774">
        <ele>1203.71</ele>
        <time>2021-06-03T10:53:12Z</time>
      </trkpt>
      <trkpt lat="43.9038" lon="6.67737">
        <ele>1199.38</ele>
        <time>2021-06-03T10:53:14Z</time>
      </trkpt>
      <trkpt lat="43.9038" lon="6.67736">
        <ele>1202.27</ele>
        <time>2021-06-03T10:53:15Z</time>
      </trkpt>
      <trkpt lat="43.90381" lon="6.67735">
        <ele>1205.63</ele>
        <time>2021-06-03T10:53:16Z</time>
      </trkpt>
      <trkpt lat="43.90382" lon="6.67731">
        <ele>1202.27</ele>
        <time>2021-06-03T10:53:18Z</time>
      </trkpt>
      <trkpt lat="43.90383" lon="6.67729">
        <ele>1208.51</ele>
        <time>2021-06-03T10:53:20Z</time>
      </trkpt>
      <trkpt lat="43.90383" lon="6.67728">
        <ele>1202.27</ele>
        <time>2021-06-03T10:53:21Z</time>
      </trkpt>
      <trkpt lat="43.90384" lon="6.67726">
        <ele>1205.15</ele>
        <time>2021-06-03T10:53:22Z</time>
      </trkpt>
      <trkpt lat="43.90388" lon="6.67718">
        <ele>1206.11</ele>
        <time>2021-06-03T10:53:29Z</time>
      </trkpt>
      <trkpt lat="43.9039" lon="6.67715">
        <ele>1202.27</ele>
        <time>2021-06-03T10:53:32Z</time>
      </trkpt>
      <trkpt lat="43.90391" lon="6.67714">
        <ele>1206.59</ele>
        <time>2021-06-03T10:53:33Z</time>
      </trkpt>
      <trkpt lat="43.90392" lon="6.67713">
        <ele>1209.96</ele>
        <time>2021-06-03T10:53:34Z</time>
      </trkpt>
      <trkpt lat="43.90393" lon="6.67713">
        <ele>1206.11</ele>
        <time>2021-06-03T10:53:35Z</time>
      </trkpt>
      <trkpt lat="43.904" lon="6.67706">
        <ele>1207.07</ele>
        <time>2021-06-03T10:53:43Z</time>
      </trkpt>
      <trkpt lat="43.90401" lon="6.67704">
        <ele>1203.71</ele>
        <time>2021-06-03T10:53:45Z</time>
      </trkpt>
      <trkpt lat="43.90402" lon="6.67703">
        <ele>1207.07</ele>
        <time>2021-06-03T10:53:46Z</time>
      </trkpt>
      <trkpt lat="43.90406" lon="6.67701">
        <ele>1204.67</ele>
        <time>2021-06-03T10:53:49Z</time>
      </trkpt>
      <trkpt lat="43.90407" lon="6.677">
        <ele>1207.55</ele>
        <time>2021-06-03T10:53:50Z</time>
      </trkpt>
      <trkpt lat="43.9041" lon="6.67699">
        <ele>1205.63</ele>
        <time>2021-06-03T10:53:53Z</time>
      </trkpt>
      <trkpt lat="43.90413" lon="6.67698">
        <ele>1209</ele>
        <time>2021-06-03T10:53:55Z</time>
      </trkpt>
      <trkpt lat="43.90413" lon="6.67697">
        <ele>1204.67</ele>
        <time>2021-06-03T10:53:56Z</time>
      </trkpt>
      <trkpt lat="43.90414" lon="6.67697">
        <ele>1206.11</ele>
        <time>2021-06-03T10:53:57Z</time>
      </trkpt>
      <trkpt lat="43.90416" lon="6.67695">
        <ele>1208.51</ele>
        <time>2021-06-03T10:53:59Z</time>
      </trkpt>
      <trkpt lat="43.90417" lon="6.67694">
        <ele>1204.67</ele>
        <time>2021-06-03T10:54:00Z</time>
      </trkpt>
      <trkpt lat="43.90417" lon="6.67694">
        <ele>1206.11</ele>
        <time>2021-06-03T10:54:01Z</time>
      </trkpt>
      <trkpt lat="43.90419" lon="6.67692">
        <ele>1204.67</ele>
        <time>2021-06-03T10:54:03Z</time>
      </trkpt>
      <trkpt lat="43.90419" lon="6.67691">
        <ele>1207.07</ele>
        <time>2021-06-03T10:54:04Z</time>
      </trkpt>
      <trkpt lat="43.90421" lon="6.67689">
        <ele>1208.51</ele>
        <time>2021-06-03T10:54:06Z</time>
      </trkpt>
      <trkpt lat="43.90422" lon="6.67684">
        <ele>1207.07</ele>
        <time>2021-06-03T10:54:10Z</time>
      </trkpt>
      <trkpt lat="43.90423" lon="6.67682">
        <ele>1207.07</ele>
        <time>2021-06-03T10:54:12Z</time>
      </trkpt>
      <trkpt lat="43.90423" lon="6.67679">
        <ele>1210.44</ele>
        <time>2021-06-03T10:54:14Z</time>
      </trkpt>
      <trkpt lat="43.90423" lon="6.67677">
        <ele>1209.48</ele>
        <time>2021-06-03T10:54:15Z</time>
      </trkpt>
      <trkpt lat="43.90422" lon="6.67676">
        <ele>1203.23</ele>
        <time>2021-06-03T10:54:16Z</time>
      </trkpt>
      <trkpt lat="43.90423" lon="6.67675">
        <ele>1209.48</ele>
        <time>2021-06-03T10:54:17Z</time>
      </trkpt>
      <trkpt lat="43.90422" lon="6.67669">
        <ele>1213.32</ele>
        <time>2021-06-03T10:54:23Z</time>
      </trkpt>
      <trkpt lat="43.90422" lon="6.67668">
        <ele>1208.51</ele>
        <time>2021-06-03T10:54:24Z</time>
      </trkpt>
      <trkpt lat="43.90422" lon="6.67663">
        <ele>1211.88</ele>
        <time>2021-06-03T10:54:27Z</time>
      </trkpt>
      <trkpt lat="43.90421" lon="6.67661">
        <ele>1207.07</ele>
        <time>2021-06-03T10:54:28Z</time>
      </trkpt>
      <trkpt lat="43.90421" lon="6.6766">
        <ele>1208.51</ele>
        <time>2021-06-03T10:54:29Z</time>
      </trkpt>
      <trkpt lat="43.90421" lon="6.67659">
        <ele>1211.88</ele>
        <time>2021-06-03T10:54:30Z</time>
      </trkpt>
      <trkpt lat="43.90421" lon="6.67657">
        <ele>1205.63</ele>
        <time>2021-06-03T10:54:31Z</time>
      </trkpt>
      <trkpt lat="43.90421" lon="6.67655">
        <ele>1209.96</ele>
        <time>2021-06-03T10:54:33Z</time>
      </trkpt>
      <trkpt lat="43.90421" lon="6.67652">
        <ele>1206.59</ele>
        <time>2021-06-03T10:54:35Z</time>
      </trkpt>
      <trkpt lat="43.9042" lon="6.67651">
        <ele>1210.44</ele>
        <time>2021-06-03T10:54:36Z</time>
      </trkpt>
      <trkpt lat="43.9042" lon="6.67648">
        <ele>1209.96</ele>
        <time>2021-06-03T10:54:38Z</time>
      </trkpt>
      <trkpt lat="43.90419" lon="6.67645">
        <ele>1212.36</ele>
        <time>2021-06-03T10:54:40Z</time>
      </trkpt>
      <trkpt lat="43.90416" lon="6.6764">
        <ele>1212.36</ele>
        <time>2021-06-03T10:54:45Z</time>
      </trkpt>
      <trkpt lat="43.90416" lon="6.67639">
        <ele>1207.07</ele>
        <time>2021-06-03T10:54:46Z</time>
      </trkpt>
      <trkpt lat="43.90415" lon="6.67638">
        <ele>1210.44</ele>
        <time>2021-06-03T10:54:47Z</time>
      </trkpt>
      <trkpt lat="43.90415" lon="6.67636">
        <ele>1214.28</ele>
        <time>2021-06-03T10:54:48Z</time>
      </trkpt>
      <trkpt lat="43.90414" lon="6.67635">
        <ele>1209</ele>
        <time>2021-06-03T10:54:49Z</time>
      </trkpt>
      <trkpt lat="43.90413" lon="6.67633">
        <ele>1213.32</ele>
        <time>2021-06-03T10:54:51Z</time>
      </trkpt>
      <trkpt lat="43.90413" lon="6.67632">
        <ele>1210.92</ele>
        <time>2021-06-03T10:54:52Z</time>
      </trkpt>
      <trkpt lat="43.90411" lon="6.67629">
        <ele>1213.32</ele>
        <time>2021-06-03T10:54:55Z</time>
      </trkpt>
      <trkpt lat="43.9041" lon="6.67628">
        <ele>1208.03</ele>
        <time>2021-06-03T10:54:56Z</time>
      </trkpt>
      <trkpt lat="43.9041" lon="6.67627">
        <ele>1212.36</ele>
        <time>2021-06-03T10:54:57Z</time>
      </trkpt>
      <trkpt lat="43.90409" lon="6.67626">
        <ele>1208.51</ele>
        <time>2021-06-03T10:54:59Z</time>
      </trkpt>
      <trkpt lat="43.90408" lon="6.67625">
        <ele>1211.4</ele>
        <time>2021-06-03T10:55:00Z</time>
      </trkpt>
      <trkpt lat="43.90408" lon="6.67623">
        <ele>1214.76</ele>
        <time>2021-06-03T10:55:01Z</time>
      </trkpt>
      <trkpt lat="43.90407" lon="6.67622">
        <ele>1214.76</ele>
        <time>2021-06-03T10:55:02Z</time>
      </trkpt>
      <trkpt lat="43.90407" lon="6.67622">
        <ele>1209.96</ele>
        <time>2021-06-03T10:55:03Z</time>
      </trkpt>
      <trkpt lat="43.90406" lon="6.6762">
        <ele>1213.8</ele>
        <time>2021-06-03T10:55:04Z</time>
      </trkpt>
      <trkpt lat="43.90405" lon="6.67618">
        <ele>1209.48</ele>
        <time>2021-06-03T10:55:06Z</time>
      </trkpt>
      <trkpt lat="43.90404" lon="6.67617">
        <ele>1212.36</ele>
        <time>2021-06-03T10:55:07Z</time>
      </trkpt>
      <trkpt lat="43.904" lon="6.67608">
        <ele>1213.32</ele>
        <time>2021-06-03T10:55:15Z</time>
      </trkpt>
      <trkpt lat="43.904" lon="6.67607">
        <ele>1209.96</ele>
        <time>2021-06-03T10:55:16Z</time>
      </trkpt>
      <trkpt lat="43.904" lon="6.67606">
        <ele>1215.72</ele>
        <time>2021-06-03T10:55:17Z</time>
      </trkpt>
      <trkpt lat="43.90398" lon="6.67604">
        <ele>1209.48</ele>
        <time>2021-06-03T10:55:19Z</time>
      </trkpt>
      <trkpt lat="43.90398" lon="6.67603">
        <ele>1214.28</ele>
        <time>2021-06-03T10:55:20Z</time>
      </trkpt>
      <trkpt lat="43.90397" lon="6.67601">
        <ele>1209.48</ele>
        <time>2021-06-03T10:55:22Z</time>
      </trkpt>
      <trkpt lat="43.90396" lon="6.676">
        <ele>1213.32</ele>
        <time>2021-06-03T10:55:23Z</time>
      </trkpt>
      <trkpt lat="43.90395" lon="6.67599">
        <ele>1218.13</ele>
        <time>2021-06-03T10:55:24Z</time>
      </trkpt>
      <trkpt lat="43.90395" lon="6.67598">
        <ele>1212.36</ele>
        <time>2021-06-03T10:55:25Z</time>
      </trkpt>
      <trkpt lat="43.90393" lon="6.67596">
        <ele>1216.69</ele>
        <time>2021-06-03T10:55:27Z</time>
      </trkpt>
      <trkpt lat="43.90393" lon="6.67595">
        <ele>1213.8</ele>
        <time>2021-06-03T10:55:28Z</time>
      </trkpt>
      <trkpt lat="43.90392" lon="6.67593">
        <ele>1216.69</ele>
        <time>2021-06-03T10:55:30Z</time>
      </trkpt>
      <trkpt lat="43.9039" lon="6.67589">
        <ele>1213.8</ele>
        <time>2021-06-03T10:55:33Z</time>
      </trkpt>
      <trkpt lat="43.90389" lon="6.67587">
        <ele>1217.17</ele>
        <time>2021-06-03T10:55:35Z</time>
      </trkpt>
      <trkpt lat="43.90389" lon="6.67586">
        <ele>1212.84</ele>
        <time>2021-06-03T10:55:36Z</time>
      </trkpt>
      <trkpt lat="43.90389" lon="6.67584">
        <ele>1216.21</ele>
        <time>2021-06-03T10:55:37Z</time>
      </trkpt>
      <trkpt lat="43.90388" lon="6.67582">
        <ele>1212.84</ele>
        <time>2021-06-03T10:55:39Z</time>
      </trkpt>
      <trkpt lat="43.90388" lon="6.67581">
        <ele>1216.69</ele>
        <time>2021-06-03T10:55:40Z</time>
      </trkpt>
      <trkpt lat="43.90387" lon="6.67575">
        <ele>1212.84</ele>
        <time>2021-06-03T10:55:45Z</time>
      </trkpt>
      <trkpt lat="43.90386" lon="6.67574">
        <ele>1216.69</ele>
        <time>2021-06-03T10:55:46Z</time>
      </trkpt>
      <trkpt lat="43.90386" lon="6.67572">
        <ele>1208.51</ele>
        <time>2021-06-03T10:55:48Z</time>
      </trkpt>
      <trkpt lat="43.90385" lon="6.6757">
        <ele>1216.69</ele>
        <time>2021-06-03T10:55:49Z</time>
      </trkpt>
      <trkpt lat="43.90385" lon="6.67568">
        <ele>1212.84</ele>
        <time>2021-06-03T10:55:51Z</time>
      </trkpt>
      <trkpt lat="43.90385" lon="6.67566">
        <ele>1216.21</ele>
        <time>2021-06-03T10:55:52Z</time>
      </trkpt>
      <trkpt lat="43.90384" lon="6.67565">
        <ele>1220.05</ele>
        <time>2021-06-03T10:55:53Z</time>
      </trkpt>
      <trkpt lat="43.90384" lon="6.67564">
        <ele>1216.21</ele>
        <time>2021-06-03T10:55:54Z</time>
      </trkpt>
      <trkpt lat="43.90384" lon="6.67562">
        <ele>1219.09</ele>
        <time>2021-06-03T10:55:56Z</time>
      </trkpt>
      <trkpt lat="43.90383" lon="6.67561">
        <ele>1214.76</ele>
        <time>2021-06-03T10:55:57Z</time>
      </trkpt>
      <trkpt lat="43.90383" lon="6.67558">
        <ele>1219.57</ele>
        <time>2021-06-03T10:55:59Z</time>
      </trkpt>
      <trkpt lat="43.90383" lon="6.67557">
        <ele>1215.72</ele>
        <time>2021-06-03T10:56:00Z</time>
      </trkpt>
      <trkpt lat="43.90383" lon="6.67554">
        <ele>1219.57</ele>
        <time>2021-06-03T10:56:02Z</time>
      </trkpt>
      <trkpt lat="43.90383" lon="6.67553">
        <ele>1219.57</ele>
        <time>2021-06-03T10:56:03Z</time>
      </trkpt>
      <trkpt lat="43.90382" lon="6.67552">
        <ele>1213.8</ele>
        <time>2021-06-03T10:56:04Z</time>
      </trkpt>
      <trkpt lat="43.90382" lon="6.67551">
        <ele>1217.17</ele>
        <time>2021-06-03T10:56:05Z</time>
      </trkpt>
      <trkpt lat="43.90381" lon="6.67541">
        <ele>1219.57</ele>
        <time>2021-06-03T10:56:12Z</time>
      </trkpt>
      <trkpt lat="43.9038" lon="6.6754">
        <ele>1214.76</ele>
        <time>2021-06-03T10:56:13Z</time>
      </trkpt>
      <trkpt lat="43.9038" lon="6.67538">
        <ele>1218.13</ele>
        <time>2021-06-03T10:56:14Z</time>
      </trkpt>
      <trkpt lat="43.9038" lon="6.67537">
        <ele>1221.97</ele>
        <time>2021-06-03T10:56:15Z</time>
      </trkpt>
      <trkpt lat="43.9038" lon="6.67536">
        <ele>1215.72</ele>
        <time>2021-06-03T10:56:16Z</time>
      </trkpt>
      <trkpt lat="43.9038" lon="6.67534">
        <ele>1223.42</ele>
        <time>2021-06-03T10:56:20Z</time>
      </trkpt>
      <trkpt lat="43.9038" lon="6.67533">
        <ele>1217.17</ele>
        <time>2021-06-03T10:56:21Z</time>
      </trkpt>
      <trkpt lat="43.9038" lon="6.6753">
        <ele>1221.49</ele>
        <time>2021-06-03T10:56:23Z</time>
      </trkpt>
      <trkpt lat="43.9038" lon="6.67529">
        <ele>1217.17</ele>
        <time>2021-06-03T10:56:24Z</time>
      </trkpt>
      <trkpt lat="43.90379" lon="6.67526">
        <ele>1221.01</ele>
        <time>2021-06-03T10:56:26Z</time>
      </trkpt>
      <trkpt lat="43.90379" lon="6.67524">
        <ele>1217.65</ele>
        <time>2021-06-03T10:56:28Z</time>
      </trkpt>
      <trkpt lat="43.90379" lon="6.67522">
        <ele>1221.49</ele>
        <time>2021-06-03T10:56:29Z</time>
      </trkpt>
      <trkpt lat="43.90379" lon="6.67519">
        <ele>1216.69</ele>
        <time>2021-06-03T10:56:31Z</time>
      </trkpt>
      <trkpt lat="43.90379" lon="6.67518">
        <ele>1221.01</ele>
        <time>2021-06-03T10:56:32Z</time>
      </trkpt>
      <trkpt lat="43.90378" lon="6.67511">
        <ele>1217.65</ele>
        <time>2021-06-03T10:56:37Z</time>
      </trkpt>
      <trkpt lat="43.90378" lon="6.6751">
        <ele>1222.45</ele>
        <time>2021-06-03T10:56:38Z</time>
      </trkpt>
      <trkpt lat="43.90377" lon="6.67508">
        <ele>1218.61</ele>
        <time>2021-06-03T10:56:40Z</time>
      </trkpt>
      <trkpt lat="43.90377" lon="6.67503">
        <ele>1221.97</ele>
        <time>2021-06-03T10:56:44Z</time>
      </trkpt>
      <trkpt lat="43.90377" lon="6.67501">
        <ele>1216.69</ele>
        <time>2021-06-03T10:56:46Z</time>
      </trkpt>
      <trkpt lat="43.90377" lon="6.67499">
        <ele>1221.97</ele>
        <time>2021-06-03T10:56:47Z</time>
      </trkpt>
      <trkpt lat="43.90376" lon="6.67497">
        <ele>1219.09</ele>
        <time>2021-06-03T10:56:49Z</time>
      </trkpt>
      <trkpt lat="43.90376" lon="6.67496">
        <ele>1222.45</ele>
        <time>2021-06-03T10:56:50Z</time>
      </trkpt>
      <trkpt lat="43.90375" lon="6.67482">
        <ele>1218.61</ele>
        <time>2021-06-03T10:57:01Z</time>
      </trkpt>
      <trkpt lat="43.90374" lon="6.6748">
        <ele>1223.9</ele>
        <time>2021-06-03T10:57:02Z</time>
      </trkpt>
      <trkpt lat="43.90374" lon="6.67478">
        <ele>1219.09</ele>
        <time>2021-06-03T10:57:04Z</time>
      </trkpt>
      <trkpt lat="43.90374" lon="6.67477">
        <ele>1224.38</ele>
        <time>2021-06-03T10:57:05Z</time>
      </trkpt>
      <trkpt lat="43.90372" lon="6.67472">
        <ele>1221.01</ele>
        <time>2021-06-03T10:57:10Z</time>
      </trkpt>
      <trkpt lat="43.90372" lon="6.6747">
        <ele>1226.78</ele>
        <time>2021-06-03T10:57:12Z</time>
      </trkpt>
      <trkpt lat="43.90372" lon="6.67469">
        <ele>1220.05</ele>
        <time>2021-06-03T10:57:13Z</time>
      </trkpt>
      <trkpt lat="43.90371" lon="6.67468">
        <ele>1226.78</ele>
        <time>2021-06-03T10:57:14Z</time>
      </trkpt>
      <trkpt lat="43.9037" lon="6.67466">
        <ele>1223.42</ele>
        <time>2021-06-03T10:57:16Z</time>
      </trkpt>
      <trkpt lat="43.90369" lon="6.67461">
        <ele>1231.59</ele>
        <time>2021-06-03T10:57:21Z</time>
      </trkpt>
      <trkpt lat="43.90368" lon="6.6746">
        <ele>1223.9</ele>
        <time>2021-06-03T10:57:22Z</time>
      </trkpt>
      <trkpt lat="43.90367" lon="6.67456">
        <ele>1229.18</ele>
        <time>2021-06-03T10:57:26Z</time>
      </trkpt>
      <trkpt lat="43.90366" lon="6.67455">
        <ele>1222.45</ele>
        <time>2021-06-03T10:57:27Z</time>
      </trkpt>
      <trkpt lat="43.90365" lon="6.67453">
        <ele>1228.7</ele>
        <time>2021-06-03T10:57:29Z</time>
      </trkpt>
      <trkpt lat="43.90365" lon="6.67452">
        <ele>1222.45</ele>
        <time>2021-06-03T10:57:30Z</time>
      </trkpt>
      <trkpt lat="43.90365" lon="6.67451">
        <ele>1226.3</ele>
        <time>2021-06-03T10:57:31Z</time>
      </trkpt>
      <trkpt lat="43.90364" lon="6.6745">
        <ele>1230.14</ele>
        <time>2021-06-03T10:57:32Z</time>
      </trkpt>
      <trkpt lat="43.90364" lon="6.67449">
        <ele>1220.53</ele>
        <time>2021-06-03T10:57:33Z</time>
      </trkpt>
      <trkpt lat="43.90363" lon="6.67447">
        <ele>1227.26</ele>
        <time>2021-06-03T10:57:34Z</time>
      </trkpt>
      <trkpt lat="43.90363" lon="6.67445">
        <ele>1222.45</ele>
        <time>2021-06-03T10:57:36Z</time>
      </trkpt>
      <trkpt lat="43.90362" lon="6.67444">
        <ele>1230.62</ele>
        <time>2021-06-03T10:57:37Z</time>
      </trkpt>
      <trkpt lat="43.90362" lon="6.67442">
        <ele>1225.34</ele>
        <time>2021-06-03T10:57:38Z</time>
      </trkpt>
      <trkpt lat="43.90361" lon="6.67441">
        <ele>1231.59</ele>
        <time>2021-06-03T10:57:40Z</time>
      </trkpt>
      <trkpt lat="43.9036" lon="6.6744">
        <ele>1223.9</ele>
        <time>2021-06-03T10:57:41Z</time>
      </trkpt>
      <trkpt lat="43.90359" lon="6.67439">
        <ele>1228.22</ele>
        <time>2021-06-03T10:57:42Z</time>
      </trkpt>
      <trkpt lat="43.9035" lon="6.6744">
        <ele>1224.86</ele>
        <time>2021-06-03T10:57:53Z</time>
      </trkpt>
      <trkpt lat="43.90345" lon="6.67442">
        <ele>1226.3</ele>
        <time>2021-06-03T10:57:59Z</time>
      </trkpt>
      <trkpt lat="43.90342" lon="6.67443">
        <ele>1223.42</ele>
        <time>2021-06-03T10:58:03Z</time>
      </trkpt>
      <trkpt lat="43.90341" lon="6.67443">
        <ele>1224.86</ele>
        <time>2021-06-03T10:58:04Z</time>
      </trkpt>
      <trkpt lat="43.9034" lon="6.67443">
        <ele>1228.22</ele>
        <time>2021-06-03T10:58:05Z</time>
      </trkpt>
      <trkpt lat="43.90339" lon="6.67443">
        <ele>1228.22</ele>
        <time>2021-06-03T10:58:06Z</time>
      </trkpt>
      <trkpt lat="43.90339" lon="6.67443">
        <ele>1222.93</ele>
        <time>2021-06-03T10:58:07Z</time>
      </trkpt>
      <trkpt lat="43.90338" lon="6.67443">
        <ele>1226.78</ele>
        <time>2021-06-03T10:58:08Z</time>
      </trkpt>
      <trkpt lat="43.90333" lon="6.67445">
        <ele>1223.42</ele>
        <time>2021-06-03T10:58:14Z</time>
      </trkpt>
      <trkpt lat="43.9033" lon="6.67444">
        <ele>1227.26</ele>
        <time>2021-06-03T10:58:16Z</time>
      </trkpt>
      <trkpt lat="43.90329" lon="6.67443">
        <ele>1226.3</ele>
        <time>2021-06-03T10:58:17Z</time>
      </trkpt>
      <trkpt lat="43.90328" lon="6.67443">
        <ele>1222.93</ele>
        <time>2021-06-03T10:58:18Z</time>
      </trkpt>
      <trkpt lat="43.90327" lon="6.67442">
        <ele>1225.82</ele>
        <time>2021-06-03T10:58:19Z</time>
      </trkpt>
      <trkpt lat="43.90324" lon="6.67442">
        <ele>1223.9</ele>
        <time>2021-06-03T10:58:22Z</time>
      </trkpt>
      <trkpt lat="43.90317" lon="6.67441">
        <ele>1225.82</ele>
        <time>2021-06-03T10:58:28Z</time>
      </trkpt>
      <trkpt lat="43.90316" lon="6.67441">
        <ele>1221.49</ele>
        <time>2021-06-03T10:58:29Z</time>
      </trkpt>
      <trkpt lat="43.90315" lon="6.67441">
        <ele>1229.18</ele>
        <time>2021-06-03T10:58:30Z</time>
      </trkpt>
      <trkpt lat="43.90313" lon="6.67441">
        <ele>1223.42</ele>
        <time>2021-06-03T10:58:32Z</time>
      </trkpt>
      <trkpt lat="43.90312" lon="6.67441">
        <ele>1225.34</ele>
        <time>2021-06-03T10:58:33Z</time>
      </trkpt>
      <trkpt lat="43.90308" lon="6.67442">
        <ele>1219.57</ele>
        <time>2021-06-03T10:58:37Z</time>
      </trkpt>
      <trkpt lat="43.90307" lon="6.67442">
        <ele>1223.9</ele>
        <time>2021-06-03T10:58:38Z</time>
      </trkpt>
      <trkpt lat="43.90302" lon="6.67441">
        <ele>1229.66</ele>
        <time>2021-06-03T10:58:42Z</time>
      </trkpt>
      <trkpt lat="43.90302" lon="6.67441">
        <ele>1223.9</ele>
        <time>2021-06-03T10:58:43Z</time>
      </trkpt>
      <trkpt lat="43.90301" lon="6.67442">
        <ele>1230.62</ele>
        <time>2021-06-03T10:58:46Z</time>
      </trkpt>
      <trkpt lat="43.903" lon="6.67442">
        <ele>1222.93</ele>
        <time>2021-06-03T10:58:47Z</time>
      </trkpt>
      <trkpt lat="43.90298" lon="6.67442">
        <ele>1227.26</ele>
        <time>2021-06-03T10:58:49Z</time>
      </trkpt>
      <trkpt lat="43.90299" lon="6.67439">
        <ele>1221.97</ele>
        <time>2021-06-03T10:58:55Z</time>
      </trkpt>
      <trkpt lat="43.90299" lon="6.67438">
        <ele>1226.3</ele>
        <time>2021-06-03T10:58:56Z</time>
      </trkpt>
      <trkpt lat="43.90302" lon="6.67437">
        <ele>1225.34</ele>
        <time>2021-06-03T10:59:09Z</time>
      </trkpt>
      <trkpt lat="43.90304" lon="6.67435">
        <ele>1223.42</ele>
        <time>2021-06-03T10:59:11Z</time>
      </trkpt>
      <trkpt lat="43.90306" lon="6.67434">
        <ele>1230.14</ele>
        <time>2021-06-03T10:59:13Z</time>
      </trkpt>
      <trkpt lat="43.90306" lon="6.67434">
        <ele>1224.86</ele>
        <time>2021-06-03T10:59:14Z</time>
      </trkpt>
      <trkpt lat="43.90307" lon="6.67434">
        <ele>1224.86</ele>
        <time>2021-06-03T10:59:15Z</time>
      </trkpt>
      <trkpt lat="43.90308" lon="6.67433">
        <ele>1227.74</ele>
        <time>2021-06-03T10:59:16Z</time>
      </trkpt>
      <trkpt lat="43.90308" lon="6.6743">
        <ele>1224.38</ele>
        <time>2021-06-03T10:59:19Z</time>
      </trkpt>
      <trkpt lat="43.90307" lon="6.6743">
        <ele>1229.18</ele>
        <time>2021-06-03T10:59:20Z</time>
      </trkpt>
      <trkpt lat="43.90306" lon="6.6743">
        <ele>1228.7</ele>
        <time>2021-06-03T10:59:21Z</time>
      </trkpt>
      <trkpt lat="43.90304" lon="6.67433">
        <ele>1227.26</ele>
        <time>2021-06-03T10:59:29Z</time>
      </trkpt>
      <trkpt lat="43.90304" lon="6.67434">
        <ele>1225.82</ele>
        <time>2021-06-03T10:59:58Z</time>
      </trkpt>
      <trkpt lat="43.90301" lon="6.67435">
        <ele>1227.26</ele>
        <time>2021-06-03T11:00:31Z</time>
      </trkpt>
      <trkpt lat="43.90306" lon="6.67436">
        <ele>1227.74</ele>
        <time>2021-06-03T11:00:44Z</time>
      </trkpt>
      <trkpt lat="43.90304" lon="6.67434">
        <ele>1227.74</ele>
        <time>2021-06-03T11:01:15Z</time>
      </trkpt>
      <trkpt lat="43.90304" lon="6.67435">
        <ele>1221.49</ele>
        <time>2021-06-03T11:01:18Z</time>
      </trkpt>
      <trkpt lat="43.90305" lon="6.67435">
        <ele>1233.51</ele>
        <time>2021-06-03T11:01:19Z</time>
      </trkpt>
      <trkpt lat="43.90305" lon="6.67435">
        <ele>1229.66</ele>
        <time>2021-06-03T11:01:20Z</time>
      </trkpt>
      <trkpt lat="43.90307" lon="6.67436">
        <ele>1227.26</ele>
        <time>2021-06-03T11:01:22Z</time>
      </trkpt>
      <trkpt lat="43.90307" lon="6.67437">
        <ele>1229.18</ele>
        <time>2021-06-03T11:01:23Z</time>
      </trkpt>
      <trkpt lat="43.90303" lon="6.67439">
        <ele>1226.78</ele>
        <time>2021-06-03T11:01:29Z</time>
      </trkpt>
      <trkpt lat="43.90301" lon="6.67441">
        <ele>1225.34</ele>
        <time>2021-06-03T11:01:32Z</time>
      </trkpt>
      <trkpt lat="43.90299" lon="6.67442">
        <ele>1225.82</ele>
        <time>2021-06-03T11:01:34Z</time>
      </trkpt>
      <trkpt lat="43.90297" lon="6.67443">
        <ele>1224.86</ele>
        <time>2021-06-03T11:01:36Z</time>
      </trkpt>
      <trkpt lat="43.9029" lon="6.6745">
        <ele>1223.9</ele>
        <time>2021-06-03T11:01:44Z</time>
      </trkpt>
      <trkpt lat="43.90289" lon="6.67452">
        <ele>1227.26</ele>
        <time>2021-06-03T11:01:46Z</time>
      </trkpt>
      <trkpt lat="43.90287" lon="6.67454">
        <ele>1222.93</ele>
        <time>2021-06-03T11:01:48Z</time>
      </trkpt>
      <trkpt lat="43.90285" lon="6.67456">
        <ele>1226.78</ele>
        <time>2021-06-03T11:01:50Z</time>
      </trkpt>
      <trkpt lat="43.90283" lon="6.67458">
        <ele>1223.42</ele>
        <time>2021-06-03T11:01:52Z</time>
      </trkpt>
      <trkpt lat="43.90281" lon="6.67462">
        <ele>1225.34</ele>
        <time>2021-06-03T11:01:55Z</time>
      </trkpt>
      <trkpt lat="43.9028" lon="6.67464">
        <ele>1223.9</ele>
        <time>2021-06-03T11:01:57Z</time>
      </trkpt>
      <trkpt lat="43.9028" lon="6.67469">
        <ele>1222.45</ele>
        <time>2021-06-03T11:02:01Z</time>
      </trkpt>
      <trkpt lat="43.9028" lon="6.67471">
        <ele>1225.82</ele>
        <time>2021-06-03T11:02:03Z</time>
      </trkpt>
      <trkpt lat="43.90279" lon="6.67472">
        <ele>1221.97</ele>
        <time>2021-06-03T11:02:04Z</time>
      </trkpt>
      <trkpt lat="43.90278" lon="6.67476">
        <ele>1224.38</ele>
        <time>2021-06-03T11:02:07Z</time>
      </trkpt>
      <trkpt lat="43.90272" lon="6.67492">
        <ele>1222.93</ele>
        <time>2021-06-03T11:02:22Z</time>
      </trkpt>
      <trkpt lat="43.90271" lon="6.67493">
        <ele>1220.05</ele>
        <time>2021-06-03T11:02:23Z</time>
      </trkpt>
      <trkpt lat="43.90271" lon="6.67495">
        <ele>1223.42</ele>
        <time>2021-06-03T11:02:25Z</time>
      </trkpt>
      <trkpt lat="43.90271" lon="6.67496">
        <ele>1220.05</ele>
        <time>2021-06-03T11:02:26Z</time>
      </trkpt>
      <trkpt lat="43.90267" lon="6.67498">
        <ele>1221.01</ele>
        <time>2021-06-03T11:02:43Z</time>
      </trkpt>
      <trkpt lat="43.90268" lon="6.67498">
        <ele>1221.01</ele>
        <time>2021-06-03T11:03:07Z</time>
      </trkpt>
      <trkpt lat="43.90269" lon="6.675">
        <ele>1221.01</ele>
        <time>2021-06-03T11:03:26Z</time>
      </trkpt>
      <trkpt lat="43.9027" lon="6.67501">
        <ele>1221.01</ele>
        <time>2021-06-03T11:03:52Z</time>
      </trkpt>
      <trkpt lat="43.9027" lon="6.675">
        <ele>1221.01</ele>
        <time>2021-06-03T11:04:13Z</time>
      </trkpt>
      <trkpt lat="43.90269" lon="6.67501">
        <ele>1221.97</ele>
        <time>2021-06-03T11:04:31Z</time>
      </trkpt>
      <trkpt lat="43.90271" lon="6.67499">
        <ele>1222.45</ele>
        <time>2021-06-03T11:04:46Z</time>
      </trkpt>
      <trkpt lat="43.90271" lon="6.675">
        <ele>1210.44</ele>
        <time>2021-06-03T11:04:51Z</time>
      </trkpt>
      <trkpt lat="43.90271" lon="6.67499">
        <ele>1229.18</ele>
        <time>2021-06-03T11:04:52Z</time>
      </trkpt>
      <trkpt lat="43.9027" lon="6.67499">
        <ele>1222.93</ele>
        <time>2021-06-03T11:04:53Z</time>
      </trkpt>
      <trkpt lat="43.9027" lon="6.67499">
        <ele>1221.49</ele>
        <time>2021-06-03T11:04:55Z</time>
      </trkpt>
      <trkpt lat="43.90271" lon="6.67496">
        <ele>1221.49</ele>
        <time>2021-06-03T11:05:14Z</time>
      </trkpt>
      <trkpt lat="43.90273" lon="6.67497">
        <ele>1213.8</ele>
        <time>2021-06-03T11:05:28Z</time>
      </trkpt>
      <trkpt lat="43.90273" lon="6.67497">
        <ele>1221.01</ele>
        <time>2021-06-03T11:05:29Z</time>
      </trkpt>
      <trkpt lat="43.90272" lon="6.67498">
        <ele>1222.93</ele>
        <time>2021-06-03T11:05:45Z</time>
      </trkpt>
      <trkpt lat="43.90271" lon="6.67498">
        <ele>1221.01</ele>
        <time>2021-06-03T11:06:12Z</time>
      </trkpt>
      <trkpt lat="43.9027" lon="6.67499">
        <ele>1221.97</ele>
        <time>2021-06-03T11:06:38Z</time>
      </trkpt>
      <trkpt lat="43.90269" lon="6.67498">
        <ele>1221.97</ele>
        <time>2021-06-03T11:07:08Z</time>
      </trkpt>
      <trkpt lat="43.90271" lon="6.67498">
        <ele>1222.93</ele>
        <time>2021-06-03T11:07:35Z</time>
      </trkpt>
      <trkpt lat="43.90269" lon="6.67498">
        <ele>1221.49</ele>
        <time>2021-06-03T11:08:07Z</time>
      </trkpt>
      <trkpt lat="43.9027" lon="6.67496">
        <ele>1223.42</ele>
        <time>2021-06-03T11:08:33Z</time>
      </trkpt>
      <trkpt lat="43.9027" lon="6.67497">
        <ele>1219.57</ele>
        <time>2021-06-03T11:08:42Z</time>
      </trkpt>
      <trkpt lat="43.9027" lon="6.67497">
        <ele>1224.38</ele>
        <time>2021-06-03T11:08:43Z</time>
      </trkpt>
      <trkpt lat="43.9027" lon="6.67498">
        <ele>1220.05</ele>
        <time>2021-06-03T11:08:46Z</time>
      </trkpt>
      <trkpt lat="43.9027" lon="6.67497">
        <ele>1224.38</ele>
        <time>2021-06-03T11:08:47Z</time>
      </trkpt>
      <trkpt lat="43.9027" lon="6.67497">
        <ele>1221.01</ele>
        <time>2021-06-03T11:08:56Z</time>
      </trkpt>
      <trkpt lat="43.90269" lon="6.67498">
        <ele>1222.93</ele>
        <time>2021-06-03T11:09:12Z</time>
      </trkpt>
      <trkpt lat="43.90271" lon="6.67499">
        <ele>1220.53</ele>
        <time>2021-06-03T11:09:42Z</time>
      </trkpt>
      <trkpt lat="43.90271" lon="6.67499">
        <ele>1223.9</ele>
        <time>2021-06-03T11:09:43Z</time>
      </trkpt>
      <trkpt lat="43.90271" lon="6.675">
        <ele>1220.05</ele>
        <time>2021-06-03T11:10:01Z</time>
      </trkpt>
      <trkpt lat="43.90271" lon="6.675">
        <ele>1223.9</ele>
        <time>2021-06-03T11:10:02Z</time>
      </trkpt>
      <trkpt lat="43.9027" lon="6.675">
        <ele>1221.97</ele>
        <time>2021-06-03T11:10:05Z</time>
      </trkpt>
      <trkpt lat="43.90269" lon="6.67497">
        <ele>1222.45</ele>
        <time>2021-06-03T11:10:32Z</time>
      </trkpt>
      <trkpt lat="43.9027" lon="6.67498">
        <ele>1222.45</ele>
        <time>2021-06-03T11:10:59Z</time>
      </trkpt>
      <trkpt lat="43.90269" lon="6.67498">
        <ele>1222.93</ele>
        <time>2021-06-03T11:11:24Z</time>
      </trkpt>
      <trkpt lat="43.90272" lon="6.67498">
        <ele>1222.45</ele>
        <time>2021-06-03T11:11:58Z</time>
      </trkpt>
      <trkpt lat="43.9027" lon="6.67497">
        <ele>1223.9</ele>
        <time>2021-06-03T11:12:23Z</time>
      </trkpt>
      <trkpt lat="43.9027" lon="6.67498">
        <ele>1220.53</ele>
        <time>2021-06-03T11:12:32Z</time>
      </trkpt>
      <trkpt lat="43.90272" lon="6.67498">
        <ele>1224.38</ele>
        <time>2021-06-03T11:12:35Z</time>
      </trkpt>
      <trkpt lat="43.90272" lon="6.67497">
        <ele>1220.53</ele>
        <time>2021-06-03T11:12:36Z</time>
      </trkpt>
      <trkpt lat="43.9027" lon="6.67498">
        <ele>1223.9</ele>
        <time>2021-06-03T11:12:45Z</time>
      </trkpt>
      <trkpt lat="43.90269" lon="6.67498">
        <ele>1220.05</ele>
        <time>2021-06-03T11:12:56Z</time>
      </trkpt>
      <trkpt lat="43.90269" lon="6.67498">
        <ele>1222.93</ele>
        <time>2021-06-03T11:12:59Z</time>
      </trkpt>
      <trkpt lat="43.9027" lon="6.675">
        <ele>1222.45</ele>
        <time>2021-06-03T11:13:27Z</time>
      </trkpt>
      <trkpt lat="43.9027" lon="6.675">
        <ele>1221.97</ele>
        <time>2021-06-03T11:13:42Z</time>
      </trkpt>
      <trkpt lat="43.9027" lon="6.675">
        <ele>1222.93</ele>
        <time>2021-06-03T11:13:44Z</time>
      </trkpt>
      <trkpt lat="43.9027" lon="6.67499">
        <ele>1222.93</ele>
        <time>2021-06-03T11:14:09Z</time>
      </trkpt>
      <trkpt lat="43.90268" lon="6.675">
        <ele>1223.42</ele>
        <time>2021-06-03T11:14:37Z</time>
      </trkpt>
      <trkpt lat="43.90269" lon="6.675">
        <ele>1219.09</ele>
        <time>2021-06-03T11:14:41Z</time>
      </trkpt>
      <trkpt lat="43.90269" lon="6.675">
        <ele>1225.34</ele>
        <time>2021-06-03T11:14:42Z</time>
      </trkpt>
      <trkpt lat="43.90269" lon="6.675">
        <ele>1222.45</ele>
        <time>2021-06-03T11:14:47Z</time>
      </trkpt>
      <trkpt lat="43.90268" lon="6.67501">
        <ele>1222.93</ele>
        <time>2021-06-03T11:15:18Z</time>
      </trkpt>
      <trkpt lat="43.90272" lon="6.67501">
        <ele>1223.9</ele>
        <time>2021-06-03T11:15:47Z</time>
      </trkpt>
      <trkpt lat="43.90274" lon="6.675">
        <ele>1223.42</ele>
        <time>2021-06-03T11:16:14Z</time>
      </trkpt>
      <trkpt lat="43.90273" lon="6.67501">
        <ele>1223.42</ele>
        <time>2021-06-03T11:16:46Z</time>
      </trkpt>
      <trkpt lat="43.90272" lon="6.67501">
        <ele>1223.9</ele>
        <time>2021-06-03T11:17:11Z</time>
      </trkpt>
      <trkpt lat="43.90272" lon="6.675">
        <ele>1224.38</ele>
        <time>2021-06-03T11:17:41Z</time>
      </trkpt>
      <trkpt lat="43.90273" lon="6.67501">
        <ele>1223.9</ele>
        <time>2021-06-03T11:18:11Z</time>
      </trkpt>
      <trkpt lat="43.90272" lon="6.67499">
        <ele>1224.38</ele>
        <time>2021-06-03T11:18:37Z</time>
      </trkpt>
      <trkpt lat="43.90269" lon="6.67499">
        <ele>1219.57</ele>
        <time>2021-06-03T11:18:58Z</time>
      </trkpt>
      <trkpt lat="43.90269" lon="6.67499">
        <ele>1225.82</ele>
        <time>2021-06-03T11:18:59Z</time>
      </trkpt>
      <trkpt lat="43.9027" lon="6.67499">
        <ele>1224.38</ele>
        <time>2021-06-03T11:19:00Z</time>
      </trkpt>
      <trkpt lat="43.90271" lon="6.67499">
        <ele>1224.38</ele>
        <time>2021-06-03T11:19:27Z</time>
      </trkpt>
      <trkpt lat="43.90273" lon="6.675">
        <ele>1224.38</ele>
        <time>2021-06-03T11:19:58Z</time>
      </trkpt>
      <trkpt lat="43.9027" lon="6.67499">
        <ele>1224.86</ele>
        <time>2021-06-03T11:20:25Z</time>
      </trkpt>
      <trkpt lat="43.90271" lon="6.67498">
        <ele>1225.34</ele>
        <time>2021-06-03T11:20:56Z</time>
      </trkpt>
      <trkpt lat="43.90271" lon="6.67499">
        <ele>1224.86</ele>
        <time>2021-06-03T11:21:23Z</time>
      </trkpt>
      <trkpt lat="43.90272" lon="6.67498">
        <ele>1224.86</ele>
        <time>2021-06-03T11:21:51Z</time>
      </trkpt>
      <trkpt lat="43.9027" lon="6.67498">
        <ele>1224.86</ele>
        <time>2021-06-03T11:22:17Z</time>
      </trkpt>
      <trkpt lat="43.90271" lon="6.67497">
        <ele>1224.86</ele>
        <time>2021-06-03T11:22:43Z</time>
      </trkpt>
      <trkpt lat="43.90268" lon="6.67498">
        <ele>1224.86</ele>
        <time>2021-06-03T11:23:08Z</time>
      </trkpt>
      <trkpt lat="43.90267" lon="6.67498">
        <ele>1221.01</ele>
        <time>2021-06-03T11:23:26Z</time>
      </trkpt>
      <trkpt lat="43.90268" lon="6.67498">
        <ele>1225.82</ele>
        <time>2021-06-03T11:23:27Z</time>
      </trkpt>
      <trkpt lat="43.90272" lon="6.67498">
        <ele>1224.86</ele>
        <time>2021-06-03T11:23:52Z</time>
      </trkpt>
      <trkpt lat="43.90271" lon="6.67498">
        <ele>1224.86</ele>
        <time>2021-06-03T11:24:16Z</time>
      </trkpt>
      <trkpt lat="43.90273" lon="6.675">
        <ele>1224.38</ele>
        <time>2021-06-03T11:24:43Z</time>
      </trkpt>
      <trkpt lat="43.90268" lon="6.67499">
        <ele>1225.34</ele>
        <time>2021-06-03T11:25:16Z</time>
      </trkpt>
      <trkpt lat="43.90269" lon="6.67501">
        <ele>1224.86</ele>
        <time>2021-06-03T11:25:29Z</time>
      </trkpt>
      <trkpt lat="43.90271" lon="6.67499">
        <ele>1225.82</ele>
        <time>2021-06-03T11:25:56Z</time>
      </trkpt>
      <trkpt lat="43.9027" lon="6.67499">
        <ele>1225.82</ele>
        <time>2021-06-03T11:26:24Z</time>
      </trkpt>
      <trkpt lat="43.9027" lon="6.67498">
        <ele>1225.82</ele>
        <time>2021-06-03T11:26:30Z</time>
      </trkpt>
      <trkpt lat="43.90268" lon="6.67499">
        <ele>1222.45</ele>
        <time>2021-06-03T11:26:47Z</time>
      </trkpt>
      <trkpt lat="43.90268" lon="6.67499">
        <ele>1227.26</ele>
        <time>2021-06-03T11:26:48Z</time>
      </trkpt>
      <trkpt lat="43.90268" lon="6.67499">
        <ele>1225.34</ele>
        <time>2021-06-03T11:26:51Z</time>
      </trkpt>
      <trkpt lat="43.90268" lon="6.67498">
        <ele>1225.34</ele>
        <time>2021-06-03T11:27:17Z</time>
      </trkpt>
      <trkpt lat="43.90269" lon="6.67499">
        <ele>1225.34</ele>
        <time>2021-06-03T11:27:47Z</time>
      </trkpt>
      <trkpt lat="43.90268" lon="6.67498">
        <ele>1225.34</ele>
        <time>2021-06-03T11:28:11Z</time>
      </trkpt>
      <trkpt lat="43.90266" lon="6.67498">
        <ele>1225.34</ele>
        <time>2021-06-03T11:28:39Z</time>
      </trkpt>
      <trkpt lat="43.90268" lon="6.67497">
        <ele>1225.34</ele>
        <time>2021-06-03T11:29:06Z</time>
      </trkpt>
      <trkpt lat="43.9027" lon="6.67499">
        <ele>1225.34</ele>
        <time>2021-06-03T11:29:34Z</time>
      </trkpt>
      <trkpt lat="43.90271" lon="6.67497">
        <ele>1225.34</ele>
        <time>2021-06-03T11:29:53Z</time>
      </trkpt>
      <trkpt lat="43.90267" lon="6.67498">
        <ele>1224.86</ele>
        <time>2021-06-03T11:30:33Z</time>
      </trkpt>
      <trkpt lat="43.90269" lon="6.67499">
        <ele>1225.34</ele>
        <time>2021-06-03T11:31:04Z</time>
      </trkpt>
      <trkpt lat="43.90269" lon="6.67499">
        <ele>1224.86</ele>
        <time>2021-06-03T11:31:26Z</time>
      </trkpt>
      <trkpt lat="43.9027" lon="6.67498">
        <ele>1224.38</ele>
        <time>2021-06-03T11:31:44Z</time>
      </trkpt>
      <trkpt lat="43.90272" lon="6.67498">
        <ele>1224.86</ele>
        <time>2021-06-03T11:32:13Z</time>
      </trkpt>
      <trkpt lat="43.9027" lon="6.67497">
        <ele>1225.34</ele>
        <time>2021-06-03T11:32:44Z</time>
      </trkpt>
      <trkpt lat="43.90269" lon="6.67497">
        <ele>1225.34</ele>
        <time>2021-06-03T11:32:59Z</time>
      </trkpt>
      <trkpt lat="43.90269" lon="6.67497">
        <ele>1225.34</ele>
        <time>2021-06-03T11:33:20Z</time>
      </trkpt>
      <trkpt lat="43.90269" lon="6.67498">
        <ele>1225.34</ele>
        <time>2021-06-03T11:33:41Z</time>
      </trkpt>
      <trkpt lat="43.90269" lon="6.67498">
        <ele>1218.61</ele>
        <time>2021-06-03T11:33:49Z</time>
      </trkpt>
      <trkpt lat="43.90269" lon="6.67498">
        <ele>1233.99</ele>
        <time>2021-06-03T11:33:50Z</time>
      </trkpt>
      <trkpt lat="43.90269" lon="6.67498">
        <ele>1226.3</ele>
        <time>2021-06-03T11:33:51Z</time>
      </trkpt>
      <trkpt lat="43.90269" lon="6.67499">
        <ele>1225.82</ele>
        <time>2021-06-03T11:34:11Z</time>
      </trkpt>
      <trkpt lat="43.90268" lon="6.67497">
        <ele>1225.82</ele>
        <time>2021-06-03T11:34:27Z</time>
      </trkpt>
      <trkpt lat="43.90268" lon="6.67499">
        <ele>1225.34</ele>
        <time>2021-06-03T11:34:52Z</time>
      </trkpt>
      <trkpt lat="43.90275" lon="6.67501">
        <ele>1225.34</ele>
        <time>2021-06-03T11:35:07Z</time>
      </trkpt>
      <trkpt lat="43.90277" lon="6.67498">
        <ele>1225.34</ele>
        <time>2021-06-03T11:35:25Z</time>
      </trkpt>
      <trkpt lat="43.9028" lon="6.67498">
        <ele>1225.34</ele>
        <time>2021-06-03T11:35:51Z</time>
      </trkpt>
      <trkpt lat="43.90276" lon="6.67499">
        <ele>1224.86</ele>
        <time>2021-06-03T11:36:06Z</time>
      </trkpt>
      <trkpt lat="43.90271" lon="6.675">
        <ele>1225.82</ele>
        <time>2021-06-03T11:36:19Z</time>
      </trkpt>
      <trkpt lat="43.90272" lon="6.67498">
        <ele>1225.82</ele>
        <time>2021-06-03T11:36:39Z</time>
      </trkpt>
      <trkpt lat="43.90271" lon="6.67497">
        <ele>1225.34</ele>
        <time>2021-06-03T11:36:59Z</time>
      </trkpt>
      <trkpt lat="43.90272" lon="6.67502">
        <ele>1225.82</ele>
        <time>2021-06-03T11:37:17Z</time>
      </trkpt>
      <trkpt lat="43.90273" lon="6.675">
        <ele>1225.82</ele>
        <time>2021-06-03T11:37:32Z</time>
      </trkpt>
      <trkpt lat="43.90271" lon="6.675">
        <ele>1226.3</ele>
        <time>2021-06-03T11:38:06Z</time>
      </trkpt>
      <trkpt lat="43.90271" lon="6.67502">
        <ele>1226.3</ele>
        <time>2021-06-03T11:38:26Z</time>
      </trkpt>
      <trkpt lat="43.90269" lon="6.675">
        <ele>1226.3</ele>
        <time>2021-06-03T11:38:53Z</time>
      </trkpt>
      <trkpt lat="43.90269" lon="6.675">
        <ele>1225.82</ele>
        <time>2021-06-03T11:39:14Z</time>
      </trkpt>
      <trkpt lat="43.90269" lon="6.67502">
        <ele>1226.3</ele>
        <time>2021-06-03T11:39:31Z</time>
      </trkpt>
      <trkpt lat="43.90268" lon="6.67499">
        <ele>1225.82</ele>
        <time>2021-06-03T11:39:45Z</time>
      </trkpt>
      <trkpt lat="43.90269" lon="6.67494">
        <ele>1226.3</ele>
        <time>2021-06-03T11:40:10Z</time>
      </trkpt>
      <trkpt lat="43.90266" lon="6.67496">
        <ele>1225.82</ele>
        <time>2021-06-03T11:40:25Z</time>
      </trkpt>
      <trkpt lat="43.90269" lon="6.67501">
        <ele>1226.78</ele>
        <time>2021-06-03T11:40:40Z</time>
      </trkpt>
      <trkpt lat="43.90271" lon="6.67497">
        <ele>1226.3</ele>
        <time>2021-06-03T11:40:55Z</time>
      </trkpt>
      <trkpt lat="43.90271" lon="6.67497">
        <ele>1226.3</ele>
        <time>2021-06-03T11:40:56Z</time>
      </trkpt>
      <trkpt lat="43.90273" lon="6.675">
        <ele>1225.82</ele>
        <time>2021-06-03T11:41:13Z</time>
      </trkpt>
      <trkpt lat="43.90273" lon="6.67497">
        <ele>1226.78</ele>
        <time>2021-06-03T11:41:24Z</time>
      </trkpt>
      <trkpt lat="43.90272" lon="6.675">
        <ele>1226.3</ele>
        <time>2021-06-03T11:41:44Z</time>
      </trkpt>
      <trkpt lat="43.9027" lon="6.67496">
        <ele>1226.3</ele>
        <time>2021-06-03T11:41:58Z</time>
      </trkpt>
      <trkpt lat="43.90269" lon="6.675">
        <ele>1226.3</ele>
        <time>2021-06-03T11:42:14Z</time>
      </trkpt>
      <trkpt lat="43.90268" lon="6.67502">
        <ele>1225.82</ele>
        <time>2021-06-03T11:42:36Z</time>
      </trkpt>
      <trkpt lat="43.90268" lon="6.67501">
        <ele>1226.78</ele>
        <time>2021-06-03T11:42:56Z</time>
      </trkpt>
      <trkpt lat="43.90269" lon="6.67501">
        <ele>1226.3</ele>
        <time>2021-06-03T11:43:24Z</time>
      </trkpt>
      <trkpt lat="43.90277" lon="6.67501">
        <ele>1226.3</ele>
        <time>2021-06-03T11:43:39Z</time>
      </trkpt>
      <trkpt lat="43.9028" lon="6.67501">
        <ele>1226.3</ele>
        <time>2021-06-03T11:43:56Z</time>
      </trkpt>
      <trkpt lat="43.90278" lon="6.675">
        <ele>1226.3</ele>
        <time>2021-06-03T11:44:10Z</time>
      </trkpt>
      <trkpt lat="43.90273" lon="6.675">
        <ele>1225.34</ele>
        <time>2021-06-03T11:44:28Z</time>
      </trkpt>
      <trkpt lat="43.9027" lon="6.67498">
        <ele>1225.34</ele>
        <time>2021-06-03T11:44:50Z</time>
      </trkpt>
      <trkpt lat="43.90272" lon="6.67499">
        <ele>1225.82</ele>
        <time>2021-06-03T11:45:10Z</time>
      </trkpt>
      <trkpt lat="43.90274" lon="6.67501">
        <ele>1226.78</ele>
        <time>2021-06-03T11:45:23Z</time>
      </trkpt>
      <trkpt lat="43.90276" lon="6.67501">
        <ele>1225.82</ele>
        <time>2021-06-03T11:45:43Z</time>
      </trkpt>
      <trkpt lat="43.90272" lon="6.67499">
        <ele>1225.82</ele>
        <time>2021-06-03T11:45:57Z</time>
      </trkpt>
      <trkpt lat="43.90271" lon="6.67497">
        <ele>1225.82</ele>
        <time>2021-06-03T11:46:27Z</time>
      </trkpt>
      <trkpt lat="43.9027" lon="6.67498">
        <ele>1225.34</ele>
        <time>2021-06-03T11:46:45Z</time>
      </trkpt>
      <trkpt lat="43.90273" lon="6.67498">
        <ele>1225.82</ele>
        <time>2021-06-03T11:47:09Z</time>
      </trkpt>
      <trkpt lat="43.9027" lon="6.67499">
        <ele>1225.34</ele>
        <time>2021-06-03T11:47:33Z</time>
      </trkpt>
      <trkpt lat="43.90271" lon="6.675">
        <ele>1225.82</ele>
        <time>2021-06-03T11:48:02Z</time>
      </trkpt>
      <trkpt lat="43.9027" lon="6.67501">
        <ele>1225.34</ele>
        <time>2021-06-03T11:48:23Z</time>
      </trkpt>
      <trkpt lat="43.9027" lon="6.675">
        <ele>1224.86</ele>
        <time>2021-06-03T11:48:42Z</time>
      </trkpt>
      <trkpt lat="43.90267" lon="6.67501">
        <ele>1225.34</ele>
        <time>2021-06-03T11:48:59Z</time>
      </trkpt>
      <trkpt lat="43.90265" lon="6.67498">
        <ele>1225.34</ele>
        <time>2021-06-03T11:49:27Z</time>
      </trkpt>
      <trkpt lat="43.90268" lon="6.675">
        <ele>1225.34</ele>
        <time>2021-06-03T11:49:44Z</time>
      </trkpt>
      <trkpt lat="43.90263" lon="6.675">
        <ele>1225.82</ele>
        <time>2021-06-03T11:50:04Z</time>
      </trkpt>
      <trkpt lat="43.90262" lon="6.67509">
        <ele>1224.38</ele>
        <time>2021-06-03T11:50:20Z</time>
      </trkpt>
      <trkpt lat="43.90259" lon="6.67524">
        <ele>1222.93</ele>
        <time>2021-06-03T11:50:34Z</time>
      </trkpt>
      <trkpt lat="43.90254" lon="6.67531">
        <ele>1222.93</ele>
        <time>2021-06-03T11:50:45Z</time>
      </trkpt>
      <trkpt lat="43.90252" lon="6.6754">
        <ele>1221.49</ele>
        <time>2021-06-03T11:50:59Z</time>
      </trkpt>
      <trkpt lat="43.90255" lon="6.67543">
        <ele>1221.49</ele>
        <time>2021-06-03T11:51:11Z</time>
      </trkpt>
      <trkpt lat="43.90256" lon="6.67537">
        <ele>1222.45</ele>
        <time>2021-06-03T11:51:23Z</time>
      </trkpt>
      <trkpt lat="43.90258" lon="6.67537">
        <ele>1221.97</ele>
        <time>2021-06-03T11:51:43Z</time>
      </trkpt>
      <trkpt lat="43.90257" lon="6.67535">
        <ele>1221.49</ele>
        <time>2021-06-03T11:52:05Z</time>
      </trkpt>
      <trkpt lat="43.90264" lon="6.67544">
        <ele>1221.97</ele>
        <time>2021-06-03T11:52:29Z</time>
      </trkpt>
      <trkpt lat="43.9027" lon="6.67543">
        <ele>1221.49</ele>
        <time>2021-06-03T11:52:48Z</time>
      </trkpt>
      <trkpt lat="43.90266" lon="6.6754">
        <ele>1222.45</ele>
        <time>2021-06-03T11:53:10Z</time>
      </trkpt>
      <trkpt lat="43.90264" lon="6.67543">
        <ele>1222.45</ele>
        <time>2021-06-03T11:53:35Z</time>
      </trkpt>
      <trkpt lat="43.90263" lon="6.67539">
        <ele>1222.45</ele>
        <time>2021-06-03T11:53:55Z</time>
      </trkpt>
      <trkpt lat="43.90257" lon="6.67531">
        <ele>1221.49</ele>
        <time>2021-06-03T11:54:19Z</time>
      </trkpt>
      <trkpt lat="43.90257" lon="6.67529">
        <ele>1221.49</ele>
        <time>2021-06-03T11:54:22Z</time>
      </trkpt>
      <trkpt lat="43.90254" lon="6.67538">
        <ele>1222.93</ele>
        <time>2021-06-03T11:54:41Z</time>
      </trkpt>
      <trkpt lat="43.90256" lon="6.67536">
        <ele>1222.45</ele>
        <time>2021-06-03T11:55:02Z</time>
      </trkpt>
      <trkpt lat="43.90255" lon="6.67536">
        <ele>1221.97</ele>
        <time>2021-06-03T11:55:25Z</time>
      </trkpt>
      <trkpt lat="43.90255" lon="6.67538">
        <ele>1222.45</ele>
        <time>2021-06-03T11:56:01Z</time>
      </trkpt>
      <trkpt lat="43.9025" lon="6.67537">
        <ele>1222.45</ele>
        <time>2021-06-03T11:56:33Z</time>
      </trkpt>
      <trkpt lat="43.90246" lon="6.67535">
        <ele>1222.93</ele>
        <time>2021-06-03T11:57:10Z</time>
      </trkpt>
      <trkpt lat="43.90243" lon="6.67528">
        <ele>1222.93</ele>
        <time>2021-06-03T11:57:34Z</time>
      </trkpt>
      <trkpt lat="43.90248" lon="6.67531">
        <ele>1224.38</ele>
        <time>2021-06-03T11:58:00Z</time>
      </trkpt>
      <trkpt lat="43.9025" lon="6.67533">
        <ele>1223.9</ele>
        <time>2021-06-03T11:58:22Z</time>
      </trkpt>
      <trkpt lat="43.90248" lon="6.67524">
        <ele>1223.9</ele>
        <time>2021-06-03T11:58:41Z</time>
      </trkpt>
      <trkpt lat="43.90247" lon="6.67529">
        <ele>1223.9</ele>
        <time>2021-06-03T11:59:01Z</time>
      </trkpt>
      <trkpt lat="43.90253" lon="6.67537">
        <ele>1223.9</ele>
        <time>2021-06-03T11:59:22Z</time>
      </trkpt>
      <trkpt lat="43.90251" lon="6.6754">
        <ele>1223.9</ele>
        <time>2021-06-03T11:59:47Z</time>
      </trkpt>
      <trkpt lat="43.90254" lon="6.67535">
        <ele>1224.38</ele>
        <time>2021-06-03T12:00:11Z</time>
      </trkpt>
      <trkpt lat="43.90248" lon="6.67537">
        <ele>1223.9</ele>
        <time>2021-06-03T12:00:33Z</time>
      </trkpt>
      <trkpt lat="43.90251" lon="6.67541">
        <ele>1223.9</ele>
        <time>2021-06-03T12:00:48Z</time>
      </trkpt>
      <trkpt lat="43.90254" lon="6.67544">
        <ele>1223.9</ele>
        <time>2021-06-03T12:01:10Z</time>
      </trkpt>
      <trkpt lat="43.90254" lon="6.67539">
        <ele>1224.38</ele>
        <time>2021-06-03T12:01:44Z</time>
      </trkpt>
      <trkpt lat="43.90257" lon="6.6754">
        <ele>1223.42</ele>
        <time>2021-06-03T12:02:11Z</time>
      </trkpt>
      <trkpt lat="43.90255" lon="6.6754">
        <ele>1223.9</ele>
        <time>2021-06-03T12:02:27Z</time>
      </trkpt>
      <trkpt lat="43.90257" lon="6.67544">
        <ele>1224.38</ele>
        <time>2021-06-03T12:02:52Z</time>
      </trkpt>
      <trkpt lat="43.9026" lon="6.67541">
        <ele>1223.42</ele>
        <time>2021-06-03T12:03:08Z</time>
      </trkpt>
      <trkpt lat="43.90256" lon="6.6754">
        <ele>1223.9</ele>
        <time>2021-06-03T12:03:22Z</time>
      </trkpt>
      <trkpt lat="43.90259" lon="6.67541">
        <ele>1223.9</ele>
        <time>2021-06-03T12:03:49Z</time>
      </trkpt>
      <trkpt lat="43.90245" lon="6.67524">
        <ele>1224.38</ele>
        <time>2021-06-03T12:04:14Z</time>
      </trkpt>
      <trkpt lat="43.90243" lon="6.67527">
        <ele>1223.9</ele>
        <time>2021-06-03T12:04:39Z</time>
      </trkpt>
      <trkpt lat="43.90254" lon="6.67538">
        <ele>1224.38</ele>
        <time>2021-06-03T12:05:08Z</time>
      </trkpt>
      <trkpt lat="43.90256" lon="6.67538">
        <ele>1223.9</ele>
        <time>2021-06-03T12:05:39Z</time>
      </trkpt>
      <trkpt lat="43.90255" lon="6.67544">
        <ele>1223.42</ele>
        <time>2021-06-03T12:06:06Z</time>
      </trkpt>
      <trkpt lat="43.9025" lon="6.67554">
        <ele>1222.93</ele>
        <time>2021-06-03T12:06:19Z</time>
      </trkpt>
      <trkpt lat="43.90246" lon="6.67563">
        <ele>1220.53</ele>
        <time>2021-06-03T12:06:36Z</time>
      </trkpt>
      <trkpt lat="43.90243" lon="6.67573">
        <ele>1218.61</ele>
        <time>2021-06-03T12:06:49Z</time>
      </trkpt>
      <trkpt lat="43.90238" lon="6.67575">
        <ele>1217.17</ele>
        <time>2021-06-03T12:07:01Z</time>
      </trkpt>
      <trkpt lat="43.90233" lon="6.67573">
        <ele>1216.69</ele>
        <time>2021-06-03T12:07:14Z</time>
      </trkpt>
      <trkpt lat="43.90221" lon="6.67568">
        <ele>1213.8</ele>
        <time>2021-06-03T12:07:28Z</time>
      </trkpt>
      <trkpt lat="43.90213" lon="6.67547">
        <ele>1212.84</ele>
        <time>2021-06-03T12:07:45Z</time>
      </trkpt>
      <trkpt lat="43.9021" lon="6.67539">
        <ele>1211.4</ele>
        <time>2021-06-03T12:07:51Z</time>
      </trkpt>
      <trkpt lat="43.90206" lon="6.67524">
        <ele>1210.44</ele>
        <time>2021-06-03T12:08:02Z</time>
      </trkpt>
      <trkpt lat="43.90206" lon="6.67521">
        <ele>1210.44</ele>
        <time>2021-06-03T12:08:04Z</time>
      </trkpt>
      <trkpt lat="43.90204" lon="6.67497">
        <ele>1209</ele>
        <time>2021-06-03T12:08:20Z</time>
      </trkpt>
      <trkpt lat="43.90203" lon="6.67472">
        <ele>1209</ele>
        <time>2021-06-03T12:08:36Z</time>
      </trkpt>
      <trkpt lat="43.90202" lon="6.6747">
        <ele>1208.51</ele>
        <time>2021-06-03T12:08:37Z</time>
      </trkpt>
      <trkpt lat="43.90196" lon="6.67447">
        <ele>1207.55</ele>
        <time>2021-06-03T12:08:53Z</time>
      </trkpt>
      <trkpt lat="43.90186" lon="6.67434">
        <ele>1208.51</ele>
        <time>2021-06-03T12:09:09Z</time>
      </trkpt>
      <trkpt lat="43.90184" lon="6.67432">
        <ele>1208.03</ele>
        <time>2021-06-03T12:09:12Z</time>
      </trkpt>
      <trkpt lat="43.90165" lon="6.67419">
        <ele>1208.51</ele>
        <time>2021-06-03T12:09:28Z</time>
      </trkpt>
      <trkpt lat="43.90152" lon="6.67408">
        <ele>1209.48</ele>
        <time>2021-06-03T12:09:43Z</time>
      </trkpt>
      <trkpt lat="43.90143" lon="6.67402">
        <ele>1209.96</ele>
        <time>2021-06-03T12:09:58Z</time>
      </trkpt>
      <trkpt lat="43.9013" lon="6.67397">
        <ele>1209.48</ele>
        <time>2021-06-03T12:10:11Z</time>
      </trkpt>
      <trkpt lat="43.9012" lon="6.67392">
        <ele>1209.48</ele>
        <time>2021-06-03T12:10:22Z</time>
      </trkpt>
      <trkpt lat="43.90107" lon="6.67385">
        <ele>1207.07</ele>
        <time>2021-06-03T12:10:36Z</time>
      </trkpt>
      <trkpt lat="43.90095" lon="6.67376">
        <ele>1205.15</ele>
        <time>2021-06-03T12:10:49Z</time>
      </trkpt>
      <trkpt lat="43.90093" lon="6.67375">
        <ele>1204.19</ele>
        <time>2021-06-03T12:10:51Z</time>
      </trkpt>
      <trkpt lat="43.90082" lon="6.67372">
        <ele>1202.27</ele>
        <time>2021-06-03T12:11:04Z</time>
      </trkpt>
      <trkpt lat="43.90072" lon="6.67367">
        <ele>1200.34</ele>
        <time>2021-06-03T12:11:18Z</time>
      </trkpt>
      <trkpt lat="43.90065" lon="6.67364">
        <ele>1199.38</ele>
        <time>2021-06-03T12:11:31Z</time>
      </trkpt>
      <trkpt lat="43.90054" lon="6.67363">
        <ele>1196.98</ele>
        <time>2021-06-03T12:11:46Z</time>
      </trkpt>
      <trkpt lat="43.90045" lon="6.67362">
        <ele>1194.58</ele>
        <time>2021-06-03T12:12:00Z</time>
      </trkpt>
      <trkpt lat="43.90038" lon="6.67361">
        <ele>1191.69</ele>
        <time>2021-06-03T12:12:14Z</time>
      </trkpt>
      <trkpt lat="43.90036" lon="6.67346">
        <ele>1189.29</ele>
        <time>2021-06-03T12:12:30Z</time>
      </trkpt>
      <trkpt lat="43.9003" lon="6.67352">
        <ele>1186.4</ele>
        <time>2021-06-03T12:12:43Z</time>
      </trkpt>
      <trkpt lat="43.90027" lon="6.67345">
        <ele>1184.96</ele>
        <time>2021-06-03T12:12:55Z</time>
      </trkpt>
      <trkpt lat="43.90021" lon="6.67354">
        <ele>1182.56</ele>
        <time>2021-06-03T12:13:07Z</time>
      </trkpt>
      <trkpt lat="43.90016" lon="6.67365">
        <ele>1179.67</ele>
        <time>2021-06-03T12:13:20Z</time>
      </trkpt>
      <trkpt lat="43.90011" lon="6.67372">
        <ele>1177.75</ele>
        <time>2021-06-03T12:13:33Z</time>
      </trkpt>
      <trkpt lat="43.90008" lon="6.67371">
        <ele>1176.79</ele>
        <time>2021-06-03T12:13:46Z</time>
      </trkpt>
      <trkpt lat="43.90003" lon="6.67376">
        <ele>1175.83</ele>
        <time>2021-06-03T12:14:00Z</time>
      </trkpt>
      <trkpt lat="43.89996" lon="6.67386">
        <ele>1174.87</ele>
        <time>2021-06-03T12:14:15Z</time>
      </trkpt>
      <trkpt lat="43.89992" lon="6.67394">
        <ele>1172.47</ele>
        <time>2021-06-03T12:14:27Z</time>
      </trkpt>
      <trkpt lat="43.89989" lon="6.674">
        <ele>1171.5</ele>
        <time>2021-06-03T12:14:38Z</time>
      </trkpt>
      <trkpt lat="43.89977" lon="6.67402">
        <ele>1169.58</ele>
        <time>2021-06-03T12:14:53Z</time>
      </trkpt>
      <trkpt lat="43.89976" lon="6.67402">
        <ele>1169.58</ele>
        <time>2021-06-03T12:14:54Z</time>
      </trkpt>
      <trkpt lat="43.89966" lon="6.67405">
        <ele>1168.62</ele>
        <time>2021-06-03T12:15:03Z</time>
      </trkpt>
      <trkpt lat="43.89957" lon="6.67409">
        <ele>1169.58</ele>
        <time>2021-06-03T12:15:18Z</time>
      </trkpt>
      <trkpt lat="43.89953" lon="6.6742">
        <ele>1170.06</ele>
        <time>2021-06-03T12:15:31Z</time>
      </trkpt>
      <trkpt lat="43.89953" lon="6.6742">
        <ele>1170.06</ele>
        <time>2021-06-03T12:15:52Z</time>
      </trkpt>
      <trkpt lat="43.89953" lon="6.67421">
        <ele>1169.58</ele>
        <time>2021-06-03T12:16:19Z</time>
      </trkpt>
      <trkpt lat="43.89954" lon="6.67418">
        <ele>1169.58</ele>
        <time>2021-06-03T12:16:45Z</time>
      </trkpt>
      <trkpt lat="43.89953" lon="6.67426">
        <ele>1170.54</ele>
        <time>2021-06-03T12:17:04Z</time>
      </trkpt>
      <trkpt lat="43.8996" lon="6.67436">
        <ele>1170.54</ele>
        <time>2021-06-03T12:17:17Z</time>
      </trkpt>
      <trkpt lat="43.89961" lon="6.67447">
        <ele>1171.98</ele>
        <time>2021-06-03T12:17:28Z</time>
      </trkpt>
      <trkpt lat="43.89961" lon="6.67459">
        <ele>1175.35</ele>
        <time>2021-06-03T12:17:40Z</time>
      </trkpt>
      <trkpt lat="43.89962" lon="6.67471">
        <ele>1175.83</ele>
        <time>2021-06-03T12:17:53Z</time>
      </trkpt>
      <trkpt lat="43.8996" lon="6.67484">
        <ele>1176.79</ele>
        <time>2021-06-03T12:18:06Z</time>
      </trkpt>
      <trkpt lat="43.89956" lon="6.6749">
        <ele>1177.27</ele>
        <time>2021-06-03T12:18:22Z</time>
      </trkpt>
      <trkpt lat="43.89957" lon="6.67492">
        <ele>1177.75</ele>
        <time>2021-06-03T12:18:45Z</time>
      </trkpt>
      <trkpt lat="43.89957" lon="6.67488">
        <ele>1177.27</ele>
        <time>2021-06-03T12:19:05Z</time>
      </trkpt>
      <trkpt lat="43.89956" lon="6.67491">
        <ele>1177.27</ele>
        <time>2021-06-03T12:19:28Z</time>
      </trkpt>
      <trkpt lat="43.89954" lon="6.675">
        <ele>1179.67</ele>
        <time>2021-06-03T12:19:41Z</time>
      </trkpt>
      <trkpt lat="43.89946" lon="6.67506">
        <ele>1181.12</ele>
        <time>2021-06-03T12:19:56Z</time>
      </trkpt>
      <trkpt lat="43.89937" lon="6.67508">
        <ele>1183.04</ele>
        <time>2021-06-03T12:20:10Z</time>
      </trkpt>
      <trkpt lat="43.89931" lon="6.67505">
        <ele>1185.44</ele>
        <time>2021-06-03T12:20:20Z</time>
      </trkpt>
      <trkpt lat="43.89931" lon="6.67513">
        <ele>1187.37</ele>
        <time>2021-06-03T12:20:32Z</time>
      </trkpt>
      <trkpt lat="43.89932" lon="6.67516">
        <ele>1186.88</ele>
        <time>2021-06-03T12:20:35Z</time>
      </trkpt>
      <trkpt lat="43.89935" lon="6.67523">
        <ele>1188.33</ele>
        <time>2021-06-03T12:20:49Z</time>
      </trkpt>
      <trkpt lat="43.89938" lon="6.67525">
        <ele>1188.33</ele>
        <time>2021-06-03T12:21:05Z</time>
      </trkpt>
      <trkpt lat="43.8994" lon="6.67522">
        <ele>1188.81</ele>
        <time>2021-06-03T12:21:32Z</time>
      </trkpt>
      <trkpt lat="43.89934" lon="6.6752">
        <ele>1188.81</ele>
        <time>2021-06-03T12:21:54Z</time>
      </trkpt>
      <trkpt lat="43.89937" lon="6.67528">
        <ele>1189.29</ele>
        <time>2021-06-03T12:22:10Z</time>
      </trkpt>
      <trkpt lat="43.89941" lon="6.67541">
        <ele>1191.69</ele>
        <time>2021-06-03T12:22:22Z</time>
      </trkpt>
      <trkpt lat="43.89942" lon="6.67547">
        <ele>1190.73</ele>
        <time>2021-06-03T12:22:29Z</time>
      </trkpt>
      <trkpt lat="43.89946" lon="6.67557">
        <ele>1194.09</ele>
        <time>2021-06-03T12:22:40Z</time>
      </trkpt>
      <trkpt lat="43.8995" lon="6.67563">
        <ele>1194.09</ele>
        <time>2021-06-03T12:22:53Z</time>
      </trkpt>
      <trkpt lat="43.89946" lon="6.6757">
        <ele>1196.98</ele>
        <time>2021-06-03T12:23:06Z</time>
      </trkpt>
      <trkpt lat="43.89945" lon="6.6758">
        <ele>1196.98</ele>
        <time>2021-06-03T12:23:18Z</time>
      </trkpt>
      <trkpt lat="43.89943" lon="6.67582">
        <ele>1199.86</ele>
        <time>2021-06-03T12:23:22Z</time>
      </trkpt>
      <trkpt lat="43.89942" lon="6.67586">
        <ele>1199.38</ele>
        <time>2021-06-03T12:23:26Z</time>
      </trkpt>
      <trkpt lat="43.8994" lon="6.67594">
        <ele>1199.86</ele>
        <time>2021-06-03T12:23:33Z</time>
      </trkpt>
      <trkpt lat="43.89934" lon="6.67593">
        <ele>1202.75</ele>
        <time>2021-06-03T12:23:42Z</time>
      </trkpt>
      <trkpt lat="43.89927" lon="6.67597">
        <ele>1202.75</ele>
        <time>2021-06-03T12:23:54Z</time>
      </trkpt>
      <trkpt lat="43.89922" lon="6.67607">
        <ele>1206.11</ele>
        <time>2021-06-03T12:24:06Z</time>
      </trkpt>
      <trkpt lat="43.89916" lon="6.67617">
        <ele>1206.11</ele>
        <time>2021-06-03T12:24:18Z</time>
      </trkpt>
      <trkpt lat="43.89909" lon="6.6762">
        <ele>1209.48</ele>
        <time>2021-06-03T12:24:27Z</time>
      </trkpt>
      <trkpt lat="43.89905" lon="6.67623">
        <ele>1209</ele>
        <time>2021-06-03T12:24:35Z</time>
      </trkpt>
      <trkpt lat="43.89897" lon="6.67629">
        <ele>1210.44</ele>
        <time>2021-06-03T12:24:46Z</time>
      </trkpt>
      <trkpt lat="43.8989" lon="6.67629">
        <ele>1213.32</ele>
        <time>2021-06-03T12:24:55Z</time>
      </trkpt>
      <trkpt lat="43.89881" lon="6.6763">
        <ele>1212.84</ele>
        <time>2021-06-03T12:25:07Z</time>
      </trkpt>
      <trkpt lat="43.8987" lon="6.6763">
        <ele>1213.32</ele>
        <time>2021-06-03T12:25:20Z</time>
      </trkpt>
      <trkpt lat="43.89863" lon="6.67628">
        <ele>1215.72</ele>
        <time>2021-06-03T12:25:32Z</time>
      </trkpt>
      <trkpt lat="43.89853" lon="6.67628">
        <ele>1217.17</ele>
        <time>2021-06-03T12:25:45Z</time>
      </trkpt>
      <trkpt lat="43.89845" lon="6.67631">
        <ele>1217.65</ele>
        <time>2021-06-03T12:25:54Z</time>
      </trkpt>
      <trkpt lat="43.89837" lon="6.67632">
        <ele>1220.53</ele>
        <time>2021-06-03T12:26:07Z</time>
      </trkpt>
      <trkpt lat="43.89831" lon="6.67641">
        <ele>1220.05</ele>
        <time>2021-06-03T12:26:19Z</time>
      </trkpt>
      <trkpt lat="43.8983" lon="6.67643">
        <ele>1222.45</ele>
        <time>2021-06-03T12:26:21Z</time>
      </trkpt>
      <trkpt lat="43.89824" lon="6.67653">
        <ele>1222.93</ele>
        <time>2021-06-03T12:26:34Z</time>
      </trkpt>
      <trkpt lat="43.89819" lon="6.67659">
        <ele>1223.42</ele>
        <time>2021-06-03T12:26:49Z</time>
      </trkpt>
      <trkpt lat="43.89822" lon="6.67662">
        <ele>1222.93</ele>
        <time>2021-06-03T12:27:04Z</time>
      </trkpt>
      <trkpt lat="43.89821" lon="6.67657">
        <ele>1222.93</ele>
        <time>2021-06-03T12:27:26Z</time>
      </trkpt>
      <trkpt lat="43.89818" lon="6.67655">
        <ele>1223.42</ele>
        <time>2021-06-03T12:27:43Z</time>
      </trkpt>
      <trkpt lat="43.89817" lon="6.67654">
        <ele>1222.93</ele>
        <time>2021-06-03T12:28:12Z</time>
      </trkpt>
      <trkpt lat="43.89817" lon="6.67658">
        <ele>1223.9</ele>
        <time>2021-06-03T12:28:25Z</time>
      </trkpt>
      <trkpt lat="43.89814" lon="6.67662">
        <ele>1225.82</ele>
        <time>2021-06-03T12:28:44Z</time>
      </trkpt>
      <trkpt lat="43.89808" lon="6.67671">
        <ele>1227.74</ele>
        <time>2021-06-03T12:28:58Z</time>
      </trkpt>
      <trkpt lat="43.898" lon="6.67677">
        <ele>1228.7</ele>
        <time>2021-06-03T12:29:12Z</time>
      </trkpt>
      <trkpt lat="43.89795" lon="6.67688">
        <ele>1231.11</ele>
        <time>2021-06-03T12:29:25Z</time>
      </trkpt>
      <trkpt lat="43.89788" lon="6.677">
        <ele>1230.62</ele>
        <time>2021-06-03T12:29:40Z</time>
      </trkpt>
      <trkpt lat="43.89785" lon="6.67704">
        <ele>1233.51</ele>
        <time>2021-06-03T12:29:47Z</time>
      </trkpt>
      <trkpt lat="43.89781" lon="6.67713">
        <ele>1233.99</ele>
        <time>2021-06-03T12:30:01Z</time>
      </trkpt>
      <trkpt lat="43.89771" lon="6.67713">
        <ele>1235.43</ele>
        <time>2021-06-03T12:30:16Z</time>
      </trkpt>
      <trkpt lat="43.89765" lon="6.67715">
        <ele>1237.83</ele>
        <time>2021-06-03T12:30:25Z</time>
      </trkpt>
      <trkpt lat="43.89755" lon="6.67712">
        <ele>1237.35</ele>
        <time>2021-06-03T12:30:37Z</time>
      </trkpt>
      <trkpt lat="43.89749" lon="6.67711">
        <ele>1237.35</ele>
        <time>2021-06-03T12:30:50Z</time>
      </trkpt>
      <trkpt lat="43.89747" lon="6.67713">
        <ele>1237.35</ele>
        <time>2021-06-03T12:31:10Z</time>
      </trkpt>
      <trkpt lat="43.89742" lon="6.6772">
        <ele>1237.83</ele>
        <time>2021-06-03T12:31:19Z</time>
      </trkpt>
      <trkpt lat="43.89739" lon="6.67724">
        <ele>1239.28</ele>
        <time>2021-06-03T12:31:28Z</time>
      </trkpt>
      <trkpt lat="43.89731" lon="6.67719">
        <ele>1240.24</ele>
        <time>2021-06-03T12:31:40Z</time>
      </trkpt>
      <trkpt lat="43.89721" lon="6.67714">
        <ele>1241.2</ele>
        <time>2021-06-03T12:31:56Z</time>
      </trkpt>
      <trkpt lat="43.89719" lon="6.67713">
        <ele>1241.2</ele>
        <time>2021-06-03T12:32:00Z</time>
      </trkpt>
      <trkpt lat="43.89717" lon="6.67713">
        <ele>1244.08</ele>
        <time>2021-06-03T12:32:02Z</time>
      </trkpt>
      <trkpt lat="43.89703" lon="6.6771">
        <ele>1243.6</ele>
        <time>2021-06-03T12:32:16Z</time>
      </trkpt>
      <trkpt lat="43.89694" lon="6.67714">
        <ele>1242.64</ele>
        <time>2021-06-03T12:32:27Z</time>
      </trkpt>
      <trkpt lat="43.89684" lon="6.67713">
        <ele>1243.6</ele>
        <time>2021-06-03T12:32:39Z</time>
      </trkpt>
      <trkpt lat="43.89678" lon="6.6771">
        <ele>1243.12</ele>
        <time>2021-06-03T12:32:52Z</time>
      </trkpt>
      <trkpt lat="43.89677" lon="6.67707">
        <ele>1242.64</ele>
        <time>2021-06-03T12:32:55Z</time>
      </trkpt>
      <trkpt lat="43.89675" lon="6.67689">
        <ele>1242.16</ele>
        <time>2021-06-03T12:33:08Z</time>
      </trkpt>
      <trkpt lat="43.89673" lon="6.67686">
        <ele>1242.16</ele>
        <time>2021-06-03T12:33:19Z</time>
      </trkpt>
      <trkpt lat="43.89666" lon="6.67693">
        <ele>1243.6</ele>
        <time>2021-06-03T12:33:29Z</time>
      </trkpt>
      <trkpt lat="43.89663" lon="6.67693">
        <ele>1243.6</ele>
        <time>2021-06-03T12:33:32Z</time>
      </trkpt>
      <trkpt lat="43.89658" lon="6.67694">
        <ele>1242.16</ele>
        <time>2021-06-03T12:33:37Z</time>
      </trkpt>
      <trkpt lat="43.89655" lon="6.67693">
        <ele>1243.12</ele>
        <time>2021-06-03T12:33:41Z</time>
      </trkpt>
      <trkpt lat="43.89646" lon="6.67696">
        <ele>1243.6</ele>
        <time>2021-06-03T12:33:54Z</time>
      </trkpt>
      <trkpt lat="43.89644" lon="6.67696">
        <ele>1243.12</ele>
        <time>2021-06-03T12:34:22Z</time>
      </trkpt>
      <trkpt lat="43.8964" lon="6.67703">
        <ele>1244.56</ele>
        <time>2021-06-03T12:34:31Z</time>
      </trkpt>
      <trkpt lat="43.89636" lon="6.67719">
        <ele>1244.08</ele>
        <time>2021-06-03T12:34:43Z</time>
      </trkpt>
      <trkpt lat="43.8963" lon="6.67735">
        <ele>1244.08</ele>
        <time>2021-06-03T12:34:55Z</time>
      </trkpt>
      <trkpt lat="43.89624" lon="6.67752">
        <ele>1244.56</ele>
        <time>2021-06-03T12:35:07Z</time>
      </trkpt>
      <trkpt lat="43.8962" lon="6.67758">
        <ele>1241.68</ele>
        <time>2021-06-03T12:35:13Z</time>
      </trkpt>
      <trkpt lat="43.89619" lon="6.67761">
        <ele>1244.08</ele>
        <time>2021-06-03T12:35:15Z</time>
      </trkpt>
      <trkpt lat="43.89616" lon="6.67766">
        <ele>1242.64</ele>
        <time>2021-06-03T12:35:19Z</time>
      </trkpt>
      <trkpt lat="43.89608" lon="6.67782">
        <ele>1241.68</ele>
        <time>2021-06-03T12:35:32Z</time>
      </trkpt>
      <trkpt lat="43.896" lon="6.67796">
        <ele>1240.72</ele>
        <time>2021-06-03T12:35:44Z</time>
      </trkpt>
      <trkpt lat="43.89591" lon="6.6781">
        <ele>1239.28</ele>
        <time>2021-06-03T12:35:56Z</time>
      </trkpt>
      <trkpt lat="43.89587" lon="6.67816">
        <ele>1240.24</ele>
        <time>2021-06-03T12:36:02Z</time>
      </trkpt>
      <trkpt lat="43.89582" lon="6.6782">
        <ele>1237.35</ele>
        <time>2021-06-03T12:36:07Z</time>
      </trkpt>
      <trkpt lat="43.89579" lon="6.67824">
        <ele>1238.32</ele>
        <time>2021-06-03T12:36:11Z</time>
      </trkpt>
      <trkpt lat="43.89572" lon="6.67829">
        <ele>1237.35</ele>
        <time>2021-06-03T12:36:21Z</time>
      </trkpt>
      <trkpt lat="43.8957" lon="6.67831">
        <ele>1236.87</ele>
        <time>2021-06-03T12:36:23Z</time>
      </trkpt>
      <trkpt lat="43.89569" lon="6.67831">
        <ele>1240.72</ele>
        <time>2021-06-03T12:36:24Z</time>
      </trkpt>
      <trkpt lat="43.89569" lon="6.67832">
        <ele>1237.35</ele>
        <time>2021-06-03T12:36:25Z</time>
      </trkpt>
      <trkpt lat="43.89561" lon="6.67834">
        <ele>1238.8</ele>
        <time>2021-06-03T12:36:36Z</time>
      </trkpt>
      <trkpt lat="43.89558" lon="6.67831">
        <ele>1235.43</ele>
        <time>2021-06-03T12:36:45Z</time>
      </trkpt>
      <trkpt lat="43.89559" lon="6.67831">
        <ele>1240.24</ele>
        <time>2021-06-03T12:36:46Z</time>
      </trkpt>
      <trkpt lat="43.89558" lon="6.67831">
        <ele>1237.35</ele>
        <time>2021-06-03T12:36:47Z</time>
      </trkpt>
      <trkpt lat="43.89559" lon="6.6783">
        <ele>1238.8</ele>
        <time>2021-06-03T12:36:50Z</time>
      </trkpt>
      <trkpt lat="43.89559" lon="6.6783">
        <ele>1238.32</ele>
        <time>2021-06-03T12:37:08Z</time>
      </trkpt>
      <trkpt lat="43.89559" lon="6.67832">
        <ele>1238.32</ele>
        <time>2021-06-03T12:37:28Z</time>
      </trkpt>
      <trkpt lat="43.89554" lon="6.67833">
        <ele>1236.87</ele>
        <time>2021-06-03T12:37:47Z</time>
      </trkpt>
      <trkpt lat="43.89554" lon="6.67833">
        <ele>1241.2</ele>
        <time>2021-06-03T12:37:48Z</time>
      </trkpt>
      <trkpt lat="43.89552" lon="6.67833">
        <ele>1237.83</ele>
        <time>2021-06-03T12:37:51Z</time>
      </trkpt>
      <trkpt lat="43.8955" lon="6.67832">
        <ele>1238.8</ele>
        <time>2021-06-03T12:38:06Z</time>
      </trkpt>
      <trkpt lat="43.89548" lon="6.67836">
        <ele>1238.32</ele>
        <time>2021-06-03T12:38:18Z</time>
      </trkpt>
      <trkpt lat="43.89547" lon="6.67837">
        <ele>1237.83</ele>
        <time>2021-06-03T12:38:32Z</time>
      </trkpt>
      <trkpt lat="43.89546" lon="6.67835">
        <ele>1238.32</ele>
        <time>2021-06-03T12:38:55Z</time>
      </trkpt>
      <trkpt lat="43.89547" lon="6.67835">
        <ele>1229.66</ele>
        <time>2021-06-03T12:39:11Z</time>
      </trkpt>
      <trkpt lat="43.89547" lon="6.67835">
        <ele>1240.24</ele>
        <time>2021-06-03T12:39:12Z</time>
      </trkpt>
      <trkpt lat="43.89547" lon="6.67834">
        <ele>1244.56</ele>
        <time>2021-06-03T12:39:14Z</time>
      </trkpt>
      <trkpt lat="43.89547" lon="6.67834">
        <ele>1237.83</ele>
        <time>2021-06-03T12:39:15Z</time>
      </trkpt>
      <trkpt lat="43.89547" lon="6.67831">
        <ele>1238.32</ele>
        <time>2021-06-03T12:39:27Z</time>
      </trkpt>
      <trkpt lat="43.89546" lon="6.67828">
        <ele>1241.68</ele>
        <time>2021-06-03T12:39:30Z</time>
      </trkpt>
      <trkpt lat="43.89546" lon="6.67827">
        <ele>1236.87</ele>
        <time>2021-06-03T12:39:31Z</time>
      </trkpt>
      <trkpt lat="43.89546" lon="6.67826">
        <ele>1241.2</ele>
        <time>2021-06-03T12:39:32Z</time>
      </trkpt>
      <trkpt lat="43.89545" lon="6.67825">
        <ele>1236.87</ele>
        <time>2021-06-03T12:39:33Z</time>
      </trkpt>
      <trkpt lat="43.89544" lon="6.67824">
        <ele>1239.76</ele>
        <time>2021-06-03T12:39:36Z</time>
      </trkpt>
      <trkpt lat="43.89543" lon="6.67823">
        <ele>1235.91</ele>
        <time>2021-06-03T12:39:37Z</time>
      </trkpt>
      <trkpt lat="43.89543" lon="6.67822">
        <ele>1240.24</ele>
        <time>2021-06-03T12:39:38Z</time>
      </trkpt>
      <trkpt lat="43.89542" lon="6.67822">
        <ele>1236.87</ele>
        <time>2021-06-03T12:39:39Z</time>
      </trkpt>
      <trkpt lat="43.89539" lon="6.67819">
        <ele>1237.83</ele>
        <time>2021-06-03T12:39:51Z</time>
      </trkpt>
      <trkpt lat="43.89538" lon="6.67817">
        <ele>1241.2</ele>
        <time>2021-06-03T12:40:09Z</time>
      </trkpt>
      <trkpt lat="43.89538" lon="6.67816">
        <ele>1235.91</ele>
        <time>2021-06-03T12:40:10Z</time>
      </trkpt>
      <trkpt lat="43.89537" lon="6.67815">
        <ele>1241.2</ele>
        <time>2021-06-03T12:40:11Z</time>
      </trkpt>
      <trkpt lat="43.89537" lon="6.67814">
        <ele>1236.39</ele>
        <time>2021-06-03T12:40:12Z</time>
      </trkpt>
      <trkpt lat="43.89537" lon="6.67813">
        <ele>1241.2</ele>
        <time>2021-06-03T12:40:13Z</time>
      </trkpt>
      <trkpt lat="43.89539" lon="6.67812">
        <ele>1240.24</ele>
        <time>2021-06-03T12:40:15Z</time>
      </trkpt>
      <trkpt lat="43.89541" lon="6.67807">
        <ele>1240.72</ele>
        <time>2021-06-03T12:40:20Z</time>
      </trkpt>
      <trkpt lat="43.89541" lon="6.67804">
        <ele>1240.24</ele>
        <time>2021-06-03T12:40:22Z</time>
      </trkpt>
      <trkpt lat="43.89542" lon="6.67803">
        <ele>1236.87</ele>
        <time>2021-06-03T12:40:24Z</time>
      </trkpt>
      <trkpt lat="43.89542" lon="6.67802">
        <ele>1241.2</ele>
        <time>2021-06-03T12:40:25Z</time>
      </trkpt>
      <trkpt lat="43.89542" lon="6.67801">
        <ele>1236.39</ele>
        <time>2021-06-03T12:40:26Z</time>
      </trkpt>
      <trkpt lat="43.89542" lon="6.678">
        <ele>1241.2</ele>
        <time>2021-06-03T12:40:27Z</time>
      </trkpt>
      <trkpt lat="43.89542" lon="6.67799">
        <ele>1234.95</ele>
        <time>2021-06-03T12:40:28Z</time>
      </trkpt>
      <trkpt lat="43.89543" lon="6.67798">
        <ele>1240.24</ele>
        <time>2021-06-03T12:40:29Z</time>
      </trkpt>
      <trkpt lat="43.89543" lon="6.67796">
        <ele>1238.8</ele>
        <time>2021-06-03T12:40:50Z</time>
      </trkpt>
      <trkpt lat="43.89542" lon="6.67792">
        <ele>1242.16</ele>
        <time>2021-06-03T12:41:09Z</time>
      </trkpt>
      <trkpt lat="43.89542" lon="6.67791">
        <ele>1237.35</ele>
        <time>2021-06-03T12:41:10Z</time>
      </trkpt>
      <trkpt lat="43.89542" lon="6.6779">
        <ele>1241.68</ele>
        <time>2021-06-03T12:41:11Z</time>
      </trkpt>
      <trkpt lat="43.89539" lon="6.67788">
        <ele>1238.32</ele>
        <time>2021-06-03T12:41:15Z</time>
      </trkpt>
      <trkpt lat="43.89539" lon="6.67788">
        <ele>1241.68</ele>
        <time>2021-06-03T12:41:16Z</time>
      </trkpt>
      <trkpt lat="43.89538" lon="6.67789">
        <ele>1235.43</ele>
        <time>2021-06-03T12:41:19Z</time>
      </trkpt>
      <trkpt lat="43.89537" lon="6.67789">
        <ele>1241.68</ele>
        <time>2021-06-03T12:41:20Z</time>
      </trkpt>
      <trkpt lat="43.89536" lon="6.67788">
        <ele>1239.76</ele>
        <time>2021-06-03T12:41:22Z</time>
      </trkpt>
      <trkpt lat="43.89529" lon="6.67781">
        <ele>1241.68</ele>
        <time>2021-06-03T12:41:33Z</time>
      </trkpt>
      <trkpt lat="43.89527" lon="6.67779">
        <ele>1241.2</ele>
        <time>2021-06-03T12:41:35Z</time>
      </trkpt>
      <trkpt lat="43.89522" lon="6.67777">
        <ele>1239.76</ele>
        <time>2021-06-03T12:41:48Z</time>
      </trkpt>
      <trkpt lat="43.89518" lon="6.67775">
        <ele>1238.8</ele>
        <time>2021-06-03T12:42:09Z</time>
      </trkpt>
      <trkpt lat="43.89518" lon="6.67774">
        <ele>1242.64</ele>
        <time>2021-06-03T12:42:10Z</time>
      </trkpt>
      <trkpt lat="43.89517" lon="6.67774">
        <ele>1237.35</ele>
        <time>2021-06-03T12:42:11Z</time>
      </trkpt>
      <trkpt lat="43.89516" lon="6.67774">
        <ele>1240.72</ele>
        <time>2021-06-03T12:42:12Z</time>
      </trkpt>
      <trkpt lat="43.8951" lon="6.67775">
        <ele>1242.16</ele>
        <time>2021-06-03T12:42:20Z</time>
      </trkpt>
      <trkpt lat="43.89509" lon="6.67775">
        <ele>1240.72</ele>
        <time>2021-06-03T12:42:22Z</time>
      </trkpt>
      <trkpt lat="43.89504" lon="6.67778">
        <ele>1240.72</ele>
        <time>2021-06-03T12:42:28Z</time>
      </trkpt>
      <trkpt lat="43.89498" lon="6.67781">
        <ele>1242.64</ele>
        <time>2021-06-03T12:42:37Z</time>
      </trkpt>
      <trkpt lat="43.89494" lon="6.67784">
        <ele>1243.12</ele>
        <time>2021-06-03T12:42:42Z</time>
      </trkpt>
      <trkpt lat="43.89493" lon="6.67784">
        <ele>1238.8</ele>
        <time>2021-06-03T12:42:43Z</time>
      </trkpt>
      <trkpt lat="43.89492" lon="6.67782">
        <ele>1239.28</ele>
        <time>2021-06-03T12:43:03Z</time>
      </trkpt>
      <trkpt lat="43.89491" lon="6.67781">
        <ele>1215.24</ele>
        <time>2021-06-03T12:43:14Z</time>
      </trkpt>
      <trkpt lat="43.8949" lon="6.67781">
        <ele>1251.29</ele>
        <time>2021-06-03T12:43:15Z</time>
      </trkpt>
      <trkpt lat="43.89489" lon="6.67782">
        <ele>1240.24</ele>
        <time>2021-06-03T12:43:16Z</time>
      </trkpt>
      <trkpt lat="43.89484" lon="6.67783">
        <ele>1242.64</ele>
        <time>2021-06-03T12:43:22Z</time>
      </trkpt>
      <trkpt lat="43.89483" lon="6.67781">
        <ele>1240.24</ele>
        <time>2021-06-03T12:43:24Z</time>
      </trkpt>
      <trkpt lat="43.89482" lon="6.67779">
        <ele>1238.32</ele>
        <time>2021-06-03T12:43:26Z</time>
      </trkpt>
      <trkpt lat="43.89481" lon="6.67778">
        <ele>1236.39</ele>
        <time>2021-06-03T12:43:28Z</time>
      </trkpt>
      <trkpt lat="43.8948" lon="6.67777">
        <ele>1240.24</ele>
        <time>2021-06-03T12:43:29Z</time>
      </trkpt>
      <trkpt lat="43.8948" lon="6.67776">
        <ele>1244.56</ele>
        <time>2021-06-03T12:43:30Z</time>
      </trkpt>
      <trkpt lat="43.89479" lon="6.67776">
        <ele>1238.32</ele>
        <time>2021-06-03T12:43:31Z</time>
      </trkpt>
      <trkpt lat="43.89479" lon="6.67775">
        <ele>1242.16</ele>
        <time>2021-06-03T12:43:32Z</time>
      </trkpt>
      <trkpt lat="43.89478" lon="6.67775">
        <ele>1237.35</ele>
        <time>2021-06-03T12:43:33Z</time>
      </trkpt>
      <trkpt lat="43.89477" lon="6.67774">
        <ele>1242.16</ele>
        <time>2021-06-03T12:43:35Z</time>
      </trkpt>
      <trkpt lat="43.89476" lon="6.67773">
        <ele>1238.8</ele>
        <time>2021-06-03T12:43:36Z</time>
      </trkpt>
      <trkpt lat="43.89476" lon="6.67772">
        <ele>1244.08</ele>
        <time>2021-06-03T12:43:37Z</time>
      </trkpt>
      <trkpt lat="43.89475" lon="6.67772">
        <ele>1238.8</ele>
        <time>2021-06-03T12:43:38Z</time>
      </trkpt>
      <trkpt lat="43.89474" lon="6.67771">
        <ele>1241.68</ele>
        <time>2021-06-03T12:43:39Z</time>
      </trkpt>
      <trkpt lat="43.89471" lon="6.67766">
        <ele>1237.35</ele>
        <time>2021-06-03T12:43:45Z</time>
      </trkpt>
      <trkpt lat="43.89471" lon="6.67765">
        <ele>1241.2</ele>
        <time>2021-06-03T12:43:46Z</time>
      </trkpt>
      <trkpt lat="43.8947" lon="6.67762">
        <ele>1240.72</ele>
        <time>2021-06-03T12:43:49Z</time>
      </trkpt>
      <trkpt lat="43.89469" lon="6.67759">
        <ele>1236.87</ele>
        <time>2021-06-03T12:43:51Z</time>
      </trkpt>
      <trkpt lat="43.89469" lon="6.67759">
        <ele>1242.64</ele>
        <time>2021-06-03T12:43:52Z</time>
      </trkpt>
      <trkpt lat="43.89467" lon="6.67756">
        <ele>1245.53</ele>
        <time>2021-06-03T12:43:55Z</time>
      </trkpt>
      <trkpt lat="43.89466" lon="6.67755">
        <ele>1240.72</ele>
        <time>2021-06-03T12:43:56Z</time>
      </trkpt>
      <trkpt lat="43.89466" lon="6.67754">
        <ele>1244.56</ele>
        <time>2021-06-03T12:43:57Z</time>
      </trkpt>
      <trkpt lat="43.89466" lon="6.67752">
        <ele>1241.2</ele>
        <time>2021-06-03T12:43:58Z</time>
      </trkpt>
      <trkpt lat="43.89466" lon="6.6775">
        <ele>1245.53</ele>
        <time>2021-06-03T12:44:00Z</time>
      </trkpt>
      <trkpt lat="43.89465" lon="6.67749">
        <ele>1238.32</ele>
        <time>2021-06-03T12:44:01Z</time>
      </trkpt>
      <trkpt lat="43.89465" lon="6.67748">
        <ele>1243.6</ele>
        <time>2021-06-03T12:44:02Z</time>
      </trkpt>
      <trkpt lat="43.89464" lon="6.67748">
        <ele>1241.68</ele>
        <time>2021-06-03T12:44:05Z</time>
      </trkpt>
      <trkpt lat="43.89463" lon="6.67745">
        <ele>1245.53</ele>
        <time>2021-06-03T12:44:10Z</time>
      </trkpt>
      <trkpt lat="43.89463" lon="6.67744">
        <ele>1239.76</ele>
        <time>2021-06-03T12:44:11Z</time>
      </trkpt>
      <trkpt lat="43.89462" lon="6.67742">
        <ele>1245.04</ele>
        <time>2021-06-03T12:44:13Z</time>
      </trkpt>
      <trkpt lat="43.89461" lon="6.67741">
        <ele>1239.76</ele>
        <time>2021-06-03T12:44:14Z</time>
      </trkpt>
      <trkpt lat="43.89461" lon="6.6774">
        <ele>1243.12</ele>
        <time>2021-06-03T12:44:15Z</time>
      </trkpt>
      <trkpt lat="43.89461" lon="6.67739">
        <ele>1243.12</ele>
        <time>2021-06-03T12:44:16Z</time>
      </trkpt>
      <trkpt lat="43.89459" lon="6.67736">
        <ele>1243.6</ele>
        <time>2021-06-03T12:44:18Z</time>
      </trkpt>
      <trkpt lat="43.89458" lon="6.67734">
        <ele>1240.24</ele>
        <time>2021-06-03T12:44:20Z</time>
      </trkpt>
      <trkpt lat="43.89458" lon="6.67733">
        <ele>1243.6</ele>
        <time>2021-06-03T12:44:21Z</time>
      </trkpt>
      <trkpt lat="43.89454" lon="6.6772">
        <ele>1245.04</ele>
        <time>2021-06-03T12:44:34Z</time>
      </trkpt>
      <trkpt lat="43.89454" lon="6.67718">
        <ele>1241.2</ele>
        <time>2021-06-03T12:44:36Z</time>
      </trkpt>
      <trkpt lat="43.89455" lon="6.67717">
        <ele>1245.04</ele>
        <time>2021-06-03T12:44:37Z</time>
      </trkpt>
      <trkpt lat="43.89455" lon="6.67716">
        <ele>1241.68</ele>
        <time>2021-06-03T12:44:38Z</time>
      </trkpt>
      <trkpt lat="43.89455" lon="6.67713">
        <ele>1245.04</ele>
        <time>2021-06-03T12:44:40Z</time>
      </trkpt>
      <trkpt lat="43.89455" lon="6.67712">
        <ele>1242.16</ele>
        <time>2021-06-03T12:44:41Z</time>
      </trkpt>
      <trkpt lat="43.89454" lon="6.6771">
        <ele>1247.93</ele>
        <time>2021-06-03T12:44:43Z</time>
      </trkpt>
      <trkpt lat="43.89454" lon="6.67708">
        <ele>1242.16</ele>
        <time>2021-06-03T12:44:44Z</time>
      </trkpt>
      <trkpt lat="43.89453" lon="6.67706">
        <ele>1245.53</ele>
        <time>2021-06-03T12:44:46Z</time>
      </trkpt>
      <trkpt lat="43.89453" lon="6.67705">
        <ele>1241.68</ele>
        <time>2021-06-03T12:44:47Z</time>
      </trkpt>
      <trkpt lat="43.89452" lon="6.67703">
        <ele>1246.49</ele>
        <time>2021-06-03T12:44:49Z</time>
      </trkpt>
      <trkpt lat="43.89452" lon="6.67702">
        <ele>1240.24</ele>
        <time>2021-06-03T12:44:50Z</time>
      </trkpt>
      <trkpt lat="43.89451" lon="6.67701">
        <ele>1244.08</ele>
        <time>2021-06-03T12:44:51Z</time>
      </trkpt>
      <trkpt lat="43.89449" lon="6.67697">
        <ele>1244.08</ele>
        <time>2021-06-03T12:44:55Z</time>
      </trkpt>
      <trkpt lat="43.89448" lon="6.67695">
        <ele>1247.45</ele>
        <time>2021-06-03T12:44:57Z</time>
      </trkpt>
      <trkpt lat="43.89448" lon="6.67694">
        <ele>1244.08</ele>
        <time>2021-06-03T12:44:58Z</time>
      </trkpt>
      <trkpt lat="43.89447" lon="6.67692">
        <ele>1246.97</ele>
        <time>2021-06-03T12:45:00Z</time>
      </trkpt>
      <trkpt lat="43.89447" lon="6.6769">
        <ele>1243.6</ele>
        <time>2021-06-03T12:45:02Z</time>
      </trkpt>
      <trkpt lat="43.89447" lon="6.67688">
        <ele>1247.45</ele>
        <time>2021-06-03T12:45:03Z</time>
      </trkpt>
      <trkpt lat="43.89447" lon="6.67687">
        <ele>1242.64</ele>
        <time>2021-06-03T12:45:04Z</time>
      </trkpt>
      <trkpt lat="43.89447" lon="6.67685">
        <ele>1247.45</ele>
        <time>2021-06-03T12:45:06Z</time>
      </trkpt>
      <trkpt lat="43.89447" lon="6.67682">
        <ele>1246.49</ele>
        <time>2021-06-03T12:45:08Z</time>
      </trkpt>
      <trkpt lat="43.89447" lon="6.6768">
        <ele>1242.64</ele>
        <time>2021-06-03T12:45:10Z</time>
      </trkpt>
      <trkpt lat="43.89447" lon="6.67678">
        <ele>1246.97</ele>
        <time>2021-06-03T12:45:11Z</time>
      </trkpt>
      <trkpt lat="43.89447" lon="6.67677">
        <ele>1246.01</ele>
        <time>2021-06-03T12:45:12Z</time>
      </trkpt>
      <trkpt lat="43.89448" lon="6.67674">
        <ele>1246.49</ele>
        <time>2021-06-03T12:45:14Z</time>
      </trkpt>
      <trkpt lat="43.89447" lon="6.67671">
        <ele>1245.04</ele>
        <time>2021-06-03T12:45:20Z</time>
      </trkpt>
      <trkpt lat="43.89446" lon="6.67669">
        <ele>1242.16</ele>
        <time>2021-06-03T12:45:22Z</time>
      </trkpt>
      <trkpt lat="43.89446" lon="6.67667">
        <ele>1246.97</ele>
        <time>2021-06-03T12:45:23Z</time>
      </trkpt>
      <trkpt lat="43.89442" lon="6.67658">
        <ele>1251.29</ele>
        <time>2021-06-03T12:45:34Z</time>
      </trkpt>
      <trkpt lat="43.89442" lon="6.67657">
        <ele>1244.56</ele>
        <time>2021-06-03T12:45:35Z</time>
      </trkpt>
      <trkpt lat="43.89442" lon="6.67656">
        <ele>1248.41</ele>
        <time>2021-06-03T12:45:36Z</time>
      </trkpt>
      <trkpt lat="43.89442" lon="6.67655">
        <ele>1243.12</ele>
        <time>2021-06-03T12:45:37Z</time>
      </trkpt>
      <trkpt lat="43.89442" lon="6.67654">
        <ele>1249.37</ele>
        <time>2021-06-03T12:45:38Z</time>
      </trkpt>
      <trkpt lat="43.89442" lon="6.67654">
        <ele>1245.53</ele>
        <time>2021-06-03T12:45:39Z</time>
      </trkpt>
      <trkpt lat="43.89443" lon="6.67654">
        <ele>1247.45</ele>
        <time>2021-06-03T12:45:56Z</time>
      </trkpt>
      <trkpt lat="43.89444" lon="6.67656">
        <ele>1247.93</ele>
        <time>2021-06-03T12:46:13Z</time>
      </trkpt>
      <trkpt lat="43.89444" lon="6.67656">
        <ele>1247.45</ele>
        <time>2021-06-03T12:46:40Z</time>
      </trkpt>
      <trkpt lat="43.89444" lon="6.67655">
        <ele>1247.45</ele>
        <time>2021-06-03T12:47:00Z</time>
      </trkpt>
      <trkpt lat="43.89443" lon="6.67655">
        <ele>1247.45</ele>
        <time>2021-06-03T12:47:27Z</time>
      </trkpt>
      <trkpt lat="43.89444" lon="6.67657">
        <ele>1247.45</ele>
        <time>2021-06-03T12:47:53Z</time>
      </trkpt>
      <trkpt lat="43.89443" lon="6.67658">
        <ele>1247.45</ele>
        <time>2021-06-03T12:48:15Z</time>
      </trkpt>
      <trkpt lat="43.89442" lon="6.67657">
        <ele>1247.45</ele>
        <time>2021-06-03T12:48:42Z</time>
      </trkpt>
      <trkpt lat="43.89445" lon="6.67658">
        <ele>1246.01</ele>
        <time>2021-06-03T12:49:09Z</time>
      </trkpt>
      <trkpt lat="43.89442" lon="6.67655">
        <ele>1247.45</ele>
        <time>2021-06-03T12:49:34Z</time>
      </trkpt>
      <trkpt lat="43.8944" lon="6.67656">
        <ele>1247.45</ele>
        <time>2021-06-03T12:49:39Z</time>
      </trkpt>
      <trkpt lat="43.89438" lon="6.67661">
        <ele>1247.45</ele>
        <time>2021-06-03T12:49:44Z</time>
      </trkpt>
      <trkpt lat="43.89434" lon="6.67669">
        <ele>1246.97</ele>
        <time>2021-06-03T12:49:49Z</time>
      </trkpt>
      <trkpt lat="43.89434" lon="6.67671">
        <ele>1246.49</ele>
        <time>2021-06-03T12:49:51Z</time>
      </trkpt>
      <trkpt lat="43.89432" lon="6.67676">
        <ele>1246.97</ele>
        <time>2021-06-03T12:49:55Z</time>
      </trkpt>
      <trkpt lat="43.89428" lon="6.67694">
        <ele>1245.53</ele>
        <time>2021-06-03T12:50:08Z</time>
      </trkpt>
      <trkpt lat="43.89424" lon="6.67708">
        <ele>1245.04</ele>
        <time>2021-06-03T12:50:19Z</time>
      </trkpt>
      <trkpt lat="43.89419" lon="6.67726">
        <ele>1245.04</ele>
        <time>2021-06-03T12:50:32Z</time>
      </trkpt>
      <trkpt lat="43.89414" lon="6.67742">
        <ele>1245.04</ele>
        <time>2021-06-03T12:50:43Z</time>
      </trkpt>
      <trkpt lat="43.89409" lon="6.6776">
        <ele>1243.6</ele>
        <time>2021-06-03T12:50:55Z</time>
      </trkpt>
      <trkpt lat="43.89406" lon="6.67774">
        <ele>1244.56</ele>
        <time>2021-06-03T12:51:04Z</time>
      </trkpt>
      <trkpt lat="43.89402" lon="6.67794">
        <ele>1244.08</ele>
        <time>2021-06-03T12:51:17Z</time>
      </trkpt>
      <trkpt lat="43.89401" lon="6.67799">
        <ele>1243.6</ele>
        <time>2021-06-03T12:51:21Z</time>
      </trkpt>
      <trkpt lat="43.89395" lon="6.67824">
        <ele>1243.6</ele>
        <time>2021-06-03T12:51:38Z</time>
      </trkpt>
      <trkpt lat="43.89392" lon="6.67841">
        <ele>1244.08</ele>
        <time>2021-06-03T12:51:52Z</time>
      </trkpt>
      <trkpt lat="43.89391" lon="6.67847">
        <ele>1243.6</ele>
        <time>2021-06-03T12:52:06Z</time>
      </trkpt>
      <trkpt lat="43.8939" lon="6.67849">
        <ele>1243.6</ele>
        <time>2021-06-03T12:52:34Z</time>
      </trkpt>
      <trkpt lat="43.8939" lon="6.67851">
        <ele>1243.6</ele>
        <time>2021-06-03T12:52:49Z</time>
      </trkpt>
      <trkpt lat="43.89389" lon="6.6785">
        <ele>1243.6</ele>
        <time>2021-06-03T12:53:19Z</time>
      </trkpt>
      <trkpt lat="43.89391" lon="6.6785">
        <ele>1244.56</ele>
        <time>2021-06-03T12:53:36Z</time>
      </trkpt>
      <trkpt lat="43.8939" lon="6.67852">
        <ele>1243.6</ele>
        <time>2021-06-03T12:54:00Z</time>
      </trkpt>
      <trkpt lat="43.8939" lon="6.67853">
        <ele>1244.08</ele>
        <time>2021-06-03T12:54:20Z</time>
      </trkpt>
      <trkpt lat="43.8939" lon="6.67851">
        <ele>1244.08</ele>
        <time>2021-06-03T12:54:33Z</time>
      </trkpt>
      <trkpt lat="43.89389" lon="6.67851">
        <ele>1244.08</ele>
        <time>2021-06-03T12:55:05Z</time>
      </trkpt>
      <trkpt lat="43.89387" lon="6.6786">
        <ele>1243.6</ele>
        <time>2021-06-03T12:55:23Z</time>
      </trkpt>
      <trkpt lat="43.89385" lon="6.67864">
        <ele>1244.08</ele>
        <time>2021-06-03T12:55:27Z</time>
      </trkpt>
      <trkpt lat="43.89384" lon="6.67867">
        <ele>1245.04</ele>
        <time>2021-06-03T12:55:30Z</time>
      </trkpt>
      <trkpt lat="43.89383" lon="6.67873">
        <ele>1244.08</ele>
        <time>2021-06-03T12:55:35Z</time>
      </trkpt>
      <trkpt lat="43.89383" lon="6.67876">
        <ele>1244.56</ele>
        <time>2021-06-03T12:55:37Z</time>
      </trkpt>
      <trkpt lat="43.89379" lon="6.67888">
        <ele>1246.01</ele>
        <time>2021-06-03T12:55:47Z</time>
      </trkpt>
      <trkpt lat="43.89378" lon="6.67891">
        <ele>1242.64</ele>
        <time>2021-06-03T12:55:49Z</time>
      </trkpt>
      <trkpt lat="43.89375" lon="6.67903">
        <ele>1241.68</ele>
        <time>2021-06-03T12:55:59Z</time>
      </trkpt>
      <trkpt lat="43.89377" lon="6.67911">
        <ele>1243.12</ele>
        <time>2021-06-03T12:56:06Z</time>
      </trkpt>
      <trkpt lat="43.89378" lon="6.67915">
        <ele>1245.53</ele>
        <time>2021-06-03T12:56:15Z</time>
      </trkpt>
      <trkpt lat="43.89377" lon="6.67915">
        <ele>1241.2</ele>
        <time>2021-06-03T12:56:16Z</time>
      </trkpt>
      <trkpt lat="43.89378" lon="6.67916">
        <ele>1244.56</ele>
        <time>2021-06-03T12:56:17Z</time>
      </trkpt>
      <trkpt lat="43.89376" lon="6.67917">
        <ele>1242.64</ele>
        <time>2021-06-03T12:56:29Z</time>
      </trkpt>
      <trkpt lat="43.89373" lon="6.67938">
        <ele>1242.64</ele>
        <time>2021-06-03T12:56:46Z</time>
      </trkpt>
      <trkpt lat="43.8937" lon="6.67958">
        <ele>1241.68</ele>
        <time>2021-06-03T12:56:59Z</time>
      </trkpt>
      <trkpt lat="43.89366" lon="6.67977">
        <ele>1241.2</ele>
        <time>2021-06-03T12:57:14Z</time>
      </trkpt>
      <trkpt lat="43.89363" lon="6.67991">
        <ele>1241.2</ele>
        <time>2021-06-03T12:57:28Z</time>
      </trkpt>
      <trkpt lat="43.89359" lon="6.68001">
        <ele>1241.68</ele>
        <time>2021-06-03T12:57:40Z</time>
      </trkpt>
      <trkpt lat="43.89355" lon="6.68023">
        <ele>1240.72</ele>
        <time>2021-06-03T12:57:56Z</time>
      </trkpt>
      <trkpt lat="43.89354" lon="6.68028">
        <ele>1240.72</ele>
        <time>2021-06-03T12:58:10Z</time>
      </trkpt>
      <trkpt lat="43.89353" lon="6.6803">
        <ele>1240.24</ele>
        <time>2021-06-03T12:58:19Z</time>
      </trkpt>
      <trkpt lat="43.89351" lon="6.68045">
        <ele>1240.24</ele>
        <time>2021-06-03T12:58:34Z</time>
      </trkpt>
      <trkpt lat="43.89347" lon="6.68062">
        <ele>1238.32</ele>
        <time>2021-06-03T12:58:48Z</time>
      </trkpt>
      <trkpt lat="43.89336" lon="6.68066">
        <ele>1238.8</ele>
        <time>2021-06-03T12:59:03Z</time>
      </trkpt>
      <trkpt lat="43.89328" lon="6.68069">
        <ele>1239.28</ele>
        <time>2021-06-03T12:59:18Z</time>
      </trkpt>
      <trkpt lat="43.89311" lon="6.6807">
        <ele>1240.24</ele>
        <time>2021-06-03T12:59:34Z</time>
      </trkpt>
      <trkpt lat="43.89305" lon="6.68075">
        <ele>1239.76</ele>
        <time>2021-06-03T12:59:41Z</time>
      </trkpt>
      <trkpt lat="43.89303" lon="6.68078">
        <ele>1239.76</ele>
        <time>2021-06-03T12:59:44Z</time>
      </trkpt>
      <trkpt lat="43.89301" lon="6.68079">
        <ele>1240.24</ele>
        <time>2021-06-03T12:59:46Z</time>
      </trkpt>
      <trkpt lat="43.89284" lon="6.68085">
        <ele>1241.68</ele>
        <time>2021-06-03T13:00:04Z</time>
      </trkpt>
      <trkpt lat="43.89271" lon="6.68093">
        <ele>1242.64</ele>
        <time>2021-06-03T13:00:19Z</time>
      </trkpt>
      <trkpt lat="43.89265" lon="6.68101">
        <ele>1243.12</ele>
        <time>2021-06-03T13:00:32Z</time>
      </trkpt>
      <trkpt lat="43.89263" lon="6.68115">
        <ele>1242.64</ele>
        <time>2021-06-03T13:00:47Z</time>
      </trkpt>
      <trkpt lat="43.89262" lon="6.68121">
        <ele>1243.12</ele>
        <time>2021-06-03T13:01:00Z</time>
      </trkpt>
      <trkpt lat="43.89261" lon="6.68143">
        <ele>1243.12</ele>
        <time>2021-06-03T13:01:15Z</time>
      </trkpt>
      <trkpt lat="43.89261" lon="6.68145">
        <ele>1244.08</ele>
        <time>2021-06-03T13:01:17Z</time>
      </trkpt>
      <trkpt lat="43.89259" lon="6.68155">
        <ele>1244.56</ele>
        <time>2021-06-03T13:01:26Z</time>
      </trkpt>
      <trkpt lat="43.89258" lon="6.68159">
        <ele>1241.68</ele>
        <time>2021-06-03T13:01:31Z</time>
      </trkpt>
      <trkpt lat="43.89258" lon="6.6816">
        <ele>1245.53</ele>
        <time>2021-06-03T13:01:32Z</time>
      </trkpt>
      <trkpt lat="43.89258" lon="6.68163">
        <ele>1242.16</ele>
        <time>2021-06-03T13:01:34Z</time>
      </trkpt>
      <trkpt lat="43.89258" lon="6.68163">
        <ele>1246.01</ele>
        <time>2021-06-03T13:01:35Z</time>
      </trkpt>
      <trkpt lat="43.89258" lon="6.68165">
        <ele>1242.64</ele>
        <time>2021-06-03T13:01:37Z</time>
      </trkpt>
      <trkpt lat="43.89258" lon="6.68167">
        <ele>1246.49</ele>
        <time>2021-06-03T13:01:38Z</time>
      </trkpt>
      <trkpt lat="43.89258" lon="6.68169">
        <ele>1243.6</ele>
        <time>2021-06-03T13:01:40Z</time>
      </trkpt>
      <trkpt lat="43.89258" lon="6.6817">
        <ele>1246.97</ele>
        <time>2021-06-03T13:01:41Z</time>
      </trkpt>
      <trkpt lat="43.89257" lon="6.68172">
        <ele>1244.08</ele>
        <time>2021-06-03T13:01:43Z</time>
      </trkpt>
      <trkpt lat="43.89258" lon="6.68175">
        <ele>1246.97</ele>
        <time>2021-06-03T13:01:45Z</time>
      </trkpt>
      <trkpt lat="43.8926" lon="6.68184">
        <ele>1244.08</ele>
        <time>2021-06-03T13:01:52Z</time>
      </trkpt>
      <trkpt lat="43.89259" lon="6.68187">
        <ele>1249.37</ele>
        <time>2021-06-03T13:01:54Z</time>
      </trkpt>
      <trkpt lat="43.89259" lon="6.68188">
        <ele>1244.08</ele>
        <time>2021-06-03T13:01:55Z</time>
      </trkpt>
      <trkpt lat="43.89259" lon="6.6819">
        <ele>1247.45</ele>
        <time>2021-06-03T13:01:56Z</time>
      </trkpt>
      <trkpt lat="43.8926" lon="6.68206">
        <ele>1248.41</ele>
        <time>2021-06-03T13:02:10Z</time>
      </trkpt>
      <trkpt lat="43.8926" lon="6.68207">
        <ele>1251.77</ele>
        <time>2021-06-03T13:02:11Z</time>
      </trkpt>
      <trkpt lat="43.8926" lon="6.68208">
        <ele>1245.04</ele>
        <time>2021-06-03T13:02:12Z</time>
      </trkpt>
      <trkpt lat="43.89261" lon="6.68209">
        <ele>1248.89</ele>
        <time>2021-06-03T13:02:13Z</time>
      </trkpt>
      <trkpt lat="43.89261" lon="6.68219">
        <ele>1252.74</ele>
        <time>2021-06-03T13:02:20Z</time>
      </trkpt>
      <trkpt lat="43.8926" lon="6.6822">
        <ele>1246.01</ele>
        <time>2021-06-03T13:02:21Z</time>
      </trkpt>
      <trkpt lat="43.8926" lon="6.68221">
        <ele>1250.81</ele>
        <time>2021-06-03T13:02:22Z</time>
      </trkpt>
      <trkpt lat="43.8926" lon="6.68223">
        <ele>1246.49</ele>
        <time>2021-06-03T13:02:24Z</time>
      </trkpt>
      <trkpt lat="43.8926" lon="6.68224">
        <ele>1250.33</ele>
        <time>2021-06-03T13:02:25Z</time>
      </trkpt>
      <trkpt lat="43.89259" lon="6.68228">
        <ele>1246.49</ele>
        <time>2021-06-03T13:02:27Z</time>
      </trkpt>
      <trkpt lat="43.89259" lon="6.68228">
        <ele>1251.29</ele>
        <time>2021-06-03T13:02:28Z</time>
      </trkpt>
      <trkpt lat="43.89257" lon="6.68243">
        <ele>1255.62</ele>
        <time>2021-06-03T13:02:41Z</time>
      </trkpt>
      <trkpt lat="43.89257" lon="6.68244">
        <ele>1249.85</ele>
        <time>2021-06-03T13:02:42Z</time>
      </trkpt>
      <trkpt lat="43.89257" lon="6.68245">
        <ele>1253.7</ele>
        <time>2021-06-03T13:02:43Z</time>
      </trkpt>
      <trkpt lat="43.89257" lon="6.68257">
        <ele>1257.06</ele>
        <time>2021-06-03T13:02:54Z</time>
      </trkpt>
      <trkpt lat="43.89257" lon="6.68258">
        <ele>1251.29</ele>
        <time>2021-06-03T13:02:55Z</time>
      </trkpt>
      <trkpt lat="43.89257" lon="6.68258">
        <ele>1255.62</ele>
        <time>2021-06-03T13:02:56Z</time>
      </trkpt>
      <trkpt lat="43.89258" lon="6.68263">
        <ele>1251.29</ele>
        <time>2021-06-03T13:03:00Z</time>
      </trkpt>
      <trkpt lat="43.89258" lon="6.68264">
        <ele>1256.1</ele>
        <time>2021-06-03T13:03:01Z</time>
      </trkpt>
      <trkpt lat="43.89258" lon="6.68271">
        <ele>1259.46</ele>
        <time>2021-06-03T13:03:07Z</time>
      </trkpt>
      <trkpt lat="43.89258" lon="6.68273">
        <ele>1252.74</ele>
        <time>2021-06-03T13:03:08Z</time>
      </trkpt>
      <trkpt lat="43.89258" lon="6.68274">
        <ele>1257.54</ele>
        <time>2021-06-03T13:03:09Z</time>
      </trkpt>
      <trkpt lat="43.89263" lon="6.68288">
        <ele>1258.02</ele>
        <time>2021-06-03T13:03:21Z</time>
      </trkpt>
      <trkpt lat="43.89267" lon="6.68298">
        <ele>1256.58</ele>
        <time>2021-06-03T13:03:29Z</time>
      </trkpt>
      <trkpt lat="43.8927" lon="6.68315">
        <ele>1261.87</ele>
        <time>2021-06-03T13:03:41Z</time>
      </trkpt>
      <trkpt lat="43.8927" lon="6.68317">
        <ele>1257.06</ele>
        <time>2021-06-03T13:03:42Z</time>
      </trkpt>
      <trkpt lat="43.89271" lon="6.68321">
        <ele>1259.46</ele>
        <time>2021-06-03T13:03:45Z</time>
      </trkpt>
      <trkpt lat="43.89272" lon="6.68323">
        <ele>1258.5</ele>
        <time>2021-06-03T13:03:47Z</time>
      </trkpt>
      <trkpt lat="43.89274" lon="6.68332">
        <ele>1259.94</ele>
        <time>2021-06-03T13:03:54Z</time>
      </trkpt>
      <trkpt lat="43.89274" lon="6.68335">
        <ele>1256.58</ele>
        <time>2021-06-03T13:03:56Z</time>
      </trkpt>
      <trkpt lat="43.89275" lon="6.68336">
        <ele>1260.43</ele>
        <time>2021-06-03T13:03:57Z</time>
      </trkpt>
      <trkpt lat="43.89275" lon="6.68339">
        <ele>1257.06</ele>
        <time>2021-06-03T13:03:59Z</time>
      </trkpt>
      <trkpt lat="43.89275" lon="6.68341">
        <ele>1262.35</ele>
        <time>2021-06-03T13:04:01Z</time>
      </trkpt>
      <trkpt lat="43.89275" lon="6.68343">
        <ele>1258.98</ele>
        <time>2021-06-03T13:04:03Z</time>
      </trkpt>
      <trkpt lat="43.89276" lon="6.68352">
        <ele>1262.35</ele>
        <time>2021-06-03T13:04:11Z</time>
      </trkpt>
      <trkpt lat="43.89277" lon="6.68357">
        <ele>1260.43</ele>
        <time>2021-06-03T13:04:15Z</time>
      </trkpt>
      <trkpt lat="43.89278" lon="6.68365">
        <ele>1261.39</ele>
        <time>2021-06-03T13:04:21Z</time>
      </trkpt>
      <trkpt lat="43.89279" lon="6.68376">
        <ele>1263.79</ele>
        <time>2021-06-03T13:04:28Z</time>
      </trkpt>
      <trkpt lat="43.89278" lon="6.68378">
        <ele>1259.94</ele>
        <time>2021-06-03T13:04:29Z</time>
      </trkpt>
      <trkpt lat="43.89279" lon="6.68383">
        <ele>1263.31</ele>
        <time>2021-06-03T13:04:32Z</time>
      </trkpt>
      <trkpt lat="43.89279" lon="6.68384">
        <ele>1259.94</ele>
        <time>2021-06-03T13:04:33Z</time>
      </trkpt>
      <trkpt lat="43.89279" lon="6.6839">
        <ele>1262.35</ele>
        <time>2021-06-03T13:04:36Z</time>
      </trkpt>
      <trkpt lat="43.89279" lon="6.68399">
        <ele>1262.35</ele>
        <time>2021-06-03T13:04:43Z</time>
      </trkpt>
      <trkpt lat="43.89281" lon="6.68414">
        <ele>1263.31</ele>
        <time>2021-06-03T13:04:53Z</time>
      </trkpt>
      <trkpt lat="43.89282" lon="6.68415">
        <ele>1261.87</ele>
        <time>2021-06-03T13:04:55Z</time>
      </trkpt>
      <trkpt lat="43.89282" lon="6.68418">
        <ele>1263.31</ele>
        <time>2021-06-03T13:04:57Z</time>
      </trkpt>
      <trkpt lat="43.89282" lon="6.68419">
        <ele>1259.46</ele>
        <time>2021-06-03T13:04:58Z</time>
      </trkpt>
      <trkpt lat="43.89281" lon="6.68421">
        <ele>1265.23</ele>
        <time>2021-06-03T13:05:00Z</time>
      </trkpt>
      <trkpt lat="43.89281" lon="6.68422">
        <ele>1259.46</ele>
        <time>2021-06-03T13:05:01Z</time>
      </trkpt>
      <trkpt lat="43.89281" lon="6.68424">
        <ele>1262.83</ele>
        <time>2021-06-03T13:05:02Z</time>
      </trkpt>
      <trkpt lat="43.89279" lon="6.68431">
        <ele>1264.27</ele>
        <time>2021-06-03T13:05:07Z</time>
      </trkpt>
      <trkpt lat="43.89278" lon="6.68438">
        <ele>1266.67</ele>
        <time>2021-06-03T13:05:13Z</time>
      </trkpt>
      <trkpt lat="43.89278" lon="6.68445">
        <ele>1266.67</ele>
        <time>2021-06-03T13:05:17Z</time>
      </trkpt>
      <trkpt lat="43.89277" lon="6.68447">
        <ele>1263.31</ele>
        <time>2021-06-03T13:05:19Z</time>
      </trkpt>
      <trkpt lat="43.89276" lon="6.68449">
        <ele>1265.71</ele>
        <time>2021-06-03T13:05:20Z</time>
      </trkpt>
      <trkpt lat="43.89276" lon="6.68451">
        <ele>1261.87</ele>
        <time>2021-06-03T13:05:22Z</time>
      </trkpt>
      <trkpt lat="43.89276" lon="6.68452">
        <ele>1265.23</ele>
        <time>2021-06-03T13:05:23Z</time>
      </trkpt>
      <trkpt lat="43.89274" lon="6.68455">
        <ele>1263.79</ele>
        <time>2021-06-03T13:05:26Z</time>
      </trkpt>
      <trkpt lat="43.89272" lon="6.68457">
        <ele>1265.23</ele>
        <time>2021-06-03T13:05:28Z</time>
      </trkpt>
      <trkpt lat="43.8927" lon="6.68459">
        <ele>1269.08</ele>
        <time>2021-06-03T13:05:31Z</time>
      </trkpt>
      <trkpt lat="43.89269" lon="6.6846">
        <ele>1261.87</ele>
        <time>2021-06-03T13:05:32Z</time>
      </trkpt>
      <trkpt lat="43.89269" lon="6.68461">
        <ele>1266.19</ele>
        <time>2021-06-03T13:05:33Z</time>
      </trkpt>
      <trkpt lat="43.89267" lon="6.68462">
        <ele>1262.35</ele>
        <time>2021-06-03T13:05:35Z</time>
      </trkpt>
      <trkpt lat="43.89266" lon="6.68463">
        <ele>1266.67</ele>
        <time>2021-06-03T13:05:36Z</time>
      </trkpt>
      <trkpt lat="43.89264" lon="6.68464">
        <ele>1262.35</ele>
        <time>2021-06-03T13:05:38Z</time>
      </trkpt>
      <trkpt lat="43.89263" lon="6.68464">
        <ele>1267.16</ele>
        <time>2021-06-03T13:05:39Z</time>
      </trkpt>
      <trkpt lat="43.89262" lon="6.68467">
        <ele>1271.48</ele>
        <time>2021-06-03T13:05:42Z</time>
      </trkpt>
      <trkpt lat="43.89261" lon="6.68467">
        <ele>1263.79</ele>
        <time>2021-06-03T13:05:43Z</time>
      </trkpt>
      <trkpt lat="43.8926" lon="6.68468">
        <ele>1267.64</ele>
        <time>2021-06-03T13:05:44Z</time>
      </trkpt>
      <trkpt lat="43.89259" lon="6.68469">
        <ele>1262.83</ele>
        <time>2021-06-03T13:05:46Z</time>
      </trkpt>
      <trkpt lat="43.89257" lon="6.68471">
        <ele>1271.48</ele>
        <time>2021-06-03T13:05:48Z</time>
      </trkpt>
      <trkpt lat="43.89256" lon="6.68472">
        <ele>1267.64</ele>
        <time>2021-06-03T13:05:49Z</time>
      </trkpt>
      <trkpt lat="43.89255" lon="6.68474">
        <ele>1270.52</ele>
        <time>2021-06-03T13:05:51Z</time>
      </trkpt>
      <trkpt lat="43.89253" lon="6.68476">
        <ele>1270.52</ele>
        <time>2021-06-03T13:05:54Z</time>
      </trkpt>
      <trkpt lat="43.8925" lon="6.68479">
        <ele>1270.52</ele>
        <time>2021-06-03T13:05:57Z</time>
      </trkpt>
      <trkpt lat="43.8925" lon="6.68479">
        <ele>1269.56</ele>
        <time>2021-06-03T13:05:58Z</time>
      </trkpt>
      <trkpt lat="43.89242" lon="6.68486">
        <ele>1272.92</ele>
        <time>2021-06-03T13:06:07Z</time>
      </trkpt>
      <trkpt lat="43.89242" lon="6.68487">
        <ele>1265.71</ele>
        <time>2021-06-03T13:06:08Z</time>
      </trkpt>
      <trkpt lat="43.89241" lon="6.68487">
        <ele>1270.52</ele>
        <time>2021-06-03T13:06:09Z</time>
      </trkpt>
      <trkpt lat="43.89235" lon="6.68494">
        <ele>1266.67</ele>
        <time>2021-06-03T13:06:17Z</time>
      </trkpt>
      <trkpt lat="43.89234" lon="6.68495">
        <ele>1272.44</ele>
        <time>2021-06-03T13:06:18Z</time>
      </trkpt>
      <trkpt lat="43.89225" lon="6.68505">
        <ele>1273.88</ele>
        <time>2021-06-03T13:06:29Z</time>
      </trkpt>
      <trkpt lat="43.89225" lon="6.68505">
        <ele>1270.52</ele>
        <time>2021-06-03T13:06:30Z</time>
      </trkpt>
      <trkpt lat="43.89223" lon="6.68507">
        <ele>1273.88</ele>
        <time>2021-06-03T13:06:32Z</time>
      </trkpt>
      <trkpt lat="43.89221" lon="6.68509">
        <ele>1268.12</ele>
        <time>2021-06-03T13:06:34Z</time>
      </trkpt>
      <trkpt lat="43.8922" lon="6.68511">
        <ele>1271.96</ele>
        <time>2021-06-03T13:06:35Z</time>
      </trkpt>
      <trkpt lat="43.89213" lon="6.68523">
        <ele>1271.96</ele>
        <time>2021-06-03T13:06:45Z</time>
      </trkpt>
      <trkpt lat="43.89212" lon="6.68526">
        <ele>1271</ele>
        <time>2021-06-03T13:06:47Z</time>
      </trkpt>
      <trkpt lat="43.89205" lon="6.68538">
        <ele>1270.04</ele>
        <time>2021-06-03T13:06:56Z</time>
      </trkpt>
      <trkpt lat="43.89201" lon="6.68547">
        <ele>1270.04</ele>
        <time>2021-06-03T13:07:03Z</time>
      </trkpt>
      <trkpt lat="43.892" lon="6.68551">
        <ele>1269.56</ele>
        <time>2021-06-03T13:07:06Z</time>
      </trkpt>
      <trkpt lat="43.89199" lon="6.68558">
        <ele>1272.44</ele>
        <time>2021-06-03T13:07:11Z</time>
      </trkpt>
      <trkpt lat="43.89198" lon="6.68561">
        <ele>1270.52</ele>
        <time>2021-06-03T13:07:13Z</time>
      </trkpt>
      <trkpt lat="43.89195" lon="6.68567">
        <ele>1273.4</ele>
        <time>2021-06-03T13:07:18Z</time>
      </trkpt>
      <trkpt lat="43.89193" lon="6.68568">
        <ele>1269.56</ele>
        <time>2021-06-03T13:07:20Z</time>
      </trkpt>
      <trkpt lat="43.89191" lon="6.68569">
        <ele>1274.36</ele>
        <time>2021-06-03T13:07:22Z</time>
      </trkpt>
      <trkpt lat="43.8919" lon="6.6857">
        <ele>1269.56</ele>
        <time>2021-06-03T13:07:23Z</time>
      </trkpt>
      <trkpt lat="43.89189" lon="6.6857">
        <ele>1272.44</ele>
        <time>2021-06-03T13:07:24Z</time>
      </trkpt>
      <trkpt lat="43.89187" lon="6.68571">
        <ele>1269.08</ele>
        <time>2021-06-03T13:07:26Z</time>
      </trkpt>
      <trkpt lat="43.89186" lon="6.68572">
        <ele>1274.85</ele>
        <time>2021-06-03T13:07:28Z</time>
      </trkpt>
      <trkpt lat="43.89185" lon="6.68573">
        <ele>1270.04</ele>
        <time>2021-06-03T13:07:29Z</time>
      </trkpt>
      <trkpt lat="43.89183" lon="6.68573">
        <ele>1276.29</ele>
        <time>2021-06-03T13:07:31Z</time>
      </trkpt>
      <trkpt lat="43.89182" lon="6.68573">
        <ele>1270.52</ele>
        <time>2021-06-03T13:07:32Z</time>
      </trkpt>
      <trkpt lat="43.8918" lon="6.68573">
        <ele>1277.73</ele>
        <time>2021-06-03T13:07:34Z</time>
      </trkpt>
      <trkpt lat="43.89179" lon="6.68572">
        <ele>1270.52</ele>
        <time>2021-06-03T13:07:35Z</time>
      </trkpt>
      <trkpt lat="43.89177" lon="6.68573">
        <ele>1278.21</ele>
        <time>2021-06-03T13:07:38Z</time>
      </trkpt>
      <trkpt lat="43.89177" lon="6.68573">
        <ele>1275.33</ele>
        <time>2021-06-03T13:07:39Z</time>
      </trkpt>
      <trkpt lat="43.89176" lon="6.68574">
        <ele>1273.88</ele>
        <time>2021-06-03T13:07:41Z</time>
      </trkpt>
      <trkpt lat="43.89174" lon="6.68575">
        <ele>1271.96</ele>
        <time>2021-06-03T13:07:43Z</time>
      </trkpt>
      <trkpt lat="43.89172" lon="6.68577">
        <ele>1270.52</ele>
        <time>2021-06-03T13:07:46Z</time>
      </trkpt>
      <trkpt lat="43.89171" lon="6.68577">
        <ele>1274.36</ele>
        <time>2021-06-03T13:07:47Z</time>
      </trkpt>
      <trkpt lat="43.89169" lon="6.68577">
        <ele>1270.52</ele>
        <time>2021-06-03T13:07:49Z</time>
      </trkpt>
      <trkpt lat="43.89168" lon="6.68578">
        <ele>1275.33</ele>
        <time>2021-06-03T13:07:50Z</time>
      </trkpt>
      <trkpt lat="43.89166" lon="6.68578">
        <ele>1270.04</ele>
        <time>2021-06-03T13:07:52Z</time>
      </trkpt>
      <trkpt lat="43.89165" lon="6.68578">
        <ele>1275.81</ele>
        <time>2021-06-03T13:07:53Z</time>
      </trkpt>
      <trkpt lat="43.89159" lon="6.68578">
        <ele>1271.48</ele>
        <time>2021-06-03T13:08:01Z</time>
      </trkpt>
      <trkpt lat="43.89158" lon="6.68578">
        <ele>1276.29</ele>
        <time>2021-06-03T13:08:02Z</time>
      </trkpt>
      <trkpt lat="43.89156" lon="6.68578">
        <ele>1280.13</ele>
        <time>2021-06-03T13:08:05Z</time>
      </trkpt>
      <trkpt lat="43.89156" lon="6.68577">
        <ele>1276.29</ele>
        <time>2021-06-03T13:08:06Z</time>
      </trkpt>
      <trkpt lat="43.89146" lon="6.68577">
        <ele>1278.21</ele>
        <time>2021-06-03T13:08:19Z</time>
      </trkpt>
      <trkpt lat="43.89146" lon="6.68576">
        <ele>1276.77</ele>
        <time>2021-06-03T13:08:22Z</time>
      </trkpt>
      <trkpt lat="43.89147" lon="6.68577">
        <ele>1269.08</ele>
        <time>2021-06-03T13:08:28Z</time>
      </trkpt>
      <trkpt lat="43.89147" lon="6.68577">
        <ele>1283.02</ele>
        <time>2021-06-03T13:08:29Z</time>
      </trkpt>
      <trkpt lat="43.89147" lon="6.68578">
        <ele>1274.36</ele>
        <time>2021-06-03T13:08:30Z</time>
      </trkpt>
      <trkpt lat="43.89147" lon="6.68578">
        <ele>1278.69</ele>
        <time>2021-06-03T13:08:31Z</time>
      </trkpt>
      <trkpt lat="43.89148" lon="6.68578">
        <ele>1273.88</ele>
        <time>2021-06-03T13:08:35Z</time>
      </trkpt>
      <trkpt lat="43.89148" lon="6.68578">
        <ele>1277.25</ele>
        <time>2021-06-03T13:08:41Z</time>
      </trkpt>
      <trkpt lat="43.89148" lon="6.68579">
        <ele>1276.29</ele>
        <time>2021-06-03T13:09:07Z</time>
      </trkpt>
      <trkpt lat="43.89148" lon="6.6858">
        <ele>1275.81</ele>
        <time>2021-06-03T13:09:30Z</time>
      </trkpt>
      <trkpt lat="43.89151" lon="6.68579">
        <ele>1276.77</ele>
        <time>2021-06-03T13:09:59Z</time>
      </trkpt>
      <trkpt lat="43.89149" lon="6.68579">
        <ele>1275.81</ele>
        <time>2021-06-03T13:10:26Z</time>
      </trkpt>
      <trkpt lat="43.89149" lon="6.68576">
        <ele>1276.29</ele>
        <time>2021-06-03T13:10:52Z</time>
      </trkpt>
      <trkpt lat="43.89149" lon="6.68577">
        <ele>1276.29</ele>
        <time>2021-06-03T13:11:14Z</time>
      </trkpt>
      <trkpt lat="43.89148" lon="6.68577">
        <ele>1276.29</ele>
        <time>2021-06-03T13:11:40Z</time>
      </trkpt>
      <trkpt lat="43.89148" lon="6.68577">
        <ele>1275.33</ele>
        <time>2021-06-03T13:12:10Z</time>
      </trkpt>
      <trkpt lat="43.89147" lon="6.68577">
        <ele>1275.33</ele>
        <time>2021-06-03T13:12:37Z</time>
      </trkpt>
      <trkpt lat="43.89147" lon="6.68578">
        <ele>1275.33</ele>
        <time>2021-06-03T13:13:06Z</time>
      </trkpt>
      <trkpt lat="43.89147" lon="6.68578">
        <ele>1275.33</ele>
        <time>2021-06-03T13:13:31Z</time>
      </trkpt>
      <trkpt lat="43.89149" lon="6.68578">
        <ele>1279.17</ele>
        <time>2021-06-03T13:13:50Z</time>
      </trkpt>
      <trkpt lat="43.89149" lon="6.68577">
        <ele>1275.81</ele>
        <time>2021-06-03T13:13:51Z</time>
      </trkpt>
      <trkpt lat="43.89151" lon="6.68579">
        <ele>1279.65</ele>
        <time>2021-06-03T13:14:11Z</time>
      </trkpt>
      <trkpt lat="43.89151" lon="6.68579">
        <ele>1274.85</ele>
        <time>2021-06-03T13:14:12Z</time>
      </trkpt>
      <trkpt lat="43.89151" lon="6.68578">
        <ele>1274.85</ele>
        <time>2021-06-03T13:14:13Z</time>
      </trkpt>
      <trkpt lat="43.89148" lon="6.68579">
        <ele>1275.33</ele>
        <time>2021-06-03T13:14:38Z</time>
      </trkpt>
      <trkpt lat="43.8915" lon="6.68578">
        <ele>1274.85</ele>
        <time>2021-06-03T13:15:01Z</time>
      </trkpt>
      <trkpt lat="43.89151" lon="6.68579">
        <ele>1275.33</ele>
        <time>2021-06-03T13:15:28Z</time>
      </trkpt>
      <trkpt lat="43.89151" lon="6.68579">
        <ele>1274.36</ele>
        <time>2021-06-03T13:15:45Z</time>
      </trkpt>
      <trkpt lat="43.89151" lon="6.6858">
        <ele>1276.29</ele>
        <time>2021-06-03T13:15:47Z</time>
      </trkpt>
      <trkpt lat="43.89151" lon="6.6858">
        <ele>1272.92</ele>
        <time>2021-06-03T13:16:22Z</time>
      </trkpt>
      <trkpt lat="43.89151" lon="6.6858">
        <ele>1275.81</ele>
        <time>2021-06-03T13:16:23Z</time>
      </trkpt>
      <trkpt lat="43.89152" lon="6.68581">
        <ele>1273.88</ele>
        <time>2021-06-03T13:16:50Z</time>
      </trkpt>
      <trkpt lat="43.89153" lon="6.68583">
        <ele>1274.85</ele>
        <time>2021-06-03T13:17:21Z</time>
      </trkpt>
      <trkpt lat="43.89152" lon="6.68583">
        <ele>1278.21</ele>
        <time>2021-06-03T13:17:26Z</time>
      </trkpt>
      <trkpt lat="43.89153" lon="6.68582">
        <ele>1275.33</ele>
        <time>2021-06-03T13:17:29Z</time>
      </trkpt>
      <trkpt lat="43.89153" lon="6.68582">
        <ele>1287.34</ele>
        <time>2021-06-03T13:17:33Z</time>
      </trkpt>
      <trkpt lat="43.89153" lon="6.68581">
        <ele>1277.25</ele>
        <time>2021-06-03T13:17:34Z</time>
      </trkpt>
      <trkpt lat="43.8915" lon="6.68581">
        <ele>1275.81</ele>
        <time>2021-06-03T13:17:37Z</time>
      </trkpt>
      <trkpt lat="43.89149" lon="6.68578">
        <ele>1275.33</ele>
        <time>2021-06-03T13:17:56Z</time>
      </trkpt>
      <trkpt lat="43.89142" lon="6.68576">
        <ele>1274.85</ele>
        <time>2021-06-03T13:18:06Z</time>
      </trkpt>
      <trkpt lat="43.89138" lon="6.68576">
        <ele>1277.25</ele>
        <time>2021-06-03T13:18:09Z</time>
      </trkpt>
      <trkpt lat="43.8913" lon="6.68572">
        <ele>1276.77</ele>
        <time>2021-06-03T13:18:22Z</time>
      </trkpt>
      <trkpt lat="43.8913" lon="6.68574">
        <ele>1279.65</ele>
        <time>2021-06-03T13:18:43Z</time>
      </trkpt>
      <trkpt lat="43.89129" lon="6.68574">
        <ele>1273.88</ele>
        <time>2021-06-03T13:18:44Z</time>
      </trkpt>
      <trkpt lat="43.89128" lon="6.68573">
        <ele>1276.77</ele>
        <time>2021-06-03T13:18:45Z</time>
      </trkpt>
      <trkpt lat="43.89112" lon="6.6857">
        <ele>1278.21</ele>
        <time>2021-06-03T13:18:59Z</time>
      </trkpt>
      <trkpt lat="43.8911" lon="6.6857">
        <ele>1277.73</ele>
        <time>2021-06-03T13:19:01Z</time>
      </trkpt>
      <trkpt lat="43.89108" lon="6.68569">
        <ele>1276.29</ele>
        <time>2021-06-03T13:19:03Z</time>
      </trkpt>
      <trkpt lat="43.89106" lon="6.6857">
        <ele>1277.73</ele>
        <time>2021-06-03T13:19:05Z</time>
      </trkpt>
      <trkpt lat="43.89104" lon="6.6857">
        <ele>1275.81</ele>
        <time>2021-06-03T13:19:07Z</time>
      </trkpt>
      <trkpt lat="43.89097" lon="6.68572">
        <ele>1277.73</ele>
        <time>2021-06-03T13:19:14Z</time>
      </trkpt>
      <trkpt lat="43.89091" lon="6.68571">
        <ele>1276.77</ele>
        <time>2021-06-03T13:19:20Z</time>
      </trkpt>
      <trkpt lat="43.8909" lon="6.6857">
        <ele>1281.57</ele>
        <time>2021-06-03T13:19:21Z</time>
      </trkpt>
      <trkpt lat="43.89089" lon="6.6857">
        <ele>1285.42</ele>
        <time>2021-06-03T13:19:22Z</time>
      </trkpt>
      <trkpt lat="43.89088" lon="6.6857">
        <ele>1276.29</ele>
        <time>2021-06-03T13:19:23Z</time>
      </trkpt>
      <trkpt lat="43.89087" lon="6.6857">
        <ele>1281.57</ele>
        <time>2021-06-03T13:19:24Z</time>
      </trkpt>
      <trkpt lat="43.89082" lon="6.68569">
        <ele>1277.25</ele>
        <time>2021-06-03T13:19:29Z</time>
      </trkpt>
      <trkpt lat="43.89079" lon="6.68569">
        <ele>1283.02</ele>
        <time>2021-06-03T13:19:31Z</time>
      </trkpt>
      <trkpt lat="43.89078" lon="6.68569">
        <ele>1279.17</ele>
        <time>2021-06-03T13:19:32Z</time>
      </trkpt>
      <trkpt lat="43.89075" lon="6.68569">
        <ele>1278.69</ele>
        <time>2021-06-03T13:19:36Z</time>
      </trkpt>
      <trkpt lat="43.89073" lon="6.68568">
        <ele>1284.94</ele>
        <time>2021-06-03T13:19:38Z</time>
      </trkpt>
      <trkpt lat="43.89072" lon="6.68568">
        <ele>1279.65</ele>
        <time>2021-06-03T13:19:39Z</time>
      </trkpt>
      <trkpt lat="43.89071" lon="6.68568">
        <ele>1279.65</ele>
        <time>2021-06-03T13:19:40Z</time>
      </trkpt>
      <trkpt lat="43.89069" lon="6.68568">
        <ele>1282.54</ele>
        <time>2021-06-03T13:19:42Z</time>
      </trkpt>
      <trkpt lat="43.89068" lon="6.68567">
        <ele>1278.69</ele>
        <time>2021-06-03T13:19:43Z</time>
      </trkpt>
      <trkpt lat="43.89067" lon="6.68567">
        <ele>1281.09</ele>
        <time>2021-06-03T13:19:44Z</time>
      </trkpt>
      <trkpt lat="43.89066" lon="6.68566">
        <ele>1285.42</ele>
        <time>2021-06-03T13:19:45Z</time>
      </trkpt>
      <trkpt lat="43.89065" lon="6.68566">
        <ele>1280.61</ele>
        <time>2021-06-03T13:19:46Z</time>
      </trkpt>
      <trkpt lat="43.89063" lon="6.68567">
        <ele>1283.5</ele>
        <time>2021-06-03T13:19:48Z</time>
      </trkpt>
      <trkpt lat="43.89062" lon="6.68567">
        <ele>1284.94</ele>
        <time>2021-06-03T13:19:49Z</time>
      </trkpt>
      <trkpt lat="43.8906" lon="6.68568">
        <ele>1282.06</ele>
        <time>2021-06-03T13:19:51Z</time>
      </trkpt>
      <trkpt lat="43.89048" lon="6.68569">
        <ele>1283.5</ele>
        <time>2021-06-03T13:20:05Z</time>
      </trkpt>
      <trkpt lat="43.8903" lon="6.68575">
        <ele>1283.02</ele>
        <time>2021-06-03T13:20:20Z</time>
      </trkpt>
      <trkpt lat="43.89019" lon="6.68574">
        <ele>1283.5</ele>
        <time>2021-06-03T13:20:30Z</time>
      </trkpt>
      <trkpt lat="43.89014" lon="6.68577">
        <ele>1283.5</ele>
        <time>2021-06-03T13:20:35Z</time>
      </trkpt>
      <trkpt lat="43.89005" lon="6.68577">
        <ele>1282.06</ele>
        <time>2021-06-03T13:20:43Z</time>
      </trkpt>
      <trkpt lat="43.88991" lon="6.68574">
        <ele>1280.13</ele>
        <time>2021-06-03T13:20:56Z</time>
      </trkpt>
      <trkpt lat="43.88975" lon="6.68563">
        <ele>1279.17</ele>
        <time>2021-06-03T13:21:11Z</time>
      </trkpt>
      <trkpt lat="43.88966" lon="6.68556">
        <ele>1280.13</ele>
        <time>2021-06-03T13:21:20Z</time>
      </trkpt>
      <trkpt lat="43.88963" lon="6.68556">
        <ele>1276.77</ele>
        <time>2021-06-03T13:21:24Z</time>
      </trkpt>
      <trkpt lat="43.88962" lon="6.68556">
        <ele>1280.13</ele>
        <time>2021-06-03T13:21:26Z</time>
      </trkpt>
      <trkpt lat="43.88954" lon="6.68556">
        <ele>1280.61</ele>
        <time>2021-06-03T13:21:34Z</time>
      </trkpt>
      <trkpt lat="43.88952" lon="6.68556">
        <ele>1279.65</ele>
        <time>2021-06-03T13:21:36Z</time>
      </trkpt>
      <trkpt lat="43.8895" lon="6.68557">
        <ele>1281.09</ele>
        <time>2021-06-03T13:21:38Z</time>
      </trkpt>
      <trkpt lat="43.88946" lon="6.68556">
        <ele>1276.77</ele>
        <time>2021-06-03T13:21:43Z</time>
      </trkpt>
      <trkpt lat="43.88945" lon="6.68556">
        <ele>1282.54</ele>
        <time>2021-06-03T13:21:44Z</time>
      </trkpt>
      <trkpt lat="43.88945" lon="6.68557">
        <ele>1281.09</ele>
        <time>2021-06-03T13:21:45Z</time>
      </trkpt>
      <trkpt lat="43.8894" lon="6.68559">
        <ele>1277.73</ele>
        <time>2021-06-03T13:21:49Z</time>
      </trkpt>
      <trkpt lat="43.88939" lon="6.6856">
        <ele>1281.09</ele>
        <time>2021-06-03T13:21:50Z</time>
      </trkpt>
      <trkpt lat="43.88937" lon="6.68561">
        <ele>1277.25</ele>
        <time>2021-06-03T13:21:53Z</time>
      </trkpt>
      <trkpt lat="43.88937" lon="6.68561">
        <ele>1282.54</ele>
        <time>2021-06-03T13:21:54Z</time>
      </trkpt>
      <trkpt lat="43.88934" lon="6.68562">
        <ele>1275.81</ele>
        <time>2021-06-03T13:21:56Z</time>
      </trkpt>
      <trkpt lat="43.88934" lon="6.68563">
        <ele>1280.61</ele>
        <time>2021-06-03T13:21:57Z</time>
      </trkpt>
      <trkpt lat="43.88933" lon="6.68564">
        <ele>1282.54</ele>
        <time>2021-06-03T13:21:58Z</time>
      </trkpt>
      <trkpt lat="43.8893" lon="6.68567">
        <ele>1283.02</ele>
        <time>2021-06-03T13:22:02Z</time>
      </trkpt>
      <trkpt lat="43.88925" lon="6.68574">
        <ele>1283.5</ele>
        <time>2021-06-03T13:22:06Z</time>
      </trkpt>
      <trkpt lat="43.88924" lon="6.68575">
        <ele>1280.61</ele>
        <time>2021-06-03T13:22:07Z</time>
      </trkpt>
      <trkpt lat="43.88923" lon="6.68575">
        <ele>1282.06</ele>
        <time>2021-06-03T13:22:08Z</time>
      </trkpt>
      <trkpt lat="43.8892" lon="6.68579">
        <ele>1279.17</ele>
        <time>2021-06-03T13:22:11Z</time>
      </trkpt>
      <trkpt lat="43.88919" lon="6.6858">
        <ele>1282.54</ele>
        <time>2021-06-03T13:22:12Z</time>
      </trkpt>
      <trkpt lat="43.88918" lon="6.6858">
        <ele>1284.94</ele>
        <time>2021-06-03T13:22:13Z</time>
      </trkpt>
      <trkpt lat="43.88916" lon="6.68581">
        <ele>1282.06</ele>
        <time>2021-06-03T13:22:15Z</time>
      </trkpt>
      <trkpt lat="43.88913" lon="6.68583">
        <ele>1280.13</ele>
        <time>2021-06-03T13:22:19Z</time>
      </trkpt>
      <trkpt lat="43.88909" lon="6.68585">
        <ele>1281.57</ele>
        <time>2021-06-03T13:22:23Z</time>
      </trkpt>
      <trkpt lat="43.88907" lon="6.68586">
        <ele>1286.38</ele>
        <time>2021-06-03T13:22:25Z</time>
      </trkpt>
      <trkpt lat="43.88901" lon="6.6859">
        <ele>1283.02</ele>
        <time>2021-06-03T13:22:31Z</time>
      </trkpt>
      <trkpt lat="43.889" lon="6.6859">
        <ele>1284.94</ele>
        <time>2021-06-03T13:22:32Z</time>
      </trkpt>
      <trkpt lat="43.8889" lon="6.68593">
        <ele>1283.02</ele>
        <time>2021-06-03T13:22:41Z</time>
      </trkpt>
      <trkpt lat="43.88877" lon="6.68598">
        <ele>1285.9</ele>
        <time>2021-06-03T13:22:54Z</time>
      </trkpt>
      <trkpt lat="43.88875" lon="6.68599">
        <ele>1283.5</ele>
        <time>2021-06-03T13:22:56Z</time>
      </trkpt>
      <trkpt lat="43.88873" lon="6.68601">
        <ele>1283.5</ele>
        <time>2021-06-03T13:22:58Z</time>
      </trkpt>
      <trkpt lat="43.88865" lon="6.68608">
        <ele>1284.94</ele>
        <time>2021-06-03T13:23:06Z</time>
      </trkpt>
      <trkpt lat="43.88864" lon="6.68609">
        <ele>1283.02</ele>
        <time>2021-06-03T13:23:08Z</time>
      </trkpt>
      <trkpt lat="43.88862" lon="6.68609">
        <ele>1284.94</ele>
        <time>2021-06-03T13:23:10Z</time>
      </trkpt>
      <trkpt lat="43.88861" lon="6.6861">
        <ele>1281.09</ele>
        <time>2021-06-03T13:23:11Z</time>
      </trkpt>
      <trkpt lat="43.8886" lon="6.6861">
        <ele>1284.46</ele>
        <time>2021-06-03T13:23:12Z</time>
      </trkpt>
      <trkpt lat="43.88852" lon="6.68623">
        <ele>1286.38</ele>
        <time>2021-06-03T13:23:23Z</time>
      </trkpt>
      <trkpt lat="43.8885" lon="6.68625">
        <ele>1282.54</ele>
        <time>2021-06-03T13:23:25Z</time>
      </trkpt>
      <trkpt lat="43.88847" lon="6.68627">
        <ele>1287.34</ele>
        <time>2021-06-03T13:23:27Z</time>
      </trkpt>
      <trkpt lat="43.88847" lon="6.68628">
        <ele>1283.02</ele>
        <time>2021-06-03T13:23:28Z</time>
      </trkpt>
      <trkpt lat="43.88839" lon="6.68639">
        <ele>1284.94</ele>
        <time>2021-06-03T13:23:40Z</time>
      </trkpt>
      <trkpt lat="43.88835" lon="6.68645">
        <ele>1280.61</ele>
        <time>2021-06-03T13:23:44Z</time>
      </trkpt>
      <trkpt lat="43.88834" lon="6.68646">
        <ele>1284.46</ele>
        <time>2021-06-03T13:23:45Z</time>
      </trkpt>
      <trkpt lat="43.88829" lon="6.6865">
        <ele>1284.94</ele>
        <time>2021-06-03T13:23:50Z</time>
      </trkpt>
      <trkpt lat="43.88827" lon="6.68651">
        <ele>1286.86</ele>
        <time>2021-06-03T13:23:52Z</time>
      </trkpt>
      <trkpt lat="43.88824" lon="6.68649">
        <ele>1280.13</ele>
        <time>2021-06-03T13:23:56Z</time>
      </trkpt>
      <trkpt lat="43.88824" lon="6.6865">
        <ele>1287.82</ele>
        <time>2021-06-03T13:23:57Z</time>
      </trkpt>
      <trkpt lat="43.88814" lon="6.68653">
        <ele>1286.86</ele>
        <time>2021-06-03T13:24:10Z</time>
      </trkpt>
      <trkpt lat="43.88809" lon="6.68655">
        <ele>1282.54</ele>
        <time>2021-06-03T13:24:15Z</time>
      </trkpt>
      <trkpt lat="43.88808" lon="6.68655">
        <ele>1286.86</ele>
        <time>2021-06-03T13:24:17Z</time>
      </trkpt>
      <trkpt lat="43.88807" lon="6.68655">
        <ele>1285.42</ele>
        <time>2021-06-03T13:24:18Z</time>
      </trkpt>
      <trkpt lat="43.88802" lon="6.6866">
        <ele>1286.86</ele>
        <time>2021-06-03T13:24:25Z</time>
      </trkpt>
      <trkpt lat="43.888" lon="6.68662">
        <ele>1284.94</ele>
        <time>2021-06-03T13:24:28Z</time>
      </trkpt>
      <trkpt lat="43.88796" lon="6.68663">
        <ele>1286.38</ele>
        <time>2021-06-03T13:24:33Z</time>
      </trkpt>
      <trkpt lat="43.88795" lon="6.68666">
        <ele>1287.34</ele>
        <time>2021-06-03T13:24:35Z</time>
      </trkpt>
      <trkpt lat="43.88794" lon="6.68667">
        <ele>1283.02</ele>
        <time>2021-06-03T13:24:37Z</time>
      </trkpt>
      <trkpt lat="43.88793" lon="6.68669">
        <ele>1286.38</ele>
        <time>2021-06-03T13:24:39Z</time>
      </trkpt>
      <trkpt lat="43.88792" lon="6.6867">
        <ele>1282.54</ele>
        <time>2021-06-03T13:24:40Z</time>
      </trkpt>
      <trkpt lat="43.88791" lon="6.68671">
        <ele>1284.46</ele>
        <time>2021-06-03T13:24:41Z</time>
      </trkpt>
      <trkpt lat="43.88783" lon="6.68681">
        <ele>1285.42</ele>
        <time>2021-06-03T13:24:50Z</time>
      </trkpt>
      <trkpt lat="43.88781" lon="6.68684">
        <ele>1283.5</ele>
        <time>2021-06-03T13:24:52Z</time>
      </trkpt>
      <trkpt lat="43.88779" lon="6.68686">
        <ele>1285.42</ele>
        <time>2021-06-03T13:24:54Z</time>
      </trkpt>
      <trkpt lat="43.88772" lon="6.68697">
        <ele>1284.94</ele>
        <time>2021-06-03T13:25:11Z</time>
      </trkpt>
      <trkpt lat="43.88765" lon="6.687">
        <ele>1281.57</ele>
        <time>2021-06-03T13:25:23Z</time>
      </trkpt>
      <trkpt lat="43.88757" lon="6.68703">
        <ele>1281.09</ele>
        <time>2021-06-03T13:25:36Z</time>
      </trkpt>
      <trkpt lat="43.88748" lon="6.68703">
        <ele>1279.17</ele>
        <time>2021-06-03T13:25:47Z</time>
      </trkpt>
      <trkpt lat="43.88747" lon="6.68703">
        <ele>1278.69</ele>
        <time>2021-06-03T13:25:48Z</time>
      </trkpt>
      <trkpt lat="43.88742" lon="6.68704">
        <ele>1279.65</ele>
        <time>2021-06-03T13:25:52Z</time>
      </trkpt>
      <trkpt lat="43.88736" lon="6.68706">
        <ele>1280.13</ele>
        <time>2021-06-03T13:25:57Z</time>
      </trkpt>
      <trkpt lat="43.88729" lon="6.68706">
        <ele>1280.13</ele>
        <time>2021-06-03T13:26:05Z</time>
      </trkpt>
      <trkpt lat="43.88727" lon="6.68705">
        <ele>1280.61</ele>
        <time>2021-06-03T13:26:07Z</time>
      </trkpt>
      <trkpt lat="43.88715" lon="6.68702">
        <ele>1282.54</ele>
        <time>2021-06-03T13:26:20Z</time>
      </trkpt>
      <trkpt lat="43.88704" lon="6.68698">
        <ele>1280.61</ele>
        <time>2021-06-03T13:26:34Z</time>
      </trkpt>
      <trkpt lat="43.88691" lon="6.68696">
        <ele>1280.61</ele>
        <time>2021-06-03T13:26:46Z</time>
      </trkpt>
      <trkpt lat="43.88688" lon="6.68697">
        <ele>1278.69</ele>
        <time>2021-06-03T13:26:49Z</time>
      </trkpt>
      <trkpt lat="43.88686" lon="6.68697">
        <ele>1282.06</ele>
        <time>2021-06-03T13:26:51Z</time>
      </trkpt>
      <trkpt lat="43.88683" lon="6.68697">
        <ele>1278.69</ele>
        <time>2021-06-03T13:26:53Z</time>
      </trkpt>
      <trkpt lat="43.88682" lon="6.68698">
        <ele>1281.09</ele>
        <time>2021-06-03T13:26:54Z</time>
      </trkpt>
      <trkpt lat="43.88679" lon="6.68698">
        <ele>1279.65</ele>
        <time>2021-06-03T13:26:57Z</time>
      </trkpt>
      <trkpt lat="43.88672" lon="6.68697">
        <ele>1285.42</ele>
        <time>2021-06-03T13:27:04Z</time>
      </trkpt>
      <trkpt lat="43.8867" lon="6.68697">
        <ele>1278.69</ele>
        <time>2021-06-03T13:27:05Z</time>
      </trkpt>
      <trkpt lat="43.88669" lon="6.68697">
        <ele>1282.06</ele>
        <time>2021-06-03T13:27:06Z</time>
      </trkpt>
      <trkpt lat="43.88667" lon="6.68697">
        <ele>1278.69</ele>
        <time>2021-06-03T13:27:08Z</time>
      </trkpt>
      <trkpt lat="43.88666" lon="6.68697">
        <ele>1280.61</ele>
        <time>2021-06-03T13:27:09Z</time>
      </trkpt>
      <trkpt lat="43.88661" lon="6.68697">
        <ele>1282.06</ele>
        <time>2021-06-03T13:27:14Z</time>
      </trkpt>
      <trkpt lat="43.88658" lon="6.68697">
        <ele>1280.61</ele>
        <time>2021-06-03T13:27:16Z</time>
      </trkpt>
      <trkpt lat="43.88655" lon="6.68698">
        <ele>1279.17</ele>
        <time>2021-06-03T13:27:19Z</time>
      </trkpt>
      <trkpt lat="43.88652" lon="6.68697">
        <ele>1283.02</ele>
        <time>2021-06-03T13:27:22Z</time>
      </trkpt>
      <trkpt lat="43.8865" lon="6.68696">
        <ele>1281.09</ele>
        <time>2021-06-03T13:27:24Z</time>
      </trkpt>
      <trkpt lat="43.88648" lon="6.68697">
        <ele>1283.02</ele>
        <time>2021-06-03T13:27:26Z</time>
      </trkpt>
      <trkpt lat="43.88648" lon="6.68699">
        <ele>1281.57</ele>
        <time>2021-06-03T13:27:28Z</time>
      </trkpt>
      <trkpt lat="43.88647" lon="6.68699">
        <ele>1280.61</ele>
        <time>2021-06-03T13:27:29Z</time>
      </trkpt>
      <trkpt lat="43.88643" lon="6.687">
        <ele>1277.73</ele>
        <time>2021-06-03T13:27:33Z</time>
      </trkpt>
      <trkpt lat="43.8864" lon="6.68701">
        <ele>1280.61</ele>
        <time>2021-06-03T13:27:37Z</time>
      </trkpt>
      <trkpt lat="43.8864" lon="6.68702">
        <ele>1283.5</ele>
        <time>2021-06-03T13:27:38Z</time>
      </trkpt>
      <trkpt lat="43.8864" lon="6.68701">
        <ele>1280.13</ele>
        <time>2021-06-03T13:27:39Z</time>
      </trkpt>
      <trkpt lat="43.88641" lon="6.68702">
        <ele>1283.02</ele>
        <time>2021-06-03T13:27:40Z</time>
      </trkpt>
      <trkpt lat="43.88641" lon="6.68702">
        <ele>1280.61</ele>
        <time>2021-06-03T13:27:42Z</time>
      </trkpt>
      <trkpt lat="43.88639" lon="6.68702">
        <ele>1280.13</ele>
        <time>2021-06-03T13:27:44Z</time>
      </trkpt>
      <trkpt lat="43.88636" lon="6.68702">
        <ele>1283.98</ele>
        <time>2021-06-03T13:27:46Z</time>
      </trkpt>
      <trkpt lat="43.88636" lon="6.68702">
        <ele>1282.06</ele>
        <time>2021-06-03T13:27:47Z</time>
      </trkpt>
      <trkpt lat="43.88633" lon="6.68702">
        <ele>1289.27</ele>
        <time>2021-06-03T13:27:50Z</time>
      </trkpt>
      <trkpt lat="43.88632" lon="6.68702">
        <ele>1279.65</ele>
        <time>2021-06-03T13:27:51Z</time>
      </trkpt>
      <trkpt lat="43.88625" lon="6.68703">
        <ele>1280.61</ele>
        <time>2021-06-03T13:27:58Z</time>
      </trkpt>
      <trkpt lat="43.88625" lon="6.68703">
        <ele>1282.06</ele>
        <time>2021-06-03T13:27:59Z</time>
      </trkpt>
      <trkpt lat="43.88624" lon="6.68703">
        <ele>1287.34</ele>
        <time>2021-06-03T13:28:00Z</time>
      </trkpt>
      <trkpt lat="43.88623" lon="6.68702">
        <ele>1281.57</ele>
        <time>2021-06-03T13:28:01Z</time>
      </trkpt>
      <trkpt lat="43.88621" lon="6.68703">
        <ele>1287.82</ele>
        <time>2021-06-03T13:28:03Z</time>
      </trkpt>
      <trkpt lat="43.8862" lon="6.68703">
        <ele>1283.98</ele>
        <time>2021-06-03T13:28:04Z</time>
      </trkpt>
      <trkpt lat="43.88618" lon="6.68703">
        <ele>1287.34</ele>
        <time>2021-06-03T13:28:06Z</time>
      </trkpt>
      <trkpt lat="43.88616" lon="6.68703">
        <ele>1282.06</ele>
        <time>2021-06-03T13:28:08Z</time>
      </trkpt>
      <trkpt lat="43.88615" lon="6.68704">
        <ele>1286.38</ele>
        <time>2021-06-03T13:28:09Z</time>
      </trkpt>
      <trkpt lat="43.88613" lon="6.68706">
        <ele>1283.02</ele>
        <time>2021-06-03T13:28:15Z</time>
      </trkpt>
      <trkpt lat="43.88612" lon="6.68706">
        <ele>1287.82</ele>
        <time>2021-06-03T13:28:16Z</time>
      </trkpt>
      <trkpt lat="43.88611" lon="6.68706">
        <ele>1283.98</ele>
        <time>2021-06-03T13:28:17Z</time>
      </trkpt>
      <trkpt lat="43.88609" lon="6.68705">
        <ele>1283.5</ele>
        <time>2021-06-03T13:28:20Z</time>
      </trkpt>
      <trkpt lat="43.88607" lon="6.68706">
        <ele>1288.78</ele>
        <time>2021-06-03T13:28:22Z</time>
      </trkpt>
      <trkpt lat="43.88606" lon="6.68706">
        <ele>1285.9</ele>
        <time>2021-06-03T13:28:23Z</time>
      </trkpt>
      <trkpt lat="43.88597" lon="6.68707">
        <ele>1287.34</ele>
        <time>2021-06-03T13:28:38Z</time>
      </trkpt>
      <trkpt lat="43.88594" lon="6.68708">
        <ele>1283.02</ele>
        <time>2021-06-03T13:28:42Z</time>
      </trkpt>
      <trkpt lat="43.88593" lon="6.68708">
        <ele>1286.38</ele>
        <time>2021-06-03T13:28:43Z</time>
      </trkpt>
      <trkpt lat="43.88592" lon="6.68708">
        <ele>1290.23</ele>
        <time>2021-06-03T13:28:44Z</time>
      </trkpt>
      <trkpt lat="43.88591" lon="6.68708">
        <ele>1284.46</ele>
        <time>2021-06-03T13:28:45Z</time>
      </trkpt>
      <trkpt lat="43.88589" lon="6.68708">
        <ele>1291.19</ele>
        <time>2021-06-03T13:28:47Z</time>
      </trkpt>
      <trkpt lat="43.88589" lon="6.68708">
        <ele>1284.94</ele>
        <time>2021-06-03T13:28:48Z</time>
      </trkpt>
      <trkpt lat="43.88588" lon="6.68708">
        <ele>1288.3</ele>
        <time>2021-06-03T13:28:49Z</time>
      </trkpt>
      <trkpt lat="43.88587" lon="6.68709">
        <ele>1292.63</ele>
        <time>2021-06-03T13:28:50Z</time>
      </trkpt>
      <trkpt lat="43.88586" lon="6.68709">
        <ele>1283.5</ele>
        <time>2021-06-03T13:28:51Z</time>
      </trkpt>
      <trkpt lat="43.88585" lon="6.68709">
        <ele>1289.27</ele>
        <time>2021-06-03T13:28:52Z</time>
      </trkpt>
      <trkpt lat="43.88584" lon="6.68709">
        <ele>1292.63</ele>
        <time>2021-06-03T13:28:53Z</time>
      </trkpt>
      <trkpt lat="43.88583" lon="6.68709">
        <ele>1285.42</ele>
        <time>2021-06-03T13:28:54Z</time>
      </trkpt>
      <trkpt lat="43.88582" lon="6.6871">
        <ele>1291.19</ele>
        <time>2021-06-03T13:28:55Z</time>
      </trkpt>
      <trkpt lat="43.88581" lon="6.6871">
        <ele>1287.34</ele>
        <time>2021-06-03T13:28:57Z</time>
      </trkpt>
      <trkpt lat="43.8858" lon="6.68709">
        <ele>1292.15</ele>
        <time>2021-06-03T13:28:58Z</time>
      </trkpt>
      <trkpt lat="43.88576" lon="6.68707">
        <ele>1295.99</ele>
        <time>2021-06-03T13:29:04Z</time>
      </trkpt>
      <trkpt lat="43.88575" lon="6.68706">
        <ele>1285.9</ele>
        <time>2021-06-03T13:29:05Z</time>
      </trkpt>
      <trkpt lat="43.88574" lon="6.68705">
        <ele>1292.15</ele>
        <time>2021-06-03T13:29:06Z</time>
      </trkpt>
      <trkpt lat="43.88573" lon="6.687">
        <ele>1287.82</ele>
        <time>2021-06-03T13:29:11Z</time>
      </trkpt>
      <trkpt lat="43.88573" lon="6.68699">
        <ele>1295.51</ele>
        <time>2021-06-03T13:29:12Z</time>
      </trkpt>
      <trkpt lat="43.88573" lon="6.68699">
        <ele>1292.63</ele>
        <time>2021-06-03T13:29:13Z</time>
      </trkpt>
      <trkpt lat="43.88572" lon="6.68696">
        <ele>1294.55</ele>
        <time>2021-06-03T13:29:15Z</time>
      </trkpt>
      <trkpt lat="43.88572" lon="6.68696">
        <ele>1294.07</ele>
        <time>2021-06-03T13:29:16Z</time>
      </trkpt>
      <trkpt lat="43.88572" lon="6.68694">
        <ele>1287.82</ele>
        <time>2021-06-03T13:29:17Z</time>
      </trkpt>
      <trkpt lat="43.88571" lon="6.68693">
        <ele>1293.11</ele>
        <time>2021-06-03T13:29:18Z</time>
      </trkpt>
      <trkpt lat="43.8857" lon="6.68692">
        <ele>1288.3</ele>
        <time>2021-06-03T13:29:20Z</time>
      </trkpt>
      <trkpt lat="43.88569" lon="6.68691">
        <ele>1294.55</ele>
        <time>2021-06-03T13:29:21Z</time>
      </trkpt>
      <trkpt lat="43.88569" lon="6.6869">
        <ele>1299.36</ele>
        <time>2021-06-03T13:29:22Z</time>
      </trkpt>
      <trkpt lat="43.88569" lon="6.68688">
        <ele>1289.27</ele>
        <time>2021-06-03T13:29:23Z</time>
      </trkpt>
      <trkpt lat="43.88569" lon="6.68687">
        <ele>1296.48</ele>
        <time>2021-06-03T13:29:24Z</time>
      </trkpt>
      <trkpt lat="43.88569" lon="6.68685">
        <ele>1292.15</ele>
        <time>2021-06-03T13:29:26Z</time>
      </trkpt>
      <trkpt lat="43.88569" lon="6.68684">
        <ele>1296.96</ele>
        <time>2021-06-03T13:29:27Z</time>
      </trkpt>
      <trkpt lat="43.88569" lon="6.68682">
        <ele>1292.63</ele>
        <time>2021-06-03T13:29:29Z</time>
      </trkpt>
      <trkpt lat="43.88569" lon="6.68681">
        <ele>1297.92</ele>
        <time>2021-06-03T13:29:30Z</time>
      </trkpt>
      <trkpt lat="43.88568" lon="6.68681">
        <ele>1292.63</ele>
        <time>2021-06-03T13:29:31Z</time>
      </trkpt>
      <trkpt lat="43.88566" lon="6.6868">
        <ele>1296.48</ele>
        <time>2021-06-03T13:29:34Z</time>
      </trkpt>
      <trkpt lat="43.88566" lon="6.6868">
        <ele>1293.59</ele>
        <time>2021-06-03T13:29:35Z</time>
      </trkpt>
      <trkpt lat="43.88565" lon="6.68681">
        <ele>1296.48</ele>
        <time>2021-06-03T13:29:36Z</time>
      </trkpt>
      <trkpt lat="43.88565" lon="6.68682">
        <ele>1294.07</ele>
        <time>2021-06-03T13:29:39Z</time>
      </trkpt>
      <trkpt lat="43.88565" lon="6.68689">
        <ele>1293.59</ele>
        <time>2021-06-03T13:29:52Z</time>
      </trkpt>
      <trkpt lat="43.88566" lon="6.68688">
        <ele>1290.71</ele>
        <time>2021-06-03T13:29:56Z</time>
      </trkpt>
      <trkpt lat="43.88566" lon="6.68688">
        <ele>1277.25</ele>
        <time>2021-06-03T13:29:57Z</time>
      </trkpt>
      <trkpt lat="43.88566" lon="6.68689">
        <ele>1301.28</ele>
        <time>2021-06-03T13:29:58Z</time>
      </trkpt>
      <trkpt lat="43.88566" lon="6.68689">
        <ele>1295.51</ele>
        <time>2021-06-03T13:29:59Z</time>
      </trkpt>
      <trkpt lat="43.88566" lon="6.68689">
        <ele>1293.59</ele>
        <time>2021-06-03T13:30:02Z</time>
      </trkpt>
      <trkpt lat="43.88562" lon="6.68689">
        <ele>1294.55</ele>
        <time>2021-06-03T13:30:35Z</time>
      </trkpt>
      <trkpt lat="43.88565" lon="6.68689">
        <ele>1294.07</ele>
        <time>2021-06-03T13:31:01Z</time>
      </trkpt>
      <trkpt lat="43.88566" lon="6.68688">
        <ele>1293.11</ele>
        <time>2021-06-03T13:31:28Z</time>
      </trkpt>
      <trkpt lat="43.88565" lon="6.68688">
        <ele>1297.44</ele>
        <time>2021-06-03T13:31:30Z</time>
      </trkpt>
      <trkpt lat="43.88566" lon="6.68688">
        <ele>1293.59</ele>
        <time>2021-06-03T13:31:31Z</time>
      </trkpt>
      <trkpt lat="43.88565" lon="6.68689">
        <ele>1293.59</ele>
        <time>2021-06-03T13:31:50Z</time>
      </trkpt>
      <trkpt lat="43.88565" lon="6.68693">
        <ele>1293.59</ele>
        <time>2021-06-03T13:32:20Z</time>
      </trkpt>
      <trkpt lat="43.88565" lon="6.68696">
        <ele>1293.59</ele>
        <time>2021-06-03T13:32:38Z</time>
      </trkpt>
      <trkpt lat="43.88563" lon="6.68697">
        <ele>1294.07</ele>
        <time>2021-06-03T13:33:07Z</time>
      </trkpt>
      <trkpt lat="43.88564" lon="6.68693">
        <ele>1293.59</ele>
        <time>2021-06-03T13:33:36Z</time>
      </trkpt>
      <trkpt lat="43.88565" lon="6.68688">
        <ele>1294.07</ele>
        <time>2021-06-03T13:34:00Z</time>
      </trkpt>
      <trkpt lat="43.88565" lon="6.68688">
        <ele>1294.07</ele>
        <time>2021-06-03T13:34:34Z</time>
      </trkpt>
      <trkpt lat="43.88565" lon="6.68688">
        <ele>1294.07</ele>
        <time>2021-06-03T13:35:04Z</time>
      </trkpt>
      <trkpt lat="43.88564" lon="6.6869">
        <ele>1294.07</ele>
        <time>2021-06-03T13:35:32Z</time>
      </trkpt>
      <trkpt lat="43.88564" lon="6.6869">
        <ele>1293.11</ele>
        <time>2021-06-03T13:35:39Z</time>
      </trkpt>
      <trkpt lat="43.88564" lon="6.68689">
        <ele>1294.55</ele>
        <time>2021-06-03T13:35:41Z</time>
      </trkpt>
      <trkpt lat="43.88566" lon="6.68687">
        <ele>1294.55</ele>
        <time>2021-06-03T13:36:08Z</time>
      </trkpt>
      <trkpt lat="43.88568" lon="6.68686">
        <ele>1289.75</ele>
        <time>2021-06-03T13:36:14Z</time>
      </trkpt>
      <trkpt lat="43.88568" lon="6.68687">
        <ele>1299.36</ele>
        <time>2021-06-03T13:36:15Z</time>
      </trkpt>
      <trkpt lat="43.88568" lon="6.68687">
        <ele>1291.19</ele>
        <time>2021-06-03T13:36:16Z</time>
      </trkpt>
      <trkpt lat="43.88568" lon="6.68686">
        <ele>1295.03</ele>
        <time>2021-06-03T13:36:17Z</time>
      </trkpt>
      <trkpt lat="43.88568" lon="6.68687">
        <ele>1295.99</ele>
        <time>2021-06-03T13:36:42Z</time>
      </trkpt>
      <trkpt lat="43.88568" lon="6.68685">
        <ele>1294.55</ele>
        <time>2021-06-03T13:37:10Z</time>
      </trkpt>
      <trkpt lat="43.88566" lon="6.68685">
        <ele>1294.07</ele>
        <time>2021-06-03T13:37:40Z</time>
      </trkpt>
      <trkpt lat="43.88566" lon="6.68688">
        <ele>1294.55</ele>
        <time>2021-06-03T13:37:49Z</time>
      </trkpt>
      <trkpt lat="43.88566" lon="6.68687">
        <ele>1294.55</ele>
        <time>2021-06-03T13:38:16Z</time>
      </trkpt>
      <trkpt lat="43.88566" lon="6.68687">
        <ele>1294.55</ele>
        <time>2021-06-03T13:38:36Z</time>
      </trkpt>
      <trkpt lat="43.88566" lon="6.68687">
        <ele>1294.55</ele>
        <time>2021-06-03T13:38:43Z</time>
      </trkpt>
      <trkpt lat="43.88566" lon="6.68685">
        <ele>1294.07</ele>
        <time>2021-06-03T13:39:05Z</time>
      </trkpt>
      <trkpt lat="43.88565" lon="6.68688">
        <ele>1294.55</ele>
        <time>2021-06-03T13:39:31Z</time>
      </trkpt>
      <trkpt lat="43.88566" lon="6.68688">
        <ele>1293.59</ele>
        <time>2021-06-03T13:39:59Z</time>
      </trkpt>
      <trkpt lat="43.88567" lon="6.68686">
        <ele>1294.07</ele>
        <time>2021-06-03T13:40:34Z</time>
      </trkpt>
      <trkpt lat="43.88566" lon="6.68689">
        <ele>1295.03</ele>
        <time>2021-06-03T13:41:06Z</time>
      </trkpt>
      <trkpt lat="43.88565" lon="6.6869">
        <ele>1290.23</ele>
        <time>2021-06-03T13:41:08Z</time>
      </trkpt>
      <trkpt lat="43.88565" lon="6.68691">
        <ele>1299.36</ele>
        <time>2021-06-03T13:41:09Z</time>
      </trkpt>
      <trkpt lat="43.88565" lon="6.68691">
        <ele>1294.55</ele>
        <time>2021-06-03T13:41:10Z</time>
      </trkpt>
      <trkpt lat="43.88565" lon="6.68687">
        <ele>1295.03</ele>
        <time>2021-06-03T13:41:30Z</time>
      </trkpt>
      <trkpt lat="43.88565" lon="6.68687">
        <ele>1293.59</ele>
        <time>2021-06-03T13:41:49Z</time>
      </trkpt>
      <trkpt lat="43.88566" lon="6.6868">
        <ele>1297.92</ele>
        <time>2021-06-03T13:41:56Z</time>
      </trkpt>
      <trkpt lat="43.88566" lon="6.68679">
        <ele>1293.59</ele>
        <time>2021-06-03T13:41:57Z</time>
      </trkpt>
      <trkpt lat="43.88566" lon="6.68678">
        <ele>1296.96</ele>
        <time>2021-06-03T13:41:58Z</time>
      </trkpt>
      <trkpt lat="43.8856" lon="6.68674">
        <ele>1294.07</ele>
        <time>2021-06-03T13:42:08Z</time>
      </trkpt>
      <trkpt lat="43.88552" lon="6.68666">
        <ele>1295.51</ele>
        <time>2021-06-03T13:42:20Z</time>
      </trkpt>
      <trkpt lat="43.88546" lon="6.68661">
        <ele>1294.55</ele>
        <time>2021-06-03T13:42:33Z</time>
      </trkpt>
      <trkpt lat="43.88548" lon="6.68663">
        <ele>1291.19</ele>
        <time>2021-06-03T13:42:39Z</time>
      </trkpt>
      <trkpt lat="43.88548" lon="6.68664">
        <ele>1297.44</ele>
        <time>2021-06-03T13:42:40Z</time>
      </trkpt>
      <trkpt lat="43.88549" lon="6.68664">
        <ele>1291.19</ele>
        <time>2021-06-03T13:42:41Z</time>
      </trkpt>
      <trkpt lat="43.8855" lon="6.68665">
        <ele>1295.51</ele>
        <time>2021-06-03T13:42:42Z</time>
      </trkpt>
      <trkpt lat="43.88555" lon="6.68669">
        <ele>1293.59</ele>
        <time>2021-06-03T13:42:49Z</time>
      </trkpt>
      <trkpt lat="43.88566" lon="6.68677">
        <ele>1296.48</ele>
        <time>2021-06-03T13:43:04Z</time>
      </trkpt>
      <trkpt lat="43.88566" lon="6.68681">
        <ele>1295.99</ele>
        <time>2021-06-03T13:43:17Z</time>
      </trkpt>
      <trkpt lat="43.88565" lon="6.68684">
        <ele>1295.03</ele>
        <time>2021-06-03T13:43:19Z</time>
      </trkpt>
      <trkpt lat="43.88564" lon="6.68694">
        <ele>1293.59</ele>
        <time>2021-06-03T13:43:26Z</time>
      </trkpt>
      <trkpt lat="43.8856" lon="6.687">
        <ele>1291.67</ele>
        <time>2021-06-03T13:43:32Z</time>
      </trkpt>
      <trkpt lat="43.88561" lon="6.68705">
        <ele>1291.67</ele>
        <time>2021-06-03T13:43:35Z</time>
      </trkpt>
      <trkpt lat="43.88559" lon="6.68719">
        <ele>1294.55</ele>
        <time>2021-06-03T13:43:49Z</time>
      </trkpt>
      <trkpt lat="43.88553" lon="6.68729">
        <ele>1295.99</ele>
        <time>2021-06-03T13:44:01Z</time>
      </trkpt>
      <trkpt lat="43.88542" lon="6.68722">
        <ele>1297.92</ele>
        <time>2021-06-03T13:44:15Z</time>
      </trkpt>
      <trkpt lat="43.88533" lon="6.68714">
        <ele>1297.44</ele>
        <time>2021-06-03T13:44:28Z</time>
      </trkpt>
      <trkpt lat="43.88528" lon="6.6871">
        <ele>1295.99</ele>
        <time>2021-06-03T13:44:43Z</time>
      </trkpt>
      <trkpt lat="43.88522" lon="6.68705">
        <ele>1291.19</ele>
        <time>2021-06-03T13:44:57Z</time>
      </trkpt>
      <trkpt lat="43.88513" lon="6.68699">
        <ele>1289.75</ele>
        <time>2021-06-03T13:45:11Z</time>
      </trkpt>
      <trkpt lat="43.8851" lon="6.68695">
        <ele>1288.78</ele>
        <time>2021-06-03T13:45:17Z</time>
      </trkpt>
      <trkpt lat="43.88504" lon="6.68694">
        <ele>1289.27</ele>
        <time>2021-06-03T13:45:22Z</time>
      </trkpt>
      <trkpt lat="43.88502" lon="6.68693">
        <ele>1287.82</ele>
        <time>2021-06-03T13:45:24Z</time>
      </trkpt>
      <trkpt lat="43.885" lon="6.68692">
        <ele>1288.78</ele>
        <time>2021-06-03T13:45:26Z</time>
      </trkpt>
      <trkpt lat="43.88498" lon="6.68691">
        <ele>1285.9</ele>
        <time>2021-06-03T13:45:28Z</time>
      </trkpt>
      <trkpt lat="43.88486" lon="6.6868">
        <ele>1283.98</ele>
        <time>2021-06-03T13:45:43Z</time>
      </trkpt>
      <trkpt lat="43.88485" lon="6.68667">
        <ele>1282.06</ele>
        <time>2021-06-03T13:45:56Z</time>
      </trkpt>
      <trkpt lat="43.88484" lon="6.68668">
        <ele>1281.57</ele>
        <time>2021-06-03T13:45:58Z</time>
      </trkpt>
      <trkpt lat="43.88477" lon="6.68665">
        <ele>1281.57</ele>
        <time>2021-06-03T13:46:07Z</time>
      </trkpt>
      <trkpt lat="43.88475" lon="6.68661">
        <ele>1279.65</ele>
        <time>2021-06-03T13:46:10Z</time>
      </trkpt>
      <trkpt lat="43.88474" lon="6.68656">
        <ele>1278.21</ele>
        <time>2021-06-03T13:46:22Z</time>
      </trkpt>
      <trkpt lat="43.88472" lon="6.6865">
        <ele>1279.17</ele>
        <time>2021-06-03T13:46:36Z</time>
      </trkpt>
      <trkpt lat="43.88475" lon="6.68637">
        <ele>1275.81</ele>
        <time>2021-06-03T13:46:46Z</time>
      </trkpt>
      <trkpt lat="43.88476" lon="6.68636">
        <ele>1275.81</ele>
        <time>2021-06-03T13:46:47Z</time>
      </trkpt>
      <trkpt lat="43.8848" lon="6.68629">
        <ele>1275.81</ele>
        <time>2021-06-03T13:46:58Z</time>
      </trkpt>
      <trkpt lat="43.88483" lon="6.68626">
        <ele>1274.85</ele>
        <time>2021-06-03T13:47:03Z</time>
      </trkpt>
      <trkpt lat="43.88484" lon="6.68623">
        <ele>1276.29</ele>
        <time>2021-06-03T13:47:05Z</time>
      </trkpt>
      <trkpt lat="43.88483" lon="6.6862">
        <ele>1273.88</ele>
        <time>2021-06-03T13:47:07Z</time>
      </trkpt>
      <trkpt lat="43.88479" lon="6.68619">
        <ele>1272.92</ele>
        <time>2021-06-03T13:47:11Z</time>
      </trkpt>
      <trkpt lat="43.8847" lon="6.68622">
        <ele>1271.48</ele>
        <time>2021-06-03T13:47:23Z</time>
      </trkpt>
      <trkpt lat="43.88464" lon="6.68621">
        <ele>1269.56</ele>
        <time>2021-06-03T13:47:38Z</time>
      </trkpt>
      <trkpt lat="43.88458" lon="6.68622">
        <ele>1269.08</ele>
        <time>2021-06-03T13:47:58Z</time>
      </trkpt>
      <trkpt lat="43.88458" lon="6.68622">
        <ele>1270.04</ele>
        <time>2021-06-03T13:48:14Z</time>
      </trkpt>
      <trkpt lat="43.88448" lon="6.68628">
        <ele>1267.64</ele>
        <time>2021-06-03T13:48:26Z</time>
      </trkpt>
      <trkpt lat="43.88444" lon="6.68631">
        <ele>1267.16</ele>
        <time>2021-06-03T13:48:31Z</time>
      </trkpt>
      <trkpt lat="43.88441" lon="6.68635">
        <ele>1265.71</ele>
        <time>2021-06-03T13:48:35Z</time>
      </trkpt>
      <trkpt lat="43.88438" lon="6.68638">
        <ele>1264.75</ele>
        <time>2021-06-03T13:48:39Z</time>
      </trkpt>
      <trkpt lat="43.88433" lon="6.68641">
        <ele>1263.79</ele>
        <time>2021-06-03T13:48:44Z</time>
      </trkpt>
      <trkpt lat="43.88426" lon="6.68644">
        <ele>1262.35</ele>
        <time>2021-06-03T13:48:51Z</time>
      </trkpt>
      <trkpt lat="43.88422" lon="6.68646">
        <ele>1261.39</ele>
        <time>2021-06-03T13:48:55Z</time>
      </trkpt>
      <trkpt lat="43.8842" lon="6.68648">
        <ele>1260.43</ele>
        <time>2021-06-03T13:48:59Z</time>
      </trkpt>
      <trkpt lat="43.88418" lon="6.68649">
        <ele>1258.98</ele>
        <time>2021-06-03T13:49:07Z</time>
      </trkpt>
      <trkpt lat="43.88417" lon="6.68649">
        <ele>1260.91</ele>
        <time>2021-06-03T13:49:08Z</time>
      </trkpt>
      <trkpt lat="43.88407" lon="6.68651">
        <ele>1257.54</ele>
        <time>2021-06-03T13:49:18Z</time>
      </trkpt>
      <trkpt lat="43.88397" lon="6.68653">
        <ele>1255.62</ele>
        <time>2021-06-03T13:49:30Z</time>
      </trkpt>
      <trkpt lat="43.88396" lon="6.68657">
        <ele>1258.98</ele>
        <time>2021-06-03T13:49:34Z</time>
      </trkpt>
      <trkpt lat="43.88396" lon="6.68658">
        <ele>1252.25</ele>
        <time>2021-06-03T13:49:35Z</time>
      </trkpt>
      <trkpt lat="43.88396" lon="6.68659">
        <ele>1256.1</ele>
        <time>2021-06-03T13:49:36Z</time>
      </trkpt>
      <trkpt lat="43.88396" lon="6.6866">
        <ele>1258.98</ele>
        <time>2021-06-03T13:49:37Z</time>
      </trkpt>
      <trkpt lat="43.88397" lon="6.6866">
        <ele>1254.18</ele>
        <time>2021-06-03T13:49:38Z</time>
      </trkpt>
      <trkpt lat="43.88397" lon="6.68661">
        <ele>1265.71</ele>
        <time>2021-06-03T13:49:39Z</time>
      </trkpt>
      <trkpt lat="43.88397" lon="6.68661">
        <ele>1256.58</ele>
        <time>2021-06-03T13:49:40Z</time>
      </trkpt>
      <trkpt lat="43.88398" lon="6.68661">
        <ele>1251.29</ele>
        <time>2021-06-03T13:49:44Z</time>
      </trkpt>
      <trkpt lat="43.88398" lon="6.68661">
        <ele>1262.83</ele>
        <time>2021-06-03T13:49:45Z</time>
      </trkpt>
      <trkpt lat="43.88398" lon="6.68661">
        <ele>1260.43</ele>
        <time>2021-06-03T13:49:46Z</time>
      </trkpt>
      <trkpt lat="43.88399" lon="6.68661">
        <ele>1257.06</ele>
        <time>2021-06-03T13:49:48Z</time>
      </trkpt>
      <trkpt lat="43.88399" lon="6.6866">
        <ele>1257.54</ele>
        <time>2021-06-03T13:49:49Z</time>
      </trkpt>
      <trkpt lat="43.884" lon="6.68658">
        <ele>1258.02</ele>
        <time>2021-06-03T13:50:12Z</time>
      </trkpt>
      <trkpt lat="43.88399" lon="6.68661">
        <ele>1258.02</ele>
        <time>2021-06-03T13:50:38Z</time>
      </trkpt>
      <trkpt lat="43.88402" lon="6.68663">
        <ele>1258.02</ele>
        <time>2021-06-03T13:51:01Z</time>
      </trkpt>
      <trkpt lat="43.88401" lon="6.68664">
        <ele>1258.02</ele>
        <time>2021-06-03T13:51:32Z</time>
      </trkpt>
      <trkpt lat="43.88396" lon="6.68662">
        <ele>1262.35</ele>
        <time>2021-06-03T13:51:46Z</time>
      </trkpt>
      <trkpt lat="43.88396" lon="6.68661">
        <ele>1258.5</ele>
        <time>2021-06-03T13:51:47Z</time>
      </trkpt>
      <trkpt lat="43.88394" lon="6.6866">
        <ele>1257.54</ele>
        <time>2021-06-03T13:52:07Z</time>
      </trkpt>
      <trkpt lat="43.88392" lon="6.68654">
        <ele>1258.5</ele>
        <time>2021-06-03T13:52:39Z</time>
      </trkpt>
      <trkpt lat="43.88395" lon="6.68649">
        <ele>1255.14</ele>
        <time>2021-06-03T13:52:46Z</time>
      </trkpt>
      <trkpt lat="43.88389" lon="6.68649">
        <ele>1254.66</ele>
        <time>2021-06-03T13:52:53Z</time>
      </trkpt>
      <trkpt lat="43.88384" lon="6.68649">
        <ele>1254.18</ele>
        <time>2021-06-03T13:52:59Z</time>
      </trkpt>
      <trkpt lat="43.88381" lon="6.68649">
        <ele>1252.25</ele>
        <time>2021-06-03T13:53:02Z</time>
      </trkpt>
      <trkpt lat="43.88373" lon="6.6865">
        <ele>1249.37</ele>
        <time>2021-06-03T13:53:12Z</time>
      </trkpt>
      <trkpt lat="43.88362" lon="6.68653">
        <ele>1246.49</ele>
        <time>2021-06-03T13:53:23Z</time>
      </trkpt>
      <trkpt lat="43.88356" lon="6.68652">
        <ele>1244.56</ele>
        <time>2021-06-03T13:53:29Z</time>
      </trkpt>
      <trkpt lat="43.88352" lon="6.68654">
        <ele>1243.12</ele>
        <time>2021-06-03T13:53:35Z</time>
      </trkpt>
      <trkpt lat="43.88342" lon="6.68655">
        <ele>1240.72</ele>
        <time>2021-06-03T13:53:45Z</time>
      </trkpt>
      <trkpt lat="43.88335" lon="6.68654">
        <ele>1239.28</ele>
        <time>2021-06-03T13:53:51Z</time>
      </trkpt>
      <trkpt lat="43.88331" lon="6.68652">
        <ele>1238.32</ele>
        <time>2021-06-03T13:53:56Z</time>
      </trkpt>
      <trkpt lat="43.88327" lon="6.6865">
        <ele>1237.35</ele>
        <time>2021-06-03T13:54:00Z</time>
      </trkpt>
      <trkpt lat="43.88318" lon="6.68648">
        <ele>1235.91</ele>
        <time>2021-06-03T13:54:13Z</time>
      </trkpt>
      <trkpt lat="43.88316" lon="6.68648">
        <ele>1234.95</ele>
        <time>2021-06-03T13:54:15Z</time>
      </trkpt>
      <trkpt lat="43.88311" lon="6.68648">
        <ele>1234.47</ele>
        <time>2021-06-03T13:54:28Z</time>
      </trkpt>
      <trkpt lat="43.8831" lon="6.68648">
        <ele>1234.95</ele>
        <time>2021-06-03T13:54:52Z</time>
      </trkpt>
      <trkpt lat="43.88311" lon="6.68646">
        <ele>1235.43</ele>
        <time>2021-06-03T13:55:22Z</time>
      </trkpt>
      <trkpt lat="43.88306" lon="6.68647">
        <ele>1234.95</ele>
        <time>2021-06-03T13:55:49Z</time>
      </trkpt>
      <trkpt lat="43.88308" lon="6.68645">
        <ele>1234.47</ele>
        <time>2021-06-03T13:56:16Z</time>
      </trkpt>
      <trkpt lat="43.88309" lon="6.68647">
        <ele>1234.95</ele>
        <time>2021-06-03T13:56:49Z</time>
      </trkpt>
      <trkpt lat="43.88309" lon="6.68647">
        <ele>1234.47</ele>
        <time>2021-06-03T13:57:24Z</time>
      </trkpt>
      <trkpt lat="43.8831" lon="6.68647">
        <ele>1234.47</ele>
        <time>2021-06-03T13:58:00Z</time>
      </trkpt>
      <trkpt lat="43.88309" lon="6.68648">
        <ele>1234.47</ele>
        <time>2021-06-03T13:58:43Z</time>
      </trkpt>
      <trkpt lat="43.88306" lon="6.68656">
        <ele>1233.99</ele>
        <time>2021-06-03T13:59:00Z</time>
      </trkpt>
      <trkpt lat="43.88304" lon="6.68657">
        <ele>1229.18</ele>
        <time>2021-06-03T13:59:02Z</time>
      </trkpt>
      <trkpt lat="43.88304" lon="6.68658">
        <ele>1232.55</ele>
        <time>2021-06-03T13:59:03Z</time>
      </trkpt>
      <trkpt lat="43.88302" lon="6.68661">
        <ele>1232.07</ele>
        <time>2021-06-03T13:59:07Z</time>
      </trkpt>
      <trkpt lat="43.88299" lon="6.68666">
        <ele>1230.14</ele>
        <time>2021-06-03T13:59:13Z</time>
      </trkpt>
      <trkpt lat="43.88292" lon="6.68672">
        <ele>1226.3</ele>
        <time>2021-06-03T13:59:22Z</time>
      </trkpt>
      <trkpt lat="43.88291" lon="6.68673">
        <ele>1229.18</ele>
        <time>2021-06-03T13:59:24Z</time>
      </trkpt>
      <trkpt lat="43.88288" lon="6.68679">
        <ele>1225.82</ele>
        <time>2021-06-03T13:59:30Z</time>
      </trkpt>
      <trkpt lat="43.88287" lon="6.68681">
        <ele>1226.3</ele>
        <time>2021-06-03T13:59:39Z</time>
      </trkpt>
      <trkpt lat="43.88286" lon="6.68683">
        <ele>1228.7</ele>
        <time>2021-06-03T13:59:41Z</time>
      </trkpt>
      <trkpt lat="43.88284" lon="6.68686">
        <ele>1224.86</ele>
        <time>2021-06-03T13:59:44Z</time>
      </trkpt>
      <trkpt lat="43.88283" lon="6.68688">
        <ele>1226.3</ele>
        <time>2021-06-03T13:59:46Z</time>
      </trkpt>
      <trkpt lat="43.88277" lon="6.68694">
        <ele>1222.45</ele>
        <time>2021-06-03T13:59:53Z</time>
      </trkpt>
      <trkpt lat="43.88276" lon="6.68695">
        <ele>1222.93</ele>
        <time>2021-06-03T13:59:54Z</time>
      </trkpt>
      <trkpt lat="43.88272" lon="6.68702">
        <ele>1223.42</ele>
        <time>2021-06-03T14:00:04Z</time>
      </trkpt>
      <trkpt lat="43.88271" lon="6.68705">
        <ele>1221.01</ele>
        <time>2021-06-03T14:00:06Z</time>
      </trkpt>
      <trkpt lat="43.88266" lon="6.68715">
        <ele>1217.17</ele>
        <time>2021-06-03T14:00:16Z</time>
      </trkpt>
      <trkpt lat="43.88261" lon="6.68725">
        <ele>1216.21</ele>
        <time>2021-06-03T14:00:25Z</time>
      </trkpt>
      <trkpt lat="43.88253" lon="6.68734">
        <ele>1214.28</ele>
        <time>2021-06-03T14:00:35Z</time>
      </trkpt>
      <trkpt lat="43.88251" lon="6.68741">
        <ele>1214.28</ele>
        <time>2021-06-03T14:00:40Z</time>
      </trkpt>
      <trkpt lat="43.8825" lon="6.68744">
        <ele>1215.72</ele>
        <time>2021-06-03T14:00:42Z</time>
      </trkpt>
      <trkpt lat="43.8825" lon="6.68746">
        <ele>1213.32</ele>
        <time>2021-06-03T14:00:44Z</time>
      </trkpt>
      <trkpt lat="43.88247" lon="6.68752">
        <ele>1212.84</ele>
        <time>2021-06-03T14:00:49Z</time>
      </trkpt>
      <trkpt lat="43.88245" lon="6.6876">
        <ele>1209.48</ele>
        <time>2021-06-03T14:00:54Z</time>
      </trkpt>
      <trkpt lat="43.88245" lon="6.68763">
        <ele>1213.32</ele>
        <time>2021-06-03T14:00:56Z</time>
      </trkpt>
      <trkpt lat="43.88244" lon="6.68766">
        <ele>1209.48</ele>
        <time>2021-06-03T14:00:58Z</time>
      </trkpt>
      <trkpt lat="43.88244" lon="6.68768">
        <ele>1213.32</ele>
        <time>2021-06-03T14:01:00Z</time>
      </trkpt>
      <trkpt lat="43.88242" lon="6.68772">
        <ele>1210.92</ele>
        <time>2021-06-03T14:01:14Z</time>
      </trkpt>
      <trkpt lat="43.8824" lon="6.68772">
        <ele>1214.28</ele>
        <time>2021-06-03T14:01:25Z</time>
      </trkpt>
      <trkpt lat="43.8824" lon="6.68773">
        <ele>1210.92</ele>
        <time>2021-06-03T14:01:27Z</time>
      </trkpt>
      <trkpt lat="43.88239" lon="6.68773">
        <ele>1211.4</ele>
        <time>2021-06-03T14:01:38Z</time>
      </trkpt>
      <trkpt lat="43.88233" lon="6.68777">
        <ele>1208.03</ele>
        <time>2021-06-03T14:01:50Z</time>
      </trkpt>
      <trkpt lat="43.88225" lon="6.68781">
        <ele>1209.48</ele>
        <time>2021-06-03T14:01:58Z</time>
      </trkpt>
      <trkpt lat="43.88223" lon="6.68783">
        <ele>1207.55</ele>
        <time>2021-06-03T14:02:00Z</time>
      </trkpt>
      <trkpt lat="43.88219" lon="6.68787">
        <ele>1207.07</ele>
        <time>2021-06-03T14:02:05Z</time>
      </trkpt>
      <trkpt lat="43.88218" lon="6.68787">
        <ele>1208.03</ele>
        <time>2021-06-03T14:02:06Z</time>
      </trkpt>
      <trkpt lat="43.8821" lon="6.68791">
        <ele>1205.63</ele>
        <time>2021-06-03T14:02:14Z</time>
      </trkpt>
      <trkpt lat="43.88204" lon="6.68795">
        <ele>1202.27</ele>
        <time>2021-06-03T14:02:20Z</time>
      </trkpt>
      <trkpt lat="43.88201" lon="6.68797">
        <ele>1205.63</ele>
        <time>2021-06-03T14:02:23Z</time>
      </trkpt>
      <trkpt lat="43.882" lon="6.68801">
        <ele>1203.71</ele>
        <time>2021-06-03T14:02:26Z</time>
      </trkpt>
      <trkpt lat="43.88199" lon="6.68804">
        <ele>1205.15</ele>
        <time>2021-06-03T14:02:28Z</time>
      </trkpt>
      <trkpt lat="43.88198" lon="6.68807">
        <ele>1202.75</ele>
        <time>2021-06-03T14:02:30Z</time>
      </trkpt>
      <trkpt lat="43.88193" lon="6.68825">
        <ele>1203.71</ele>
        <time>2021-06-03T14:02:44Z</time>
      </trkpt>
      <trkpt lat="43.88193" lon="6.68826">
        <ele>1201.79</ele>
        <time>2021-06-03T14:02:45Z</time>
      </trkpt>
      <trkpt lat="43.88187" lon="6.68835">
        <ele>1199.86</ele>
        <time>2021-06-03T14:02:54Z</time>
      </trkpt>
      <trkpt lat="43.88183" lon="6.68841">
        <ele>1199.38</ele>
        <time>2021-06-03T14:03:00Z</time>
      </trkpt>
      <trkpt lat="43.88178" lon="6.68841">
        <ele>1206.59</ele>
        <time>2021-06-03T14:03:08Z</time>
      </trkpt>
      <trkpt lat="43.88178" lon="6.6884">
        <ele>1197.94</ele>
        <time>2021-06-03T14:03:09Z</time>
      </trkpt>
      <trkpt lat="43.88169" lon="6.68839">
        <ele>1196.98</ele>
        <time>2021-06-03T14:03:20Z</time>
      </trkpt>
      <trkpt lat="43.88165" lon="6.68839">
        <ele>1196.02</ele>
        <time>2021-06-03T14:03:24Z</time>
      </trkpt>
      <trkpt lat="43.88163" lon="6.68838">
        <ele>1197.46</ele>
        <time>2021-06-03T14:03:26Z</time>
      </trkpt>
      <trkpt lat="43.88154" lon="6.68837">
        <ele>1194.09</ele>
        <time>2021-06-03T14:03:39Z</time>
      </trkpt>
      <trkpt lat="43.88154" lon="6.68837">
        <ele>1194.58</ele>
        <time>2021-06-03T14:03:40Z</time>
      </trkpt>
      <trkpt lat="43.88149" lon="6.68834">
        <ele>1194.58</ele>
        <time>2021-06-03T14:03:54Z</time>
      </trkpt>
      <trkpt lat="43.88141" lon="6.68836">
        <ele>1193.13</ele>
        <time>2021-06-03T14:04:06Z</time>
      </trkpt>
      <trkpt lat="43.88139" lon="6.68836">
        <ele>1194.09</ele>
        <time>2021-06-03T14:04:08Z</time>
      </trkpt>
      <trkpt lat="43.88138" lon="6.68836">
        <ele>1192.65</ele>
        <time>2021-06-03T14:04:10Z</time>
      </trkpt>
      <trkpt lat="43.88129" lon="6.68842">
        <ele>1190.73</ele>
        <time>2021-06-03T14:04:22Z</time>
      </trkpt>
      <trkpt lat="43.88127" lon="6.68843">
        <ele>1192.17</ele>
        <time>2021-06-03T14:04:25Z</time>
      </trkpt>
      <trkpt lat="43.88125" lon="6.68843">
        <ele>1187.85</ele>
        <time>2021-06-03T14:04:27Z</time>
      </trkpt>
      <trkpt lat="43.88115" lon="6.68845">
        <ele>1187.85</ele>
        <time>2021-06-03T14:04:40Z</time>
      </trkpt>
      <trkpt lat="43.88114" lon="6.68846">
        <ele>1187.37</ele>
        <time>2021-06-03T14:04:43Z</time>
      </trkpt>
      <trkpt lat="43.88111" lon="6.68846">
        <ele>1185.44</ele>
        <time>2021-06-03T14:04:45Z</time>
      </trkpt>
      <trkpt lat="43.88108" lon="6.68847">
        <ele>1185.44</ele>
        <time>2021-06-03T14:04:48Z</time>
      </trkpt>
      <trkpt lat="43.88104" lon="6.68848">
        <ele>1186.88</ele>
        <time>2021-06-03T14:04:52Z</time>
      </trkpt>
      <trkpt lat="43.881" lon="6.68848">
        <ele>1183.04</ele>
        <time>2021-06-03T14:04:57Z</time>
      </trkpt>
      <trkpt lat="43.88098" lon="6.68849">
        <ele>1183.04</ele>
        <time>2021-06-03T14:04:58Z</time>
      </trkpt>
      <trkpt lat="43.88096" lon="6.68853">
        <ele>1185.92</ele>
        <time>2021-06-03T14:05:01Z</time>
      </trkpt>
      <trkpt lat="43.88095" lon="6.6886">
        <ele>1186.88</ele>
        <time>2021-06-03T14:05:11Z</time>
      </trkpt>
      <trkpt lat="43.88095" lon="6.68861">
        <ele>1183.52</ele>
        <time>2021-06-03T14:05:23Z</time>
      </trkpt>
      <trkpt lat="43.88092" lon="6.68859">
        <ele>1184.48</ele>
        <time>2021-06-03T14:05:45Z</time>
      </trkpt>
      <trkpt lat="43.88092" lon="6.68863">
        <ele>1183.04</ele>
        <time>2021-06-03T14:05:47Z</time>
      </trkpt>
      <trkpt lat="43.88091" lon="6.68866">
        <ele>1185.92</ele>
        <time>2021-06-03T14:05:49Z</time>
      </trkpt>
      <trkpt lat="43.88091" lon="6.68868">
        <ele>1183.04</ele>
        <time>2021-06-03T14:05:50Z</time>
      </trkpt>
      <trkpt lat="43.88093" lon="6.68874">
        <ele>1184.96</ele>
        <time>2021-06-03T14:05:54Z</time>
      </trkpt>
      <trkpt lat="43.88093" lon="6.68878">
        <ele>1182.56</ele>
        <time>2021-06-03T14:05:57Z</time>
      </trkpt>
      <trkpt lat="43.88096" lon="6.68884">
        <ele>1182.56</ele>
        <time>2021-06-03T14:06:12Z</time>
      </trkpt>
      <trkpt lat="43.88099" lon="6.68884">
        <ele>1183.04</ele>
        <time>2021-06-03T14:06:27Z</time>
      </trkpt>
      <trkpt lat="43.88102" lon="6.68884">
        <ele>1182.56</ele>
        <time>2021-06-03T14:06:51Z</time>
      </trkpt>
      <trkpt lat="43.88099" lon="6.6888">
        <ele>1182.56</ele>
        <time>2021-06-03T14:07:16Z</time>
      </trkpt>
      <trkpt lat="43.88092" lon="6.68891">
        <ele>1182.08</ele>
        <time>2021-06-03T14:07:48Z</time>
      </trkpt>
      <trkpt lat="43.88093" lon="6.68889">
        <ele>1183.04</ele>
        <time>2021-06-03T14:08:17Z</time>
      </trkpt>
      <trkpt lat="43.88095" lon="6.68892">
        <ele>1182.08</ele>
        <time>2021-06-03T14:08:49Z</time>
      </trkpt>
      <trkpt lat="43.88094" lon="6.68888">
        <ele>1184</ele>
        <time>2021-06-03T14:09:23Z</time>
      </trkpt>
      <trkpt lat="43.88096" lon="6.68891">
        <ele>1183.04</ele>
        <time>2021-06-03T14:09:36Z</time>
      </trkpt>
      <trkpt lat="43.88097" lon="6.68889">
        <ele>1182.56</ele>
        <time>2021-06-03T14:09:51Z</time>
      </trkpt>
      <trkpt lat="43.88099" lon="6.6889">
        <ele>1182.08</ele>
        <time>2021-06-03T14:10:16Z</time>
      </trkpt>
      <trkpt lat="43.88096" lon="6.68889">
        <ele>1182.56</ele>
        <time>2021-06-03T14:10:37Z</time>
      </trkpt>
      <trkpt lat="43.88099" lon="6.68895">
        <ele>1183.04</ele>
        <time>2021-06-03T14:10:54Z</time>
      </trkpt>
      <trkpt lat="43.881" lon="6.68892">
        <ele>1184</ele>
        <time>2021-06-03T14:11:07Z</time>
      </trkpt>
      <trkpt lat="43.88101" lon="6.68892">
        <ele>1182.08</ele>
        <time>2021-06-03T14:11:09Z</time>
      </trkpt>
      <trkpt lat="43.88102" lon="6.68894">
        <ele>1182.08</ele>
        <time>2021-06-03T14:11:25Z</time>
      </trkpt>
      <trkpt lat="43.88103" lon="6.689">
        <ele>1182.08</ele>
        <time>2021-06-03T14:11:43Z</time>
      </trkpt>
      <trkpt lat="43.88111" lon="6.68911">
        <ele>1182.08</ele>
        <time>2021-06-03T14:11:58Z</time>
      </trkpt>
      <trkpt lat="43.88115" lon="6.68922">
        <ele>1180.16</ele>
        <time>2021-06-03T14:12:09Z</time>
      </trkpt>
      <trkpt lat="43.88116" lon="6.68925">
        <ele>1179.67</ele>
        <time>2021-06-03T14:12:13Z</time>
      </trkpt>
      <trkpt lat="43.88121" lon="6.68943">
        <ele>1179.19</ele>
        <time>2021-06-03T14:12:25Z</time>
      </trkpt>
      <trkpt lat="43.88122" lon="6.6895">
        <ele>1180.16</ele>
        <time>2021-06-03T14:12:30Z</time>
      </trkpt>
      <trkpt lat="43.88121" lon="6.68957">
        <ele>1178.71</ele>
        <time>2021-06-03T14:12:35Z</time>
      </trkpt>
      <trkpt lat="43.88121" lon="6.68959">
        <ele>1182.08</ele>
        <time>2021-06-03T14:12:36Z</time>
      </trkpt>
      <trkpt lat="43.8812" lon="6.68961">
        <ele>1178.71</ele>
        <time>2021-06-03T14:12:38Z</time>
      </trkpt>
      <trkpt lat="43.88117" lon="6.68966">
        <ele>1182.56</ele>
        <time>2021-06-03T14:12:50Z</time>
      </trkpt>
      <trkpt lat="43.88117" lon="6.68967">
        <ele>1178.23</ele>
        <time>2021-06-03T14:12:51Z</time>
      </trkpt>
      <trkpt lat="43.88115" lon="6.68971">
        <ele>1180.64</ele>
        <time>2021-06-03T14:13:04Z</time>
      </trkpt>
      <trkpt lat="43.88114" lon="6.68972">
        <ele>1180.16</ele>
        <time>2021-06-03T14:13:12Z</time>
      </trkpt>
      <trkpt lat="43.88114" lon="6.68973">
        <ele>1166.7</ele>
        <time>2021-06-03T14:13:15Z</time>
      </trkpt>
      <trkpt lat="43.88115" lon="6.68973">
        <ele>1190.73</ele>
        <time>2021-06-03T14:13:16Z</time>
      </trkpt>
      <trkpt lat="43.88115" lon="6.68974">
        <ele>1180.64</ele>
        <time>2021-06-03T14:13:17Z</time>
      </trkpt>
      <trkpt lat="43.88115" lon="6.68974">
        <ele>1179.67</ele>
        <time>2021-06-03T14:13:21Z</time>
      </trkpt>
      <trkpt lat="43.88124" lon="6.68972">
        <ele>1174.39</ele>
        <time>2021-06-03T14:13:47Z</time>
      </trkpt>
      <trkpt lat="43.88124" lon="6.68972">
        <ele>1184.48</ele>
        <time>2021-06-03T14:13:48Z</time>
      </trkpt>
      <trkpt lat="43.88123" lon="6.68973">
        <ele>1180.16</ele>
        <time>2021-06-03T14:13:49Z</time>
      </trkpt>
      <trkpt lat="43.88117" lon="6.68973">
        <ele>1180.64</ele>
        <time>2021-06-03T14:13:54Z</time>
      </trkpt>
      <trkpt lat="43.88112" lon="6.68983">
        <ele>1182.08</ele>
        <time>2021-06-03T14:14:03Z</time>
      </trkpt>
      <trkpt lat="43.88111" lon="6.68985">
        <ele>1178.71</ele>
        <time>2021-06-03T14:14:05Z</time>
      </trkpt>
      <trkpt lat="43.8811" lon="6.68986">
        <ele>1182.08</ele>
        <time>2021-06-03T14:14:07Z</time>
      </trkpt>
      <trkpt lat="43.8811" lon="6.68987">
        <ele>1179.19</ele>
        <time>2021-06-03T14:14:08Z</time>
      </trkpt>
      <trkpt lat="43.88109" lon="6.68989">
        <ele>1183.04</ele>
        <time>2021-06-03T14:14:10Z</time>
      </trkpt>
      <trkpt lat="43.88109" lon="6.68991">
        <ele>1181.12</ele>
        <time>2021-06-03T14:14:11Z</time>
      </trkpt>
      <trkpt lat="43.88107" lon="6.68997">
        <ele>1177.27</ele>
        <time>2021-06-03T14:14:15Z</time>
      </trkpt>
      <trkpt lat="43.88107" lon="6.68998">
        <ele>1181.6</ele>
        <time>2021-06-03T14:14:16Z</time>
      </trkpt>
      <trkpt lat="43.88105" lon="6.69004">
        <ele>1177.75</ele>
        <time>2021-06-03T14:14:22Z</time>
      </trkpt>
      <trkpt lat="43.88103" lon="6.69005">
        <ele>1182.08</ele>
        <time>2021-06-03T14:14:24Z</time>
      </trkpt>
      <trkpt lat="43.88103" lon="6.69006">
        <ele>1181.12</ele>
        <time>2021-06-03T14:14:25Z</time>
      </trkpt>
      <trkpt lat="43.881" lon="6.69007">
        <ele>1180.16</ele>
        <time>2021-06-03T14:14:28Z</time>
      </trkpt>
      <trkpt lat="43.88099" lon="6.6901">
        <ele>1181.12</ele>
        <time>2021-06-03T14:14:31Z</time>
      </trkpt>
      <trkpt lat="43.88098" lon="6.69011">
        <ele>1178.23</ele>
        <time>2021-06-03T14:14:32Z</time>
      </trkpt>
      <trkpt lat="43.88098" lon="6.69013">
        <ele>1181.6</ele>
        <time>2021-06-03T14:14:33Z</time>
      </trkpt>
      <trkpt lat="43.88096" lon="6.69019">
        <ele>1182.08</ele>
        <time>2021-06-03T14:14:38Z</time>
      </trkpt>
      <trkpt lat="43.88096" lon="6.6902">
        <ele>1181.6</ele>
        <time>2021-06-03T14:14:40Z</time>
      </trkpt>
      <trkpt lat="43.88088" lon="6.69031">
        <ele>1178.23</ele>
        <time>2021-06-03T14:14:55Z</time>
      </trkpt>
      <trkpt lat="43.88076" lon="6.69041">
        <ele>1178.23</ele>
        <time>2021-06-03T14:15:09Z</time>
      </trkpt>
      <trkpt lat="43.88074" lon="6.69047">
        <ele>1178.23</ele>
        <time>2021-06-03T14:15:26Z</time>
      </trkpt>
      <trkpt lat="43.88075" lon="6.69051">
        <ele>1177.27</ele>
        <time>2021-06-03T14:15:40Z</time>
      </trkpt>
      <trkpt lat="43.8807" lon="6.69058">
        <ele>1178.23</ele>
        <time>2021-06-03T14:15:48Z</time>
      </trkpt>
      <trkpt lat="43.88063" lon="6.69065">
        <ele>1175.35</ele>
        <time>2021-06-03T14:16:02Z</time>
      </trkpt>
      <trkpt lat="43.88063" lon="6.69065">
        <ele>1178.23</ele>
        <time>2021-06-03T14:16:03Z</time>
      </trkpt>
      <trkpt lat="43.88062" lon="6.69068">
        <ele>1177.27</ele>
        <time>2021-06-03T14:16:18Z</time>
      </trkpt>
      <trkpt lat="43.88059" lon="6.69073">
        <ele>1176.79</ele>
        <time>2021-06-03T14:16:28Z</time>
      </trkpt>
      <trkpt lat="43.88057" lon="6.69077">
        <ele>1178.23</ele>
        <time>2021-06-03T14:16:33Z</time>
      </trkpt>
      <trkpt lat="43.88051" lon="6.6908">
        <ele>1177.75</ele>
        <time>2021-06-03T14:16:45Z</time>
      </trkpt>
      <trkpt lat="43.88043" lon="6.69088">
        <ele>1179.19</ele>
        <time>2021-06-03T14:16:59Z</time>
      </trkpt>
      <trkpt lat="43.88043" lon="6.69088">
        <ele>1175.83</ele>
        <time>2021-06-03T14:17:00Z</time>
      </trkpt>
      <trkpt lat="43.88041" lon="6.6909">
        <ele>1179.67</ele>
        <time>2021-06-03T14:17:02Z</time>
      </trkpt>
      <trkpt lat="43.8804" lon="6.6909">
        <ele>1174.87</ele>
        <time>2021-06-03T14:17:03Z</time>
      </trkpt>
      <trkpt lat="43.88039" lon="6.69091">
        <ele>1179.19</ele>
        <time>2021-06-03T14:17:04Z</time>
      </trkpt>
      <trkpt lat="43.88033" lon="6.69097">
        <ele>1173.91</ele>
        <time>2021-06-03T14:17:20Z</time>
      </trkpt>
      <trkpt lat="43.88033" lon="6.69098">
        <ele>1179.67</ele>
        <time>2021-06-03T14:17:21Z</time>
      </trkpt>
      <trkpt lat="43.88027" lon="6.69103">
        <ele>1175.35</ele>
        <time>2021-06-03T14:17:28Z</time>
      </trkpt>
      <trkpt lat="43.88025" lon="6.69105">
        <ele>1181.6</ele>
        <time>2021-06-03T14:17:30Z</time>
      </trkpt>
      <trkpt lat="43.88023" lon="6.69106">
        <ele>1179.67</ele>
        <time>2021-06-03T14:17:32Z</time>
      </trkpt>
      <trkpt lat="43.88016" lon="6.69115">
        <ele>1181.12</ele>
        <time>2021-06-03T14:17:46Z</time>
      </trkpt>
      <trkpt lat="43.88013" lon="6.69118">
        <ele>1181.6</ele>
        <time>2021-06-03T14:17:51Z</time>
      </trkpt>
      <trkpt lat="43.88013" lon="6.69119">
        <ele>1177.75</ele>
        <time>2021-06-03T14:17:52Z</time>
      </trkpt>
      <trkpt lat="43.8801" lon="6.69123">
        <ele>1182.08</ele>
        <time>2021-06-03T14:17:56Z</time>
      </trkpt>
      <trkpt lat="43.8801" lon="6.69123">
        <ele>1178.23</ele>
        <time>2021-06-03T14:17:57Z</time>
      </trkpt>
      <trkpt lat="43.88008" lon="6.69126">
        <ele>1181.6</ele>
        <time>2021-06-03T14:18:01Z</time>
      </trkpt>
      <trkpt lat="43.88006" lon="6.6913">
        <ele>1179.19</ele>
        <time>2021-06-03T14:18:17Z</time>
      </trkpt>
      <trkpt lat="43.88003" lon="6.69131">
        <ele>1180.16</ele>
        <time>2021-06-03T14:18:39Z</time>
      </trkpt>
      <trkpt lat="43.88005" lon="6.69134">
        <ele>1183.04</ele>
        <time>2021-06-03T14:18:44Z</time>
      </trkpt>
      <trkpt lat="43.88006" lon="6.69135">
        <ele>1179.19</ele>
        <time>2021-06-03T14:18:45Z</time>
      </trkpt>
      <trkpt lat="43.88005" lon="6.69143">
        <ele>1180.64</ele>
        <time>2021-06-03T14:18:59Z</time>
      </trkpt>
      <trkpt lat="43.88006" lon="6.69144">
        <ele>1179.67</ele>
        <time>2021-06-03T14:19:02Z</time>
      </trkpt>
      <trkpt lat="43.88009" lon="6.69147">
        <ele>1180.16</ele>
        <time>2021-06-03T14:19:17Z</time>
      </trkpt>
      <trkpt lat="43.88009" lon="6.69139">
        <ele>1181.6</ele>
        <time>2021-06-03T14:19:28Z</time>
      </trkpt>
      <trkpt lat="43.88008" lon="6.69131">
        <ele>1181.6</ele>
        <time>2021-06-03T14:19:36Z</time>
      </trkpt>
      <trkpt lat="43.88007" lon="6.6913">
        <ele>1178.23</ele>
        <time>2021-06-03T14:19:37Z</time>
      </trkpt>
      <trkpt lat="43.88002" lon="6.69119">
        <ele>1178.71</ele>
        <time>2021-06-03T14:19:51Z</time>
      </trkpt>
      <trkpt lat="43.88009" lon="6.69115">
        <ele>1182.08</ele>
        <time>2021-06-03T14:20:04Z</time>
      </trkpt>
      <trkpt lat="43.88009" lon="6.69115">
        <ele>1178.23</ele>
        <time>2021-06-03T14:20:05Z</time>
      </trkpt>
      <trkpt lat="43.88011" lon="6.69114">
        <ele>1178.71</ele>
        <time>2021-06-03T14:20:18Z</time>
      </trkpt>
      <trkpt lat="43.88006" lon="6.69114">
        <ele>1179.19</ele>
        <time>2021-06-03T14:20:32Z</time>
      </trkpt>
      <trkpt lat="43.88005" lon="6.69115">
        <ele>1181.6</ele>
        <time>2021-06-03T14:20:36Z</time>
      </trkpt>
      <trkpt lat="43.87997" lon="6.69123">
        <ele>1179.19</ele>
        <time>2021-06-03T14:20:52Z</time>
      </trkpt>
      <trkpt lat="43.87998" lon="6.69121">
        <ele>1180.64</ele>
        <time>2021-06-03T14:21:03Z</time>
      </trkpt>
      <trkpt lat="43.88" lon="6.69122">
        <ele>1179.19</ele>
        <time>2021-06-03T14:21:18Z</time>
      </trkpt>
      <trkpt lat="43.88002" lon="6.69122">
        <ele>1179.67</ele>
        <time>2021-06-03T14:21:32Z</time>
      </trkpt>
      <trkpt lat="43.88002" lon="6.69121">
        <ele>1179.67</ele>
        <time>2021-06-03T14:21:33Z</time>
      </trkpt>
      <trkpt lat="43.88004" lon="6.69121">
        <ele>1179.19</ele>
        <time>2021-06-03T14:21:42Z</time>
      </trkpt>
      <trkpt lat="43.88006" lon="6.69124">
        <ele>1179.19</ele>
        <time>2021-06-03T14:22:02Z</time>
      </trkpt>
      <trkpt lat="43.88003" lon="6.69125">
        <ele>1179.67</ele>
        <time>2021-06-03T14:22:26Z</time>
      </trkpt>
      <trkpt lat="43.88005" lon="6.69126">
        <ele>1179.19</ele>
        <time>2021-06-03T14:22:48Z</time>
      </trkpt>
      <trkpt lat="43.88004" lon="6.69126">
        <ele>1183.04</ele>
        <time>2021-06-03T14:23:09Z</time>
      </trkpt>
      <trkpt lat="43.88004" lon="6.69125">
        <ele>1179.67</ele>
        <time>2021-06-03T14:23:10Z</time>
      </trkpt>
      <trkpt lat="43.88003" lon="6.69125">
        <ele>1178.71</ele>
        <time>2021-06-03T14:23:24Z</time>
      </trkpt>
      <trkpt lat="43.88" lon="6.6912">
        <ele>1180.16</ele>
        <time>2021-06-03T14:23:48Z</time>
      </trkpt>
      <trkpt lat="43.88003" lon="6.6912">
        <ele>1179.67</ele>
        <time>2021-06-03T14:24:17Z</time>
      </trkpt>
      <trkpt lat="43.88006" lon="6.6912">
        <ele>1180.16</ele>
        <time>2021-06-03T14:24:49Z</time>
      </trkpt>
      <trkpt lat="43.88003" lon="6.69118">
        <ele>1179.67</ele>
        <time>2021-06-03T14:25:24Z</time>
      </trkpt>
      <trkpt lat="43.88" lon="6.69118">
        <ele>1179.67</ele>
        <time>2021-06-03T14:25:47Z</time>
      </trkpt>
      <trkpt lat="43.88003" lon="6.69119">
        <ele>1180.16</ele>
        <time>2021-06-03T14:26:02Z</time>
      </trkpt>
      <trkpt lat="43.88004" lon="6.69119">
        <ele>1179.19</ele>
        <time>2021-06-03T14:26:24Z</time>
      </trkpt>
      <trkpt lat="43.88001" lon="6.69118">
        <ele>1179.19</ele>
        <time>2021-06-03T14:26:56Z</time>
      </trkpt>
      <trkpt lat="43.87999" lon="6.69121">
        <ele>1180.16</ele>
        <time>2021-06-03T14:27:21Z</time>
      </trkpt>
      <trkpt lat="43.87996" lon="6.6912">
        <ele>1180.16</ele>
        <time>2021-06-03T14:27:50Z</time>
      </trkpt>
      <trkpt lat="43.88001" lon="6.69119">
        <ele>1180.16</ele>
        <time>2021-06-03T14:28:10Z</time>
      </trkpt>
      <trkpt lat="43.88002" lon="6.6912">
        <ele>1179.67</ele>
        <time>2021-06-03T14:28:36Z</time>
      </trkpt>
      <trkpt lat="43.88003" lon="6.6912">
        <ele>1180.16</ele>
        <time>2021-06-03T14:28:59Z</time>
      </trkpt>
      <trkpt lat="43.88001" lon="6.69121">
        <ele>1179.19</ele>
        <time>2021-06-03T14:29:27Z</time>
      </trkpt>
      <trkpt lat="43.88003" lon="6.6912">
        <ele>1179.67</ele>
        <time>2021-06-03T14:29:51Z</time>
      </trkpt>
      <trkpt lat="43.88004" lon="6.69121">
        <ele>1179.67</ele>
        <time>2021-06-03T14:30:11Z</time>
      </trkpt>
    </trkseg>
  </trk>
</gpx>